# Wetter Temperatur Luftdruck Luftfeuchtigkeit Sichtweite Windgeschwindigkeit Windrichtung Zeit
1 Snow -20 1009 83 8047 1.17 327 22:24 24.01.2020
2 Snow -20 1009 76 6437 1.17 327 21:43 24.01.2020
3 Snow -21 1009 76 6437 1.17 327 21:20 24.01.2020
4 Snow -21 1009 76 6437 1.17 327 21:20 24.01.2020
5 Snow -21 1009 76 6437 1.17 327 20:56 24.01.2020
6 Snow -21 1009 76 12874 1.17 327 20:38 24.01.2020
7 Snow -22 1009 76 12874 0.55 318 20:19 24.01.2020
8 Snow -22 1008 69 2414 0.55 318 19:56 24.01.2020
9 Snow -22 1009 76 11265 0.55 318 19:38 24.01.2020
10 Snow -22 1009 76 11265 0.55 318 19:20 24.01.2020
11 Snow -22 1009 76 16093 0.55 318 18:43 24.01.2020
12 Snow -22 1009 76 16093 0.55 318 18:43 24.01.2020
13 Clouds -22 1009 76 16093 0.55 318 18:23 24.01.2020
14 Snow -22 1009 76 4828 0.55 318 17:46 24.01.2020
15 Snow -22 1009 69 4023 1.5 250 17:23 24.01.2020
16 Snow -22 1009 83 9656 0.71 295 16:59 24.01.2020
17 Mist -22 1009 83 8047 0.71 295 16:39 24.01.2020
18 Mist -22 1009 83 8047 0.71 295 16:20 24.01.2020
19 Clouds -22 1009 83 14484 0.71 295 15:43 24.01.2020
20 Clouds -22 1010 83 12874 0.71 295 15:22 24.01.2020
21 Clouds -22 1010 83 12874 0.71 295 15:22 24.01.2020
22 Clouds -22 1010 83 12874 0.71 295 14:56 24.01.2020
23 Clouds -22 1010 83 14484 0.71 295 14:38 24.01.2020
24 Clouds -22 1010 83 14484 0.66 261 14:19 24.01.2020
25 Clouds -23 1010 83 16093 0.66 261 13:42 24.01.2020
26 Clouds -23 1010 83 16093 0.58 286 13:23 24.01.2020
27 Snow -23 1009 76 3219 0.58 286 12:44 24.01.2020
28 Clouds -23 1010 83 16093 0.58 286 12:22 24.01.2020
29 Snow -23 1010 83 11265 0.58 286 11:45 24.01.2020
30 Snow -23 1010 83 11265 0.56 283 11:20 24.01.2020
31 Clouds -23 1010 76 14484 0.56 283 10:59 24.01.2020
32 Snow -23 1010 76 9656 0.56 283 10:41 24.01.2020
33 Snow -23 1010 76 9656 0.56 283 10:19 24.01.2020
34 Snow -23 1009 76 4828 0.56 283 09:42 24.01.2020
35 Snow -23 1009 76 4828 0.56 283 09:42 24.01.2020
36 Snow -23 1010 76 9656 0.56 283 09:24 24.01.2020
37 Snow -23 1009 69 6437 0.56 283 08:59 24.01.2020
38 Snow -23 1009 69 6437 0.56 283 08:38 24.01.2020
39 Snow -23 1009 69 6437 0.63 289 08:18 24.01.2020
40 Snow -24 1010 69 3219 1.5 30 07:43 24.01.2020
41 Snow -23 1010 69 3219 1.5 30 07:21 24.01.2020
42 Snow -24 1011 76 4828 0.63 289 06:43 24.01.2020
43 Snow -24 1011 76 4828 0.63 289 06:43 24.01.2020
44 Snow -24 1011 76 4828 0.63 289 06:23 24.01.2020
45 Snow -24 1011 75 8047 0.63 289 05:22 24.01.2020
46 Snow -24 1011 83 9656 0.6 274 03:34 24.01.2020
47 Snow -23 1011 76 9656 0.6 274 02:39 24.01.2020
48 Snow -23 1011 76 9656 0.84 243 02:20 24.01.2020
49 Snow -23 1011 69 6437 0.84 243 01:38 24.01.2020
50 Snow -23 1011 76 6437 0.79 242 00:42 24.01.2020
51 Snow -23 1011 76 6437 0.79 242 00:19 24.01.2020
52 Snow -24 1011 83 4828 0.79 242 23:41 23.01.2020
53 Snow -24 1011 83 4828 0.74 221 23:21 23.01.2020
54 Snow -24 1011 83 4828 0.74 221 22:58 23.01.2020
55 Snow -24 1011 83 4426 0.74 221 22:37 23.01.2020
56 Snow -24 1011 83 4426 0.74 221 22:37 23.01.2020
57 Snow -24 1011 83 4426 0.74 221 22:18 23.01.2020
58 Snow -24 1011 75 4828 0.74 221 21:55 23.01.2020
59 Snow -24 1011 75 4828 0.74 221 21:37 23.01.2020
60 Snow -24 1011 75 4828 0.74 221 21:19 23.01.2020
61 Snow -24 1010 69 3219 1.5 170 20:54 23.01.2020
62 Snow -24 1011 75 4828 0.74 221 20:36 23.01.2020
63 Snow -24 1011 75 4828 0.5 272 20:18 23.01.2020
64 Snow -24 1010 69 4828 0.5 272 19:42 23.01.2020
65 Snow -24 1011 75 11265 0.5 272 19:23 23.01.2020
66 Snow -24 1009 69 4828 0.5 272 18:57 23.01.2020
67 Snow -24 1009 69 4828 0.5 272 18:38 23.01.2020
68 Snow -24 1009 69 4828 0.5 272 18:19 23.01.2020
69 Snow -24 1010 69 6437 0.5 272 17:45 23.01.2020
70 Snow -24 1010 69 6437 0.42 220 17:21 23.01.2020
71 Snow -24 1009 69 6437 0.42 220 16:59 23.01.2020
72 Snow -24 1009 69 9656 0.42 220 16:39 23.01.2020
73 Snow -24 1009 69 9656 0.42 220 16:20 23.01.2020
74 Snow -25 1010 75 9656 0.42 220 15:58 23.01.2020
75 Clouds -25 1010 75 16093 0.42 220 15:39 23.01.2020
76 Clouds -24 1010 75 16093 0.42 220 15:19 23.01.2020
77 Clouds -25 1010 75 16093 0.42 220 14:58 23.01.2020
78 Snow -24 1010 75 6437 0.42 220 14:40 23.01.2020
79 Snow -24 1010 75 6437 0.42 220 14:22 23.01.2020
80 Snow -24 1010 83 6437 0.17 333 13:54 23.01.2020
81 Snow -24 1010 83 14484 0.17 333 13:36 23.01.2020
82 Snow -24 1010 83 14484 0.27 65 13:18 23.01.2020
83 Clouds -23 1009 69 16093 0.27 65 12:41 23.01.2020
84 Snow -23 1011 76 6437 0.27 65 12:22 23.01.2020
85 Snow -24 1011 83 6437 0.39 48 11:55 23.01.2020
86 Snow -24 1011 75 14484 0.27 65 11:37 23.01.2020
87 Snow -24 1011 75 14484 0.33 135 11:18 23.01.2020
88 Clouds -24 1011 83 16093 0.33 135 10:41 23.01.2020
89 Clouds -24 1011 83 16093 0.33 135 10:19 23.01.2020
90 Clouds -24 1011 83 16093 0.36 141 09:42 23.01.2020
91 Clouds -24 1011 75 16093 0.33 135 09:23 23.01.2020
92 Clouds -24 1011 83 16093 0.33 135 08:57 23.01.2020
93 Snow -24 1011 83 16093 0.33 135 08:38 23.01.2020
94 Snow -24 1011 83 16093 0.27 121 08:20 23.01.2020
95 Snow -24 1010 75 4828 0.27 121 07:42 23.01.2020
96 Snow -24 1010 75 4828 0.27 121 07:24 23.01.2020
97 Clouds -24 1009 69 11265 0.27 121 06:46 23.01.2020
98 Snow -24 1010 69 11265 0.27 121 06:19 23.01.2020
99 Snow -23 1009 69 9656 0.51 59 04:58 23.01.2020
100 Snow -23 1010 69 9656 0.51 59 04:21 23.01.2020
101 Clouds -23 1010 75 16093 0.51 59 02:31 23.01.2020
102 Clouds -22 1009 76 12874 0.22 112 00:56 23.01.2020
103 Clouds -22 1009 76 12874 0.22 112 00:26 23.01.2020
104 Clouds -22 1009 76 16093 0.22 112 23:47 22.01.2020
105 Clouds -22 1009 76 16093 0.22 112 23:29 22.01.2020
106 Clouds -22 1008 76 16093 0.36 92 22:56 22.01.2020
107 Clouds -23 1008 76 16093 0.36 92 22:38 22.01.2020
108 Clouds -22 1008 76 16093 0.36 92 22:20 22.01.2020
109 Clouds -23 1008 76 14484 0.36 92 21:39 22.01.2020
110 Clouds -23 1008 76 14484 0.36 92 21:21 22.01.2020
111 Clouds -23 1007 76 16093 0.36 92 20:56 22.01.2020
112 Clouds -23 1007 76 16093 1.5 220 20:36 22.01.2020
113 Clouds -22 1007 76 16093 1.5 220 20:18 22.01.2020
114 Clouds -22 1006 69 16093 0.34 114 19:55 22.01.2020
115 Clouds -22 1006 69 16093 0.34 114 19:37 22.01.2020
116 Clouds -22 1006 69 16093 0.34 114 19:18 22.01.2020
117 Clouds -22 1006 76 12874 0.34 114 18:55 22.01.2020
118 Clouds -22 1006 76 12874 0.34 114 18:36 22.01.2020
119 Clouds -22 1006 76 12874 0.34 114 18:18 22.01.2020
120 Clouds -22 1005 76 16093 0.34 114 17:40 22.01.2020
121 Clouds -22 1005 76 16093 0.31 53 17:21 22.01.2020
122 Snow -22 1004 76 9656 1.5 150 16:58 22.01.2020
123 Clouds -22 1005 76 16093 0.31 53 16:39 22.01.2020
124 Clouds -22 1005 76 16093 0.31 53 16:21 22.01.2020
125 Snow -23 1004 69 8047 0.31 53 15:55 22.01.2020
126 Clouds -23 1005 75 16093 0.31 53 15:37 22.01.2020
127 Clouds -23 1005 75 16093 0.31 53 15:18 22.01.2020
128 Clouds -23 1005 75 16093 0.31 53 15:18 22.01.2020
129 Clouds -25 1005 82 16093 0.31 53 14:39 22.01.2020
130 Clouds -24 1005 82 16093 0.36 87 14:20 22.01.2020
131 Clouds -24 1005 82 16093 0.36 87 14:20 22.01.2020
132 Snow -24 1004 69 16093 0.36 87 13:58 22.01.2020
133 Clouds -25 1005 75 16093 0.36 87 13:37 22.01.2020
134 Clouds -25 1005 75 16093 0.43 78 13:19 22.01.2020
135 Snow -25 1004 69 16093 0.43 78 12:57 22.01.2020
136 Clouds -25 1004 75 16093 0.43 78 12:39 22.01.2020
137 Clouds -25 1004 75 16093 0.43 78 12:19 22.01.2020
138 Clear -24 1004 83 16093 0.43 78 11:58 22.01.2020
139 Clear -24 1004 83 16093 0.43 78 11:39 22.01.2020
140 Clear -24 1004 83 16093 0.28 103 11:19 22.01.2020
141 Clear -24 1004 83 16093 0.28 103 11:19 22.01.2020
142 Clouds -23 1004 76 16093 0.28 103 10:54 22.01.2020
143 Snow -23 1004 83 16093 0.28 103 10:36 22.01.2020
144 Snow -23 1004 83 16093 0.28 103 10:18 22.01.2020
145 Clouds -23 1003 76 16093 0.28 103 09:41 22.01.2020
146 Clouds -23 1003 76 16093 0.28 103 09:23 22.01.2020
147 Clouds -23 1002 69 16093 1.5 350 08:56 22.01.2020
148 Snow -24 1003 63 16093 0.28 103 08:37 22.01.2020
149 Clouds -24 1003 83 16093 0.82 181 08:19 22.01.2020
150 Clouds -24 1003 83 16093 0.82 181 08:19 22.01.2020
151 Clouds -24 1003 69 16093 0.82 181 07:44 22.01.2020
152 Clouds -24 1003 69 16093 0.82 181 07:26 22.01.2020
153 Clouds -24 1003 75 16093 0.82 181 06:37 22.01.2020
154 Clouds -25 1003 75 16093 0.82 181 06:18 22.01.2020
155 Clouds -25 1003 75 16093 0.31 245 04:27 22.01.2020
156 Clouds -25 1003 75 14484 0.31 245 03:27 22.01.2020
157 Clouds -25 1002 68 16093 0.31 245 02:49 22.01.2020
158 Clear -25 1002 75 16093 0.71 239 01:30 22.01.2020
159 Clear -25 1003 75 16093 0.71 239 00:40 22.01.2020
160 Clear -25 1003 75 16093 0.71 239 00:19 22.01.2020
161 Clear -25 1003 75 16093 0.71 239 23:37 21.01.2020
162 Clear -25 1003 75 16093 0.35 1 23:19 21.01.2020
163 Clear -26 1003 75 16093 0.35 1 22:42 21.01.2020
164 Clear -26 1003 75 16093 0.35 1 22:24 21.01.2020
165 Clouds -26 1003 75 16093 0.35 1 21:58 21.01.2020
166 Clouds -26 1003 75 16093 0.35 1 21:39 21.01.2020
167 Clouds -27 1003 75 16093 0.35 1 21:21 21.01.2020
168 Clouds -27 1003 75 16093 0.35 1 20:58 21.01.2020
169 Clouds -27 1003 75 16093 0.35 1 20:39 21.01.2020
170 Clouds -27 1003 75 16093 0.74 22 20:20 21.01.2020
171 Clouds -26 1002 68 16093 0.74 22 19:58 21.01.2020
172 Clouds -26 1002 68 16093 0.74 22 19:39 21.01.2020
173 Clouds -27 1002 68 16093 0.74 22 19:21 21.01.2020
174 Clouds -27 1003 75 16093 0.74 22 18:57 21.01.2020
175 Clouds -27 1003 75 16093 0.74 22 18:39 21.01.2020
176 Clouds -27 1003 75 16093 0.74 22 18:20 21.01.2020
177 Clouds -27 1003 82 16093 0.74 22 17:56 21.01.2020
178 Clouds -27 1003 82 16093 0.74 22 17:38 21.01.2020
179 Clouds -27 1003 82 16093 0.47 97 17:18 21.01.2020
180 Clear -26 1003 75 16093 0.47 97 16:38 21.01.2020
181 Clear -26 1003 75 16093 0.47 97 16:19 21.01.2020
182 Clear -26 1003 75 16093 0.47 97 16:19 21.01.2020
183 Clouds -26 1003 75 16093 0.47 97 15:59 21.01.2020
184 Clouds -26 1003 75 16093 0.47 97 15:38 21.01.2020
185 Clouds -25 1003 75 16093 0.47 97 15:19 21.01.2020
186 Clouds -25 1003 83 16093 0.47 97 14:40 21.01.2020
187 Clouds -25 1003 83 16093 0.92 140 14:21 21.01.2020
188 Clouds -25 1002 76 16093 0.92 140 13:43 21.01.2020
189 Clouds -24 1002 76 16093 0.71 149 13:21 21.01.2020
190 Clouds -24 1002 76 16093 0.71 149 12:59 21.01.2020
191 Clouds -24 1002 76 16093 0.71 149 12:41 21.01.2020
192 Clouds -24 1002 76 16093 0.71 149 12:23 21.01.2020
193 Clouds -24 1002 76 16093 0.71 149 11:56 21.01.2020
194 Clouds -24 1002 76 16093 0.71 149 11:37 21.01.2020
195 Clouds -24 1002 76 16093 0.58 170 11:18 21.01.2020
196 Clouds -24 1001 83 16093 0.58 170 10:42 21.01.2020
197 Clouds -25 1001 83 16093 0.58 170 10:22 21.01.2020
198 Clouds -25 1001 83 16093 0.58 170 10:22 21.01.2020
199 Clouds -25 1000 83 16093 0.58 170 09:55 21.01.2020
200 Clouds -25 1000 83 16093 0.58 170 09:37 21.01.2020
201 Clouds -25 1000 83 16093 0.58 170 09:18 21.01.2020
202 Clouds -25 1000 83 16093 0.58 170 08:41 21.01.2020
203 Clouds -25 1000 83 16093 0.48 276 08:21 21.01.2020
204 Clouds -25 999 75 12874 0.28 289 07:43 21.01.2020
205 Clouds -25 999 75 12874 0.28 289 07:43 21.01.2020
206 Clouds -25 999 75 12874 0.28 289 07:23 21.01.2020
207 Haze -25 999 75 9656 0.28 289 06:57 21.01.2020
208 Haze -25 999 75 9656 0.28 289 06:38 21.01.2020
209 Clouds -25 998 75 16093 0.28 289 05:53 21.01.2020
210 Clouds -25 998 75 16093 0.28 289 05:32 21.01.2020
211 Clouds -25 998 83 16093 0.81 276 04:37 21.01.2020
212 Clouds -24 997 69 16093 2.1 200 02:27 21.01.2020
213 Clouds -24 997 75 16093 0.7 254 01:36 21.01.2020
214 Clear -24 997 75 16093 0.7 254 00:41 21.01.2020
215 Clear -25 997 75 16093 0.7 254 00:22 21.01.2020
216 Clear -26 997 75 16093 0.7 254 23:56 20.01.2020
217 Clear -27 997 75 16093 0.7 254 23:36 20.01.2020
218 Clear -27 997 75 16093 0.99 355 23:18 20.01.2020
219 Clear -26 997 75 16093 0.99 355 22:40 20.01.2020
220 Clear -26 997 75 16093 0.99 355 22:21 20.01.2020
221 Clouds -26 998 74 16093 0.99 355 21:58 20.01.2020
222 Clouds -26 998 74 16093 0.99 355 21:58 20.01.2020
223 Clouds -27 998 74 16093 0.99 355 21:38 20.01.2020
224 Clouds -27 998 74 16093 0.99 355 21:20 20.01.2020
225 Clear -27 998 74 16093 0.99 355 20:58 20.01.2020
226 Clear -28 998 74 16093 0.99 355 20:39 20.01.2020
227 Clear -28 998 74 16093 1.33 43 20:20 20.01.2020
228 Clear -28 998 74 16093 1.33 43 19:58 20.01.2020
229 Clear -28 998 74 16093 1.33 43 19:40 20.01.2020
230 Clear -30 998 74 16093 1.33 43 19:19 20.01.2020
231 Clear -29 999 74 16093 1.33 43 18:54 20.01.2020
232 Clear -30 999 74 16093 1.33 43 18:36 20.01.2020
233 Clear -30 999 74 16093 1.33 43 18:18 20.01.2020
234 Clear -30 999 74 16093 1.33 43 17:38 20.01.2020
235 Clear -29 999 74 16093 1.19 35 17:19 20.01.2020
236 Clear -28 1000 74 16093 1.19 35 16:45 20.01.2020
237 Clear -28 1000 74 16093 1.19 35 16:25 20.01.2020
238 Clouds -31 1001 74 16093 1.19 35 15:58 20.01.2020
239 Clouds -32 1001 74 16093 1.19 35 15:40 20.01.2020
240 Clouds -32 1001 74 16093 1.19 35 15:21 20.01.2020
241 Clear -32 1001 73 16093 1.19 35 14:56 20.01.2020
242 Clear -32 1001 73 16093 1.19 35 14:37 20.01.2020
243 Clear -32 1001 73 16093 1.08 51 14:19 20.01.2020
244 Clear -33 1002 73 16093 1.08 51 13:42 20.01.2020
245 Clear -33 1002 73 16093 1.08 51 13:23 20.01.2020
246 Clear -32 1002 67 16093 1.05 55 12:56 20.01.2020
247 Clear -32 1002 67 16093 1.05 55 12:38 20.01.2020
248 Clear -32 1002 67 16093 1.05 55 12:19 20.01.2020
249 Clear -33 1003 73 16093 1.05 55 11:43 20.01.2020
250 Clear -33 1003 73 16093 1.05 55 11:24 20.01.2020
251 Clear -34 1003 66 16093 1.23 52 10:57 20.01.2020
252 Clear -34 1003 66 16093 1.23 52 10:39 20.01.2020
253 Clear -34 1003 66 16093 1.23 52 10:20 20.01.2020
254 Clear -33 1003 73 16093 1.23 52 09:41 20.01.2020
255 Clear -33 1003 73 16093 1.23 52 09:22 20.01.2020
256 Clear -33 1003 73 16093 1.23 52 08:51 20.01.2020
257 Clear -33 1003 73 16093 1.23 52 08:31 20.01.2020
258 Clear -33 1003 73 16093 1.2 46 07:55 20.01.2020
259 Clear -34 1003 73 16093 1.2 46 07:31 20.01.2020
260 Clear -33 1003 67 16093 1.2 46 06:59 20.01.2020
261 Clear -33 1003 67 16093 1.2 46 06:59 20.01.2020
262 Clear -33 1003 67 16093 1.2 46 06:34 20.01.2020
263 Clear -33 1004 73 16093 1.2 46 05:49 20.01.2020
264 Clear -33 1004 73 16093 1.2 46 05:30 20.01.2020
265 Clear -33 1004 73 16093 1.2 46 05:30 20.01.2020
266 Clouds -34 1004 73 16093 1.01 42 04:58 20.01.2020
267 Clear -33 1004 73 16093 1.01 42 03:30 20.01.2020
268 Clear -32 1004 74 16093 0.38 42 01:58 20.01.2020
269 Clear -32 1004 74 16093 0.38 42 01:38 20.01.2020
270 Clear -32 1004 73 16093 0.64 31 00:46 20.01.2020
271 Clear -32 1004 73 16093 0.64 31 00:26 20.01.2020
272 Clear -33 1004 66 16093 0.64 31 23:54 19.01.2020
273 Clear -33 1004 66 16093 0.64 31 23:36 19.01.2020
274 Clear -33 1004 66 16093 0.83 48 23:18 19.01.2020
275 Clear -33 1004 66 16093 0.83 48 23:18 19.01.2020
276 Clear -33 1004 66 16093 0.83 48 22:54 19.01.2020
277 Clouds -33 1003 66 16093 1.5 250 22:36 19.01.2020
278 Clouds -33 1003 66 16093 1.5 250 22:18 19.01.2020
279 Clouds -34 1004 66 12874 0.83 48 21:54 19.01.2020
280 Clouds -32 1004 66 12874 0.83 48 21:36 19.01.2020
281 Clouds -32 1004 66 12874 0.83 48 21:36 19.01.2020
282 Clouds -32 1004 66 12874 0.83 48 21:18 19.01.2020
283 Clouds -35 1004 73 16093 0.83 48 20:54 19.01.2020
284 Clouds -35 1004 73 16093 0.83 48 20:36 19.01.2020
285 Clear -35 1004 73 16093 0.8 56 20:18 19.01.2020
286 Clear -35 1004 73 16093 0.87 60 19:54 19.01.2020
287 Clear -35 1004 73 16093 0.87 60 19:36 19.01.2020
288 Clear -35 1004 73 16093 0.87 60 19:18 19.01.2020
289 Clear -34 1004 73 16093 0.87 60 18:54 19.01.2020
290 Clear -34 1004 73 16093 0.87 60 18:36 19.01.2020
291 Clear -34 1004 73 16093 0.87 60 18:36 19.01.2020
292 Clear -34 1004 73 16093 0.87 60 18:18 19.01.2020
293 Clear -34 1005 73 16093 0.87 60 17:56 19.01.2020
294 Clear -34 1005 73 16093 0.87 60 17:37 19.01.2020
295 Clear -34 1005 73 16093 0.57 81 17:18 19.01.2020
296 Clear -34 1005 73 16093 0.57 81 16:54 19.01.2020
297 Clear -34 1005 73 16093 0.57 81 16:54 19.01.2020
298 Clear -33 1005 73 16093 0.57 81 16:36 19.01.2020
299 Clear -34 1005 73 16093 0.57 81 16:18 19.01.2020
300 Clear -33 1005 73 16093 0.57 81 15:40 19.01.2020
301 Clear -33 1005 73 16093 0.57 81 15:22 19.01.2020
302 Clear -34 1005 73 16093 0.57 81 14:59 19.01.2020
303 Clear -34 1005 73 16093 0.57 81 14:59 19.01.2020
304 Clear -34 1005 73 16093 0.57 81 14:59 19.01.2020
305 Clear -34 1005 73 16093 0.57 81 14:40 19.01.2020
306 Clear -34 1005 73 16093 0.69 64 14:19 19.01.2020
307 Clear -35 1006 73 16093 0.69 64 13:58 19.01.2020
308 Clear -36 1006 73 16093 0.69 64 13:38 19.01.2020
309 Clear -35 1006 73 16093 0.71 51 13:20 19.01.2020
310 Clear -35 1006 66 16093 0.71 51 12:56 19.01.2020
311 Clear -35 1006 66 16093 0.71 51 12:37 19.01.2020
312 Clear -35 1006 66 16093 0.71 51 12:19 19.01.2020
313 Clear -35 1007 73 16093 0.71 51 11:56 19.01.2020
314 Clear -35 1007 73 16093 0.71 51 11:37 19.01.2020
315 Clear -35 1007 73 16093 1.42 33 11:18 19.01.2020
316 Clear -35 1007 73 16093 1.42 33 10:39 19.01.2020
317 Clear -35 1007 73 16093 1.42 33 10:20 19.01.2020
318 Clear -34 1008 73 16093 1.42 33 09:57 19.01.2020
319 Clear -34 1008 73 16093 1.42 33 09:57 19.01.2020
320 Clear -34 1008 73 16093 1.42 33 09:38 19.01.2020
321 Clear -34 1008 73 16093 1.42 33 09:19 19.01.2020
322 Clear -34 1008 66 16093 1.42 33 08:55 19.01.2020
323 Clear -34 1008 66 16093 1.42 33 08:32 19.01.2020
324 Clear -35 1008 73 16093 1.51 36 07:54 19.01.2020
325 Clear -34 1008 73 16093 1.51 36 07:28 19.01.2020
326 Clear -34 1009 73 16093 1.51 36 06:55 19.01.2020
327 Clear -34 1009 73 16093 1.51 36 06:22 19.01.2020
328 Clear -33 1009 60 16093 1.51 39 03:55 19.01.2020
329 Clear -32 1010 74 16093 1.51 39 02:33 19.01.2020
330 Clear -31 1011 74 16093 0.6 4 01:39 19.01.2020
331 Clear -31 1011 74 16093 0.18 180 01:20 19.01.2020
332 Clear -31 1014 77 0 0.18 180 00:44 19.01.2020
333 Clear -31 1012 74 16093 0.18 180 00:20 19.01.2020
334 Clear -31 1012 74 16093 0.18 180 23:47 18.01.2020
335 Clear -31 1012 74 16093 0.18 180 23:25 18.01.2020
336 Clear -32 1012 67 16093 0.98 28 22:59 18.01.2020
337 Clear -32 1012 67 16093 0.98 28 22:41 18.01.2020
338 Clear -32 1012 67 16093 0.98 28 22:21 18.01.2020
339 Clear -30 1013 73 16093 0.98 28 21:58 18.01.2020
340 Clear -30 1013 73 16093 0.98 28 21:38 18.01.2020
341 Clear -30 1013 73 16093 0.98 28 21:20 18.01.2020
342 Clear -30 1013 73 16093 0.98 28 20:56 18.01.2020
343 Clear -30 1013 73 16093 0.98 28 20:38 18.01.2020
344 Clear -31 1013 73 16093 1.12 35 20:18 18.01.2020
345 Clear -29 1013 73 16093 0.91 40 19:43 18.01.2020
346 Clear -30 1013 73 16093 0.91 40 19:24 18.01.2020
347 Clear -31 1014 73 16093 0.91 40 18:43 18.01.2020
348 Clear -31 1014 73 16093 0.91 40 18:25 18.01.2020
349 Clear -31 1014 73 16093 0.91 40 18:25 18.01.2020
350 Clear -30 1014 73 16093 0.91 40 17:59 18.01.2020
351 Clear -31 1014 73 16093 0.91 40 17:40 18.01.2020
352 Clear -30 1014 73 16093 0.37 5 17:20 18.01.2020
353 Clear -29 1015 66 16093 0.37 5 16:57 18.01.2020
354 Clear -32 1015 66 16093 0.37 5 16:38 18.01.2020
355 Clear -32 1015 66 16093 0.37 5 16:38 18.01.2020
356 Clear -32 1015 66 16093 0.37 5 16:19 18.01.2020
357 Clear -33 1015 73 16093 0.37 5 15:44 18.01.2020
358 Clear -29 1015 73 16093 0.37 5 15:26 18.01.2020
359 Clear -27 1016 74 16093 0.37 5 14:59 18.01.2020
360 Clear -29 1016 74 16093 0.37 5 14:40 18.01.2020
361 Clear -28 1016 74 16093 0.92 58 14:19 18.01.2020
362 Clear -28 1016 74 16093 0.92 58 13:56 18.01.2020
363 Clear -33 1016 74 16093 0.92 58 13:36 18.01.2020
364 Clear -33 1016 74 16093 0.43 41 13:18 18.01.2020
365 Clear -32 1016 74 16093 0.43 41 12:41 18.01.2020
366 Clear -29 1016 74 16093 0.43 41 12:21 18.01.2020
367 Clear -28 1016 74 16093 0.43 41 11:56 18.01.2020
368 Clear -28 1016 74 16093 0.43 41 11:37 18.01.2020
369 Clear -26 1016 74 16093 1.14 55 11:19 18.01.2020
370 Clear -27 1017 74 16093 1.14 55 10:41 18.01.2020
371 Clear -29 1017 74 16093 1.14 55 10:20 18.01.2020
372 Clear -29 1017 74 16093 1.14 55 10:20 18.01.2020
373 Clear -28 1017 74 16093 1.14 55 09:50 18.01.2020
374 Clear -28 1017 74 16093 1.14 55 09:32 18.01.2020
375 Clear -28 1017 74 16093 1.14 55 08:59 18.01.2020
376 Clear -28 1017 74 16093 1.14 55 08:41 18.01.2020
377 Clear -29 1017 74 16093 0.88 61 08:20 18.01.2020
378 Clear -29 1017 74 16093 0.88 61 07:52 18.01.2020
379 Clear -31 1017 74 16093 0.88 61 07:32 18.01.2020
380 Clear -28 1018 74 16093 0.88 61 06:48 18.01.2020
381 Clear -29 1018 74 16093 0.88 61 06:19 18.01.2020
382 Clear -28 1018 74 16093 0.88 61 05:30 18.01.2020
383 Clear -31 1018 74 12874 1.27 19 03:39 18.01.2020
384 Clear -26 1018 82 16093 0.52 111 02:20 18.01.2020
385 Clear -24 1019 75 16093 0.52 111 01:36 18.01.2020
386 Clear -29 1019 75 16093 0.15 136 00:38 18.01.2020
387 Clear -29 1019 75 16093 0.15 136 00:19 18.01.2020
388 Clear -26 1020 74 16093 0.15 136 23:44 17.01.2020
389 Clear -30 1020 74 16093 0.66 90 23:20 17.01.2020
390 Clear -30 1020 74 16093 0.66 90 22:59 17.01.2020
391 Clear -31 1020 74 16093 0.66 90 22:40 17.01.2020
392 Clear -31 1020 74 16093 0.66 90 22:19 17.01.2020
393 Clear -31 1020 74 16093 0.66 90 21:42 17.01.2020
394 Clear -31 1020 74 16093 0.66 90 21:24 17.01.2020
395 Clear -31 1020 74 14484 0.66 90 20:59 17.01.2020
396 Clear -31 1020 74 14484 0.66 90 20:40 17.01.2020
397 Clear -31 1020 74 14484 0.73 87 20:20 17.01.2020
398 Clear -31 1020 74 14484 0.73 87 20:20 17.01.2020
399 Clear -28 1020 82 11265 0.73 87 19:57 17.01.2020
400 Clear -27 1020 82 11265 0.73 87 19:38 17.01.2020
401 Clear -31 1020 82 11265 0.73 87 19:19 17.01.2020
402 Clear -31 1020 74 16093 0.73 87 18:57 17.01.2020
403 Clear -31 1020 74 16093 0.73 87 18:37 17.01.2020
404 Clear -28 1020 74 16093 0.73 87 18:19 17.01.2020
405 Clear -27 1021 82 16093 0.73 87 17:39 17.01.2020
406 Clear -30 1021 82 16093 0.53 96 17:21 17.01.2020
407 Clear -29 1021 75 16093 0.53 96 16:44 17.01.2020
408 Clear -29 1021 75 16093 0.53 96 16:21 17.01.2020
409 Clear -29 1021 82 16093 0.53 96 15:58 17.01.2020
410 Clear -27 1021 82 16093 0.53 96 15:58 17.01.2020
411 Clear -27 1021 82 16093 0.53 96 15:40 17.01.2020
412 Clear -26 1021 82 16093 0.53 96 15:22 17.01.2020
413 Clear -25 1021 83 16093 0.53 96 14:43 17.01.2020
414 Clear -26 1021 83 16093 0.77 64 14:25 17.01.2020
415 Clear -26 1022 82 16093 0.77 64 13:46 17.01.2020
416 Clear -28 1022 82 16093 0.91 65 13:23 17.01.2020
417 Clear -27 1022 76 16093 0.91 65 12:56 17.01.2020
418 Clear -27 1022 76 16093 0.91 65 12:37 17.01.2020
419 Clear -27 1022 76 16093 0.91 65 12:18 17.01.2020
420 Clear -27 1022 76 16093 2.1 90 11:38 17.01.2020
421 Clear -27 1022 76 16093 2.1 90 11:18 17.01.2020
422 Clear -27 1023 83 16093 5.1 60 10:42 17.01.2020
423 Clear -27 1023 83 16093 5.1 60 10:22 17.01.2020
424 Clear -27 1023 83 16093 1.23 74 09:58 17.01.2020
425 Clear -27 1023 83 16093 1.23 74 09:38 17.01.2020
426 Clear -27 1023 83 16093 1.23 74 09:19 17.01.2020
427 Clear -26 1024 83 16093 1.23 74 08:43 17.01.2020
428 Clear -26 1024 83 16093 1.11 83 08:24 17.01.2020
429 Clear -25 1024 68 16093 2.1 0 07:53 17.01.2020
430 Clear -25 1024 68 16093 2.1 0 07:31 17.01.2020
431 Clear -25 1024 76 16093 3.6 50 06:57 17.01.2020
432 Clear -25 1024 76 16093 3.6 50 06:38 17.01.2020
433 Clear -24 1025 77 16093 5.7 60 05:38 17.01.2020
434 Clear -21 1022 84 0 0.45 50 03:39 17.01.2020
435 Clear -19 1022 85 0 1.15 81 02:47 17.01.2020
436 Clear -18 1029 84 0 0.87 58 01:47 17.01.2020
437 Clear -18 1029 84 0 0.87 58 01:28 17.01.2020
438 Clear -18 1029 83 0 0.86 59 00:48 17.01.2020
439 Clear -23 1028 76 16093 4.1 70 00:23 17.01.2020
440 Clear -24 1028 76 16093 4.1 70 23:44 16.01.2020
441 Clear -25 1028 76 16093 4.1 70 23:25 16.01.2020
442 Clear -25 1029 83 16093 3.6 80 22:56 16.01.2020
443 Clear -26 1029 83 16093 3.6 80 22:38 16.01.2020
444 Clear -27 1029 83 16093 3.6 80 22:19 16.01.2020
445 Haze -27 1028 60 9656 1.22 70 21:54 16.01.2020
446 Clear -27 1029 83 16093 5.7 70 21:36 16.01.2020
447 Clear -27 1029 83 16093 5.7 70 21:18 16.01.2020
448 Clear -26 1029 83 16093 3.6 60 20:40 16.01.2020
449 Clear -26 1029 83 16093 3.6 60 20:21 16.01.2020
450 Haze -28 1029 67 8047 1.47 64 19:58 16.01.2020
451 Clear -27 1030 76 16093 1.47 64 19:40 16.01.2020
452 Clear -27 1030 76 16093 1.47 64 19:22 16.01.2020
453 Clear -27 1031 83 16093 2.6 60 18:57 16.01.2020
454 Clear -27 1031 83 16093 2.6 60 18:37 16.01.2020
455 Clear -27 1031 83 16093 2.6 60 18:19 16.01.2020
456 Clear -26 1031 76 16093 2.6 70 17:58 16.01.2020
457 Clear -26 1031 76 16093 2.6 70 17:39 16.01.2020
458 Clear -27 1031 76 16093 2.6 70 17:20 16.01.2020
459 Clear -25 1032 76 16093 2.6 70 16:41 16.01.2020
460 Clear -26 1032 76 16093 2.6 70 16:23 16.01.2020
461 Clear -25 1033 76 16093 2.6 70 15:58 16.01.2020
462 Clear -26 1033 76 16093 2.6 70 15:39 16.01.2020
463 Clear -26 1033 76 16093 2.6 70 15:39 16.01.2020
464 Clear -26 1033 76 16093 2.6 70 15:20 16.01.2020
465 Clear -27 1033 83 16093 4.1 60 14:44 16.01.2020
466 Clear -27 1033 83 16093 4.1 60 14:24 16.01.2020
467 Clear -26 1034 76 16093 4.6 70 13:56 16.01.2020
468 Clear -26 1034 76 16093 4.6 70 13:37 16.01.2020
469 Clear -26 1034 76 16093 4.6 70 13:19 16.01.2020
470 Clear -26 1035 83 16093 4.1 70 12:42 16.01.2020
471 Clear -26 1035 83 16093 4.1 70 12:22 16.01.2020
472 Clear -26 1036 83 16093 2.1 70 11:43 16.01.2020
473 Clear -25 1036 83 16093 2.1 70 11:24 16.01.2020
474 Clear -24 1036 83 16093 2.6 70 10:59 16.01.2020
475 Clear -26 1036 83 16093 2.6 70 10:38 16.01.2020
476 Clear -26 1036 83 16093 2.6 70 10:20 16.01.2020
477 Clear -24 1037 83 16093 2.1 70 09:56 16.01.2020
478 Clear -24 1037 83 16093 2.1 70 09:37 16.01.2020
479 Clear -25 1037 83 16093 2.1 70 09:18 16.01.2020
480 Clear -25 1037 83 16093 3.1 50 08:44 16.01.2020
481 Clear -25 1037 83 16093 3.1 50 08:23 16.01.2020
482 Clear -24 1038 83 16093 3.6 70 07:43 16.01.2020
483 Clear -24 1038 83 16093 3.6 70 07:25 16.01.2020
484 Clear -24 1038 76 16093 4.6 70 06:56 16.01.2020
485 Clear -22 1038 76 16093 4.6 70 06:37 16.01.2020
486 Clear -23 1039 76 16093 3.1 60 05:56 16.01.2020
487 Clear -23 1039 76 16093 3.1 60 05:56 16.01.2020
488 Clear -23 1039 76 16093 3.1 60 05:31 16.01.2020
489 Clear -22 1039 83 16093 2.6 60 04:37 16.01.2020
490 Clear -21 1040 84 16093 3.6 50 03:28 16.01.2020
491 Clear -21 1040 91 16093 3.1 60 02:29 16.01.2020
492 Clouds -17 1041 77 16093 2.6 60 00:48 16.01.2020
493 Clouds -17 1041 77 16093 2.6 60 00:24 16.01.2020
494 Clouds -16 1041 77 16093 2.1 40 23:48 15.01.2020
495 Clouds -16 1042 84 16093 1.77 32 23:23 15.01.2020
496 Clouds -17 1042 84 16093 1.69 33 22:57 15.01.2020
497 Clouds -17 1042 84 16093 1.69 33 22:39 15.01.2020
498 Clouds -17 1042 84 16093 1.69 33 22:19 15.01.2020
499 Clouds -16 1042 84 11265 1.69 33 21:57 15.01.2020
500 Clouds -16 1042 84 11265 1.69 33 21:37 15.01.2020
501 Clouds -16 1042 84 11265 1.69 33 21:19 15.01.2020
502 Clouds -17 1041 84 16093 1.69 33 20:57 15.01.2020
503 Snow -16 1041 84 9656 1.69 33 20:39 15.01.2020
504 Snow -16 1041 84 9656 1.27 49 20:20 15.01.2020
505 Clouds -16 1040 77 16093 1.27 49 19:55 15.01.2020
506 Snow -16 1041 84 11265 1.27 49 19:37 15.01.2020
507 Snow -16 1041 84 11265 1.27 49 19:19 15.01.2020
508 Snow -16 1041 91 9656 1.27 49 18:56 15.01.2020
509 Clouds -16 1041 84 16093 1.27 49 18:38 15.01.2020
510 Clouds -16 1041 84 16093 1.27 49 18:38 15.01.2020
511 Clouds -16 1041 84 16093 1.27 49 18:19 15.01.2020
512 Snow -16 1041 91 9656 1.27 49 17:57 15.01.2020
513 Snow -16 1041 91 9656 1.27 49 17:38 15.01.2020
514 Snow -16 1041 91 9656 0.77 75 17:19 15.01.2020
515 Snow -16 1040 84 8047 0.77 75 16:41 15.01.2020
516 Snow -16 1040 84 8047 0.77 75 16:22 15.01.2020
517 Snow -16 1040 77 4023 0.77 75 15:58 15.01.2020
518 Snow -16 1040 84 6437 0.77 75 15:39 15.01.2020
519 Snow -16 1040 84 6437 0.77 75 15:20 15.01.2020
520 Snow -16 1040 84 3219 0.77 75 14:43 15.01.2020
521 Snow -16 1040 84 3219 0.56 121 14:20 15.01.2020
522 Snow -16 1039 77 3219 1.5 160 13:55 15.01.2020
523 Snow -16 1039 84 6437 0.56 121 13:37 15.01.2020
524 Snow -16 1039 84 6437 0.53 125 13:18 15.01.2020
525 Snow -16 1039 77 8047 2.1 140 12:41 15.01.2020
526 Snow -16 1039 84 11265 0.53 125 12:20 15.01.2020
527 Snow -17 1039 84 11265 0.53 125 11:59 15.01.2020
528 Snow -17 1039 84 14484 0.53 125 11:38 15.01.2020
529 Snow -17 1039 84 14484 0.61 126 11:19 15.01.2020
530 Snow -17 1038 77 14484 0.61 126 10:46 15.01.2020
531 Snow -17 1039 84 6437 0.61 126 10:28 15.01.2020
532 Snow -17 1038 84 9656 0.61 126 09:55 15.01.2020
533 Snow -17 1038 84 8047 0.61 126 09:37 15.01.2020
534 Snow -17 1038 84 8047 0.61 126 09:19 15.01.2020
535 Snow -17 1038 84 6437 0.61 126 08:41 15.01.2020
536 Snow -17 1038 84 8047 0.56 84 08:23 15.01.2020
537 Snow -17 1038 84 11265 0.87 127 07:54 15.01.2020
538 Snow -17 1038 77 8047 0.87 127 07:32 15.01.2020
539 Snow -17 1038 84 6437 0.87 127 06:48 15.01.2020
540 Snow -18 1038 91 14484 0.87 127 06:23 15.01.2020
541 Snow -17 1037 84 12874 0.9 127 04:45 15.01.2020
542 Snow -17 1036 84 8047 0.9 127 02:39 15.01.2020
543 Snow -17 1035 84 14484 0.65 132 01:28 15.01.2020
544 Clouds -17 1035 77 16093 0.65 132 00:59 15.01.2020
545 Clouds -17 1035 84 16093 0.65 132 00:36 15.01.2020
546 Clouds -17 1035 84 16093 0.65 132 00:18 15.01.2020
547 Clouds -17 1034 77 12874 2.1 120 23:45 14.01.2020
548 Clouds -17 1035 84 16093 0.73 163 23:24 14.01.2020
549 Clouds -17 1034 84 16093 0.73 163 22:41 14.01.2020
550 Snow -17 1034 84 6437 0.73 163 22:20 14.01.2020
551 Snow -17 1033 84 2012 0.73 163 21:59 14.01.2020
552 Snow -17 1033 77 1207 0.73 163 21:41 14.01.2020
553 Snow -17 1033 77 1207 0.73 163 21:23 14.01.2020
554 Snow -17 1033 84 3017 0.73 163 21:00 14.01.2020
555 Snow -17 1031 70 12874 0.73 163 20:41 14.01.2020
556 Snow -17 1031 70 12874 0.69 157 20:21 14.01.2020
557 Snow -17 1031 70 12874 0.69 157 19:56 14.01.2020
558 Snow -17 1031 84 8047 0.69 157 19:38 14.01.2020
559 Snow -17 1031 84 8047 0.69 157 19:19 14.01.2020
560 Snow -17 1030 84 3621 1.5 110 18:56 14.01.2020
561 Snow -17 1030 84 6437 0.69 157 18:38 14.01.2020
562 Snow -17 1030 84 6437 0.69 157 18:19 14.01.2020
563 Snow -17 1030 84 6437 0.69 157 17:39 14.01.2020
564 Snow -17 1030 84 6437 0.68 151 17:19 14.01.2020
565 Snow -17 1030 84 3621 0.68 151 16:56 14.01.2020
566 Snow -17 1030 84 4828 0.68 151 16:38 14.01.2020
567 Snow -17 1030 84 4828 0.68 151 16:20 14.01.2020
568 Snow -17 1029 84 3621 0.68 151 15:54 14.01.2020
569 Snow -17 1029 84 4828 0.68 151 15:36 14.01.2020
570 Snow -17 1029 84 4828 0.68 151 15:18 14.01.2020
571 Snow -17 1029 84 3621 0.68 151 14:41 14.01.2020
572 Snow -17 1029 84 9656 0.53 96 14:20 14.01.2020
573 Snow -17 1029 84 3017 0.53 96 13:42 14.01.2020
574 Snow -17 1029 84 3017 0.48 90 13:20 14.01.2020
575 Snow -17 1029 77 2816 2.1 40 12:57 14.01.2020
576 Snow -18 1029 91 8047 0.48 90 12:39 14.01.2020
577 Snow -18 1029 91 8047 0.48 90 12:20 14.01.2020
578 Snow -18 1029 91 8047 0.48 90 12:20 14.01.2020
579 Snow -17 1029 84 4023 0.48 90 11:42 14.01.2020
580 Snow -17 1029 84 9656 0.48 90 11:22 14.01.2020
581 Snow -17 1029 84 11265 0.6 100 10:57 14.01.2020
582 Snow -17 1029 84 14484 0.6 100 10:38 14.01.2020
583 Snow -18 1029 84 14484 0.6 100 10:19 14.01.2020
584 Snow -18 1029 77 8047 0.6 100 09:56 14.01.2020
585 Snow -18 1029 84 8047 0.6 100 09:38 14.01.2020
586 Snow -18 1029 84 8047 0.6 100 09:19 14.01.2020
587 Clouds -18 1028 77 16093 0.6 100 08:41 14.01.2020
588 Clouds -18 1028 77 16093 0.57 105 08:22 14.01.2020
589 Clouds -18 1028 77 16093 0.62 125 07:53 14.01.2020
590 Snow -18 1029 84 14484 0.62 125 07:26 14.01.2020
591 Snow -18 1029 84 6437 0.62 125 06:50 14.01.2020
592 Snow -18 1029 84 6437 0.62 125 06:18 14.01.2020
593 Snow -18 1029 84 12874 0.55 70 04:58 14.01.2020
594 Snow -19 1029 84 11265 0.55 70 03:48 14.01.2020
595 Snow -19 1029 84 6437 0.55 70 02:41 14.01.2020
596 Snow -19 1029 84 8047 0.59 74 01:34 14.01.2020
597 Snow -19 1029 84 9656 0.59 74 00:49 14.01.2020
598 Snow -19 1029 84 4828 0.59 74 00:27 14.01.2020
599 Snow -19 1030 84 3219 0.59 74 23:48 13.01.2020
600 Snow -19 1029 77 2414 0.77 64 23:19 13.01.2020
601 Snow -20 1029 76 4023 0.77 64 22:59 13.01.2020
602 Clouds -20 1030 76 16093 0.77 64 22:40 13.01.2020
603 Clouds -20 1030 76 16093 0.77 64 22:20 13.01.2020
604 Clouds -20 1030 70 16093 0.77 64 21:56 13.01.2020
605 Clouds -20 1030 70 14484 0.77 64 21:37 13.01.2020
606 Clouds -20 1030 70 14484 0.77 64 21:18 13.01.2020
607 Clouds -21 1030 76 11265 0.77 64 20:57 13.01.2020
608 Clouds -21 1030 76 11265 0.77 64 20:38 13.01.2020
609 Clouds -21 1030 76 11265 0.82 158 20:20 13.01.2020
610 Snow -21 1030 76 6437 0.82 158 19:56 13.01.2020
611 Snow -21 1030 76 6437 0.82 158 19:37 13.01.2020
612 Snow -21 1030 76 6437 0.82 158 19:18 13.01.2020
613 Snow -22 1030 76 16093 0.82 158 18:55 13.01.2020
614 Snow -22 1030 76 16093 0.82 158 18:36 13.01.2020
615 Snow -22 1030 76 16093 0.82 158 18:18 13.01.2020
616 Snow -22 1029 69 9656 2.1 40 17:40 13.01.2020
617 Snow -22 1029 69 9656 2.1 40 17:21 13.01.2020
618 Snow -22 1029 63 3219 1.5 50 16:56 13.01.2020
619 Clouds -21 1029 68 0 0.49 140 16:37 13.01.2020
620 Clouds -22 1029 68 0 0.49 140 16:18 13.01.2020
621 Clouds -22 1032 74 0 0.49 140 15:43 13.01.2020
622 Clouds -21 1031 74 0 0.49 140 15:22 13.01.2020
623 Clouds -21 1031 74 0 0.49 140 15:22 13.01.2020
624 Clouds -22 1031 74 0 0.49 140 14:57 13.01.2020
625 Clouds -22 1028 68 0 0.49 140 14:37 13.01.2020
626 Clouds -22 1028 68 0 0.49 140 14:37 13.01.2020
627 Clouds -24 1032 80 0 0.72 95 14:18 13.01.2020
628 Clouds -24 1032 80 0 0.72 95 13:41 13.01.2020
629 Clouds -22 995 75 0 0.68 101 13:22 13.01.2020
630 Clouds -24 1026 68 16093 0.68 101 12:58 13.01.2020
631 Clouds -24 1026 68 16093 0.68 101 12:40 13.01.2020
632 Clouds -24 1026 68 16093 0.68 101 12:40 13.01.2020
633 Clouds -25 1026 68 16093 0.68 101 12:21 13.01.2020
634 Clouds -25 1026 68 16093 0.68 101 11:56 13.01.2020
635 Clouds -26 1027 75 16093 0.68 101 11:36 13.01.2020
636 Clouds -28 1027 75 16093 0.42 147 11:18 13.01.2020
637 Clouds -30 1026 67 16093 0.42 147 10:55 13.01.2020
638 Clouds -30 1026 67 16093 0.42 147 10:36 13.01.2020
639 Clouds -29 1026 67 16093 0.42 147 10:18 13.01.2020
640 Clouds -34 1026 66 16093 0.42 147 09:40 13.01.2020
641 Clouds -34 1026 66 16093 0.42 147 09:22 13.01.2020
642 Clouds -35 1025 66 14484 0.42 147 08:42 13.01.2020
643 Clear -35 1025 66 14484 0.48 82 08:21 13.01.2020
644 Clear -35 1025 73 16093 0.48 82 07:57 13.01.2020
645 Clear -35 1025 73 16093 0.48 82 07:38 13.01.2020
646 Clear -35 1025 66 16093 0.48 82 06:55 13.01.2020
647 Clear -35 1025 66 16093 0.48 82 06:36 13.01.2020
648 Clear -35 1025 66 16093 0.48 82 06:36 13.01.2020
649 Clear -35 1024 66 16093 0.48 82 05:36 13.01.2020
650 Clear -35 1023 73 16093 0.18 261 04:25 13.01.2020
651 Clear -35 1023 66 16093 0.18 261 03:34 13.01.2020
652 Clear -34 1022 73 16093 0.18 261 02:49 13.01.2020
653 Clear -34 1022 73 16093 0.18 261 02:29 13.01.2020
654 Clear -34 1022 66 16093 0.17 292 01:32 13.01.2020
655 Clear -33 1022 73 16093 0.17 292 00:43 13.01.2020
656 Clear -33 1022 73 16093 0.17 292 00:24 13.01.2020
657 Clouds -34 1021 60 16093 0.17 292 23:56 12.01.2020
658 Clear -35 1022 66 16093 0.17 292 23:37 12.01.2020
659 Clear -35 1022 66 16093 1.32 44 23:19 12.01.2020
660 Clear -35 1022 73 16093 1.32 44 22:42 12.01.2020
661 Clear -36 1022 73 16093 1.32 44 22:24 12.01.2020
662 Fog -36 1021 69 16093 1.32 44 21:58 12.01.2020
663 Fog -36 1021 69 16093 1.32 44 21:39 12.01.2020
664 Fog -36 1021 69 16093 1.32 44 21:20 12.01.2020
665 Clear -37 1022 65 16093 1.32 44 20:57 12.01.2020
666 Clear -36 1022 65 16093 1.32 44 20:39 12.01.2020
667 Clear -36 1022 65 16093 1.41 46 20:20 12.01.2020
668 Clear -37 1022 65 16093 1.41 46 19:56 12.01.2020
669 Clear -32 1022 65 16093 1.41 46 19:38 12.01.2020
670 Clear -33 1022 65 16093 1.41 46 19:19 12.01.2020
671 Clear -37 1022 73 16093 1.41 46 18:57 12.01.2020
672 Clear -37 1022 73 16093 1.41 46 18:57 12.01.2020
673 Clear -37 1022 73 16093 1.41 46 18:39 12.01.2020
674 Clear -37 1022 73 16093 1.41 46 18:21 12.01.2020
675 Clear -36 1023 66 16093 1.41 46 17:57 12.01.2020
676 Clear -36 1023 66 16093 1.41 46 17:38 12.01.2020
677 Clear -36 1023 66 16093 1.67 58 17:19 12.01.2020
678 Clear -37 1024 73 16093 1.67 58 16:55 12.01.2020
679 Clear -37 1024 73 16093 1.67 58 16:37 12.01.2020
680 Clear -37 1024 73 16093 1.67 58 16:18 12.01.2020
681 Clear -36 1025 66 16093 1.67 58 15:42 12.01.2020
682 Clear -36 1025 66 16093 1.67 58 15:24 12.01.2020
683 Clear -37 1026 73 16093 1.67 58 14:57 12.01.2020
684 Clear -37 1026 73 16093 1.67 58 14:38 12.01.2020
685 Clear -37 1026 73 16093 1.26 56 14:19 12.01.2020
686 Clear -34 1027 65 16093 1.26 56 13:43 12.01.2020
687 Clear -37 1027 65 16093 1.47 60 13:24 12.01.2020
688 Clear -37 1027 65 16093 1.47 60 12:58 12.01.2020
689 Clear -37 1027 65 16093 1.47 60 12:39 12.01.2020
690 Clear -37 1027 65 16093 1.47 60 12:20 12.01.2020
691 Clear -36 1028 65 16093 1.47 60 11:58 12.01.2020
692 Clear -36 1028 65 16093 1.47 60 11:38 12.01.2020
693 Clear -36 1028 65 16093 1.78 44 11:19 12.01.2020
694 Clear -36 1028 65 16093 1.78 44 10:41 12.01.2020
695 Clear -36 1028 65 16093 1.78 44 10:41 12.01.2020
696 Clear -36 1028 65 16093 1.78 44 10:22 12.01.2020
697 Clear -36 1029 73 16093 1.78 44 09:57 12.01.2020
698 Clear -36 1029 73 16093 1.78 44 09:38 12.01.2020
699 Clear -36 1029 73 16093 1.78 44 09:18 12.01.2020
700 Clear -36 1029 66 16093 1.78 44 08:44 12.01.2020
701 Clear -33 1029 66 16093 1.12 62 08:20 12.01.2020
702 Clear -33 1030 73 16093 1.12 62 07:40 12.01.2020
703 Clear -34 1030 73 16093 1.12 62 07:22 12.01.2020
704 Clear -34 1030 65 16093 1.12 62 06:48 12.01.2020
705 Clear -36 1030 65 16093 1.12 62 06:29 12.01.2020
706 Clear -36 1031 65 16093 1.12 62 05:32 12.01.2020
707 Clear -35 1031 66 16093 0.77 61 04:27 12.01.2020
708 Clear -36 1030 73 16093 0.77 61 03:25 12.01.2020
709 Clear -36 1030 73 16093 0.77 61 02:34 12.01.2020
710 Clear -35 1030 66 16093 0.82 63 01:51 12.01.2020
711 Clear -32 1030 66 16093 1.08 59 01:29 12.01.2020
712 Clear -35 1029 66 16093 1.08 59 00:41 12.01.2020
713 Clear -35 1029 66 16093 1.08 59 00:20 12.01.2020
714 Clear -36 1029 66 16093 1.08 59 23:42 11.01.2020
715 Clear -36 1029 66 16093 1.08 59 23:42 11.01.2020
716 Clear -36 1029 66 16093 0.83 85 23:20 11.01.2020
717 Clear -36 1029 65 16093 0.83 85 22:59 11.01.2020
718 Clear -34 1029 65 16093 0.83 85 22:41 11.01.2020
719 Clear -36 1029 65 16093 0.83 85 22:21 11.01.2020
720 Clouds -34 1028 84 16093 1.5 40 21:59 11.01.2020
721 Clouds -35 1028 84 16093 1.5 40 21:41 11.01.2020
722 Clear -32 1029 65 16093 0.83 85 21:18 11.01.2020
723 Clear -33 1028 65 16093 0.83 85 20:55 11.01.2020
724 Clear -33 1028 65 16093 0.83 85 20:36 11.01.2020
725 Clear -33 1028 65 16093 0.44 116 20:18 11.01.2020
726 Clear -32 1027 65 16093 0.49 100 19:54 11.01.2020
727 Clear -33 1027 65 16093 0.49 100 19:36 11.01.2020
728 Clear -34 1027 65 16093 0.49 100 19:18 11.01.2020
729 Clear -35 1027 65 16093 0.49 100 18:39 11.01.2020
730 Clear -34 1027 65 16093 0.49 100 18:20 11.01.2020
731 Clear -34 1027 65 16093 0.49 100 18:20 11.01.2020
732 Clear -34 1026 52 16093 0.49 100 17:58 11.01.2020
733 Clear -34 1026 65 16093 0.49 100 17:40 11.01.2020
734 Clear -33 1026 65 16093 0.38 92 17:20 11.01.2020
735 Clear -34 1026 65 16093 0.38 92 16:55 11.01.2020
736 Clear -34 1026 65 16093 0.38 92 16:55 11.01.2020
737 Clear -34 1026 65 16093 0.38 92 16:36 11.01.2020
738 Clear -34 1026 65 16093 0.38 92 16:36 11.01.2020
739 Clear -34 1026 65 16093 0.38 92 16:18 11.01.2020
740 Clear -33 1025 65 16093 0.38 92 15:41 11.01.2020
741 Clear -33 1025 65 16093 0.38 92 15:23 11.01.2020
742 Clear -36 1025 65 16093 0.38 92 14:58 11.01.2020
743 Clear -35 1025 65 16093 0.38 92 14:40 11.01.2020
744 Clear -35 1025 65 16093 0.61 98 14:21 11.01.2020
745 Clear -34 1025 65 16093 0.61 98 13:55 11.01.2020
746 Clear -34 1025 65 16093 0.61 98 13:36 11.01.2020
747 Clear -34 1025 65 16093 0.64 130 13:18 11.01.2020
748 Mist -35 1024 58 9656 0.64 130 12:41 11.01.2020
749 Clear -33 1025 65 16093 0.64 130 12:23 11.01.2020
750 Clear -33 1025 65 16093 0.64 130 11:48 11.01.2020
751 Clear -35 1025 65 16093 0.64 130 11:27 11.01.2020
752 Clear -34 1025 65 16093 1.28 65 10:59 11.01.2020
753 Clear -35 1025 65 16093 1.28 65 10:40 11.01.2020
754 Clear -35 1025 65 16093 1.28 65 10:40 11.01.2020
755 Clear -33 1025 65 16093 1.28 65 10:22 11.01.2020
756 Clouds -34 1025 65 16093 1.28 65 09:39 11.01.2020
757 Clouds -37 1025 65 16093 1.28 65 09:21 11.01.2020
758 Clouds -37 1025 65 16093 1.28 65 08:43 11.01.2020
759 Clouds -37 1025 65 16093 1.07 77 08:22 11.01.2020
760 Clouds -37 1025 65 16093 1.01 77 07:44 11.01.2020
761 Clouds -37 1025 65 16093 1.01 77 07:26 11.01.2020
762 Clouds -37 1025 65 16093 1.01 77 06:52 11.01.2020
763 Clouds -36 1025 65 16093 1.01 77 06:19 11.01.2020
764 Clouds -35 1026 65 16093 1.12 74 04:48 11.01.2020
765 Clouds -35 1026 65 16093 1.12 74 04:29 11.01.2020
766 Clear -36 1026 65 16093 1.12 74 03:28 11.01.2020
767 Clouds -36 1026 73 16093 1.12 74 02:40 11.01.2020
768 Clear -32 1026 90 16093 2.1 50 01:44 11.01.2020
769 Clear -33 1026 89 16093 2.1 50 01:20 11.01.2020
770 Clear -33 1027 66 16093 0.63 86 00:44 11.01.2020
771 Clear -36 1027 66 16093 0.63 86 00:19 11.01.2020
772 Clear -34 1027 65 14484 0.63 86 23:41 10.01.2020
773 Clear -35 1027 65 14484 0.63 86 23:41 10.01.2020
774 Clear -35 1027 65 14484 0.63 86 23:22 10.01.2020
775 Clouds -37 1027 65 11265 0.87 90 22:59 10.01.2020
776 Clouds -35 1027 65 11265 0.87 90 22:40 10.01.2020
777 Clouds -35 1027 65 11265 0.87 90 22:21 10.01.2020
778 Clear -36 1027 65 12874 0.87 90 21:57 10.01.2020
779 Clear -36 1027 65 12874 0.87 90 21:38 10.01.2020
780 Clear -38 1027 65 12874 0.87 90 21:19 10.01.2020
781 Haze -37 1027 65 4828 0.87 90 20:43 10.01.2020
782 Haze -37 1027 65 4828 0.87 90 20:25 10.01.2020
783 Mist -35 1026 52 8047 0.61 71 19:59 10.01.2020
784 Clear -39 1026 87 16093 0.61 71 19:38 10.01.2020
785 Clear -39 1026 87 16093 0.61 71 19:20 10.01.2020
786 Mist -39 1026 58 4828 0.61 71 18:44 10.01.2020
787 Haze -40 1026 65 4828 0.61 71 18:20 10.01.2020
788 Haze -40 1026 65 4023 0.61 71 17:58 10.01.2020
789 Haze -40 1026 65 6437 0.61 71 17:39 10.01.2020
790 Haze -37 1026 65 6437 0.63 102 17:21 10.01.2020
791 Clear -37 1026 65 11265 0.63 102 16:59 10.01.2020
792 Clear -37 1026 65 11265 0.63 102 16:40 10.01.2020
793 Clear -37 1026 65 11265 0.63 102 16:21 10.01.2020
794 Clear -37 1026 65 14484 0.63 102 15:56 10.01.2020
795 Clear -37 1026 65 14484 0.63 102 15:37 10.01.2020
796 Clear -37 1026 65 14484 0.63 102 15:18 10.01.2020
797 Clear -37 1026 64 16093 0.63 102 14:56 10.01.2020
798 Clear -37 1026 64 16093 0.63 102 14:38 10.01.2020
799 Clear -37 1026 64 16093 0.61 105 14:19 10.01.2020
800 Haze -36 1025 65 8047 0.61 105 13:44 10.01.2020
801 Haze -40 1025 65 8047 0.61 105 13:26 10.01.2020
802 Haze -40 1025 65 8047 0.61 105 13:26 10.01.2020
803 Clear -37 1025 65 16093 0.64 111 12:59 10.01.2020
804 Clear -37 1025 65 16093 0.64 111 12:39 10.01.2020
805 Clear -37 1025 65 16093 0.64 111 12:21 10.01.2020
806 Clear -37 1025 65 16093 0.64 111 12:21 10.01.2020
807 Clear -37 1025 65 12874 0.64 111 11:56 10.01.2020
808 Clear -37 1025 65 12874 0.64 111 11:38 10.01.2020
809 Clear -36 1025 65 12874 0.58 89 11:19 10.01.2020
810 Clear -37 1024 58 14484 0.58 89 10:58 10.01.2020
811 Clear -37 1024 58 14484 0.58 89 10:58 10.01.2020
812 Clear -37 1024 58 14484 0.58 89 10:37 10.01.2020
813 Clear -37 1024 58 14484 0.58 89 10:18 10.01.2020
814 Clear -37 1024 58 14484 0.58 89 10:18 10.01.2020
815 Haze -37 1024 65 4828 0.58 89 09:45 10.01.2020
816 Haze -36 1024 65 4828 0.58 89 09:25 10.01.2020
817 Haze -37 1024 65 4828 0.58 89 08:44 10.01.2020
818 Haze -37 1024 65 4828 0.58 89 08:24 10.01.2020
819 Haze -36 1024 65 4828 0.76 73 07:58 10.01.2020
820 Haze -36 1024 65 4828 0.76 73 07:58 10.01.2020
821 Haze -35 1024 65 4828 0.76 73 07:39 10.01.2020
822 Haze -36 1024 65 4828 0.76 73 07:19 10.01.2020
823 Haze -36 1023 65 3621 0.76 73 06:27 10.01.2020
824 Haze -37 1023 64 4828 0.76 73 06:00 10.01.2020
825 Haze -39 1023 65 4426 1.03 68 04:44 10.01.2020
826 Haze -36 1023 65 4828 1.03 68 03:31 10.01.2020
827 Mist -36 1023 65 8047 1.03 68 02:52 10.01.2020
828 Mist -35 1023 65 8047 0.84 94 02:20 10.01.2020
829 Clear -36 1023 87 16093 0.84 94 01:32 10.01.2020
830 Mist -36 1023 65 6437 0.95 81 00:51 10.01.2020
831 Mist -36 1023 65 6437 0.95 81 00:33 10.01.2020
832 Mist -35 1023 65 4023 0.95 81 23:57 09.01.2020
833 Mist -35 1023 65 4023 0.95 81 23:57 09.01.2020
834 Haze -39 1024 65 4828 0.95 81 23:36 09.01.2020
835 Haze -39 1024 65 4828 1.57 58 23:18 09.01.2020
836 Mist -40 1024 72 1609 1.57 58 22:56 09.01.2020
837 Mist -40 1024 64 3219 1.57 58 22:37 09.01.2020
838 Mist -40 1024 64 3219 1.57 58 22:18 09.01.2020
839 Mist -40 1024 64 3219 1.57 58 21:55 09.01.2020
840 Mist -41 1024 64 1609 1.57 58 21:36 09.01.2020
841 Mist -41 1024 64 1609 1.57 58 21:18 09.01.2020
842 Mist -40 1025 64 4828 1.57 58 20:54 09.01.2020
843 Mist -40 1024 85 2414 1.57 58 20:36 09.01.2020
844 Mist -41 1025 64 2012 1.9 53 20:18 09.01.2020
845 Mist -41 1024 86 1609 1.9 53 19:39 09.01.2020
846 Mist -40 1025 64 3219 1.9 53 19:20 09.01.2020
847 Mist -41 1024 86 1609 1.5 60 18:57 09.01.2020
848 Mist -39 1024 86 1609 1.5 60 18:39 09.01.2020
849 Mist -39 1025 64 1609 1.9 53 18:21 09.01.2020
850 Mist -41 1025 64 1609 1.9 53 17:41 09.01.2020
851 Mist -41 1025 64 3219 1.47 56 17:19 09.01.2020
852 Haze -41 1026 64 6437 1.47 56 16:59 09.01.2020
853 Haze -41 1026 64 6437 1.47 56 16:41 09.01.2020
854 Haze -41 1026 64 6437 1.47 56 16:21 09.01.2020
855 Haze -41 1026 72 6437 1.47 56 15:43 09.01.2020
856 Clear -41 1026 64 6437 1.47 56 15:23 09.01.2020
857 Mist -41 1026 87 1207 2.6 40 14:58 09.01.2020
858 Mist -41 1026 87 1207 2.6 40 14:40 09.01.2020
859 Haze -41 1027 64 6437 1.59 55 14:19 09.01.2020
860 Clear -41 1027 64 11265 1.59 55 13:55 09.01.2020
861 Clear -41 1027 64 11265 1.59 55 13:37 09.01.2020
862 Clear -41 1027 64 11265 1.59 55 13:19 09.01.2020
863 Haze -41 1028 72 6437 1.59 55 12:56 09.01.2020
864 Haze -41 1028 72 6437 1.59 55 12:38 09.01.2020
865 Haze -41 1028 72 4828 1.59 55 12:18 09.01.2020
866 Haze -41 1028 64 6437 1.59 55 11:42 09.01.2020
867 Haze -40 1028 64 6437 1.59 55 11:24 09.01.2020
868 Haze -40 1028 64 6437 1.59 55 11:24 09.01.2020
869 Mist -40 1027 57 3219 1.16 60 10:58 09.01.2020
870 Mist -40 1027 57 3219 1.16 60 10:39 09.01.2020
871 Haze -40 1028 64 9656 1.16 60 10:21 09.01.2020
872 Mist -40 1028 89 1609 1.16 60 09:46 09.01.2020
873 Haze -40 1028 64 8047 1.16 60 09:25 09.01.2020
874 Mist -39 1028 89 4023 1.16 60 08:58 09.01.2020
875 Mist -38 1028 89 4023 1.16 60 08:39 09.01.2020
876 Haze -39 1029 64 2816 1.01 51 08:20 09.01.2020
877 Mist -37 1029 89 2012 1.01 51 07:48 09.01.2020
878 Mist -37 1029 89 2012 1.01 51 07:30 09.01.2020
879 Haze -38 1029 64 2414 1.01 51 06:40 09.01.2020
880 Haze -40 1029 64 2414 1.01 51 06:22 09.01.2020
881 Haze -40 1029 64 3219 1.01 51 05:51 09.01.2020
882 Haze -39 1029 64 3219 1.01 51 05:26 09.01.2020
883 Mist -39 1029 90 8047 1.05 51 04:40 09.01.2020
884 Mist -38 1029 90 3219 1.05 51 03:27 09.01.2020
885 Mist -38 1030 65 3219 1.05 51 02:47 09.01.2020
886 Mist -37 1029 65 2816 0.4 28 01:42 09.01.2020
887 Snow -37 1029 91 2012 0.58 35 01:18 09.01.2020
888 Snow -37 1029 91 1609 0.58 35 00:38 09.01.2020
889 Mist -37 1029 65 2012 0.58 35 00:19 09.01.2020
890 Mist -37 1029 65 2012 0.58 35 00:19 09.01.2020
891 Mist -37 1029 65 3621 0.58 35 23:40 08.01.2020
892 Mist -37 1029 72 1408 0.61 70 23:22 08.01.2020
893 Snow -37 1028 93 805 0.61 70 22:56 08.01.2020
894 Snow -38 1028 93 805 0.61 70 22:38 08.01.2020
895 Mist -38 1029 64 1207 0.61 70 22:19 08.01.2020
896 Mist -38 1028 64 1408 0.61 70 21:55 08.01.2020
897 Mist -38 1028 64 1408 0.61 70 21:37 08.01.2020
898 Mist -38 1028 64 1408 0.61 70 21:18 08.01.2020
899 Haze -38 1028 64 3219 0.61 70 20:55 08.01.2020
900 Snow -38 1027 93 4023 0.61 70 20:36 08.01.2020
901 Snow -38 1027 93 4023 0.32 58 20:18 08.01.2020
902 Snow -38 1027 93 3219 1.5 70 19:39 08.01.2020
903 Snow -38 1027 93 3219 0.32 58 19:20 08.01.2020
904 Mist -38 1026 57 1609 0.32 58 18:58 08.01.2020
905 Mist -38 1026 57 1609 0.32 58 18:39 08.01.2020
906 Mist -38 1026 57 1609 0.32 58 18:39 08.01.2020
907 Mist -38 1027 64 1609 0.32 58 18:19 08.01.2020
908 Mist -38 1025 52 1609 0.32 58 17:57 08.01.2020
909 -273 0 0 0 0 0 17:39 08.01.2020
910 Mist -37 1026 64 2414 0.3 49 17:20 08.01.2020
911 Mist -37 1026 64 2414 0.3 49 16:57 08.01.2020
912 Mist -37 1026 64 2414 0.3 49 16:57 08.01.2020
913 Mist -37 1026 64 2414 0.3 49 16:38 08.01.2020
914 Haze -37 1026 64 8047 0.3 49 16:19 08.01.2020
915 Haze -37 1025 64 8047 0.3 49 15:45 08.01.2020
916 Haze -38 1025 64 8047 0.3 49 15:22 08.01.2020
917 Mist -37 1025 92 9656 0.3 49 14:59 08.01.2020
918 Mist -37 1025 92 9656 0.3 49 14:40 08.01.2020
919 Clear -37 1025 65 11265 0.14 72 14:21 08.01.2020
920 Haze -37 1024 65 9656 0.14 72 13:42 08.01.2020
921 Haze -36 1024 65 9656 0.2 61 13:22 08.01.2020
922 Haze -36 1024 72 9656 0.2 61 12:55 08.01.2020
923 Haze -37 1024 72 9656 0.2 61 12:37 08.01.2020
924 Haze -36 1024 72 9656 0.2 61 12:18 08.01.2020
925 Haze -36 1024 72 9656 0.2 61 12:18 08.01.2020
926 Haze -36 1023 65 8047 0.2 61 11:48 08.01.2020
927 Haze -36 1023 65 8047 0.36 28 11:19 08.01.2020
928 Clear -36 1023 65 14484 0.36 28 10:59 08.01.2020
929 Clear -36 1023 65 14484 0.36 28 10:40 08.01.2020
930 Clear -35 1023 65 14484 0.36 28 10:21 08.01.2020
931 Clouds -36 1023 72 14484 0.36 28 09:57 08.01.2020
932 Clouds -36 1023 72 14484 0.36 28 09:36 08.01.2020
933 Clouds -35 1023 72 14484 0.36 28 09:18 08.01.2020
934 Clouds -35 1022 65 16093 0.36 28 08:41 08.01.2020
935 Clouds -35 1022 65 16093 0.46 18 08:22 08.01.2020
936 Mist -34 1021 98 9656 0.19 290 07:59 08.01.2020
937 Mist -34 1021 98 9656 0.19 290 07:40 08.01.2020
938 Mist -34 1021 98 9656 0.19 290 07:19 08.01.2020
939 Clouds -34 1021 65 16093 0.19 290 06:42 08.01.2020
940 Clouds -34 1021 65 16093 0.19 290 05:56 08.01.2020
941 Clouds -34 1021 65 16093 0.19 290 05:26 08.01.2020
942 Mist -33 1021 98 8047 0.36 243 04:37 08.01.2020
943 Mist -32 1020 67 4828 0.36 243 02:46 08.01.2020
944 Clear -32 1021 66 16093 0.36 243 02:28 08.01.2020
945 Clouds -32 1021 73 16093 0.71 230 01:57 08.01.2020
946 Clouds -32 1021 73 16093 0.46 229 01:32 08.01.2020
947 Snow -31 1020 67 4023 0.46 229 00:51 08.01.2020
948 Snow -31 1021 67 8047 0.46 229 00:23 08.01.2020
949 Clouds -32 1021 67 16093 0.46 229 23:46 07.01.2020
950 Clouds -32 1021 67 16093 0.41 251 23:21 07.01.2020
951 Snow -32 1021 67 4828 0.41 251 22:56 07.01.2020
952 Snow -32 1021 67 4828 0.41 251 22:37 07.01.2020
953 Snow -32 1021 74 9656 0.41 251 22:18 07.01.2020
954 Snow -31 1021 67 3219 0.41 251 21:42 07.01.2020
955 Snow -32 1021 74 6437 0.41 251 21:22 07.01.2020
956 Snow -32 1021 67 4828 0.41 251 20:58 07.01.2020
957 Snow -32 1021 67 4828 0.41 251 20:40 07.01.2020
958 Snow -32 1022 74 8047 0.27 342 20:21 07.01.2020
959 Snow -32 1022 73 8047 0.27 342 19:57 07.01.2020
960 Snow -33 1022 73 8047 0.27 342 19:38 07.01.2020
961 Snow -33 1022 73 8047 0.27 342 19:19 07.01.2020
962 Snow -33 1021 60 3219 0.27 342 18:56 07.01.2020
963 Snow -33 1022 66 9656 0.27 342 18:38 07.01.2020
964 Snow -33 1022 66 9656 0.27 342 18:18 07.01.2020
965 Snow -33 1022 66 9656 0.27 342 18:18 07.01.2020
966 Snow -34 1022 95 4828 0.27 342 17:55 07.01.2020
967 Snow -33 1022 95 4828 0.27 342 17:36 07.01.2020
968 Snow -34 1022 73 8047 0.21 328 17:18 07.01.2020
969 Snow -34 1021 60 6437 0.21 328 16:55 07.01.2020
970 Snow -34 1021 60 6437 0.21 328 16:36 07.01.2020
971 Clouds -34 1022 73 11265 0.21 328 16:18 07.01.2020
972 Clouds -34 1022 73 16093 0.21 328 15:42 07.01.2020
973 Snow -34 1022 73 14484 0.21 328 15:24 07.01.2020
974 Clouds -34 1022 65 16093 0.21 328 14:58 07.01.2020
975 Clouds -34 1022 65 16093 0.21 328 14:38 07.01.2020
976 Clouds -35 1022 65 16093 0.37 340 14:20 07.01.2020
977 Clouds -35 1022 73 14484 0.37 340 13:46 07.01.2020
978 Clouds -35 1022 73 14484 0.45 352 13:21 07.01.2020
979 Clouds -35 1022 73 14484 0.45 352 13:21 07.01.2020
980 Clouds -35 1021 59 16093 0.45 352 12:56 07.01.2020
981 Clouds -35 1021 59 16093 0.45 352 12:37 07.01.2020
982 Clouds -35 1022 65 14484 0.45 352 12:19 07.01.2020
983 Clouds -35 1021 59 16093 0.45 352 11:41 07.01.2020
984 -273 0 0 0 0 0 11:22 07.01.2020
985 Mist -35 1022 96 3219 0.14 8 10:57 07.01.2020
986 Mist -36 1022 96 3219 0.14 8 10:39 07.01.2020
987 Clouds -36 1022 65 12874 0.14 8 10:20 07.01.2020
988 Mist -36 1021 96 4828 0.14 8 09:39 07.01.2020
989 Mist -36 1021 96 4828 0.14 8 09:21 07.01.2020
990 Haze -36 1021 72 8047 0.14 8 08:57 07.01.2020
991 Haze -36 1021 72 8047 0.14 8 08:38 07.01.2020
992 Haze -36 1021 72 8047 0.17 350 08:18 07.01.2020
993 Mist -35 1021 95 3219 1.5 10 07:42 07.01.2020
994 Mist -35 1021 95 9656 0.17 350 07:20 07.01.2020
995 Haze -37 1021 65 9656 0.17 350 06:49 07.01.2020
996 Haze -36 1021 65 9656 0.17 350 06:29 07.01.2020
997 Mist -36 1021 95 4023 0.17 350 05:41 07.01.2020
998 Haze -36 1021 65 9656 0.32 3 03:47 07.01.2020
999 Haze -36 1021 65 9656 0.32 3 03:25 07.01.2020
1000 Mist -36 1020 65 9656 0.36 341 02:19 07.01.2020
1001 Clouds -35 1020 65 16093 0.36 341 01:40 07.01.2020
1002 Clouds -35 1020 73 16093 0.45 348 00:58 07.01.2020
1003 Clouds -35 1020 73 16093 0.45 348 00:21 07.01.2020
1004 Clouds -35 1020 73 16093 0.45 348 00:21 07.01.2020
1005 Clouds -35 1020 73 16093 0.45 348 00:21 07.01.2020
1006 Mist -34 1019 58 1006 1.5 0 23:57 06.01.2020
1007 Mist -35 1019 58 1006 1.5 0 23:38 06.01.2020
1008 Clouds -34 1020 65 12874 0.14 55 23:20 06.01.2020
1009 Clouds -37 1020 73 16093 0.14 55 22:44 06.01.2020
1010 Clouds -37 1020 73 16093 0.14 55 22:25 06.01.2020
1011 Clouds -37 1019 65 12874 0.14 55 21:59 06.01.2020
1012 Clouds -37 1019 65 12874 0.14 55 21:40 06.01.2020
1013 Fog -37 1019 99 12874 0.14 55 21:20 06.01.2020
1014 Clouds -37 1019 72 16093 0.14 55 20:58 06.01.2020
1015 Clouds -37 1019 72 16093 0.14 55 20:40 06.01.2020
1016 Clouds -35 1019 72 16093 0.13 168 20:20 06.01.2020
1017 Mist -38 1018 58 1006 0.06 12 19:57 06.01.2020
1018 Mist -38 1018 58 1006 0.06 12 19:39 06.01.2020
1019 Mist -38 1018 58 1006 0.06 12 19:39 06.01.2020
1020 Clouds -35 1018 65 16093 0.06 12 19:20 06.01.2020
1021 Clouds -34 1018 99 14484 0.06 12 18:48 06.01.2020
1022 Clouds -34 1018 65 16093 0.06 12 18:25 06.01.2020
1023 Mist -34 1017 58 3219 1.5 170 17:59 06.01.2020
1024 Mist -34 1017 58 3219 1.5 170 17:59 06.01.2020
1025 Mist -33 1017 58 3219 1.5 170 17:39 06.01.2020
1026 Clouds -33 1018 73 16093 0.14 88 17:19 06.01.2020
1027 Clouds -33 1017 58 12874 0.14 88 16:55 06.01.2020
1028 Clouds -33 1018 73 16093 0.14 88 16:36 06.01.2020
1029 Clouds -33 1018 73 16093 0.14 88 16:18 06.01.2020
1030 Clear -32 1018 73 16093 0.14 88 15:42 06.01.2020
1031 Clear -32 1018 73 16093 0.14 88 15:20 06.01.2020
1032 Clouds -32 1017 74 16093 0.14 88 14:59 06.01.2020
1033 Clouds -31 1017 74 16093 0.14 88 14:40 06.01.2020
1034 Clouds -32 1017 74 16093 0.54 53 14:21 06.01.2020
1035 Clouds -31 1018 74 16093 0.54 53 13:57 06.01.2020
1036 Clouds -30 1018 74 16093 0.54 53 13:38 06.01.2020
1037 Clouds -30 1018 74 16093 0.73 43 13:19 06.01.2020
1038 Clouds -30 1017 74 16093 0.73 43 12:43 06.01.2020
1039 Clouds -30 1017 74 16093 0.73 43 12:21 06.01.2020
1040 Clouds -31 1017 74 14484 0.73 43 11:58 06.01.2020
1041 Clouds -31 1017 74 14484 0.73 43 11:39 06.01.2020
1042 Snow -31 1017 74 9656 0.74 45 11:21 06.01.2020
1043 Snow -31 1017 74 11265 0.74 45 10:57 06.01.2020
1044 Snow -31 1017 74 11265 0.74 45 10:39 06.01.2020
1045 Snow -31 1017 74 11265 0.74 45 10:20 06.01.2020
1046 Snow -31 1017 67 16093 0.74 45 09:38 06.01.2020
1047 Clouds -32 1017 67 16093 0.74 45 09:19 06.01.2020
1048 Clear -33 1017 73 16093 0.74 45 08:46 06.01.2020
1049 Clear -33 1017 73 16093 0.74 45 08:26 06.01.2020
1050 Clouds -32 1016 73 16093 0.78 40 07:53 06.01.2020
1051 Clouds -32 1016 73 16093 0.78 40 07:28 06.01.2020
1052 Clouds -31 1016 74 16093 0.78 40 06:45 06.01.2020
1053 Clouds -31 1016 74 16093 0.78 40 06:20 06.01.2020
1054 Clouds -31 1016 74 16093 0.78 40 05:45 06.01.2020
1055 Snow -32 1016 67 8047 0.96 37 04:38 06.01.2020
1056 Snow -31 1016 67 8047 0.96 37 04:19 06.01.2020
1057 Clouds -32 1016 66 16093 0.96 37 02:46 06.01.2020
1058 Clouds -32 1016 66 16093 0.96 37 02:24 06.01.2020
1059 Clouds -32 1015 90 12874 0.78 52 01:44 06.01.2020
1060 Haze -32 1015 66 4828 0.78 52 01:26 06.01.2020
1061 Clear -32 1015 66 16093 1.11 40 00:42 06.01.2020
1062 Clear -34 1015 66 16093 1.11 40 00:21 06.01.2020
1063 Mist -34 1014 89 6437 1.11 40 23:42 05.01.2020
1064 Mist -34 1014 89 6437 1.11 40 23:42 05.01.2020
1065 Clouds -32 1015 73 16093 1.11 40 23:22 05.01.2020
1066 Snow -32 1014 66 9656 1.5 70 22:56 05.01.2020
1067 Snow -33 1014 66 9656 1.5 70 22:38 05.01.2020
1068 Clouds -33 1014 73 12874 0.93 51 22:19 05.01.2020
1069 Snow -34 1013 66 2414 0.93 51 21:54 05.01.2020
1070 Snow -34 1013 66 2414 0.93 51 21:36 05.01.2020
1071 Haze -35 1014 65 6437 0.93 51 21:18 05.01.2020
1072 Snow -34 1014 92 2414 1.5 60 20:55 05.01.2020
1073 Snow -35 1014 92 2414 1.5 60 20:36 05.01.2020
1074 Snow -36 1014 97 4023 0.63 35 20:18 05.01.2020
1075 Snow -35 1013 97 9656 0.72 38 19:56 05.01.2020
1076 Snow -35 1013 97 9656 0.72 38 19:37 05.01.2020
1077 Clouds -35 1014 65 12874 0.72 38 19:18 05.01.2020
1078 Snow -35 1013 97 8047 0.72 38 18:54 05.01.2020
1079 Clouds -35 1013 65 16093 0.72 38 18:36 05.01.2020
1080 Clouds -35 1013 65 16093 0.72 38 18:18 05.01.2020
1081 Clouds -35 1013 73 16093 0.72 38 17:55 05.01.2020
1082 Clouds -35 1013 73 16093 0.72 38 17:55 05.01.2020
1083 Clouds -34 1013 73 16093 0.72 38 17:37 05.01.2020
1084 Clouds -34 1013 73 16093 0.46 125 17:18 05.01.2020
1085 Mist -34 1012 58 6437 0.46 125 16:54 05.01.2020
1086 Mist -34 1012 58 6437 0.46 125 16:36 05.01.2020
1087 Clouds -34 1013 65 16093 0.46 125 16:18 05.01.2020
1088 Mist -33 1012 52 3219 0.46 125 15:36 05.01.2020
1089 Clouds -33 1013 65 16093 0.46 125 15:18 05.01.2020
1090 Clouds -34 1013 73 16093 0.46 125 14:54 05.01.2020
1091 Clouds -33 1013 73 16093 0.46 125 14:36 05.01.2020
1092 Clouds -33 1013 73 16093 0.33 77 14:18 05.01.2020
1093 Clouds -32 1013 73 16093 0.33 77 13:39 05.01.2020
1094 Clouds -32 1013 73 16093 0.33 68 13:21 05.01.2020
1095 Clear -32 1013 73 16093 0.33 68 12:57 05.01.2020
1096 Clear -32 1013 73 16093 0.33 68 12:57 05.01.2020
1097 Clear -32 1013 73 16093 0.33 68 12:57 05.01.2020
1098 Clear -32 1013 73 16093 0.33 68 12:39 05.01.2020
1099 Clear -32 1013 73 16093 0.33 68 12:39 05.01.2020
1100 Clear -32 1013 73 16093 0.33 68 12:39 05.01.2020
1101 Clear -32 1013 73 16093 0.33 68 12:21 05.01.2020
1102 Clear -32 1013 73 16093 0.33 68 12:21 05.01.2020
1103 Mist -32 1012 59 4828 0.33 68 11:55 05.01.2020
1104 Mist -31 1012 59 4828 0.33 68 11:37 05.01.2020
1105 Clear -32 1012 74 16093 0.92 53 11:19 05.01.2020
1106 Clouds -31 1012 74 16093 0.92 53 10:55 05.01.2020
1107 Clouds -31 1012 74 16093 0.92 53 10:36 05.01.2020
1108 Clouds -31 1012 74 16093 0.92 53 10:18 05.01.2020
1109 Clouds -31 1012 74 16093 0.92 53 09:41 05.01.2020
1110 Clouds -31 1012 74 16093 0.92 53 09:21 05.01.2020
1111 Clear -29 1012 74 16093 0.92 53 08:45 05.01.2020
1112 Clear -30 1012 74 16093 0.92 53 08:26 05.01.2020
1113 Clouds -29 1012 74 16093 0.61 38 07:55 05.01.2020
1114 Clouds -29 1012 74 16093 0.61 38 07:32 05.01.2020
1115 Clouds -30 1012 74 14484 0.61 38 06:57 05.01.2020
1116 Clouds -29 1012 74 16093 0.61 38 05:55 05.01.2020
1117 Clouds -30 1011 74 16093 0.61 38 05:30 05.01.2020
1118 Clouds -29 1011 74 16093 0.63 5 04:34 05.01.2020
1119 Clouds -30 1011 74 16093 0.63 5 03:47 05.01.2020
1120 Clouds -31 1011 74 14484 0.63 5 02:45 05.01.2020
1121 Clouds -30 1011 74 14484 1.07 23 02:20 05.01.2020
1122 Snow -30 1009 67 6437 1.07 23 01:40 05.01.2020
1123 Clouds -30 1011 74 12874 0.99 19 01:18 05.01.2020
1124 Haze -31 1009 67 6437 0.99 19 00:41 05.01.2020
1125 Clouds -31 1010 74 14484 0.99 19 00:22 05.01.2020
1126 Clouds -32 1010 73 14484 0.99 19 23:59 04.01.2020
1127 Clouds -32 1010 73 14484 0.99 19 23:39 04.01.2020
1128 Clouds -32 1010 73 14484 1.47 32 23:19 04.01.2020
1129 Clouds -34 1009 73 12874 1.47 32 22:39 04.01.2020
1130 Clouds -34 1009 73 12874 1.47 32 22:21 04.01.2020
1131 Clouds -34 1009 73 12874 1.47 32 21:57 04.01.2020
1132 Clouds -33 1009 73 12874 1.47 32 21:38 04.01.2020
1133 Clouds -33 1009 73 12874 1.47 32 21:19 04.01.2020
1134 Mist -35 1008 60 9656 1.47 32 20:57 04.01.2020
1135 Mist -35 1008 60 9656 1.47 32 20:38 04.01.2020
1136 Clouds -35 1009 73 14484 1.52 32 20:19 04.01.2020
1137 Mist -36 1007 59 2615 1.52 32 19:42 04.01.2020
1138 Clouds -36 1008 66 14484 1.52 32 19:24 04.01.2020
1139 Clouds -36 1008 73 14484 1.52 32 18:58 04.01.2020
1140 Clouds -37 1008 73 14484 1.52 32 18:39 04.01.2020
1141 Clouds -37 1008 73 14484 1.52 32 18:21 04.01.2020
1142 Clouds -36 1007 73 16093 1.52 32 17:58 04.01.2020
1143 Clouds -35 1007 73 16093 1.52 32 17:40 04.01.2020
1144 Clouds -34 1007 73 16093 1.52 32 17:22 04.01.2020
1145 Clear -35 1007 73 14484 1.77 29 16:42 04.01.2020
1146 Clear -35 1007 73 14484 1.77 29 16:24 04.01.2020
1147 Clear -35 1007 66 14484 1.77 29 15:59 04.01.2020
1148 Clear -35 1007 66 14484 1.77 29 15:59 04.01.2020
1149 Clear -35 1007 66 14484 1.77 29 15:41 04.01.2020
1150 Clear -35 1007 66 14484 1.77 29 15:19 04.01.2020
1151 Clear -34 1007 66 14484 1.77 29 14:58 04.01.2020
1152 Clear -34 1007 66 14484 1.77 29 14:58 04.01.2020
1153 Clear -34 1007 66 14484 1.77 29 14:40 04.01.2020
1154 Clear -36 1007 66 14484 2.01 27 14:19 04.01.2020
1155 Clear -34 1007 73 16093 2.01 27 13:56 04.01.2020
1156 Clear -34 1007 73 16093 2.01 27 13:37 04.01.2020
1157 Clear -36 1007 73 16093 1.98 28 13:18 04.01.2020
1158 Clouds -34 1006 89 16093 1.98 28 12:42 04.01.2020
1159 Clear -35 1007 66 14484 1.98 28 12:20 04.01.2020
1160 Clear -35 1007 66 14484 1.98 28 12:20 04.01.2020
1161 Clear -35 1006 73 16093 1.98 28 11:59 04.01.2020
1162 Clear -34 1006 73 16093 1.98 28 11:40 04.01.2020
1163 Clear -33 1006 73 16093 2.13 21 11:19 04.01.2020
1164 Clear -33 1006 73 14484 2.13 21 10:55 04.01.2020
1165 Clear -33 1006 73 14484 2.13 21 10:37 04.01.2020
1166 Clear -33 1006 73 14484 2.13 21 10:19 04.01.2020
1167 Clear -32 1006 66 16093 2.13 21 09:42 04.01.2020
1168 Clear -33 1006 66 16093 2.13 21 09:23 04.01.2020
1169 Clear -33 1006 73 16093 2.13 21 08:42 04.01.2020
1170 Clouds -30 1006 73 16093 2.15 25 08:21 04.01.2020
1171 Clear -34 1006 66 16093 2.15 25 07:44 04.01.2020
1172 Clear -34 1006 66 16093 2.15 25 07:26 04.01.2020
1173 Clear -33 1006 73 16093 2.15 25 06:36 04.01.2020
1174 Clear -30 1006 74 16093 2.15 25 05:45 04.01.2020
1175 Clear -29 1006 74 16093 1.85 20 04:44 04.01.2020
1176 Clear -31 1006 74 16093 1.85 20 04:26 04.01.2020
1177 Clear -32 1006 74 16093 1.85 20 03:19 04.01.2020
1178 Clear -27 1007 74 16093 1.85 20 02:23 04.01.2020
1179 Clear -25 1007 74 16093 1.44 14 01:57 04.01.2020
1180 Clear -24 1007 74 16093 1.44 14 01:32 04.01.2020
1181 Clear -24 1007 74 16093 1.44 14 01:32 04.01.2020
1182 Clear -28 1007 75 16093 1.1 10 00:56 04.01.2020
1183 Clear -28 1007 75 16093 1.1 10 00:28 04.01.2020
1184 Clouds -28 1007 75 16093 1.1 10 23:52 03.01.2020
1185 Clouds -27 1007 75 16093 1.1 10 23:27 03.01.2020
1186 Mist -27 1006 67 8047 1.26 12 22:55 03.01.2020
1187 Mist -25 1006 67 8047 1.26 12 22:37 03.01.2020
1188 Clouds -25 1007 82 14484 1.26 12 22:18 03.01.2020
1189 Clouds -27 1007 74 16093 1.26 12 21:56 03.01.2020
1190 Clouds -27 1007 74 16093 1.26 12 21:37 03.01.2020
1191 Clouds -28 1007 74 16093 1.26 12 21:18 03.01.2020
1192 Mist -28 1008 74 8047 1.26 12 20:43 03.01.2020
1193 Mist -26 1008 74 8047 1.47 9 20:19 03.01.2020
1194 Clouds -25 1007 75 16093 1.42 1 19:59 03.01.2020
1195 Clouds -25 1007 75 16093 1.42 1 19:41 03.01.2020
1196 Clouds -27 1007 75 16093 1.42 1 19:22 03.01.2020
1197 Clear -27 1007 75 16093 1.42 1 18:46 03.01.2020
1198 Clear -26 1007 75 16093 1.42 1 18:26 03.01.2020
1199 Clear -26 1007 82 12874 1.42 1 17:58 03.01.2020
1200 Clear -26 1007 82 12874 1.42 1 17:58 03.01.2020
1201 Clear -26 1007 82 12874 1.42 1 17:39 03.01.2020
1202 Clear -25 1007 82 12874 1.44 359 17:21 03.01.2020
1203 Haze -24 1007 75 8047 1.44 359 16:43 03.01.2020
1204 Mist -23 1007 83 4023 1.44 359 16:24 03.01.2020
1205 Clear -23 1007 75 16093 1.44 359 15:59 03.01.2020
1206 Clear -22 1007 75 16093 1.44 359 15:41 03.01.2020
1207 Clear -22 1007 75 16093 1.44 359 15:19 03.01.2020
1208 Clear -22 1007 75 16093 1.44 359 15:19 03.01.2020
1209 Snow -22 1007 69 14484 1.44 359 14:39 03.01.2020
1210 Snow -22 1007 69 14484 1.62 8 14:20 03.01.2020
1211 Clouds -21 1008 83 16093 1.62 8 13:57 03.01.2020
1212 Clouds -21 1008 83 16093 1.69 9 13:38 03.01.2020
1213 Snow -21 1008 76 9656 1.69 9 13:20 03.01.2020
1214 Snow -21 1008 76 8047 1.69 9 12:41 03.01.2020
1215 Snow -20 1008 76 8047 1.69 9 12:22 03.01.2020
1216 Snow -20 1008 76 14484 1.69 9 11:49 03.01.2020
1217 Snow -21 1008 76 14484 1.69 9 11:31 03.01.2020
1218 Snow -22 1008 83 14484 1.92 12 10:57 03.01.2020
1219 Snow -21 1008 83 14484 1.92 12 10:38 03.01.2020
1220 Snow -21 1008 83 9656 1.92 12 10:20 03.01.2020
1221 Clouds -21 1008 83 16093 1.92 12 09:54 03.01.2020
1222 Clouds -21 1008 83 16093 1.92 12 09:36 03.01.2020
1223 Clouds -21 1008 83 16093 1.92 12 09:18 03.01.2020
1224 Clouds -21 1008 76 16093 1.92 12 08:44 03.01.2020
1225 Snow -21 1008 76 14484 1.84 14 08:21 03.01.2020
1226 Clouds -20 1007 83 16093 1.84 14 07:42 03.01.2020
1227 Clouds -20 1007 83 16093 1.84 14 07:19 03.01.2020
1228 Clouds -20 1007 83 16093 1.84 14 07:19 03.01.2020
1229 Clouds -20 1008 76 16093 1.84 14 06:57 03.01.2020
1230 Clouds -20 1008 76 16093 1.84 14 06:39 03.01.2020
1231 Clouds -20 1008 76 16093 1.84 14 06:20 03.01.2020
1232 Clouds -21 1007 83 16093 1.91 12 04:43 03.01.2020
1233 Clouds -21 1007 76 16093 1.91 12 03:37 03.01.2020
1234 Clouds -21 1006 70 16093 1.91 12 02:50 03.01.2020
1235 Snow -21 1006 76 14484 1.86 16 01:50 03.01.2020
1236 Clouds -21 1006 70 16093 1.79 13 00:57 03.01.2020
1237 Clouds -21 1007 83 16093 1.79 13 00:33 03.01.2020
1238 Snow -21 1006 70 9656 1.79 13 23:58 02.01.2020
1239 Snow -21 1006 70 9656 1.79 13 23:39 02.01.2020
1240 Snow -21 1006 70 9656 1.79 13 23:39 02.01.2020
1241 Clouds -21 1006 69 16093 1.7 18 23:20 02.01.2020
1242 Clear -22 1006 83 16093 1.7 18 22:58 02.01.2020
1243 Clear -22 1006 83 16093 1.7 18 22:39 02.01.2020
1244 Clear -23 1006 83 16093 1.7 18 22:19 02.01.2020
1245 Clouds -22 1006 83 16093 1.7 18 21:55 02.01.2020
1246 Clouds -22 1006 83 16093 1.7 18 21:36 02.01.2020
1247 Clouds -22 1006 83 16093 1.7 18 21:18 02.01.2020
1248 Clear -22 1006 83 16093 1.7 18 20:55 02.01.2020
1249 Clear -22 1006 83 16093 1.7 18 20:36 02.01.2020
1250 Clear -23 1006 83 16093 1.02 2 20:18 02.01.2020
1251 Clouds -22 1009 84 0 1.02 2 19:54 02.01.2020
1252 Snow -22 1005 76 3017 1.02 2 19:36 02.01.2020
1253 Snow -22 1005 76 3017 1.02 2 19:36 02.01.2020
1254 Snow -22 1005 76 3017 1.02 2 19:18 02.01.2020
1255 Snow -22 1005 76 3017 1.02 2 18:42 02.01.2020
1256 Clear -22 1005 83 16093 1.02 2 18:23 02.01.2020
1257 Clear -22 1005 76 16093 1.02 2 17:58 02.01.2020
1258 Clear -21 1005 76 16093 1.02 2 17:38 02.01.2020
1259 Clear -21 1005 76 16093 0.45 347 17:19 02.01.2020
1260 Clouds -21 1004 83 16093 0.45 347 16:58 02.01.2020
1261 Clouds -21 1004 83 16093 0.45 347 16:40 02.01.2020
1262 Clouds -21 1004 83 16093 0.45 347 16:20 02.01.2020
1263 Clouds -21 1004 83 16093 0.45 347 15:57 02.01.2020
1264 Clouds -20 1004 83 16093 0.45 347 15:39 02.01.2020
1265 Clouds -20 1004 83 16093 0.45 347 15:19 02.01.2020
1266 Clouds -20 1003 83 16093 0.45 347 14:55 02.01.2020
1267 Clouds -20 1003 83 16093 0.45 347 14:55 02.01.2020
1268 Clouds -20 1003 83 16093 0.45 347 14:36 02.01.2020
1269 Clouds -20 1003 83 16093 0.37 200 14:18 02.01.2020
1270 Clouds -20 1003 83 16093 0.37 200 13:47 02.01.2020
1271 Clouds -20 1003 83 16093 0.38 195 13:29 02.01.2020
1272 Snow -20 1002 76 11265 0.38 195 12:45 02.01.2020
1273 Clouds -20 1002 83 16093 0.38 195 12:25 02.01.2020
1274 Clouds -20 1002 83 16093 0.38 195 12:25 02.01.2020
1275 Clouds -20 1002 83 16093 0.38 195 11:57 02.01.2020
1276 Snow -20 1002 83 9656 0.38 195 11:37 02.01.2020
1277 Snow -20 1002 83 9656 0.27 131 11:19 02.01.2020
1278 Snow -20 1001 76 6437 0.27 131 10:43 02.01.2020
1279 Snow -20 1001 83 6437 0.27 131 10:25 02.01.2020
1280 Snow -20 1001 77 9656 0.27 131 09:46 02.01.2020
1281 Snow -20 1001 77 9656 0.27 131 09:28 02.01.2020
1282 Snow -20 1000 83 11265 0.27 131 08:45 02.01.2020
1283 Snow -20 1000 83 8047 0.27 131 08:27 02.01.2020
1284 Snow -20 999 83 11265 0.69 188 07:51 02.01.2020
1285 Snow -20 999 83 11265 0.69 188 07:30 02.01.2020
1286 Snow -20 998 83 9656 0.69 188 06:45 02.01.2020
1287 Snow -20 998 83 8047 0.69 188 06:26 02.01.2020
1288 Snow -20 997 70 6437 1.5 210 05:21 02.01.2020
1289 Snow -20 996 83 2414 2.1 200 04:31 02.01.2020
1290 Snow -19 995 77 4426 2.6 240 02:37 02.01.2020
1291 Snow -20 993 76 2414 0.53 251 01:59 02.01.2020
1292 Snow -20 993 76 2414 0.53 251 01:37 02.01.2020
1293 Clouds -19 992 84 16093 4.1 230 00:57 02.01.2020
1294 Clouds -19 992 84 16093 4.1 230 00:33 02.01.2020
1295 Clouds -19 991 84 16093 3.6 240 23:52 01.01.2020
1296 Clouds -19 991 84 16093 4.1 230 23:28 01.01.2020
1297 Clouds -19 990 77 16093 4.1 230 22:59 01.01.2020
1298 Clouds -18 988 84 16093 3.1 230 22:38 01.01.2020
1299 Clouds -18 988 84 16093 3.1 230 22:19 01.01.2020
1300 Clouds -18 987 84 16093 2.1 220 21:56 01.01.2020
1301 Clouds -18 987 84 16093 2.1 220 21:37 01.01.2020
1302 Clouds -18 987 84 16093 2.1 220 21:18 01.01.2020
1303 Clouds -18 987 84 16093 4.1 230 20:54 01.01.2020
1304 Clouds -18 987 84 16093 4.1 230 20:36 01.01.2020
1305 Clouds -18 986 84 16093 2.1 230 20:18 01.01.2020
1306 Snow -18 985 84 14484 0.66 208 19:54 01.01.2020
1307 Snow -18 985 84 14484 0.66 208 19:54 01.01.2020
1308 Snow -18 985 84 14484 0.66 208 19:36 01.01.2020
1309 Snow -18 985 84 14484 1.5 240 19:18 01.01.2020
1310 Clouds -18 985 84 16093 1.5 230 18:54 01.01.2020
1311 Clouds -18 985 84 16093 1.5 230 18:36 01.01.2020
1312 Clouds -18 984 84 16093 0.66 208 18:18 01.01.2020
1313 Clouds -18 984 84 16093 2.1 280 17:55 01.01.2020
1314 Clouds -18 984 84 16093 0.66 208 17:36 01.01.2020
1315 Clouds -18 984 84 16093 0.82 230 17:18 01.01.2020
1316 Clouds -18 983 84 16093 0.82 230 16:39 01.01.2020
1317 Clouds -18 983 84 16093 0.82 230 16:20 01.01.2020
1318 Clouds -18 983 84 16093 0.82 230 15:57 01.01.2020
1319 Clouds -18 983 84 16093 0.82 230 15:57 01.01.2020
1320 Clouds -18 983 84 16093 0.82 230 15:39 01.01.2020
1321 Clouds -18 983 84 16093 0.82 230 15:20 01.01.2020
1322 Clouds -18 983 84 16093 0.82 230 14:57 01.01.2020
1323 Clouds -18 983 84 16093 0.82 230 14:39 01.01.2020
1324 Clouds -18 983 84 16093 0.44 228 14:21 01.01.2020
1325 Clouds -18 983 84 16093 0.44 228 13:56 01.01.2020
1326 Clouds -18 983 84 16093 0.44 228 13:37 01.01.2020
1327 Clouds -18 983 84 16093 0.42 204 13:18 01.01.2020
1328 Clouds -18 983 84 16093 0.42 204 12:55 01.01.2020
1329 Clouds -18 983 84 16093 0.42 204 12:37 01.01.2020
1330 Clouds -18 983 77 14484 0.42 204 12:18 01.01.2020
1331 Clouds -18 982 84 16093 0.42 204 11:43 01.01.2020
1332 Clouds -18 982 84 16093 0.42 209 11:22 01.01.2020
1333 Clouds -18 982 84 16093 0.42 209 10:58 01.01.2020
1334 Clouds -18 982 84 16093 0.42 209 10:40 01.01.2020
1335 Snow -19 981 77 11265 0.42 209 10:20 01.01.2020
1336 Clouds -19 981 84 16093 0.42 209 09:55 01.01.2020
1337 Clouds -19 981 84 16093 0.42 209 09:36 01.01.2020
1338 Clouds -19 981 84 16093 0.42 209 09:18 01.01.2020
1339 Clouds -19 981 84 16093 0.42 209 08:54 01.01.2020
1340 Clouds -19 981 84 16093 0.42 209 08:36 01.01.2020
1341 Snow -19 980 70 14484 2.1 350 08:18 01.01.2020
1342 Clouds -19 981 77 16093 1.4 204 07:45 01.01.2020
1343 Clouds -19 981 77 16093 1.5 60 07:26 01.01.2020
1344 Clouds -19 981 83 16093 2.1 80 06:44 01.01.2020
1345 Snow -20 980 83 16093 2.1 50 06:19 01.01.2020
1346 Clouds -20 980 83 16093 1.03 232 04:38 01.01.2020
1347 Clouds -20 980 83 16093 1.03 232 03:41 01.01.2020
1348 Clouds -20 980 83 16093 1.03 232 03:22 01.01.2020
1349 Clouds -20 980 83 16093 1.03 232 03:22 01.01.2020
1350 Clouds -20 980 83 16093 1.5 40 02:55 01.01.2020
1351 Clouds -20 980 83 16093 1.5 40 02:32 01.01.2020
1352 Clear -20 979 83 16093 2.1 50 01:45 01.01.2020
1353 Clear -20 979 83 16093 2.1 50 01:24 01.01.2020
1354 Clear -20 979 83 16093 1.13 178 00:57 01.01.2020
1355 Clear -20 979 83 16093 1.13 178 00:37 01.01.2020
1356 Clear -20 979 83 16093 1.13 178 00:19 01.01.2020
1357 Clear -20 979 83 16093 1.13 178 23:40 31.12.2019
1358 Clear -20 979 83 16093 0.92 295 23:21 31.12.2019
1359 Clear -20 979 76 16093 0.92 295 22:57 31.12.2019
1360 Clear -20 979 76 16093 0.92 295 22:38 31.12.2019
1361 Clear -20 979 76 16093 0.92 295 22:18 31.12.2019
1362 Clouds -20 978 83 16093 0.92 295 21:54 31.12.2019
1363 Clouds -20 978 83 16093 0.92 295 21:36 31.12.2019
1364 Clouds -20 978 83 16093 0.92 295 21:18 31.12.2019
1365 Clouds -20 978 83 16093 0.92 295 20:40 31.12.2019
1366 Clouds -20 978 83 16093 0.77 212 20:21 31.12.2019
1367 Clouds -20 978 76 16093 0.77 212 19:59 31.12.2019
1368 Clouds -20 978 76 16093 0.77 212 19:40 31.12.2019
1369 Clouds -20 978 76 16093 0.77 212 19:22 31.12.2019
1370 Clouds -20 979 83 16093 0.77 212 18:58 31.12.2019
1371 Clouds -20 979 83 16093 0.77 212 18:40 31.12.2019
1372 Clouds -20 979 83 16093 0.77 212 18:19 31.12.2019
1373 Clouds -19 979 76 16093 0.77 212 17:56 31.12.2019
1374 Clouds -19 979 76 16093 0.77 212 17:38 31.12.2019
1375 Clouds -19 979 76 16093 1.03 317 17:19 31.12.2019
1376 Clear -19 979 83 16093 1.03 317 16:57 31.12.2019
1377 Clear -19 979 83 16093 1.03 317 16:38 31.12.2019
1378 Clear -19 979 83 16093 1.03 317 16:19 31.12.2019
1379 Clear -19 980 83 16093 1.03 317 15:56 31.12.2019
1380 Clear -19 980 83 16093 1.03 317 15:38 31.12.2019
1381 Clear -19 980 83 16093 1.03 317 15:20 31.12.2019
1382 Clouds -19 981 83 16093 1.03 317 14:57 31.12.2019
1383 Clouds -19 981 83 16093 1.03 317 14:38 31.12.2019
1384 Clouds -19 981 83 16093 1.03 317 14:38 31.12.2019
1385 Clouds -19 981 83 16093 0.77 350 14:19 31.12.2019
1386 Clear -19 981 83 16093 0.77 350 13:57 31.12.2019
1387 Clear -19 981 83 16093 0.77 350 13:39 31.12.2019
1388 Clear -19 981 83 16093 0.89 351 13:20 31.12.2019
1389 Clear -19 981 83 14484 0.89 351 12:56 31.12.2019
1390 Clear -19 981 83 14484 0.89 351 12:38 31.12.2019
1391 Clear -19 981 83 14484 0.89 351 12:19 31.12.2019
1392 Clear -19 981 83 14484 0.89 351 12:19 31.12.2019
1393 Clear -19 981 83 14484 0.89 351 12:19 31.12.2019
1394 Clear -19 982 83 16093 1.5 80 11:56 31.12.2019
1395 Clear -19 982 83 16093 1.5 80 11:56 31.12.2019
1396 Clear -18 982 83 16093 1.5 80 11:38 31.12.2019
1397 Clear -18 982 83 16093 1.5 80 11:19 31.12.2019
1398 Clouds -18 983 83 16093 1 10 10:57 31.12.2019
1399 Clouds -18 983 83 16093 1 10 10:57 31.12.2019
1400 Clouds -18 983 83 16093 1 10 10:38 31.12.2019
1401 Clouds -18 983 83 16093 1 10 10:19 31.12.2019
1402 Clouds -19 984 83 16093 1 10 09:58 31.12.2019
1403 Clouds -19 984 83 16093 1 10 09:39 31.12.2019
1404 Clouds -19 984 83 16093 1 10 09:20 31.12.2019
1405 Clouds -20 984 83 16093 1 10 08:57 31.12.2019
1406 Clouds -20 984 83 16093 1 10 08:37 31.12.2019
1407 Clouds -20 984 83 16093 1.62 31 08:18 31.12.2019
1408 Clouds -20 984 76 16093 1.62 31 07:41 31.12.2019
1409 Clear -20 985 83 16093 1.62 31 07:19 31.12.2019
1410 Clouds -20 985 83 16093 1.5 60 06:48 31.12.2019
1411 Clouds -20 986 83 16093 1.5 60 05:55 31.12.2019
1412 Snow -19 987 83 11265 0.86 44 04:27 31.12.2019
1413 Snow -19 987 83 14484 1.5 60 03:27 31.12.2019
1414 Clouds -19 987 83 16093 0.86 44 02:43 31.12.2019
1415 Clouds -20 986 70 16093 2.1 50 01:55 31.12.2019
1416 Clouds -19 986 70 16093 2.1 50 01:34 31.12.2019
1417 Clouds -19 986 77 16093 2.6 80 00:58 31.12.2019
1418 Clouds -19 986 77 16093 2.6 80 00:39 31.12.2019
1419 Clouds -18 986 77 16093 2.6 80 00:21 31.12.2019
1420 Clouds -18 986 70 14484 1.5 60 23:56 30.12.2019
1421 Clouds -18 986 70 14484 1.5 60 23:37 30.12.2019
1422 Clouds -18 985 84 16093 1.63 175 23:19 30.12.2019
1423 Clouds -18 984 77 16093 1.5 180 22:56 30.12.2019
1424 Clouds -18 984 77 16093 1.5 180 22:37 30.12.2019
1425 Clouds -18 984 77 16093 1.5 180 22:37 30.12.2019
1426 Clouds -18 984 77 16093 1.5 180 22:18 30.12.2019
1427 Clouds -18 982 84 16093 2.1 230 21:56 30.12.2019
1428 Clouds -17 982 84 16093 2.1 230 21:38 30.12.2019
1429 Clouds -17 982 84 16093 2.1 230 21:18 30.12.2019
1430 Clouds -16 981 77 16093 2.1 210 20:56 30.12.2019
1431 Clouds -16 981 77 16093 2.1 210 20:38 30.12.2019
1432 Clouds -16 981 77 16093 2.1 210 20:19 30.12.2019
1433 Clouds -15 979 84 16093 2.6 210 19:55 30.12.2019
1434 Clouds -15 979 84 16093 2.6 210 19:37 30.12.2019
1435 Clouds -15 979 84 16093 2.6 210 19:37 30.12.2019
1436 Clouds -15 979 84 16093 2.6 210 19:18 30.12.2019
1437 Clouds -13 978 85 16093 3.6 230 18:56 30.12.2019
1438 Clouds -13 978 85 16093 3.6 230 18:36 30.12.2019
1439 Clouds -13 978 85 16093 3.6 230 18:36 30.12.2019
1440 Clouds -13 978 85 16093 3.6 230 18:18 30.12.2019
1441 Clouds -13 977 92 16093 2.6 280 17:54 30.12.2019
1442 Clouds -13 977 92 16093 2.6 280 17:36 30.12.2019
1443 Clouds -13 977 92 16093 2.6 280 17:36 30.12.2019
1444 Clouds -13 977 92 16093 2.6 280 17:18 30.12.2019
1445 Clouds -13 977 92 16093 2.6 260 16:41 30.12.2019
1446 Clouds -13 977 92 16093 2.6 260 16:41 30.12.2019
1447 Clouds -13 977 92 16093 2.6 260 16:21 30.12.2019
1448 Clouds -13 977 85 16093 2.6 270 15:58 30.12.2019
1449 Clouds -13 977 85 16093 2.6 270 15:39 30.12.2019
1450 Clouds -13 977 85 16093 2.6 270 15:20 30.12.2019
1451 Clouds -14 978 92 16093 1.11 335 14:56 30.12.2019
1452 Clouds -14 978 92 16093 1.11 335 14:38 30.12.2019
1453 Clouds -14 978 92 16093 1.96 7 14:18 30.12.2019
1454 Clouds -14 978 84 16093 1.96 7 13:42 30.12.2019
1455 Clouds -15 978 84 16093 2.24 11 13:24 30.12.2019
1456 Clouds -15 979 84 16093 2.24 11 12:59 30.12.2019
1457 Clouds -15 979 84 16093 2.24 11 12:41 30.12.2019
1458 Clouds -15 979 84 16093 2.24 11 12:19 30.12.2019
1459 Clouds -15 980 84 16093 2.24 11 11:58 30.12.2019
1460 Clouds -15 980 84 16093 2.24 11 11:39 30.12.2019
1461 Clouds -15 980 84 16093 1.91 30 11:18 30.12.2019
1462 Clouds -15 981 84 16093 1.91 30 10:43 30.12.2019
1463 Clouds -16 981 84 16093 1.91 30 10:21 30.12.2019
1464 Clouds -15 981 84 16093 1.91 30 09:55 30.12.2019
1465 Clouds -15 981 84 16093 1.91 30 09:37 30.12.2019
1466 Clouds -15 981 84 16093 1.91 30 09:19 30.12.2019
1467 Clouds -15 983 84 16093 1.91 30 08:49 30.12.2019
1468 Clouds -16 983 84 16093 1.78 30 08:23 30.12.2019
1469 Clouds -15 984 84 16093 3.04 49 07:55 30.12.2019
1470 Clouds -15 984 84 16093 3.04 49 07:33 30.12.2019
1471 Clouds -16 985 77 16093 3.04 49 06:52 30.12.2019
1472 Clouds -17 988 77 16093 1.94 37 04:56 30.12.2019
1473 Clouds -17 990 70 16093 1.94 37 03:55 30.12.2019
1474 Clouds -18 992 77 16093 1.94 37 02:56 30.12.2019
1475 Clouds -18 992 77 16093 1.94 37 02:37 30.12.2019
1476 Clouds -19 993 77 16093 2.1 50 01:50 30.12.2019
1477 Clouds -19 993 77 16093 2.1 50 01:21 30.12.2019
1478 Clouds -19 995 70 16093 1.5 20 00:44 30.12.2019
1479 Clouds -19 995 70 16093 1.5 20 00:19 30.12.2019
1480 Clouds -20 997 76 16093 1.49 39 23:39 29.12.2019
1481 Clouds -20 997 76 16093 1.49 39 23:39 29.12.2019
1482 Clouds -21 997 76 16093 2.72 30 23:21 29.12.2019
1483 Clouds -22 998 76 16093 2.1 60 22:54 29.12.2019
1484 Clouds -22 998 76 16093 2.1 60 22:36 29.12.2019
1485 Clouds -23 998 76 16093 2.1 60 22:18 29.12.2019
1486 Clouds -24 999 83 16093 2.72 30 21:42 29.12.2019
1487 Clouds -24 999 83 16093 2.72 30 21:21 29.12.2019
1488 Clouds -23 999 76 16093 2.72 30 20:57 29.12.2019
1489 Clouds -23 999 76 16093 2.72 30 20:39 29.12.2019
1490 Clouds -23 999 76 16093 1.99 45 20:20 29.12.2019
1491 Rain -23 997 76 16093 2.6 60 19:59 29.12.2019
1492 Rain -23 997 76 14484 2.6 40 19:40 29.12.2019
1493 Rain -23 997 76 16093 2.6 60 19:21 29.12.2019
1494 Snow -22 997 76 4828 5.7 60 18:58 29.12.2019
1495 Snow -22 997 76 4828 5.7 60 18:38 29.12.2019
1496 Snow -22 999 83 4426 4.1 70 18:20 29.12.2019
1497 Snow -21 999 70 2414 2.6 50 17:58 29.12.2019
1498 Snow -22 999 70 2414 2.6 50 17:39 29.12.2019
1499 Clouds -22 999 70 16093 2.6 60 17:20 29.12.2019
1500 Clouds -22 1000 69 16093 1.5 20 16:56 29.12.2019
1501 Clouds -22 1000 69 16093 1.5 20 16:38 29.12.2019
1502 Clouds -22 1000 69 16093 1.5 20 16:20 29.12.2019
1503 Clouds -22 1000 63 16093 2.6 20 15:58 29.12.2019
1504 Clouds -22 1000 63 16093 2.6 20 15:39 29.12.2019
1505 Clouds -23 1000 63 16093 2.6 20 15:20 29.12.2019
1506 Clouds -22 1001 69 16093 2.5 48 14:58 29.12.2019
1507 Clouds -22 1001 69 16093 2.5 48 14:38 29.12.2019
1508 Clouds -22 1001 69 16093 2.57 39 14:18 29.12.2019
1509 Clouds -22 1002 69 16093 1.5 20 13:57 29.12.2019
1510 Clouds -22 1002 69 16093 1.5 20 13:38 29.12.2019
1511 Clouds -23 1002 69 16093 1.5 20 13:19 29.12.2019
1512 Clouds -23 1003 69 16093 1.5 30 12:45 29.12.2019
1513 Clouds -23 1003 69 16093 1.5 30 12:27 29.12.2019
1514 Clouds -23 1003 69 16093 1.5 30 12:27 29.12.2019
1515 Clouds -23 1003 76 16093 1.5 350 11:58 29.12.2019
1516 Clouds -23 1003 76 16093 1.5 350 11:40 29.12.2019
1517 Clouds -23 1003 76 16093 1.5 350 11:20 29.12.2019
1518 Clouds -23 1003 76 16093 1.5 350 11:20 29.12.2019
1519 Clouds -23 1003 76 16093 1.5 60 10:55 29.12.2019
1520 Clouds -23 1003 76 16093 1.5 60 10:37 29.12.2019
1521 Clouds -23 1003 76 16093 1.5 60 10:18 29.12.2019
1522 Clouds -23 1003 76 16093 1.5 60 10:18 29.12.2019
1523 Clouds -23 1003 76 16093 2.04 51 09:41 29.12.2019
1524 Snow -23 1003 76 8047 2.04 51 09:22 29.12.2019
1525 Snow -23 1004 69 9656 2.04 51 08:48 29.12.2019
1526 Snow -23 1004 69 9656 2.04 51 08:28 29.12.2019
1527 Snow -23 1004 69 16093 1.5 80 07:58 29.12.2019
1528 Clouds -23 1004 69 16093 2.1 100 07:31 29.12.2019
1529 Clouds -24 1004 76 16093 2.1 70 06:57 29.12.2019
1530 Clouds -24 1004 76 16093 2.1 70 06:27 29.12.2019
1531 Clouds -24 1004 69 16093 1.5 60 05:54 29.12.2019
1532 Snow -25 1003 69 9656 2.66 35 04:37 29.12.2019
1533 Snow -25 1003 69 8047 2.6 50 03:59 29.12.2019
1534 Snow -25 1003 69 8047 2.6 50 03:21 29.12.2019
1535 Snow -24 1003 69 6437 2.1 50 02:21 29.12.2019
1536 Snow -24 1002 69 3219 5.1 10 01:42 29.12.2019
1537 Snow -24 1002 69 4828 3.6 40 01:22 29.12.2019
1538 Snow -24 1001 63 6437 6.2 30 00:42 29.12.2019
1539 Snow -24 1001 63 6437 6.2 30 00:24 29.12.2019
1540 Snow -24 1000 69 2012 5.1 30 23:45 28.12.2019
1541 Snow -24 1001 69 2414 2.6 40 23:18 28.12.2019
1542 Snow -24 1000 69 4023 3.1 40 22:40 28.12.2019
1543 Snow -24 999 69 2414 3.6 60 22:21 28.12.2019
1544 Snow -24 999 69 4828 4.6 50 21:59 28.12.2019
1545 Snow -24 999 69 4828 4.6 50 21:40 28.12.2019
1546 Snow -24 999 69 4828 4.6 50 21:40 28.12.2019
1547 Snow -24 998 63 2414 4.6 30 21:22 28.12.2019
1548 Snow -24 998 63 4023 6.2 50 20:59 28.12.2019
1549 Snow -24 998 63 4023 6.2 50 20:38 28.12.2019
1550 Clouds -24 996 57 9656 4.1 30 20:20 28.12.2019
1551 Snow -24 997 63 8047 4.6 40 19:58 28.12.2019
1552 Snow -24 997 63 8047 4.6 40 19:39 28.12.2019
1553 Snow -24 997 63 8047 4.6 40 19:21 28.12.2019
1554 Snow -25 996 83 6437 1.5 40 18:58 28.12.2019
1555 Snow -25 996 83 6437 1.5 40 18:40 28.12.2019
1556 Snow -25 996 83 6437 1.5 40 18:19 28.12.2019
1557 Snow -24 995 75 6437 2.49 20 17:55 28.12.2019
1558 Snow -24 995 75 6437 2.49 20 17:55 28.12.2019
1559 Snow -25 995 75 6437 2.49 20 17:37 28.12.2019
1560 Snow -25 995 83 6437 3.02 29 17:18 28.12.2019
1561 Snow -25 995 75 4828 3.02 29 16:46 28.12.2019
1562 Snow -25 995 75 4023 2.6 20 16:26 28.12.2019
1563 Snow -25 995 75 4023 2.6 20 16:26 28.12.2019
1564 Snow -25 995 75 4023 2.6 20 16:26 28.12.2019
1565 Snow -25 996 75 6437 1.5 130 15:49 28.12.2019
1566 Snow -25 996 75 4828 3.02 29 15:25 28.12.2019
1567 Snow -26 997 68 16093 3.02 29 14:59 28.12.2019
1568 Snow -26 997 68 16093 3.02 29 14:40 28.12.2019
1569 Snow -27 997 68 16093 2.82 10 14:21 28.12.2019
1570 Snow -28 997 68 6437 3.6 30 13:56 28.12.2019
1571 Snow -28 997 68 6437 3.6 30 13:37 28.12.2019
1572 Clouds -28 998 75 16093 2.43 14 13:18 28.12.2019
1573 Clouds -28 999 74 16093 2.43 14 12:43 28.12.2019
1574 Clouds -28 999 74 16093 2.43 14 12:43 28.12.2019
1575 Clouds -28 999 74 16093 2.43 14 12:24 28.12.2019
1576 Clouds -31 1000 73 16093 2.43 14 11:56 28.12.2019
1577 Clouds -31 1000 73 16093 2.43 14 11:56 28.12.2019
1578 Clouds -31 1000 73 16093 2.43 14 11:38 28.12.2019
1579 Clouds -34 1000 73 16093 2.81 21 11:19 28.12.2019
1580 Clouds -37 1002 73 14484 2.81 21 10:44 28.12.2019
1581 Clouds -36 1002 73 14484 2.81 21 10:22 28.12.2019
1582 Clouds -34 1002 73 14484 2.81 21 09:57 28.12.2019
1583 Clouds -33 1002 73 14484 2.81 21 09:39 28.12.2019
1584 Clouds -33 1002 73 14484 2.81 21 09:19 28.12.2019
1585 Haze -34 1004 72 8047 2.81 21 08:44 28.12.2019
1586 Haze -35 1005 65 3017 2.14 29 08:26 28.12.2019
1587 Haze -35 1006 65 8047 2.3 25 07:53 28.12.2019
1588 Haze -36 1006 65 8047 2.3 25 07:30 28.12.2019
1589 Haze -35 1007 65 8047 2.3 25 06:27 28.12.2019
1590 Haze -37 1009 72 8047 2.22 31 04:36 28.12.2019
1591 Clear -37 1010 65 14484 2.22 31 03:39 28.12.2019
1592 Clouds -37 1010 88 12874 2.22 31 02:48 28.12.2019
1593 Clouds -35 1012 65 14484 1.54 37 01:59 28.12.2019
1594 Clouds -35 1012 65 14484 1.54 37 01:30 28.12.2019
1595 Mist -36 1012 65 4828 1.72 34 00:58 28.12.2019
1596 Mist -36 1012 65 4828 1.72 34 00:38 28.12.2019
1597 Mist -36 1012 65 4828 1.72 34 00:19 28.12.2019
1598 Clouds -35 1012 65 12874 1.72 34 23:43 27.12.2019
1599 Clouds -34 1012 65 12874 0.92 36 23:20 27.12.2019
1600 Mist -34 1011 94 4828 0.92 36 22:57 27.12.2019
1601 Mist -34 1011 94 4828 0.92 36 22:38 27.12.2019
1602 Clear -34 1012 73 12874 0.92 36 22:20 27.12.2019
1603 Mist -34 1011 94 3219 0.92 36 21:55 27.12.2019
1604 Mist -34 1011 94 3219 0.92 36 21:37 27.12.2019
1605 Haze -33 1012 73 8047 0.92 36 21:18 27.12.2019
1606 Clouds -33 1011 60 16093 0.92 36 20:41 27.12.2019
1607 Mist -32 1011 67 9656 0.27 58 20:22 27.12.2019
1608 Snow -32 1011 74 4828 0.27 58 19:43 27.12.2019
1609 Snow -32 1011 74 4828 0.27 58 19:21 27.12.2019
1610 Snow -31 1010 61 9656 0.27 58 18:59 27.12.2019
1611 Snow -31 1010 61 9656 0.27 58 18:39 27.12.2019
1612 Snow -31 1010 74 4828 0.27 58 18:21 27.12.2019
1613 Clouds -31 1009 67 12874 0.27 58 17:58 27.12.2019
1614 Clouds -31 1009 67 12874 0.27 58 17:39 27.12.2019
1615 Snow -31 1010 74 9656 1.5 220 17:19 27.12.2019
1616 Haze -30 1009 67 9656 0.45 24 16:58 27.12.2019
1617 Haze -30 1009 67 9656 0.45 24 16:38 27.12.2019
1618 Haze -30 1010 74 9656 1.5 220 16:19 27.12.2019
1619 Haze -30 1010 74 8047 0.45 24 15:45 27.12.2019
1620 Haze -30 1010 74 8047 0.45 24 15:22 27.12.2019
1621 Haze -30 1010 74 9656 0.45 24 14:58 27.12.2019
1622 Haze -29 1010 74 9656 0.45 24 14:39 27.12.2019
1623 Haze -29 1010 74 9656 0.59 9 14:20 27.12.2019
1624 Clouds -29 1009 68 11265 0.59 9 13:55 27.12.2019
1625 Clouds -29 1009 68 11265 0.59 9 13:37 27.12.2019
1626 Clouds -29 1010 74 11265 0.54 12 13:18 27.12.2019
1627 Snow -29 1009 68 8047 0.54 12 12:40 27.12.2019
1628 Clouds -29 1010 68 14484 0.54 12 12:22 27.12.2019
1629 Snow -29 1009 61 9656 0.54 12 11:46 27.12.2019
1630 Clouds -29 1010 75 11265 0.54 12 11:26 27.12.2019
1631 Snow -29 1010 75 9656 0.37 326 10:59 27.12.2019
1632 Snow -29 1010 75 9656 0.37 326 10:40 27.12.2019
1633 Snow -29 1010 75 9656 0.37 326 10:22 27.12.2019
1634 Snow -29 1010 75 12874 0.37 326 09:46 27.12.2019
1635 Clouds -29 1010 75 12874 0.37 326 09:22 27.12.2019
1636 Clouds -29 1010 75 12874 0.37 326 08:59 27.12.2019
1637 Clouds -29 1010 75 12874 0.37 326 08:59 27.12.2019
1638 Clouds -28 1010 75 12874 0.37 326 08:38 27.12.2019
1639 Snow -28 1009 68 14484 0.5 307 07:53 27.12.2019
1640 Snow -28 1009 68 14484 0.5 307 07:34 27.12.2019
1641 Clouds -28 1009 75 16093 0.5 307 06:39 27.12.2019
1642 Clouds -28 1009 75 16093 0.5 307 06:18 27.12.2019
1643 Clear -27 1009 82 16093 0.73 317 04:20 27.12.2019
1644 Clouds -27 1008 75 14484 0.73 317 02:25 27.12.2019
1645 Snow -26 1007 62 6437 1.5 230 01:42 27.12.2019
1646 Clouds -26 1007 75 14484 0.88 316 01:20 27.12.2019
1647 Clouds -26 1007 82 12874 0.77 319 00:46 27.12.2019
1648 Clouds -26 1007 82 12874 0.77 319 00:25 27.12.2019
1649 Clouds -26 1006 75 16093 0.77 319 23:44 26.12.2019
1650 Clouds -26 1006 75 16093 0.77 319 23:24 26.12.2019
1651 Snow -25 1005 62 3219 0.91 314 22:58 26.12.2019
1652 Snow -25 1005 62 3219 0.91 314 22:38 26.12.2019
1653 Clouds -25 1006 75 16093 2.1 200 22:18 26.12.2019
1654 Snow -26 1005 62 8047 2.6 260 21:39 26.12.2019
1655 Mist -26 1005 83 9656 0.91 314 21:21 26.12.2019
1656 Mist -26 1005 75 8047 0.91 314 20:54 26.12.2019
1657 Mist -26 1005 75 8047 0.75 311 20:36 26.12.2019
1658 Snow -26 1005 75 9656 1.01 286 20:18 26.12.2019
1659 Snow -26 1005 75 9656 0.81 282 20:18 26.12.2019
1660 Snow -26 1004 75 4828 0.81 282 19:54 26.12.2019
1661 Snow -25 1004 75 4828 0.81 282 19:36 26.12.2019
1662 Snow -25 1004 75 4828 0.81 282 19:18 26.12.2019
1663 Snow -25 1004 69 3219 0.81 282 18:55 26.12.2019
1664 Snow -25 1004 69 3219 0.81 282 18:36 26.12.2019
1665 Snow -25 1003 75 4023 0.81 282 18:18 26.12.2019
1666 Snow -26 1002 69 2414 0.81 282 17:40 26.12.2019
1667 Snow -25 1002 69 2414 0.94 293 17:20 26.12.2019
1668 Snow -26 1001 69 9656 2.6 250 16:48 26.12.2019
1669 Snow -26 1002 83 4828 0.94 293 16:26 26.12.2019
1670 Snow -26 1001 69 4828 0.94 293 15:57 26.12.2019
1671 Snow -26 1001 69 4828 0.94 293 15:38 26.12.2019
1672 Clouds -26 1001 75 0 0.94 293 15:19 26.12.2019
1673 Clouds -26 1001 75 0 0.94 293 15:19 26.12.2019
1674 Clouds -26 1001 75 0 0.94 293 14:41 26.12.2019
1675 Clouds -26 1001 75 0 0.94 293 14:23 26.12.2019
1676 Clouds -26 1001 75 0 1.17 303 14:23 26.12.2019
1677 Clouds -26 1001 75 0 0.94 293 14:23 26.12.2019
1678 Clouds -26 1001 75 0 1.17 303 13:45 26.12.2019
1679 Clouds -26 1000 75 0 1.5 200 13:26 26.12.2019
1680 Clouds -26 999 75 0 1.5 270 12:59 26.12.2019
1681 Clouds -26 999 75 0 1.5 270 12:59 26.12.2019
1682 Clouds -26 999 75 0 1.5 270 12:41 26.12.2019
1683 Clouds -26 999 75 0 1.5 270 12:23 26.12.2019
1684 Clouds -26 1000 75 0 0.9 301 11:59 26.12.2019
1685 Clouds -26 1000 75 0 0.9 301 11:40 26.12.2019
1686 Clouds -26 1000 75 0 0.87 314 11:21 26.12.2019
1687 Clouds -26 999 75 0 0.87 314 10:50 26.12.2019
1688 Clouds -26 999 75 0 0.87 314 10:25 26.12.2019
1689 Clouds -26 999 75 0 0.87 314 09:54 26.12.2019
1690 Clouds -26 999 75 0 0.87 314 09:33 26.12.2019
1691 Clouds -26 999 75 0 0.87 314 08:59 26.12.2019
1692 Clouds -26 999 75 0 0.87 314 08:39 26.12.2019
1693 Clouds -26 999 82 0 0.93 313 08:20 26.12.2019
1694 Clouds -26 998 68 16093 0.93 313 07:38 26.12.2019
1695 Clouds -27 998 82 0 0.93 313 07:19 26.12.2019
1696 Clouds -27 998 69 16093 0.93 313 06:37 26.12.2019
1697 Clear -27 998 82 0 0.93 313 06:19 26.12.2019
1698 Snow -27 997 69 16093 0.93 313 05:41 26.12.2019
1699 Clear -26 999 75 0 0.82 305 04:33 26.12.2019
1700 Clear -27 999 75 0 0.82 305 03:31 26.12.2019
1701 Clouds -26 998 75 0 0.82 305 02:46 26.12.2019
1702 Clouds -26 998 75 0 0.82 305 02:27 26.12.2019
1703 Clouds -27 998 68 12874 0.77 295 01:44 26.12.2019
1704 Clouds -27 998 68 12874 0.84 322 01:25 26.12.2019
1705 Clear -27 998 82 0 0.84 322 00:44 26.12.2019
1706 Clear -27 998 82 0 0.84 322 00:23 26.12.2019
1707 Clear -27 998 82 0 0.84 322 00:23 26.12.2019
1708 Clouds -27 999 82 0 0.84 322 23:57 25.12.2019
1709 Clouds -27 999 82 0 0.84 322 23:37 25.12.2019
1710 Clouds -27 999 82 0 0.17 93 23:19 25.12.2019
1711 Clouds -26 998 75 0 0.17 93 22:56 25.12.2019
1712 Clouds -26 998 75 0 0.17 93 22:37 25.12.2019
1713 Clouds -26 998 75 0 0.17 93 22:18 25.12.2019
1714 Clouds -25 998 75 0 0.17 93 21:55 25.12.2019
1715 Clouds -25 998 75 0 0.17 93 21:55 25.12.2019
1716 Clouds -25 998 75 0 0.17 93 21:37 25.12.2019
1717 Clouds -25 998 75 0 0.17 93 21:18 25.12.2019
1718 Clouds -25 998 83 0 0.17 93 20:40 25.12.2019
1719 Clouds -25 998 83 0 0.59 147 20:21 25.12.2019
1720 Clouds -25 997 83 0 1.5 110 19:59 25.12.2019
1721 Clouds -25 997 83 0 1.5 110 19:41 25.12.2019
1722 Clouds -25 997 83 0 1.5 110 19:21 25.12.2019
1723 Clouds -25 997 82 0 0.59 147 18:40 25.12.2019
1724 Clouds -25 997 82 0 0.59 147 18:21 25.12.2019
1725 Clouds -25 997 82 0 0.59 147 18:21 25.12.2019
1726 Clouds -25 997 76 0 0.59 147 17:57 25.12.2019
1727 Clouds -25 997 76 0 0.59 147 17:39 25.12.2019
1728 Clouds -25 997 76 0 0.93 228 17:18 25.12.2019
1729 Clouds -25 996 76 0 1.5 170 16:54 25.12.2019
1730 Clouds -24 996 76 0 1.5 170 16:36 25.12.2019
1731 Clouds -24 996 76 0 1.5 170 16:18 25.12.2019
1732 Clouds -24 996 83 0 0.93 228 15:55 25.12.2019
1733 Clouds -24 996 83 0 0.93 228 15:36 25.12.2019
1734 Rain -23 996 76 0 1.5 160 15:18 25.12.2019
1735 Snow -23 995 63 6437 0.93 228 14:42 25.12.2019
1736 Rain -23 996 76 0 0.93 228 14:23 25.12.2019
1737 Snow -23 995 69 1609 1.5 190 13:58 25.12.2019
1738 Snow -23 995 69 1609 1.5 190 13:39 25.12.2019
1739 Rain -23 995 83 0 1.27 306 13:20 25.12.2019
1740 Snow -22 995 76 1609 2.6 190 12:43 25.12.2019
1741 Clouds -22 995 76 0 2.1 220 12:22 25.12.2019
1742 Clouds -22 995 76 0 1.2 299 11:58 25.12.2019
1743 Clouds -22 995 76 0 1.2 299 11:40 25.12.2019
1744 Clouds -22 994 76 0 1.28 313 11:20 25.12.2019
1745 Clouds -22 995 76 0 1.28 313 10:39 25.12.2019
1746 Clouds -22 994 76 0 1.28 313 10:21 25.12.2019
1747 Clouds -22 994 83 0 1.28 313 09:52 25.12.2019
1748 Snow -22 994 69 4023 2.1 200 09:34 25.12.2019
1749 Clouds -22 995 76 0 2.6 230 08:56 25.12.2019
1750 Clouds -22 995 76 0 2.6 230 08:38 25.12.2019
1751 Snow -22 994 69 9656 1.5 210 08:19 25.12.2019
1752 Clouds -22 995 76 0 1.39 338 07:42 25.12.2019
1753 Clouds -22 995 76 0 1.39 338 07:22 25.12.2019
1754 Clouds -22 995 76 0 1.39 338 06:24 25.12.2019
1755 Clouds -22 995 69 16093 1.39 338 05:49 25.12.2019
1756 Clouds -22 995 69 14484 1.14 357 04:44 25.12.2019
1757 Snow -22 995 76 4023 1.14 357 04:24 25.12.2019
1758 Snow -22 995 69 9656 1.14 357 03:43 25.12.2019
1759 Clouds -22 996 83 0 1.14 357 02:59 25.12.2019
1760 Snow -22 996 69 8047 1.14 357 02:29 25.12.2019
1761 Snow -23 996 69 3219 1.5 210 01:44 25.12.2019
1762 Clouds -23 996 76 0 1.54 358 01:19 25.12.2019
1763 Snow -23 996 69 11265 1.54 358 00:42 25.12.2019
1764 Clouds -23 996 76 0 1.54 358 00:23 25.12.2019
1765 Mist -23 995 76 4828 1.54 358 23:40 24.12.2019
1766 Clouds -23 996 76 0 1.43 3 23:20 24.12.2019
1767 Snow -23 996 76 3219 1.43 3 22:55 24.12.2019
1768 Snow -24 996 76 3219 1.43 3 22:37 24.12.2019
1769 Clouds -24 996 76 0 1.43 3 22:19 24.12.2019
1770 Clouds -24 996 76 0 1.43 3 21:41 24.12.2019
1771 Clouds -24 996 76 0 1.43 3 21:20 24.12.2019
1772 Clouds -24 996 76 0 1.43 3 20:43 24.12.2019
1773 Clouds -24 996 76 0 1.43 3 20:23 24.12.2019
1774 Clouds -24 995 76 0 0.96 345 19:56 24.12.2019
1775 Clouds -24 995 76 0 0.96 345 19:37 24.12.2019
1776 Clouds -24 995 76 0 0.96 345 19:18 24.12.2019
1777 Snow -24 994 69 11265 0.96 345 18:42 24.12.2019
1778 Clouds -24 995 76 0 0.96 345 18:19 24.12.2019
1779 Snow -24 994 69 6437 0.96 345 17:44 24.12.2019
1780 Clouds -24 994 76 0 0.96 345 17:23 24.12.2019
1781 Clouds -24 994 75 0 0.96 337 16:58 24.12.2019
1782 Clouds -24 994 75 0 0.96 337 16:40 24.12.2019
1783 Rain -24 994 75 0 0.96 337 16:21 24.12.2019
1784 Rain -24 994 75 0 0.96 337 16:21 24.12.2019
1785 Snow -24 994 69 4828 0.96 337 15:58 24.12.2019
1786 Snow -24 994 69 4828 0.96 337 15:58 24.12.2019
1787 Snow -24 994 69 4828 0.96 337 15:37 24.12.2019
1788 Rain -24 994 75 0 0.96 337 15:19 24.12.2019
1789 Clouds -25 994 83 0 0.96 337 14:58 24.12.2019
1790 Clouds -25 994 83 0 0.96 337 14:40 24.12.2019
1791 Clouds -25 994 83 0 0.51 306 14:22 24.12.2019
1792 Snow -25 993 69 6437 0.51 306 13:56 24.12.2019
1793 Snow -25 993 69 6437 0.51 306 13:38 24.12.2019
1794 Clouds -25 993 75 0 0.51 306 13:20 24.12.2019
1795 Clouds -25 993 75 0 0.52 316 12:57 24.12.2019
1796 Clouds -25 993 75 0 0.52 316 12:38 24.12.2019
1797 Clouds -25 993 75 0 0.52 316 12:19 24.12.2019
1798 Clouds -25 992 69 16093 0.52 316 11:57 24.12.2019
1799 Clouds -25 992 69 16093 0.52 316 11:37 24.12.2019
1800 Clouds -25 993 75 0 0.49 295 11:19 24.12.2019
1801 Clouds -25 993 75 0 0.49 295 10:56 24.12.2019
1802 Clouds -25 993 75 0 0.49 295 10:38 24.12.2019
1803 Clouds -25 993 75 0 0.49 295 10:20 24.12.2019
1804 Clouds -25 993 75 0 0.49 295 10:20 24.12.2019
1805 Clouds -25 992 75 0 0.49 295 09:56 24.12.2019
1806 Clouds -25 992 75 0 0.49 295 09:38 24.12.2019
1807 Clouds -25 992 75 0 0.49 295 09:20 24.12.2019
1808 Clouds -24 992 75 0 0.49 295 08:47 24.12.2019
1809 Clouds -24 992 75 0 0.49 295 08:24 24.12.2019
1810 Clouds -25 991 83 0 0.4 298 07:55 24.12.2019
1811 Clouds -25 991 83 0 0.4 298 07:37 24.12.2019
1812 Clouds -25 991 83 0 0.4 298 07:18 24.12.2019
1813 Clouds -25 991 75 0 0.4 298 06:39 24.12.2019
1814 Clouds -24 991 75 0 0.4 298 06:19 24.12.2019
1815 Clouds -24 990 75 0 0.4 298 05:50 24.12.2019
1816 Clouds -24 990 75 0 0.21 327 05:19 24.12.2019
1817 Clouds -24 990 83 0 1.5 220 04:21 24.12.2019
1818 Clouds -23 989 83 0 1.5 200 03:45 24.12.2019
1819 Clouds -23 989 76 0 2.1 220 02:28 24.12.2019
1820 Clouds -23 988 69 16093 2.1 220 01:54 24.12.2019
1821 Clouds -23 988 69 16093 2.1 220 01:26 24.12.2019
1822 Clouds -22 988 76 16093 0.62 327 00:58 24.12.2019
1823 Clouds -22 988 76 16093 0.62 327 00:39 24.12.2019
1824 Clouds -22 988 76 16093 0.62 327 00:19 24.12.2019
1825 Clouds -23 988 76 16093 0.62 327 23:42 23.12.2019
1826 Clouds -23 988 76 16093 0.62 327 23:24 23.12.2019
1827 Clouds -23 988 76 16093 0.84 344 22:57 23.12.2019
1828 Clouds -24 988 76 16093 0.84 344 22:38 23.12.2019
1829 Clouds -24 988 76 16093 0.84 344 22:38 23.12.2019
1830 Clouds -24 988 76 16093 0.84 344 22:20 23.12.2019
1831 Clouds -24 988 76 16093 0.84 344 22:20 23.12.2019
1832 Clouds -25 988 83 16093 0.84 344 21:56 23.12.2019
1833 Clouds -24 988 83 16093 0.84 344 21:37 23.12.2019
1834 Clouds -24 988 83 16093 0.84 344 21:19 23.12.2019
1835 Clouds -25 988 75 16093 0.84 344 20:58 23.12.2019
1836 Clouds -26 988 75 16093 0.84 344 20:40 23.12.2019
1837 Clouds -26 988 75 16093 1.02 360 20:19 23.12.2019
1838 Clouds -26 988 75 16093 1.02 360 20:19 23.12.2019
1839 Clouds -26 988 75 16093 1.02 360 20:19 23.12.2019
1840 Clouds -27 988 75 16093 1.14 9 19:58 23.12.2019
1841 Clouds -27 988 75 16093 1.14 9 19:39 23.12.2019
1842 Clouds -27 988 75 16093 1.14 9 19:20 23.12.2019
1843 Clouds -28 988 74 16093 1.14 9 18:58 23.12.2019
1844 Clouds -28 988 74 16093 1.14 9 18:58 23.12.2019
1845 Clouds -28 988 74 16093 1.14 9 18:39 23.12.2019
1846 Clouds -28 988 74 16093 1.14 9 18:20 23.12.2019
1847 Clouds -29 989 74 16093 1.14 9 17:58 23.12.2019
1848 Clouds -31 989 74 16093 1.14 9 17:40 23.12.2019
1849 Clouds -29 989 74 16093 1.02 2 17:19 23.12.2019
1850 Clouds -29 990 74 0 1.02 2 16:57 23.12.2019
1851 Clouds -29 990 74 0 1.02 2 16:39 23.12.2019
1852 Clouds -29 989 74 16093 1.02 2 16:18 23.12.2019
1853 Clear -29 990 74 0 1.02 2 15:57 23.12.2019
1854 Clear -30 990 74 0 1.02 2 15:37 23.12.2019
1855 Clouds -30 990 67 16093 1.02 2 15:19 23.12.2019
1856 Clouds -30 991 74 0 1.02 2 14:56 23.12.2019
1857 Clouds -30 991 74 0 1.02 2 14:56 23.12.2019
1858 Clouds -31 991 74 0 1.02 2 14:38 23.12.2019
1859 Clouds -30 991 75 16093 0.75 360 14:18 23.12.2019
1860 Clouds -30 991 74 0 0.75 360 13:56 23.12.2019
1861 Clouds -30 991 74 0 0.75 360 13:37 23.12.2019
1862 Clouds -31 991 68 14484 0.8 355 13:19 23.12.2019
1863 Clouds -30 991 67 16093 1.5 10 12:54 23.12.2019
1864 Clouds -30 993 74 0 0.8 355 12:36 23.12.2019
1865 Clouds -30 993 74 0 0.8 355 12:18 23.12.2019
1866 Clear -31 993 74 0 0.8 355 11:42 23.12.2019
1867 Snow -32 993 67 16093 0.8 355 11:22 23.12.2019
1868 Clear -32 994 66 0 0.87 359 10:56 23.12.2019
1869 Clear -33 994 66 0 0.87 359 10:37 23.12.2019
1870 Clouds -33 994 67 16093 0.87 359 10:18 23.12.2019
1871 Clear -33 994 73 0 0.87 359 09:56 23.12.2019
1872 Clear -33 994 73 0 0.87 359 09:37 23.12.2019
1873 Clouds -33 994 67 16093 0.87 359 09:19 23.12.2019
1874 Clear -33 995 66 0 0.87 359 08:41 23.12.2019
1875 Clear -34 995 66 0 1.08 11 08:22 23.12.2019
1876 Clouds -34 995 66 0 1.08 11 07:56 23.12.2019
1877 Clouds -35 995 66 0 1.08 11 07:38 23.12.2019
1878 Clouds -35 995 79 16093 1.08 11 07:18 23.12.2019
1879 Clouds -36 996 73 0 1.08 11 06:39 23.12.2019
1880 Clouds -36 996 73 0 1.08 11 06:21 23.12.2019
1881 Clouds -36 996 65 0 1.08 11 05:45 23.12.2019
1882 Clear -33 997 73 0 1.79 32 04:44 23.12.2019
1883 Clear -36 998 65 0 1.79 32 03:59 23.12.2019
1884 Clear -36 999 73 0 1.79 32 02:48 23.12.2019
1885 Clouds -36 999 82 16093 1.67 41 02:20 23.12.2019
1886 Clear -36 1000 73 0 1.67 41 01:51 23.12.2019
1887 Clear -36 1000 73 0 1.54 39 01:32 23.12.2019
1888 Clear -36 1001 66 0 1.54 39 00:49 23.12.2019
1889 Clouds -36 1001 81 16093 1.54 39 00:30 23.12.2019
1890 Clear -36 1002 73 0 1.54 39 23:57 22.12.2019
1891 Clear -36 1002 73 0 1.54 39 23:38 22.12.2019
1892 Clear -36 1002 73 0 1.76 37 23:20 22.12.2019
1893 Clear -36 1003 65 0 1.76 37 22:57 22.12.2019
1894 Clear -36 1003 65 0 1.76 37 22:38 22.12.2019
1895 Clear -33 1003 65 0 1.76 37 22:19 22.12.2019
1896 Haze -37 1003 59 4828 1.76 37 21:56 22.12.2019
1897 Haze -35 1003 59 4828 1.76 37 21:38 22.12.2019
1898 Clear -35 1004 73 0 1.76 37 21:20 22.12.2019
1899 Haze -32 1004 59 3219 1.76 37 20:41 22.12.2019
1900 Clouds -34 1005 85 16093 1.22 44 20:19 22.12.2019
1901 Haze -34 1005 59 8047 1.19 46 19:58 22.12.2019
1902 Haze -34 1005 59 8047 1.19 46 19:39 22.12.2019
1903 Clouds -33 1006 73 0 1.19 46 19:20 22.12.2019
1904 Clouds -32 1007 73 0 1.19 46 18:55 22.12.2019
1905 Clouds -32 1007 73 0 1.19 46 18:37 22.12.2019
1906 Clouds -32 1007 73 0 1.19 46 18:18 22.12.2019
1907 Clouds -32 1008 73 0 1.19 46 17:54 22.12.2019
1908 Clouds -32 1008 73 0 1.19 46 17:36 22.12.2019
1909 Clouds -32 1008 73 0 0.91 50 17:18 22.12.2019
1910 Clouds -32 1009 66 0 0.91 50 16:42 22.12.2019
1911 Clouds -32 1009 66 0 0.91 50 16:42 22.12.2019
1912 Snow -33 1009 87 16093 0.91 50 16:23 22.12.2019
1913 Clouds -32 1010 73 0 0.91 50 15:57 22.12.2019
1914 Clouds -32 1010 73 0 0.91 50 15:39 22.12.2019
1915 Clouds -32 1010 73 0 0.91 50 15:21 22.12.2019
1916 Clouds -32 1011 73 0 0.91 50 14:57 22.12.2019
1917 Clouds -32 1011 73 0 0.91 50 14:38 22.12.2019
1918 Clouds -32 1011 73 0 0.79 43 14:19 22.12.2019
1919 Clouds -31 1011 66 0 0.79 43 13:56 22.12.2019
1920 Clouds -32 1011 66 0 0.79 43 13:38 22.12.2019
1921 Clouds -33 1011 66 0 0.89 35 13:19 22.12.2019
1922 Snow -32 1011 58 16093 0.89 35 12:57 22.12.2019
1923 Snow -33 1011 58 16093 0.89 35 12:38 22.12.2019
1924 Clouds -34 1012 89 16093 0.89 35 12:19 22.12.2019
1925 Clouds -33 1013 73 0 0.89 35 11:57 22.12.2019
1926 Clouds -34 1013 73 0 0.89 35 11:38 22.12.2019
1927 Clouds -34 1013 73 0 0.61 76 11:19 22.12.2019
1928 Clouds -34 1013 73 0 0.61 76 10:57 22.12.2019
1929 Clouds -34 1013 73 0 0.61 76 10:57 22.12.2019
1930 Clouds -34 1013 73 0 0.61 76 10:38 22.12.2019
1931 Clouds -35 1013 91 16093 0.61 76 10:19 22.12.2019
1932 Clouds -35 1014 73 0 0.61 76 09:57 22.12.2019
1933 Clouds -35 1014 73 0 0.61 76 09:57 22.12.2019
1934 Clouds -35 1014 73 0 0.61 76 09:39 22.12.2019
1935 Clouds -34 1013 91 16093 0.61 76 09:20 22.12.2019
1936 Clouds -34 1014 73 0 0.61 76 08:45 22.12.2019
1937 Clouds -33 1013 92 16093 1.5 100 08:22 22.12.2019
1938 Clouds -33 1014 73 0 0.6 86 07:44 22.12.2019
1939 Clouds -33 1014 92 16093 0.6 86 07:21 22.12.2019
1940 Clouds -33 1014 92 16093 0.6 86 07:21 22.12.2019
1941 Clouds -33 1014 73 0 0.6 86 06:55 22.12.2019
1942 Clouds -33 1014 73 0 0.6 86 06:26 22.12.2019
1943 Clear -34 1014 65 0 0.6 86 05:33 22.12.2019
1944 Clouds -33 1013 66 0 0.46 144 04:55 22.12.2019
1945 Clouds -33 1013 93 16093 0.46 144 04:26 22.12.2019
1946 Clouds -33 1013 73 0 0.46 144 02:46 22.12.2019
1947 Clouds -34 1013 73 0 0.46 144 02:23 22.12.2019
1948 Clouds -34 1012 65 0 0.5 139 01:32 22.12.2019
1949 Clouds -33 1011 59 16093 0.41 138 00:56 22.12.2019
1950 Clouds -33 1011 59 16093 0.41 138 00:56 22.12.2019
1951 Clouds -33 1011 91 16093 0.41 138 00:36 22.12.2019
1952 Clouds -34 1011 91 16093 0.41 138 00:18 22.12.2019
1953 Clouds -34 1011 73 0 0.41 138 23:41 21.12.2019
1954 Clouds -36 1011 73 0 0.32 163 23:21 21.12.2019
1955 Clouds -35 1011 65 0 0.32 163 22:57 21.12.2019
1956 Clouds -34 1010 88 16093 0.32 163 22:37 21.12.2019
1957 Clouds -34 1010 88 16093 0.32 163 22:18 21.12.2019
1958 Clouds -34 1010 73 0 0.32 163 21:54 21.12.2019
1959 Clouds -34 1010 73 0 0.32 163 21:36 21.12.2019
1960 Clouds -34 1010 73 0 0.32 163 21:18 21.12.2019
1961 Clouds -36 1009 73 0 0.32 163 20:56 21.12.2019
1962 Clouds -37 1009 73 0 0.32 163 20:37 21.12.2019
1963 Clouds -35 1008 83 16093 0.26 228 20:19 21.12.2019
1964 Clouds -34 1008 73 0 0.26 228 19:55 21.12.2019
1965 Clouds -35 1008 73 0 0.26 228 19:36 21.12.2019
1966 Clouds -34 1008 73 0 0.26 228 19:18 21.12.2019
1967 Clouds -34 1007 65 0 0.26 228 18:41 21.12.2019
1968 Clouds -34 1007 83 16093 0.26 228 18:23 21.12.2019
1969 Clouds -34 1007 83 16093 0.26 228 18:23 21.12.2019
1970 Clouds -36 1007 73 0 0.26 228 17:56 21.12.2019
1971 Clouds -35 1007 73 0 0.26 228 17:38 21.12.2019
1972 Clouds -34 1007 73 0 0.42 11 17:19 21.12.2019
1973 Clouds -34 1006 65 0 0.42 11 16:56 21.12.2019
1974 Clouds -35 1006 65 0 0.42 11 16:38 21.12.2019
1975 Clouds -35 1006 81 16093 0.42 11 16:18 21.12.2019
1976 Snow -35 1006 81 14484 0.42 11 15:55 21.12.2019
1977 Snow -36 1006 81 14484 0.42 11 15:37 21.12.2019
1978 Snow -35 1006 81 14484 0.42 11 15:18 21.12.2019
1979 Clouds -37 1006 65 0 0.42 11 14:41 21.12.2019
1980 Clear -37 1006 81 16093 0.42 11 14:23 21.12.2019
1981 Clouds -35 1006 65 0 1.14 33 13:58 21.12.2019
1982 Clouds -35 1006 65 0 1.14 33 13:39 21.12.2019
1983 Clouds -37 1006 80 16093 1.5 340 13:19 21.12.2019
1984 Clouds -37 1006 80 16093 1.5 340 13:19 21.12.2019
1985 Clear -37 1006 65 0 1.12 34 12:56 21.12.2019
1986 Clear -37 1006 65 0 1.12 34 12:38 21.12.2019
1987 Clear -37 1006 65 0 1.12 34 12:20 21.12.2019
1988 Clear -37 1006 73 0 1.12 34 11:46 21.12.2019
1989 Clear -37 1006 73 0 1.12 34 11:27 21.12.2019
1990 Clear -36 1006 73 0 1.42 38 10:59 21.12.2019
1991 Clear -36 1006 73 0 1.42 38 10:40 21.12.2019
1992 Clear -36 1006 80 14484 1.42 38 10:21 21.12.2019
1993 Clear -36 1007 73 0 1.42 38 09:58 21.12.2019
1994 Clear -36 1007 73 0 1.42 38 09:39 21.12.2019
1995 Clear -36 1006 80 14484 1.42 38 09:19 21.12.2019
1996 Clear -36 1007 73 0 1.42 38 08:47 21.12.2019
1997 Clear -36 1006 80 14484 1.42 38 08:27 21.12.2019
1998 Clear -36 1007 73 0 1.6 39 07:47 21.12.2019
1999 Clear -37 1007 73 0 1.6 39 07:23 21.12.2019
2000 Clear -37 1007 73 0 1.6 39 06:58 21.12.2019
2001 Clear -37 1007 73 0 1.6 39 06:40 21.12.2019
2002 Clear -37 1007 73 0 1.6 39 06:21 21.12.2019
2003 Clear -36 1008 73 0 1.6 39 05:25 21.12.2019
2004 Clear -34 1008 65 0 1.52 37 04:34 21.12.2019
2005 Mist -36 1007 66 4828 1.52 37 03:56 21.12.2019
2006 Clear -35 1008 81 16093 1.31 41 02:25 21.12.2019
2007 Fog -35 1008 59 0 1.31 41 01:43 21.12.2019
2008 Clear -35 1009 81 16093 1.5 20 01:24 21.12.2019
2009 Clear -33 1010 73 0 1.58 39 00:40 21.12.2019
2010 Clear -34 1010 73 0 1.58 39 00:21 21.12.2019
2011 Mist -34 1009 59 6437 1.58 39 23:39 20.12.2019
2012 Clear -34 1010 73 16093 1.33 43 23:21 20.12.2019
2013 Clouds -34 1009 59 4828 1.33 43 22:59 20.12.2019
2014 Clouds -34 1009 59 4828 1.33 43 22:39 20.12.2019
2015 Clear -34 1010 73 16093 1.33 43 22:18 20.12.2019
2016 Clear -36 1010 80 16093 1.33 43 21:41 20.12.2019
2017 Clear -36 1011 73 16093 1.33 43 21:21 20.12.2019
2018 Clear -35 1011 73 16093 1.33 43 20:59 20.12.2019
2019 Clear -34 1011 73 16093 1.33 43 20:38 20.12.2019
2020 Clear -35 1011 73 16093 1.16 39 20:19 20.12.2019
2021 Clouds -34 1011 80 16093 1.16 39 19:56 20.12.2019
2022 Clouds -34 1011 80 16093 1.16 39 19:38 20.12.2019
2023 Clouds -35 1011 80 16093 1.16 39 19:18 20.12.2019
2024 Clouds -33 1011 80 12874 1.16 39 18:41 20.12.2019
2025 Clouds -33 1011 80 12874 1.16 39 18:22 20.12.2019
2026 Clouds -33 1012 73 16093 1.16 39 17:58 20.12.2019
2027 Clouds -33 1012 73 16093 1.16 39 17:39 20.12.2019
2028 Clouds -32 1012 73 16093 0.86 48 17:20 20.12.2019
2029 Clouds -32 1011 66 16093 0.86 48 16:57 20.12.2019
2030 Clear -32 1012 73 0 0.86 48 16:38 20.12.2019
2031 Clear -31 1012 73 0 0.86 48 16:19 20.12.2019
2032 Clouds -32 1011 59 16093 0.86 48 15:55 20.12.2019
2033 Clear -32 1012 73 0 0.86 48 15:37 20.12.2019
2034 Clear -32 1012 73 0 0.86 48 15:18 20.12.2019
2035 Clear -32 1012 73 0 0.86 48 14:42 20.12.2019
2036 Clear -32 1012 73 0 0.48 37 14:24 20.12.2019
2037 Clear -31 1012 73 0 0.48 37 13:57 20.12.2019
2038 Clear -31 1012 73 0 0.48 37 13:37 20.12.2019
2039 Clear -32 1012 73 0 0.48 37 13:19 20.12.2019
2040 Clear -32 1013 73 0 0.65 32 12:56 20.12.2019
2041 Clear -33 1013 73 0 0.65 32 12:36 20.12.2019
2042 Clear -33 1013 73 0 0.65 32 12:18 20.12.2019
2043 Clear -32 1013 73 0 0.65 32 11:57 20.12.2019
2044 Clear -32 1013 73 0 0.65 32 11:38 20.12.2019
2045 Clear -32 1013 73 0 0.65 32 11:38 20.12.2019
2046 Clear -31 1013 73 0 0.33 107 11:18 20.12.2019
2047 Clear -31 1013 73 0 0.33 107 10:56 20.12.2019
2048 Clear -31 1013 73 0 0.33 107 10:37 20.12.2019
2049 Clear -32 1013 73 0 0.33 107 10:19 20.12.2019
2050 Clear -31 1012 73 0 0.33 107 09:43 20.12.2019
2051 Clear -31 1012 73 0 0.33 107 09:21 20.12.2019
2052 Clear -31 1012 74 16093 0.33 107 08:55 20.12.2019
2053 Clear -32 1012 74 16093 0.3 89 08:37 20.12.2019
2054 Clear -30 1012 74 16093 0.12 62 08:19 20.12.2019
2055 Clear -30 1012 74 16093 0.23 105 07:57 20.12.2019
2056 Clear -30 1012 74 16093 0.23 105 07:37 20.12.2019
2057 Clear -30 1012 74 16093 0.23 105 07:18 20.12.2019
2058 Clear -30 1011 74 16093 0.23 105 06:44 20.12.2019
2059 Clear -30 1011 74 16093 0.23 105 06:26 20.12.2019
2060 Clear -30 1011 82 16093 0.23 105 05:47 20.12.2019
2061 Clouds -29 1010 74 16093 0.41 26 04:59 20.12.2019
2062 Clear -27 1009 82 16093 0.41 26 03:49 20.12.2019
2063 Clouds -26 1009 82 16093 0.41 26 02:55 20.12.2019
2064 Clouds -25 1008 75 16093 0.68 345 01:59 20.12.2019
2065 Clouds -24 1008 75 16093 0.68 345 01:35 20.12.2019
2066 Clouds -24 1007 83 16093 0.54 1 00:55 20.12.2019
2067 Clouds -23 1007 83 16093 0.54 1 00:35 20.12.2019
2068 Clouds -23 1007 76 16093 0.54 1 23:58 19.12.2019
2069 Clouds -23 1007 76 16093 0.54 1 23:40 19.12.2019
2070 Clouds -23 1007 76 16093 1.17 8 23:19 19.12.2019
2071 Clouds -21 1006 76 16093 1.17 8 22:40 19.12.2019
2072 Clouds -21 1006 76 16093 1.17 8 22:22 19.12.2019
2073 Clouds -21 1006 76 16093 1.17 8 21:57 19.12.2019
2074 Clouds -21 1006 76 16093 1.17 8 21:39 19.12.2019
2075 Clouds -21 1006 76 16093 1.17 8 21:19 19.12.2019
2076 Clouds -21 1005 70 16093 1.17 8 20:57 19.12.2019
2077 Clouds -21 1005 70 16093 1.17 8 20:38 19.12.2019
2078 Clouds -21 1005 70 16093 1.48 8 20:20 19.12.2019
2079 Clouds -22 1004 69 16093 1.61 12 19:58 19.12.2019
2080 Clouds -22 1004 69 16093 1.61 12 19:39 19.12.2019
2081 Clouds -21 1004 69 16093 1.61 12 19:19 19.12.2019
2082 Clouds -21 1004 69 16093 1.61 12 19:19 19.12.2019
2083 Clouds -21 1004 69 16093 1.61 12 19:19 19.12.2019
2084 Clouds -22 1003 76 16093 1.61 12 18:57 19.12.2019
2085 Clouds -22 1003 76 16093 1.61 12 18:57 19.12.2019
2086 Clouds -22 1003 76 16093 1.61 12 18:39 19.12.2019
2087 Clouds -22 1003 76 16093 1.61 12 18:19 19.12.2019
2088 Clouds -22 1002 76 16093 1.61 12 17:56 19.12.2019
2089 Clouds -22 1002 76 16093 1.61 12 17:37 19.12.2019
2090 Clouds -22 1002 76 16093 1.78 14 17:18 19.12.2019
2091 Clouds -22 1002 83 0 1.78 14 16:56 19.12.2019
2092 Clouds -22 1002 83 0 1.78 14 16:37 19.12.2019
2093 Clouds -23 1002 83 0 1.78 14 16:19 19.12.2019
2094 Clouds -23 1001 75 0 1.78 14 15:56 19.12.2019
2095 Clouds -23 1001 75 0 1.78 14 15:37 19.12.2019
2096 Clouds -23 1001 75 0 1.78 14 15:19 19.12.2019
2097 Clouds -23 1001 75 0 1.78 14 15:19 19.12.2019
2098 Clouds -23 1001 75 0 1.78 14 15:19 19.12.2019
2099 Clouds -24 1001 75 0 1.78 14 14:43 19.12.2019
2100 Clouds -23 1001 75 0 1.8 15 14:20 19.12.2019
2101 Clear -23 1000 82 0 1.8 15 13:59 19.12.2019
2102 Clear -23 1000 82 0 1.8 15 13:38 19.12.2019
2103 Clear -23 1000 82 0 1.8 15 13:38 19.12.2019
2104 Clear -23 1000 82 0 1.76 17 13:19 19.12.2019
2105 Clear -23 1000 82 0 1.76 17 12:57 19.12.2019
2106 Clear -23 1000 82 0 1.76 17 12:39 19.12.2019
2107 Clear -23 1000 82 0 1.76 17 12:19 19.12.2019
2108 Clear -22 1000 82 0 1.76 17 11:58 19.12.2019
2109 Clear -22 1000 82 0 1.76 17 11:40 19.12.2019
2110 Clouds -21 999 69 16093 2.1 20 11:18 19.12.2019
2111 Clouds -21 999 69 16093 1.5 130 10:58 19.12.2019
2112 Clear -22 999 82 0 1.91 15 10:38 19.12.2019
2113 Clear -22 999 82 0 1.91 15 10:20 19.12.2019
2114 Clear -22 999 75 0 1.91 15 09:55 19.12.2019
2115 Clear -21 999 75 0 1.91 15 09:37 19.12.2019
2116 Clear -21 999 75 0 1.91 15 09:18 19.12.2019
2117 Clear -21 999 75 0 1.91 15 08:42 19.12.2019
2118 Clear -21 999 75 0 2.12 19 08:20 19.12.2019
2119 Clear -21 999 75 0 2.12 19 08:20 19.12.2019
2120 Clear -21 999 75 0 2.12 19 08:20 19.12.2019
2121 Clouds -20 997 76 16093 1.5 150 07:59 19.12.2019
2122 Clouds -20 997 76 16093 1.5 150 07:40 19.12.2019
2123 Clouds -20 997 76 16093 1.5 150 07:22 19.12.2019
2124 Clouds -21 998 70 16093 2.1 50 06:52 19.12.2019
2125 Clouds -21 998 70 16093 2.1 50 06:52 19.12.2019
2126 Clouds -21 998 70 16093 2.1 50 06:52 19.12.2019
2127 Clouds -21 998 70 16093 2.1 50 06:33 19.12.2019
2128 Clouds -20 998 70 16093 2.6 50 05:59 19.12.2019
2129 Clouds -22 998 70 16093 2.6 50 05:41 19.12.2019
2130 Clouds -20 998 70 16093 2.6 50 05:18 19.12.2019
2131 Clouds -19 998 64 16093 3.1 30 03:46 19.12.2019
2132 Clouds -19 998 70 16093 2.1 50 02:25 19.12.2019
2133 Fog -19 998 70 16093 3.1 50 01:24 19.12.2019
2134 Clouds -19 998 70 16093 2.1 50 00:55 19.12.2019
2135 Clouds -19 998 70 16093 2.1 50 00:36 19.12.2019
2136 Clouds -19 998 70 16093 2.1 50 00:18 19.12.2019
2137 Clouds -19 998 77 16093 2.6 40 23:43 18.12.2019
2138 Clouds -18 998 77 16093 2.6 40 23:19 18.12.2019
2139 Clouds -18 999 70 16093 1.5 30 22:56 18.12.2019
2140 Clouds -18 999 70 16093 1.5 30 22:37 18.12.2019
2141 Clouds -18 999 70 16093 1.5 30 22:19 18.12.2019
2142 Clouds -18 999 77 16093 2.6 30 21:57 18.12.2019
2143 Clouds -18 999 77 16093 2.6 30 21:39 18.12.2019
2144 Clouds -18 999 77 16093 2.6 30 21:19 18.12.2019
2145 Clouds -18 999 70 16093 3.6 50 20:55 18.12.2019
2146 Clouds -18 999 70 16093 3.6 50 20:37 18.12.2019
2147 Clouds -18 999 70 16093 3.6 50 20:37 18.12.2019
2148 Clouds -18 999 70 16093 3.6 50 20:19 18.12.2019
2149 Clouds -18 998 76 16093 3.6 40 19:56 18.12.2019
2150 Clouds -18 998 76 16093 3.6 40 19:37 18.12.2019
2151 Clouds -18 998 76 16093 3.6 40 19:18 18.12.2019
2152 Clear -18 999 77 16093 2.6 50 18:45 18.12.2019
2153 Clear -18 999 77 16093 2.6 50 18:25 18.12.2019
2154 Clouds -18 999 83 16093 2.1 40 17:57 18.12.2019
2155 Clouds -18 999 83 16093 2.1 40 17:39 18.12.2019
2156 Clouds -18 999 83 16093 2.1 40 17:39 18.12.2019
2157 Clouds -19 999 83 16093 2.1 40 17:20 18.12.2019
2158 Clear -18 999 77 0 1.5 30 16:58 18.12.2019
2159 Clear -18 999 77 0 1.5 30 16:40 18.12.2019
2160 Clear -18 999 77 0 1.5 30 16:40 18.12.2019
2161 Clear -18 999 77 0 1.5 30 16:21 18.12.2019
2162 Clouds -18 999 77 0 2.6 50 15:56 18.12.2019
2163 Clouds -18 999 77 0 2.6 50 15:38 18.12.2019
2164 Clouds -17 999 77 0 2.6 50 15:20 18.12.2019
2165 Clouds -18 999 77 0 2.6 50 14:43 18.12.2019
2166 Clouds -18 999 77 0 2.6 50 14:22 18.12.2019
2167 Clear -17 999 77 0 2.1 60 13:58 18.12.2019
2168 Clear -16 999 77 0 2.1 60 13:39 18.12.2019
2169 Clear -17 999 77 0 2.1 60 13:21 18.12.2019
2170 Clear -18 999 84 0 1.5 40 12:59 18.12.2019
2171 Clear -18 999 84 0 1.5 40 12:40 18.12.2019
2172 Clear -18 999 84 0 1.5 40 12:21 18.12.2019
2173 Clear -18 999 84 0 1.5 60 11:56 18.12.2019
2174 Clear -18 999 84 0 1.5 60 11:38 18.12.2019
2175 Clear -18 999 84 0 1.5 60 11:20 18.12.2019
2176 Clouds -18 999 84 0 2.57 20 10:57 18.12.2019
2177 Clouds -18 999 84 0 2.57 20 10:39 18.12.2019
2178 Clouds -18 999 84 0 2.57 20 10:20 18.12.2019
2179 Clouds -18 999 83 0 2.57 20 09:57 18.12.2019
2180 Clouds -19 999 83 0 2.57 20 09:19 18.12.2019
2181 Clouds -19 999 83 16093 2.57 20 08:42 18.12.2019
2182 Clouds -19 999 83 16093 2.32 18 08:24 18.12.2019
2183 Clouds -19 999 83 16093 2.26 22 07:56 18.12.2019
2184 Clouds -19 999 83 16093 2.26 22 07:56 18.12.2019
2185 Clouds -19 999 83 16093 2.26 22 07:38 18.12.2019
2186 Clouds -19 999 83 16093 2.26 22 07:19 18.12.2019
2187 Clouds -19 998 83 16093 2.26 22 06:50 18.12.2019
2188 Clouds -19 998 83 16093 2.26 22 06:22 18.12.2019
2189 Clear -19 998 83 16093 2.26 22 05:30 18.12.2019
2190 Clear -21 998 83 16093 2.19 17 03:45 18.12.2019
2191 Clear -20 998 84 16093 2.19 17 02:43 18.12.2019
2192 Clear -18 998 84 16093 2.19 17 02:25 18.12.2019
2193 Clouds -17 998 77 16093 1.86 11 01:43 18.12.2019
2194 Clouds -18 998 77 16093 1.86 11 01:24 18.12.2019
2195 Clouds -18 998 84 16093 1.89 13 00:42 18.12.2019
2196 Clouds -18 998 84 16093 1.89 13 00:24 18.12.2019
2197 Clouds -18 998 84 16093 1.89 13 23:58 17.12.2019
2198 Clouds -18 998 84 16093 1.89 13 23:39 17.12.2019
2199 Clouds -18 998 84 16093 1.25 9 23:20 17.12.2019
2200 Clear -18 998 84 0 1.25 9 22:57 17.12.2019
2201 Clear -18 998 84 0 1.25 9 22:38 17.12.2019
2202 Clear -18 998 84 0 1.25 9 22:19 17.12.2019
2203 Clouds -18 998 84 16093 1.25 9 21:57 17.12.2019
2204 Clouds -18 998 84 16093 1.25 9 21:38 17.12.2019
2205 Clouds -18 998 84 16093 1.25 9 21:20 17.12.2019
2206 Clouds -17 998 84 16093 1.25 9 20:58 17.12.2019
2207 Clouds -17 998 84 16093 1.25 9 20:39 17.12.2019
2208 Clouds -16 998 84 16093 1.11 3 20:18 17.12.2019
2209 Clouds -16 997 77 16093 1.11 3 19:56 17.12.2019
2210 Clouds -16 997 77 16093 1.11 3 19:38 17.12.2019
2211 Clouds -17 997 77 16093 1.11 3 19:19 17.12.2019
2212 Clouds -18 997 84 16093 1.11 3 18:55 17.12.2019
2213 Clouds -17 997 84 16093 1.11 3 18:37 17.12.2019
2214 Clouds -17 997 84 16093 1.11 3 18:19 17.12.2019
2215 Clouds -17 998 91 16093 1.11 3 17:42 17.12.2019
2216 Clouds -17 998 91 16093 0.83 11 17:21 17.12.2019
2217 Clouds -17 998 91 0 0.83 11 16:57 17.12.2019
2218 Clouds -17 998 91 0 0.83 11 16:38 17.12.2019
2219 Clouds -16 998 91 0 0.83 11 16:19 17.12.2019
2220 Clouds -16 999 84 0 0.83 11 15:59 17.12.2019
2221 Clouds -16 999 84 0 0.83 11 15:38 17.12.2019
2222 Clouds -16 999 84 0 0.83 11 15:19 17.12.2019
2223 Clouds -16 999 84 0 0.83 11 14:56 17.12.2019
2224 Clouds -16 999 84 0 0.83 11 14:38 17.12.2019
2225 Clouds -16 999 84 0 0.25 24 14:19 17.12.2019
2226 Clouds -15 1000 84 0 0.25 24 13:56 17.12.2019
2227 Clouds -15 1000 84 0 0.25 24 13:38 17.12.2019
2228 Clouds -16 1000 84 0 0.55 19 13:19 17.12.2019
2229 Clouds -16 1000 84 0 0.55 19 13:19 17.12.2019
2230 Clouds -16 1000 84 0 0.55 19 12:56 17.12.2019
2231 Clouds -16 1000 84 0 0.55 19 12:37 17.12.2019
2232 Clouds -16 1000 84 0 0.55 19 12:18 17.12.2019
2233 Clouds -16 1000 84 0 0.55 19 11:56 17.12.2019
2234 Clouds -17 1000 84 0 0.55 19 11:36 17.12.2019
2235 Clouds -16 1000 84 0 0.61 32 11:18 17.12.2019
2236 Clouds -16 1000 84 0 0.61 32 10:55 17.12.2019
2237 Clouds -16 1000 84 0 0.61 32 10:37 17.12.2019
2238 Clouds -18 1000 84 0 0.61 32 10:18 17.12.2019
2239 Clouds -17 1000 77 16093 0.61 32 09:42 17.12.2019
2240 Clouds -17 1000 77 16093 0.61 32 09:21 17.12.2019
2241 Clouds -17 1000 84 0 0.61 32 08:58 17.12.2019
2242 Clouds -17 1000 84 0 0.61 32 08:39 17.12.2019
2243 Clouds -17 1000 84 0 1.02 31 08:21 17.12.2019
2244 Clouds -18 1000 83 0 1.02 31 07:58 17.12.2019
2245 Clouds -18 1000 83 0 1.02 31 07:39 17.12.2019
2246 Clouds -19 1000 83 0 1.02 31 07:20 17.12.2019
2247 Clouds -20 1000 83 16093 1.02 31 06:41 17.12.2019
2248 Clouds -20 1000 83 16093 1.02 31 06:22 17.12.2019
2249 Clear -21 1000 83 16093 1.02 31 05:40 17.12.2019
2250 Clear -21 1001 76 16093 1.77 28 04:51 17.12.2019
2251 Clouds -21 1001 83 16093 1.77 28 03:40 17.12.2019
2252 Clear -21 1000 83 16093 1.12 56 02:22 17.12.2019
2253 Clouds -21 1000 69 16093 1.12 56 01:21 17.12.2019
2254 Clouds -24 1000 83 16093 1.38 36 00:39 17.12.2019
2255 Clouds -24 1000 83 16093 1.38 36 00:21 17.12.2019
2256 Clear -19 1001 75 16093 1.38 36 23:43 16.12.2019
2257 Clear -20 1001 75 16093 1.4 35 23:20 16.12.2019
2258 Clear -21 1001 83 16093 1.4 35 22:58 16.12.2019
2259 Clear -22 1001 83 16093 1.4 35 22:38 16.12.2019
2260 Clear -22 1001 83 16093 1.4 35 22:38 16.12.2019
2261 Clear -25 1001 83 16093 1.4 35 22:20 16.12.2019
2262 Clouds -25 1001 75 16093 1.4 35 21:57 16.12.2019
2263 Clouds -23 1001 75 16093 1.4 35 21:39 16.12.2019
2264 Clouds -21 1001 75 16093 1.4 35 21:20 16.12.2019
2265 Clouds -21 1001 83 16093 1.4 35 20:58 16.12.2019
2266 Clouds -22 1001 83 16093 1.4 35 20:39 16.12.2019
2267 Clouds -22 1001 83 16093 1.4 35 20:39 16.12.2019
2268 Clouds -25 1001 83 16093 1.35 44 20:19 16.12.2019
2269 Clear -25 1001 69 16093 1.35 44 19:56 16.12.2019
2270 Clear -25 1001 69 16093 1.35 44 19:37 16.12.2019
2271 Clear -25 1001 69 16093 1.35 44 19:19 16.12.2019
2272 Clouds -25 1001 83 16093 1.35 44 18:59 16.12.2019
2273 Clouds -25 1001 83 16093 1.35 44 18:40 16.12.2019
2274 Clouds -22 1001 83 16093 1.35 44 18:20 16.12.2019
2275 Clouds -22 1001 83 16093 1.35 44 18:20 16.12.2019
2276 Clouds -22 1002 83 16093 1.35 44 17:58 16.12.2019
2277 Clouds -25 1002 83 16093 1.35 44 17:39 16.12.2019
2278 Clouds -23 1002 83 16093 1.36 34 17:21 16.12.2019
2279 Clear -23 1002 75 0 1.36 34 16:57 16.12.2019
2280 Clear -23 1002 75 0 1.36 34 16:38 16.12.2019
2281 Clear -23 1002 75 0 1.36 34 16:19 16.12.2019
2282 Clear -25 1003 75 0 1.36 34 15:58 16.12.2019
2283 Clear -25 1003 75 0 1.36 34 15:38 16.12.2019
2284 Clear -25 1003 75 0 1.36 34 15:20 16.12.2019
2285 Clear -23 1003 75 0 1.36 34 14:57 16.12.2019
2286 Clear -23 1003 75 0 1.36 34 14:37 16.12.2019
2287 Clear -22 1003 75 0 1.43 39 14:19 16.12.2019
2288 Clear -22 1003 75 0 1.43 39 14:19 16.12.2019
2289 Clear -22 1003 75 0 1.43 39 14:19 16.12.2019
2290 Clear -21 1003 76 0 1.43 39 13:56 16.12.2019
2291 Clear -23 1003 76 0 1.43 39 13:37 16.12.2019
2292 Clear -23 1003 76 0 1.43 39 13:37 16.12.2019
2293 Clear -24 1003 76 0 1.43 39 13:19 16.12.2019
2294 Clear -24 1004 76 0 1.19 46 12:57 16.12.2019
2295 Clear -24 1004 76 0 1.36 43 12:39 16.12.2019
2296 Clear -22 1004 76 0 1.36 43 12:18 16.12.2019
2297 Clear -23 1004 83 0 1.36 43 11:58 16.12.2019
2298 Clear -22 1004 83 0 1.19 46 11:40 16.12.2019
2299 Clear -23 1004 83 0 1.73 37 11:20 16.12.2019
2300 Clear -23 1004 83 0 1.73 37 11:20 16.12.2019
2301 Clear -23 1005 83 0 1.73 37 10:56 16.12.2019
2302 Clear -22 1005 83 0 1.73 37 10:37 16.12.2019
2303 Clear -22 1005 83 0 1.68 35 10:19 16.12.2019
2304 Clear -22 1005 76 0 1.73 37 09:45 16.12.2019
2305 Clear -20 1005 76 0 1.73 37 09:26 16.12.2019
2306 Clear -20 1005 83 0 1.73 37 08:41 16.12.2019
2307 Clear -20 1005 83 0 1.55 28 08:21 16.12.2019
2308 Clear -20 1005 83 0 1.55 28 08:21 16.12.2019
2309 Clear -20 1005 76 0 1.55 28 07:59 16.12.2019
2310 Clear -20 1005 76 0 1.55 28 07:41 16.12.2019
2311 Clear -20 1005 76 0 1.55 28 07:20 16.12.2019
2312 Clear -21 1006 83 0 1.55 28 06:41 16.12.2019
2313 Clear -21 1006 83 0 1.55 28 06:22 16.12.2019
2314 Clear -20 1006 83 0 1.55 28 05:47 16.12.2019
2315 Clear -20 1006 83 0 1.55 28 05:29 16.12.2019
2316 Clear -20 1006 76 0 1.17 30 03:41 16.12.2019
2317 Clear -17 1006 83 0 1.23 33 01:58 16.12.2019
2318 Clear -17 1006 83 0 1.23 33 01:40 16.12.2019
2319 Clear -18 1007 76 0 1.14 39 00:42 16.12.2019
2320 Clear -18 1007 76 0 1.14 39 00:23 16.12.2019
2321 Clear -18 1007 83 0 1.14 39 23:58 15.12.2019
2322 Clear -18 1007 83 0 1.14 39 23:38 15.12.2019
2323 Clear -19 1007 83 0 1.41 39 23:19 15.12.2019
2324 Clear -18 1007 83 0 1.41 39 22:55 15.12.2019
2325 Clear -21 1007 83 0 1.41 39 22:37 15.12.2019
2326 Clear -18 1007 83 0 1.41 39 22:18 15.12.2019
2327 Clear -18 1007 83 0 1.41 39 21:55 15.12.2019
2328 Clear -19 1007 83 0 1.41 39 21:37 15.12.2019
2329 Clear -21 1007 83 0 1.41 39 21:19 15.12.2019
2330 Clear -21 1007 83 0 1.41 39 20:55 15.12.2019
2331 Clear -21 1007 83 0 1.41 39 20:55 15.12.2019
2332 Clear -21 1007 83 0 1.41 39 20:37 15.12.2019
2333 Clear -21 1007 83 0 1.3 43 20:18 15.12.2019
2334 Clear -19 1007 76 0 0.99 40 19:56 15.12.2019
2335 Clear -19 1007 76 0 1.3 43 19:38 15.12.2019
2336 Clear -17 1007 76 0 0.99 40 19:18 15.12.2019
2337 Clear -18 1007 76 0 0.99 40 18:55 15.12.2019
2338 Clear -21 1007 76 0 1.3 43 18:37 15.12.2019
2339 Clear -21 1007 76 0 0.99 40 18:18 15.12.2019
2340 Clear -20 1008 83 0 1.3 43 17:55 15.12.2019
2341 Clear -20 1008 83 0 0.99 40 17:36 15.12.2019
2342 Clear -20 1008 83 0 1.57 45 17:18 15.12.2019
2343 Clear -20 1008 83 0 1.57 45 17:18 15.12.2019
2344 Clear -20 1008 83 0 1.65 40 16:43 15.12.2019
2345 Clear -20 1008 83 0 1.65 40 16:23 15.12.2019
2346 Clear -20 1008 83 0 1.65 40 15:57 15.12.2019
2347 Clear -19 1008 83 0 1.65 40 15:39 15.12.2019
2348 Clear -19 1008 83 0 1.57 45 15:20 15.12.2019
2349 Clear -19 1008 91 0 1.57 45 14:56 15.12.2019
2350 Clear -19 1008 91 0 1.57 45 14:38 15.12.2019
2351 Clear -19 1008 91 0 1.52 46 14:19 15.12.2019
2352 Clear -19 1008 84 0 1.47 43 13:59 15.12.2019
2353 Clear -19 1008 84 0 1.47 43 13:39 15.12.2019
2354 Clear -19 1008 84 0 1.47 43 13:20 15.12.2019
2355 Clear -18 1008 84 0 1.47 43 12:57 15.12.2019
2356 Clear -18 1008 84 0 1.47 43 12:39 15.12.2019
2357 Clear -18 1008 84 0 1.47 43 12:21 15.12.2019
2358 Clear -18 1008 84 0 1.47 43 11:59 15.12.2019
2359 Clear -18 1008 84 0 1.47 43 11:38 15.12.2019
2360 Clear -15 1008 84 0 1.47 38 11:19 15.12.2019
2361 Clear -15 1008 84 0 1.47 38 10:56 15.12.2019
2362 Clear -15 1008 84 0 1.47 38 10:37 15.12.2019
2363 Clear -18 1008 84 0 1.47 38 10:19 15.12.2019
2364 Clear -18 1007 84 0 2.1 220 09:57 15.12.2019
2365 Clear -18 1007 84 0 2.1 220 09:37 15.12.2019
2366 Clear -18 1007 84 0 2.1 220 09:19 15.12.2019
2367 Clear -17 1007 84 0 1.47 38 08:42 15.12.2019
2368 Clear -15 1007 84 0 1.47 38 08:23 15.12.2019
2369 Clear -16 1006 84 0 1.5 60 07:59 15.12.2019
2370 Clear -16 1006 84 0 1.5 60 07:38 15.12.2019
2371 Clear -16 1006 84 0 1.5 60 07:19 15.12.2019
2372 Clear -17 1007 84 0 1.5 60 06:24 15.12.2019
2373 Clear -15 1007 84 0 1.5 60 05:42 15.12.2019
2374 Clear -15 1007 84 0 1.23 20 05:20 15.12.2019
2375 Clear -16 1006 84 0 1.23 20 04:19 15.12.2019
2376 Clouds -16 1006 84 0 1.23 20 02:50 15.12.2019
2377 Clouds -16 1006 84 0 1.23 20 02:31 15.12.2019
2378 Clouds -17 1006 84 0 1.26 71 01:40 15.12.2019
2379 Clouds -17 1006 84 0 1.7 53 01:18 15.12.2019
2380 Clear -17 1006 91 0 1.7 53 00:49 15.12.2019
2381 Clear -17 1006 91 0 1.7 53 00:30 15.12.2019
2382 Clear -18 1006 84 0 1.7 53 23:41 14.12.2019
2383 Clear -19 1006 84 0 1.73 41 23:22 14.12.2019
2384 Clear -19 1006 83 0 1.73 41 22:59 14.12.2019
2385 Clear -19 1006 83 0 1.73 41 22:41 14.12.2019
2386 Clear -20 1006 83 0 1.73 41 22:22 14.12.2019
2387 Clear -18 1006 83 0 1.73 41 21:57 14.12.2019
2388 Clear -18 1006 83 0 1.73 41 21:38 14.12.2019
2389 Clear -19 1006 83 0 1.73 41 21:19 14.12.2019
2390 Clear -21 1006 83 0 1.73 41 20:59 14.12.2019
2391 Clear -21 1006 83 0 1.73 41 20:41 14.12.2019
2392 Clear -20 1006 83 0 1.79 52 20:20 14.12.2019
2393 Clear -18 1006 83 0 1.79 52 19:57 14.12.2019
2394 Clear -18 1006 83 0 1.79 52 19:39 14.12.2019
2395 Clear -20 1006 83 0 1.79 52 19:20 14.12.2019
2396 Clear -20 1006 84 0 1.79 52 18:56 14.12.2019
2397 Clear -20 1006 84 0 1.79 52 18:38 14.12.2019
2398 Clear -20 1006 84 0 1.79 52 18:19 14.12.2019
2399 Clear -21 1006 83 0 1.79 52 17:44 14.12.2019
2400 Clear -21 1006 83 0 1.79 52 17:24 14.12.2019
2401 Clear -21 1007 91 0 1.33 60 16:59 14.12.2019
2402 Clear -21 1007 91 0 1.33 60 16:40 14.12.2019
2403 Clear -21 1007 91 0 1.33 60 16:19 14.12.2019
2404 Clear -21 1007 91 0 1.33 60 16:19 14.12.2019
2405 Clear -18 1007 84 0 1.33 60 15:43 14.12.2019
2406 Clear -20 1007 84 0 1.33 60 15:25 14.12.2019
2407 Clear -18 1007 92 0 1.33 60 14:59 14.12.2019
2408 Clear -16 1007 92 0 1.33 60 14:39 14.12.2019
2409 Clear -16 1007 92 0 1.16 48 14:20 14.12.2019
2410 Clear -15 1007 91 0 2.6 60 13:58 14.12.2019
2411 Clear -15 1007 91 0 2.6 60 13:39 14.12.2019
2412 Clear -17 1007 91 0 2.6 60 13:19 14.12.2019
2413 Clear -16 1007 91 0 1.61 42 12:56 14.12.2019
2414 Clear -16 1007 91 0 1.41 48 12:37 14.12.2019
2415 Clear -17 1007 91 0 1.61 42 12:19 14.12.2019
2416 Clear -17 1007 84 0 1.41 48 11:56 14.12.2019
2417 Clear -17 1007 84 0 1.61 42 11:37 14.12.2019
2418 Clear -17 1007 84 0 1.1 45 11:18 14.12.2019
2419 Clear -16 1006 84 0 1.23 48 10:55 14.12.2019
2420 Clear -16 1006 84 0 1.23 48 10:55 14.12.2019
2421 Clear -16 1006 84 0 1.1 45 10:37 14.12.2019
2422 Clear -16 1006 84 0 1.23 48 10:19 14.12.2019
2423 Clear -17 1006 84 0 1.23 48 09:42 14.12.2019
2424 Clear -16 1006 84 0 1.1 45 09:21 14.12.2019
2425 Clear -16 1006 84 0 1.23 48 08:56 14.12.2019
2426 Clear -16 1006 84 0 1.1 45 08:37 14.12.2019
2427 Clear -16 1006 84 0 0.83 46 08:18 14.12.2019
2428 Clear -16 1006 84 0 0.83 46 07:40 14.12.2019
2429 Clear -16 1006 84 0 0.83 46 07:20 14.12.2019
2430 Clear -16 1006 84 0 0.83 46 06:42 14.12.2019
2431 Clear -16 1006 84 0 0.83 46 06:22 14.12.2019
2432 Clear -18 1005 84 0 0.83 46 05:35 14.12.2019
2433 Clear -17 1004 84 0 0.78 54 03:34 14.12.2019
2434 Clear -14 1004 91 0 0.78 54 02:23 14.12.2019
2435 Clear -13 1003 84 0 1.37 41 01:44 14.12.2019
2436 Clear -14 1003 91 0 1.28 47 00:59 14.12.2019
2437 Clear -16 1003 91 0 1.28 47 00:40 14.12.2019
2438 Clear -14 1003 91 0 1.28 47 00:20 14.12.2019
2439 Clear -13 1002 92 0 1.28 47 23:41 13.12.2019
2440 Clear -12 1002 92 0 2.14 42 23:19 13.12.2019
2441 Clear -12 1001 92 0 1.5 130 22:56 13.12.2019
2442 Clear -14 1001 92 0 1.5 130 22:37 13.12.2019
2443 Clear -12 1001 92 0 1.5 130 22:18 13.12.2019
2444 Clear -13 1001 84 0 2.14 42 21:44 13.12.2019
2445 Clear -13 1001 84 0 2.14 42 21:22 13.12.2019
2446 Clear -13 1000 84 0 2.14 42 20:59 13.12.2019
2447 Clear -13 1000 84 0 2.14 42 20:40 13.12.2019
2448 Clear -12 999 85 0 1.66 42 20:20 13.12.2019
2449 Clear -12 999 85 0 1.66 42 19:56 13.12.2019
2450 Clear -12 999 85 0 1.66 42 19:38 13.12.2019
2451 Clear -13 999 85 0 1.66 42 19:19 13.12.2019
2452 Clear -12 998 85 0 1.66 42 18:55 13.12.2019
2453 Clear -12 998 85 0 1.66 42 18:36 13.12.2019
2454 Clear -12 998 85 0 1.66 42 18:18 13.12.2019
2455 Clear -11 998 85 0 3.1 80 17:40 13.12.2019
2456 Clear -11 998 85 0 3.1 80 17:19 13.12.2019
2457 Clear -12 997 78 0 3.6 60 16:58 13.12.2019
2458 Clear -11 997 78 0 3.6 60 16:39 13.12.2019
2459 Clear -11 997 78 0 3.6 60 16:20 13.12.2019
2460 Clear -10 996 85 0 4.1 70 15:43 13.12.2019
2461 Clear -10 996 85 0 4.1 70 15:22 13.12.2019
2462 Clear -9 996 85 0 3.6 60 14:57 13.12.2019
2463 Clear -9 996 85 0 3.6 60 14:39 13.12.2019
2464 Clear -10 996 85 0 3.6 60 14:20 13.12.2019
2465 Clear -11 995 78 0 4.6 50 13:56 13.12.2019
2466 Clear -11 995 78 0 4.6 50 13:37 13.12.2019
2467 Clear -11 995 78 0 4.6 50 13:18 13.12.2019
2468 Clear -10 995 78 0 4.6 60 12:42 13.12.2019
2469 Clear -10 995 78 0 4.6 60 12:19 13.12.2019
2470 Clear -10 995 85 16093 4.6 50 11:57 13.12.2019
2471 Clear -10 995 85 16093 4.6 50 11:39 13.12.2019
2472 Clear -9 995 85 16093 4.6 50 11:19 13.12.2019
2473 Clouds -8 994 79 16093 4.1 60 10:41 13.12.2019
2474 Clouds -8 994 79 16093 4.1 60 10:21 13.12.2019
2475 Clouds -8 995 85 16093 3.6 60 09:43 13.12.2019
2476 Clouds -8 995 85 16093 3.6 60 09:22 13.12.2019
2477 Clouds -9 994 92 16093 3.6 70 08:59 13.12.2019
2478 Clouds -9 994 92 16093 3.6 70 08:40 13.12.2019
2479 Clouds -10 994 92 16093 3.6 70 08:22 13.12.2019
2480 Clouds -11 994 85 16093 4.1 20 07:43 13.12.2019
2481 Clouds -11 994 85 16093 4.1 20 07:20 13.12.2019
2482 Clear -12 995 92 16093 5.1 70 06:50 13.12.2019
2483 Clear -12 995 92 16093 5.1 70 06:28 13.12.2019
2484 Clear -12 995 92 16093 6.2 60 05:43 13.12.2019
2485 Clear -13 995 92 16093 6.2 60 05:20 13.12.2019
2486 Clear -16 995 77 16093 3.1 40 04:33 13.12.2019
2487 Clear -15 996 92 16093 1.5 50 03:30 13.12.2019
2488 Clear -14 996 92 16093 2.6 31 02:32 13.12.2019
2489 Clear -14 996 92 16093 2.6 31 02:32 13.12.2019
2490 Clear -12 996 85 16093 1.96 35 01:40 13.12.2019
2491 Clear -12 997 85 16093 1.5 30 00:51 13.12.2019
2492 Clear -12 997 85 16093 1.5 30 00:32 13.12.2019
2493 Clear -11 997 92 16093 4.6 60 23:57 12.12.2019
2494 Clear -12 997 92 16093 4.6 60 23:37 12.12.2019
2495 Clear -11 997 92 16093 4.6 60 23:19 12.12.2019
2496 Clear -11 997 92 16093 4.6 70 22:42 12.12.2019
2497 Clear -12 997 92 16093 4.6 70 22:23 12.12.2019
2498 Clear -12 997 92 16093 3.1 70 21:56 12.12.2019
2499 Clear -12 997 92 16093 3.1 70 21:56 12.12.2019
2500 Clear -12 997 92 16093 3.1 70 21:38 12.12.2019
2501 Clear -12 997 92 16093 3.1 70 21:20 12.12.2019
2502 Clear -14 998 84 11265 1.36 41 20:59 12.12.2019
2503 Clear -14 998 84 11265 1.36 41 20:41 12.12.2019
2504 Clear -14 998 84 11265 1.63 32 20:23 12.12.2019
2505 Clouds -13 997 78 16093 2.1 40 19:59 12.12.2019
2506 Clouds -13 997 78 16093 2.1 40 19:59 12.12.2019
2507 Clouds -13 997 78 16093 2.1 40 19:40 12.12.2019
2508 Clouds -15 997 78 16093 2.1 40 19:21 12.12.2019
2509 Clear -15 998 84 16093 1.63 32 18:57 12.12.2019
2510 Clear -15 998 84 16093 1.63 32 18:57 12.12.2019
2511 Clear -15 998 84 16093 1.63 32 18:57 12.12.2019
2512 Clear -15 998 84 16093 1.63 32 18:38 12.12.2019
2513 Clear -15 998 84 16093 1.63 32 18:20 12.12.2019
2514 Clear -15 998 91 16093 1.63 32 17:57 12.12.2019
2515 Clear -15 998 91 16093 1.63 32 17:38 12.12.2019
2516 Clear -14 998 91 16093 1.88 35 17:20 12.12.2019
2517 Clear -14 998 91 16093 1.88 35 16:56 12.12.2019
2518 Clear -14 998 91 16093 1.88 35 16:37 12.12.2019
2519 Clear -15 998 91 16093 1.88 35 16:19 12.12.2019
2520 Clear -15 999 84 16093 1.88 35 15:54 12.12.2019
2521 Clear -16 999 84 16093 1.88 35 15:36 12.12.2019
2522 Clear -16 999 84 16093 1.88 35 15:18 12.12.2019
2523 Clear -16 999 84 16093 1.88 35 14:38 12.12.2019
2524 Clear -14 999 84 16093 1.98 35 14:20 12.12.2019
2525 Clear -13 1000 92 16093 1.98 35 13:57 12.12.2019
2526 Clear -14 1000 92 16093 1.98 35 13:39 12.12.2019
2527 Clear -14 1000 92 16093 2.03 36 13:21 12.12.2019
2528 Clouds -14 999 77 16093 2.03 36 12:58 12.12.2019
2529 Clear -14 1000 92 16093 2.03 36 12:40 12.12.2019
2530 Clear -15 1000 92 16093 2.03 36 12:21 12.12.2019
2531 Clear -15 1000 92 16093 2.03 36 11:56 12.12.2019
2532 Clear -13 1000 92 16093 2.03 36 11:37 12.12.2019
2533 Clear -12 1000 92 16093 1.96 37 11:19 12.12.2019
2534 Clear -12 999 92 16093 1.96 37 10:55 12.12.2019
2535 Clear -12 999 92 16093 1.96 37 10:55 12.12.2019
2536 Clear -12 999 92 16093 1.96 37 10:37 12.12.2019
2537 Clear -12 999 92 16093 1.96 37 10:19 12.12.2019
2538 Clear -14 999 92 16093 1.96 37 09:42 12.12.2019
2539 Clear -12 999 92 16093 1.96 37 09:24 12.12.2019
2540 Clear -12 999 92 16093 1.96 37 08:58 12.12.2019
2541 Clear -13 999 92 16093 1.96 37 08:38 12.12.2019
2542 Clear -13 999 92 16093 1.96 37 08:38 12.12.2019
2543 Clear -11 999 92 16093 2.41 36 08:20 12.12.2019
2544 Mist -11 999 84 8047 2.41 36 07:46 12.12.2019
2545 Clouds -10 999 85 16093 2.1 30 07:25 12.12.2019
2546 Clear -11 1000 100 16093 2.1 50 06:54 12.12.2019
2547 Clear -10 1000 100 16093 2.1 50 06:33 12.12.2019
2548 Clear -10 1000 92 16093 2.41 36 05:39 12.12.2019
2549 Clear -8 1000 92 16093 2.45 39 04:52 12.12.2019
2550 Clear -8 1000 92 16093 2.45 39 04:52 12.12.2019
2551 Clear -8 1000 92 16093 1.5 80 03:31 12.12.2019
2552 Clear -7 1001 100 16093 2.6 50 02:38 12.12.2019
2553 Clear -6 1001 100 16093 2.6 50 02:20 12.12.2019
2554 Clouds -5 1001 79 16093 2.6 80 01:40 12.12.2019
2555 Clouds -4 1001 79 16093 2.6 80 01:22 12.12.2019
2556 Clouds -4 1001 92 16093 2.47 30 00:46 12.12.2019
2557 Clouds -4 1001 92 16093 2.47 30 00:20 12.12.2019
2558 Clouds -4 1002 92 16093 2.47 30 23:44 11.12.2019
2559 Clouds -5 1002 92 16093 1.71 29 23:21 11.12.2019
2560 Clouds -5 1002 92 16093 1.71 29 22:57 11.12.2019
2561 Clouds -5 1002 92 16093 1.71 29 22:39 11.12.2019
2562 Clouds -5 1002 92 16093 1.71 29 22:20 11.12.2019
2563 Rain -5 1002 85 16093 2.1 350 21:57 11.12.2019
2564 Rain -5 1002 85 16093 1.71 29 21:38 11.12.2019
2565 Rain -5 1002 85 16093 1.71 29 21:19 11.12.2019
2566 Rain -5 1002 85 16093 1.71 29 21:19 11.12.2019
2567 Clouds -6 1003 92 16093 1.71 29 20:56 11.12.2019
2568 Clouds -5 1003 92 16093 1.71 29 20:37 11.12.2019
2569 Clouds -6 1003 92 16093 1.46 15 20:19 11.12.2019
2570 Snow -6 1002 92 8047 1.46 15 19:57 11.12.2019
2571 Snow -6 1003 92 9656 1.46 15 19:39 11.12.2019
2572 Snow -6 1003 92 9656 1.46 15 19:19 11.12.2019
2573 Clouds -6 1003 92 16093 1.46 15 18:41 11.12.2019
2574 Clouds -6 1003 92 16093 1.46 15 18:21 11.12.2019
2575 Clouds -7 1003 92 16093 1.46 15 17:57 11.12.2019
2576 Clouds -7 1003 92 16093 1.46 15 17:57 11.12.2019
2577 Clouds -7 1003 92 16093 1.46 15 17:39 11.12.2019
2578 Clouds -7 1003 92 16093 1.43 12 17:18 11.12.2019
2579 Clouds -7 1003 85 16093 1.43 12 16:57 11.12.2019
2580 Clouds -7 1003 85 16093 1.43 12 16:57 11.12.2019
2581 Clouds -7 1004 100 16093 1.43 12 16:38 11.12.2019
2582 Clouds -7 1004 100 16093 1.43 12 16:38 11.12.2019
2583 Clouds -7 1004 100 16093 1.43 12 16:38 11.12.2019
2584 Clouds -7 1004 100 16093 1.43 12 16:20 11.12.2019
2585 Clouds -8 1004 92 16093 1.43 12 15:59 11.12.2019
2586 Clouds -8 1004 92 16093 1.43 12 15:39 11.12.2019
2587 Clouds -9 1004 92 16093 1.43 12 15:21 11.12.2019
2588 Clouds -10 1004 92 16093 1.43 12 14:56 11.12.2019
2589 Clouds -10 1004 92 16093 1.43 12 14:37 11.12.2019
2590 Clouds -9 1004 92 16093 1.64 15 14:19 11.12.2019
2591 Clear -11 1004 92 16093 1.64 15 13:55 11.12.2019
2592 Clear -11 1004 92 16093 1.64 15 13:36 11.12.2019
2593 Clear -11 1004 92 16093 1.64 15 13:18 11.12.2019
2594 Mist -11 1003 85 8047 1.58 18 12:55 11.12.2019
2595 Clouds -11 1004 92 16093 1.58 18 12:37 11.12.2019
2596 Clouds -11 1004 92 16093 1.58 18 12:18 11.12.2019
2597 Clouds -9 1004 92 16093 1.58 18 11:56 11.12.2019
2598 Clouds -8 1004 92 16093 1.58 18 11:37 11.12.2019
2599 Clouds -8 1004 92 16093 1.58 18 11:37 11.12.2019
2600 Clouds -10 1004 92 16093 1.47 32 11:18 11.12.2019
2601 Mist -8 1003 92 8047 1.47 32 10:44 11.12.2019
2602 Mist -8 1003 92 8047 1.47 32 10:25 11.12.2019
2603 Clouds -8 1003 100 16093 1.47 32 09:58 11.12.2019
2604 Clouds -8 1003 100 16093 1.47 32 09:38 11.12.2019
2605 Clouds -8 1003 100 16093 1.47 32 09:38 11.12.2019
2606 Clouds -8 1003 100 16093 1.47 32 09:20 11.12.2019
2607 Clouds -7 1003 100 16093 1.47 32 08:57 11.12.2019
2608 Clouds -7 1003 100 16093 1.47 32 08:37 11.12.2019
2609 Clouds -7 1003 100 16093 1.77 24 08:18 11.12.2019
2610 Clouds -6 1002 92 16093 1.93 19 07:45 11.12.2019
2611 Clouds -6 1002 92 16093 1.93 19 07:25 11.12.2019
2612 Clouds -5 1001 92 16093 1.93 19 06:47 11.12.2019
2613 Clouds -6 1001 92 16093 1.93 19 06:25 11.12.2019
2614 Clouds -6 1001 85 16093 1.93 19 05:58 11.12.2019
2615 Clouds -6 1001 85 16093 1.93 19 05:37 11.12.2019
2616 Clouds -5 1001 100 16093 1.67 46 04:55 11.12.2019
2617 Clouds -4 1001 92 16093 1.5 170 03:49 11.12.2019
2618 Clear -4 1001 92 16093 1.67 46 02:40 11.12.2019
2619 Clouds -4 1001 79 16093 1.5 120 01:23 11.12.2019
2620 Clouds -4 1001 92 16093 2.6 130 00:46 11.12.2019
2621 Clouds -4 1001 92 16093 2.6 130 00:21 11.12.2019
2622 Clouds -4 1001 85 14484 2.1 110 23:46 10.12.2019
2623 Clouds -4 1001 85 14484 2.1 110 23:28 10.12.2019
2624 Clouds -4 1000 85 16093 2.1 270 22:57 10.12.2019
2625 Clouds -4 1000 85 16093 2.1 270 22:39 10.12.2019
2626 Clouds -5 1000 85 16093 2.1 270 22:21 10.12.2019
2627 Clouds -6 1000 92 16093 1.5 40 21:55 10.12.2019
2628 Clouds -6 1000 92 16093 1.5 40 21:55 10.12.2019
2629 Clouds -6 1000 92 16093 1.5 40 21:37 10.12.2019
2630 Clouds -6 1000 92 16093 1.5 40 21:19 10.12.2019
2631 Clouds -6 1001 100 16093 1.87 20 20:57 10.12.2019
2632 Clouds -5 1001 100 16093 1.87 20 20:37 10.12.2019
2633 Clouds -5 1001 100 16093 1.87 20 20:37 10.12.2019
2634 Clouds -5 1001 100 16093 0.36 258 20:19 10.12.2019
2635 Clouds -4 1000 85 16093 0.14 294 19:55 10.12.2019
2636 Clouds -5 1000 85 16093 0.14 294 19:36 10.12.2019
2637 Clouds -5 1000 85 16093 0.14 294 19:18 10.12.2019
2638 Clouds -4 1001 92 16093 0.14 294 18:40 10.12.2019
2639 Clouds -4 1001 92 16093 0.14 294 18:20 10.12.2019
2640 Clouds -4 1000 92 16093 0.14 294 17:58 10.12.2019
2641 Clouds -4 1000 92 16093 0.14 294 17:39 10.12.2019
2642 Clouds -4 1000 92 16093 1.2 340 17:20 10.12.2019
2643 Clouds -3 1000 100 16093 1.2 340 16:44 10.12.2019
2644 Clouds -3 1000 100 16093 1.2 340 16:21 10.12.2019
2645 Clouds -3 1000 92 16093 1.2 340 15:59 10.12.2019
2646 Clouds -3 1000 79 16093 1.2 340 15:38 10.12.2019
2647 Clouds -3 1000 79 16093 1.2 340 15:18 10.12.2019
2648 Clouds -3 1000 79 16093 1.2 340 15:18 10.12.2019
2649 Clouds -3 1000 92 16093 3.1 240 14:56 10.12.2019
2650 Clouds -3 1000 92 16093 3.1 240 14:37 10.12.2019
2651 Clouds -3 1000 92 16093 3.1 240 14:19 10.12.2019
2652 Clouds -3 999 92 16093 2.6 260 13:56 10.12.2019
2653 Clouds -3 999 92 16093 2.6 260 13:56 10.12.2019
2654 Clouds -3 999 92 16093 2.6 260 13:38 10.12.2019
2655 Clouds -3 999 92 16093 2.6 260 13:19 10.12.2019
2656 Clouds -3 999 86 16093 1.5 230 12:47 10.12.2019
2657 Clouds -3 999 86 16093 1.5 230 12:26 10.12.2019
2658 Clouds -3 998 86 16093 2.1 290 11:45 10.12.2019
2659 Clouds -3 998 86 16093 2.1 290 11:25 10.12.2019
2660 Clouds -3 997 85 16093 3.1 270 10:58 10.12.2019
2661 Clouds -3 997 85 16093 3.1 270 10:40 10.12.2019
2662 Clouds -3 997 85 16093 3.1 270 10:22 10.12.2019
2663 Clouds -3 997 92 16093 0.92 357 09:56 10.12.2019
2664 Clouds -3 997 92 16093 0.92 357 09:56 10.12.2019
2665 Clouds -3 997 92 16093 0.92 357 09:38 10.12.2019
2666 Clouds -3 997 92 16093 0.92 357 09:38 10.12.2019
2667 Clouds -4 997 92 16093 0.92 357 09:20 10.12.2019
2668 Clouds -4 996 100 16093 0.92 357 08:57 10.12.2019
2669 Clouds -4 996 100 16093 0.92 357 08:38 10.12.2019
2670 Clouds -4 996 100 16093 1.59 55 08:19 10.12.2019
2671 Clouds -4 996 100 16093 1.85 61 08:19 10.12.2019
2672 Clouds -4 995 85 16093 1.85 61 07:44 10.12.2019
2673 Rain -3 995 85 16093 1.85 61 07:26 10.12.2019
2674 Rain -3 995 85 16093 1.85 61 07:26 10.12.2019
2675 Rain -3 996 92 16093 2.6 280 06:49 10.12.2019
2676 Rain -3 996 92 16093 2.6 280 06:24 10.12.2019
2677 Clear -3 995 92 16093 2.6 280 05:55 10.12.2019
2678 Clear -3 995 92 16093 2.6 280 05:33 10.12.2019
2679 Clouds -2 995 100 16093 2.14 53 03:54 10.12.2019
2680 Clouds -3 995 92 12874 2.14 53 02:57 10.12.2019
2681 Clear -4 996 79 14484 2.19 51 01:54 10.12.2019
2682 Clear -3 996 79 14484 2.19 51 01:27 10.12.2019
2683 Clear -4 996 92 16093 2.2 51 00:51 10.12.2019
2684 Clear -3 996 92 16093 2.2 51 00:24 10.12.2019
2685 Clouds -4 996 92 16093 1 250 23:55 09.12.2019
2686 Clouds -4 997 85 11265 1.5 250 23:36 09.12.2019
2687 Clouds -6 997 85 11265 1.5 250 23:18 09.12.2019
2688 Clouds -6 997 79 16093 3.48 39 22:54 09.12.2019
2689 Clouds -6 997 79 16093 3.48 39 22:36 09.12.2019
2690 Clouds -5 997 79 16093 3.48 39 22:18 09.12.2019
2691 Clouds -5 997 79 16093 2.1 340 21:54 09.12.2019
2692 Clouds -4 997 79 16093 2.1 340 21:36 09.12.2019
2693 Clouds -4 997 79 16093 2.1 340 21:18 09.12.2019
2694 Clouds -4 998 73 16093 2.6 30 20:54 09.12.2019
2695 Clouds -4 998 73 16093 2.6 30 20:36 09.12.2019
2696 Clouds -6 998 73 16093 2.6 30 20:18 09.12.2019
2697 Clouds -6 999 73 16093 2.6 20 19:54 09.12.2019
2698 Clouds -6 999 73 16093 2.6 20 19:36 09.12.2019
2699 Clouds -6 999 73 16093 2.6 20 19:18 09.12.2019
2700 Clouds -4 1000 68 16093 3.6 40 18:40 09.12.2019
2701 Clouds -4 1000 68 16093 3.6 40 18:20 09.12.2019
2702 Clouds -4 1000 68 16093 3.6 40 18:20 09.12.2019
2703 Clouds -5 1001 73 16093 4.1 50 17:59 09.12.2019
2704 Clouds -6 1001 73 16093 4.1 50 17:41 09.12.2019
2705 Clouds -8 1001 73 16093 4.1 50 17:21 09.12.2019
2706 Clear -10 1002 100 16093 2.79 47 16:58 09.12.2019
2707 Clear -10 1002 100 16093 2.79 47 16:39 09.12.2019
2708 Clear -11 1002 100 16093 2.79 47 16:21 09.12.2019
2709 Clear -13 1003 100 16093 2.79 47 15:57 09.12.2019
2710 Clear -10 1003 100 16093 2.79 47 15:38 09.12.2019
2711 Clear -10 1003 100 16093 2.79 47 15:38 09.12.2019
2712 Clear -11 1003 100 16093 2.79 47 15:19 09.12.2019
2713 Clear -12 1005 92 16093 2.79 47 14:59 09.12.2019
2714 Clear -12 1005 92 16093 2.79 47 14:41 09.12.2019
2715 Clear -12 1005 92 16093 2.92 42 14:18 09.12.2019
2716 Clear -11 1006 84 14484 2.92 42 13:56 09.12.2019
2717 Clear -11 1006 84 14484 2.28 46 13:37 09.12.2019
2718 Clear -12 1006 84 14484 2.28 46 13:19 09.12.2019
2719 Clouds -12 1008 84 16093 2.28 46 12:55 09.12.2019
2720 Clouds -12 1008 84 16093 2.28 46 12:37 09.12.2019
2721 Clouds -12 1008 84 16093 2.28 46 12:18 09.12.2019
2722 Clear -13 1009 91 16093 2.28 46 11:55 09.12.2019
2723 Clear -13 1009 91 16093 2.28 46 11:36 09.12.2019
2724 Clear -12 1009 91 16093 2.53 39 11:18 09.12.2019
2725 Clear -14 1010 91 16093 2.53 39 10:39 09.12.2019
2726 Clear -14 1010 91 16093 2.53 39 10:39 09.12.2019
2727 Clear -13 1010 91 16093 2.53 39 10:20 09.12.2019
2728 Clear -13 1012 91 16093 2.53 39 09:56 09.12.2019
2729 Clear -13 1012 91 16093 2.53 39 09:37 09.12.2019
2730 Clear -13 1012 91 16093 2.53 39 09:19 09.12.2019
2731 Clear -11 1012 84 16093 2.53 39 08:40 09.12.2019
2732 Clear -12 1012 84 16093 2.24 36 08:22 09.12.2019
2733 Clear -13 1013 91 16093 2.24 36 07:53 09.12.2019
2734 Clear -13 1013 91 16093 2.24 36 07:34 09.12.2019
2735 Clear -13 1014 91 16093 2.24 36 06:59 09.12.2019
2736 Clear -12 1014 91 16093 2.24 36 06:37 09.12.2019
2737 Clear -12 1014 91 16093 2.24 36 06:19 09.12.2019
2738 Clear -12 1014 84 16093 1.09 56 05:25 09.12.2019
2739 Clouds -12 1014 92 16093 1.09 56 04:29 09.12.2019
2740 Clouds -11 1014 92 16093 1.09 56 03:18 09.12.2019
2741 Clouds -11 1014 92 16093 1.03 126 02:18 09.12.2019
2742 Clouds -11 1014 85 16093 1.5 350 01:40 09.12.2019
2743 Clouds -11 1013 92 16093 0.94 109 00:45 09.12.2019
2744 Clouds -11 1013 92 16093 0.94 109 00:24 09.12.2019
2745 Clouds -11 1012 85 16093 0.94 109 23:39 08.12.2019
2746 Clouds -11 1012 85 16093 1.86 159 23:21 08.12.2019
2747 Clouds -10 1011 78 16093 2.1 150 22:56 08.12.2019
2748 Clouds -10 1010 92 16093 1.86 159 22:38 08.12.2019
2749 Clouds -10 1010 92 16093 1.86 159 22:18 08.12.2019
2750 Clouds -10 1010 92 16093 1.86 159 22:18 08.12.2019
2751 Clouds -8 1007 92 16093 1.86 159 21:57 08.12.2019
2752 Clouds -8 1007 92 16093 1.86 159 21:39 08.12.2019
2753 Clouds -8 1007 92 16093 1.86 159 21:39 08.12.2019
2754 Clouds -8 1007 92 16093 1.86 159 21:19 08.12.2019
2755 Snow -7 1007 92 14484 1.86 159 20:57 08.12.2019
2756 Snow -7 1005 85 9656 3.1 210 20:38 08.12.2019
2757 Snow -7 1005 85 9656 3.1 210 20:19 08.12.2019
2758 Snow -7 1004 85 2816 4.1 190 19:57 08.12.2019
2759 Clouds -7 1003 85 16093 1.54 210 19:39 08.12.2019
2760 Clouds -8 1003 85 16093 1.54 210 19:21 08.12.2019
2761 Clouds -8 999 100 16093 1.54 210 18:55 08.12.2019
2762 Clouds -8 999 100 16093 1.54 210 18:36 08.12.2019
2763 Clouds -9 999 100 16093 1.54 210 18:18 08.12.2019
2764 Clear -11 997 92 16093 1.54 210 17:56 08.12.2019
2765 Clear -10 997 92 16093 1.54 210 17:37 08.12.2019
2766 Clear -10 997 92 16093 1.54 210 17:37 08.12.2019
2767 Clear -9 997 92 16093 1.44 13 17:19 08.12.2019
2768 Clouds -8 996 92 16093 1.44 13 16:55 08.12.2019
2769 Clouds -8 996 92 16093 1.44 13 16:55 08.12.2019
2770 Clouds -8 996 92 16093 1.44 13 16:37 08.12.2019
2771 Clouds -8 996 92 16093 1.44 13 16:19 08.12.2019
2772 Clouds -8 995 92 16093 1.44 13 15:38 08.12.2019
2773 Clouds -8 995 92 16093 1.44 13 15:19 08.12.2019
2774 Clouds -8 995 92 16093 1.44 13 14:59 08.12.2019
2775 Clouds -8 995 92 16093 1.44 13 14:39 08.12.2019
2776 Clouds -7 995 92 16093 1.18 47 14:21 08.12.2019
2777 Clouds -7 994 92 16093 1.18 47 13:57 08.12.2019
2778 Clouds -7 994 92 16093 1.18 47 13:38 08.12.2019
2779 Clouds -7 994 92 16093 1.47 52 13:20 08.12.2019
2780 Clouds -7 994 92 16093 1.47 52 12:54 08.12.2019
2781 Clouds -7 994 92 16093 1.47 52 12:36 08.12.2019
2782 Clouds -7 994 92 16093 1.47 52 12:18 08.12.2019
2783 Clouds -7 994 85 16093 1.47 52 11:39 08.12.2019
2784 Clouds -7 994 85 16093 1.47 52 11:39 08.12.2019
2785 Clouds -8 994 85 16093 1.29 36 11:20 08.12.2019
2786 Clouds -9 994 92 16093 1.29 36 10:59 08.12.2019
2787 Clouds -9 994 92 16093 1.29 36 10:38 08.12.2019
2788 Clouds -9 994 92 16093 1.29 36 10:20 08.12.2019
2789 Clouds -10 994 92 16093 1.29 36 09:57 08.12.2019
2790 Clouds -9 994 92 16093 1.29 36 09:57 08.12.2019
2791 Clouds -9 994 92 16093 1.29 36 09:38 08.12.2019
2792 Clouds -10 994 92 16093 1.29 36 09:19 08.12.2019
2793 Clouds -10 995 92 16093 1.29 36 08:58 08.12.2019
2794 Clouds -11 995 92 16093 1.29 36 08:38 08.12.2019
2795 Clouds -11 995 92 16093 2.11 47 08:19 08.12.2019
2796 Clouds -11 995 84 16093 2.11 47 07:44 08.12.2019
2797 Clouds -12 995 84 16093 2.11 47 07:20 08.12.2019
2798 Clouds -11 995 84 16093 2.11 47 06:51 08.12.2019
2799 Clouds -12 995 84 16093 2.11 47 06:22 08.12.2019
2800 Clouds -12 996 84 16093 2.11 47 05:49 08.12.2019
2801 Clouds -13 996 84 16093 2.07 38 05:18 08.12.2019
2802 Clouds -13 997 91 16093 2.07 38 03:50 08.12.2019
2803 Clouds -13 997 91 16093 2.07 38 03:23 08.12.2019
2804 Clouds -14 997 91 16093 2.07 38 02:39 08.12.2019
2805 Clouds -14 998 84 16093 1.52 35 01:56 08.12.2019
2806 Clouds -16 998 84 16093 1.52 35 01:27 08.12.2019
2807 Clouds -14 998 84 16093 1.14 11 00:40 08.12.2019
2808 Clouds -14 998 84 16093 1.14 11 00:21 08.12.2019
2809 Clouds -14 998 84 16093 1.14 11 23:41 07.12.2019
2810 Clouds -15 998 84 16093 1.19 32 23:21 07.12.2019
2811 Clouds -16 999 84 16093 1.19 32 22:58 07.12.2019
2812 Clouds -16 999 84 16093 1.19 32 22:40 07.12.2019
2813 Clouds -16 999 84 16093 1.19 32 22:40 07.12.2019
2814 Clouds -16 999 84 16093 1.19 32 22:40 07.12.2019
2815 Clouds -16 999 84 16093 1.19 32 22:40 07.12.2019
2816 Clouds -16 999 84 16093 1.19 32 22:22 07.12.2019
2817 Clear -16 999 84 16093 1.19 32 21:56 07.12.2019
2818 Clear -16 999 84 16093 1.19 32 21:38 07.12.2019
2819 Clear -16 999 84 16093 1.19 32 21:20 07.12.2019
2820 Clouds -16 999 83 16093 1.19 32 20:59 07.12.2019
2821 Clouds -17 999 83 16093 1.51 36 20:37 07.12.2019
2822 Clouds -17 999 83 16093 2.01 33 20:18 07.12.2019
2823 Clouds -18 1000 83 16093 2.01 33 19:56 07.12.2019
2824 Clouds -18 1000 83 16093 2.01 33 19:38 07.12.2019
2825 Clouds -19 1000 83 16093 2.01 33 19:20 07.12.2019
2826 Clear -21 1000 76 16093 2.01 33 18:44 07.12.2019
2827 Clear -20 1000 76 16093 2.01 33 18:20 07.12.2019
2828 Clear -20 1000 83 16093 2.01 33 17:58 07.12.2019
2829 Clear -20 1000 83 16093 2.01 33 17:40 07.12.2019
2830 Clear -20 1000 83 16093 1.37 29 17:22 07.12.2019
2831 Clear -20 1001 83 16093 1.37 29 16:57 07.12.2019
2832 Clear -20 1001 83 16093 1.37 29 16:38 07.12.2019
2833 Clear -20 1001 83 16093 1.37 29 16:20 07.12.2019
2834 Clouds -20 1001 83 16093 1.37 29 15:57 07.12.2019
2835 Clouds -19 1001 83 16093 1.37 29 15:38 07.12.2019
2836 Clouds -19 1001 83 16093 1.37 29 15:38 07.12.2019
2837 Clouds -19 1001 83 16093 1.37 29 15:20 07.12.2019
2838 Clear -21 1001 75 16093 1.37 29 14:42 07.12.2019
2839 Clear -22 1001 75 16093 1.5 36 14:19 07.12.2019
2840 Clear -22 1002 75 16093 1.5 36 13:56 07.12.2019
2841 Clear -22 1002 75 16093 1.5 36 13:56 07.12.2019
2842 Clear -22 1002 75 16093 1.5 36 13:37 07.12.2019
2843 Clear -23 1002 75 16093 1.54 37 13:19 07.12.2019
2844 Clouds -23 1003 82 16093 1.54 37 12:41 07.12.2019
2845 Clouds -23 1003 82 16093 1.54 37 12:23 07.12.2019
2846 Clear -23 1003 75 16093 1.54 37 11:58 07.12.2019
2847 Clear -23 1003 75 16093 1.54 37 11:40 07.12.2019
2848 Clear -24 1003 75 16093 2.01 36 11:22 07.12.2019
2849 Clear -25 1004 82 16093 2.01 36 10:39 07.12.2019
2850 Clear -26 1004 82 16093 2.01 36 10:20 07.12.2019
2851 Clear -25 1004 75 16093 2.01 36 09:58 07.12.2019
2852 Clear -25 1004 75 16093 2.01 36 09:38 07.12.2019
2853 Clear -25 1004 75 16093 2.01 36 09:19 07.12.2019
2854 Clear -25 1005 82 16093 2.01 36 08:43 07.12.2019
2855 Clear -25 1005 82 16093 1.74 43 08:21 07.12.2019
2856 Clear -24 1006 75 16093 1.74 43 07:47 07.12.2019
2857 Clear -24 1006 75 16093 1.74 43 07:27 07.12.2019
2858 Clear -23 1006 75 16093 1.74 43 06:52 07.12.2019
2859 Clear -24 1006 75 16093 1.74 43 06:25 07.12.2019
2860 Clouds -23 1007 82 16093 1.74 43 05:44 07.12.2019
2861 Clouds -25 1008 74 16093 1.68 30 04:19 07.12.2019
2862 Clouds -27 1008 74 16093 1.68 30 03:47 07.12.2019
2863 Clouds -27 1008 74 16093 1.76 39 02:22 07.12.2019
2864 Clear -26 1009 74 16093 1.76 39 01:37 07.12.2019
2865 Clear -27 1010 74 16093 1.69 40 00:57 07.12.2019
2866 Clear -27 1010 74 16093 1.69 40 00:21 07.12.2019
2867 Clear -28 1010 74 16093 1.69 40 23:57 06.12.2019
2868 Clear -28 1010 74 16093 1.69 40 23:38 06.12.2019
2869 Clear -28 1010 74 16093 1.52 34 23:19 06.12.2019
2870 Clear -29 1011 74 14484 1.52 34 22:39 06.12.2019
2871 Clear -29 1011 74 14484 1.52 34 22:21 06.12.2019
2872 Clouds -29 1011 74 14484 1.52 34 21:58 06.12.2019
2873 Clouds -31 1011 74 14484 1.52 34 21:40 06.12.2019
2874 Clouds -32 1011 74 14484 1.52 34 21:20 06.12.2019
2875 Clear -32 1011 74 14484 1.52 34 20:46 06.12.2019
2876 Clear -30 1011 74 14484 1.52 36 20:26 06.12.2019
2877 Clouds -28 1011 68 16093 1.44 34 19:59 06.12.2019
2878 Clouds -27 1011 68 16093 1.44 34 19:40 06.12.2019
2879 Clouds -29 1011 68 16093 1.44 34 19:22 06.12.2019
2880 Clear -29 1011 74 16093 1.44 34 18:58 06.12.2019
2881 Clear -30 1011 74 16093 1.44 34 18:40 06.12.2019
2882 Clear -31 1011 74 16093 1.44 34 18:20 06.12.2019
2883 Clear -31 1011 74 16093 1.44 34 17:57 06.12.2019
2884 Clear -31 1011 74 16093 1.44 34 17:57 06.12.2019
2885 Clear -31 1011 74 16093 1.44 34 17:39 06.12.2019
2886 Clear -30 1011 74 16093 1.64 28 17:21 06.12.2019
2887 Clear -29 1012 74 16093 1.64 28 16:56 06.12.2019
2888 Clear -29 1012 74 16093 1.64 28 16:37 06.12.2019
2889 Clear -30 1012 74 16093 1.64 28 16:18 06.12.2019
2890 Clear -31 1012 74 16093 1.64 28 15:41 06.12.2019
2891 Clear -31 1012 74 16093 1.64 28 15:21 06.12.2019
2892 Clear -31 1012 74 16093 1.64 28 14:57 06.12.2019
2893 Clear -31 1012 74 16093 1.64 28 14:39 06.12.2019
2894 Clear -31 1012 74 16093 1.24 35 14:19 06.12.2019
2895 Clear -31 1012 74 16093 1.24 35 13:45 06.12.2019
2896 Clear -31 1012 74 16093 1.38 40 13:26 06.12.2019
2897 Clear -31 1012 74 16093 1.38 40 12:56 06.12.2019
2898 Clear -31 1012 74 16093 1.38 40 12:38 06.12.2019
2899 Clear -31 1012 74 16093 1.38 40 12:19 06.12.2019
2900 Clear -31 1012 74 16093 1.38 40 11:42 06.12.2019
2901 Clear -31 1012 74 16093 1.66 36 11:23 06.12.2019
2902 Clear -31 1013 74 16093 1.66 36 10:55 06.12.2019
2903 Clear -31 1013 74 16093 1.66 36 10:37 06.12.2019
2904 Clear -31 1013 74 16093 1.66 36 10:18 06.12.2019
2905 Clear -31 1012 74 16093 1.66 36 09:54 06.12.2019
2906 Clear -31 1012 74 16093 1.66 36 09:36 06.12.2019
2907 Clear -31 1012 74 16093 1.66 36 09:18 06.12.2019
2908 Clear -31 1012 74 16093 1.66 36 08:40 06.12.2019
2909 Clear -31 1012 74 16093 1.62 36 08:21 06.12.2019
2910 Clear -31 1013 74 16093 1.61 34 07:38 06.12.2019
2911 Clear -31 1013 74 16093 1.61 34 07:20 06.12.2019
2912 Clear -31 1013 74 16093 1.61 34 06:48 06.12.2019
2913 Clear -31 1013 74 16093 1.61 34 06:24 06.12.2019
2914 Clear -30 1013 74 16093 1.61 34 05:46 06.12.2019
2915 Mist -28 1013 75 6437 1.53 31 02:44 06.12.2019
2916 Clear -27 1013 68 16093 1.53 36 01:43 06.12.2019
2917 Clear -28 1014 82 12874 1.7 35 00:50 06.12.2019
2918 Fog -28 1014 68 16093 1.7 35 00:23 06.12.2019
2919 Clouds -28 1014 75 16093 1.7 35 23:51 05.12.2019
2920 Clouds -28 1014 75 16093 1.85 35 23:20 05.12.2019
2921 Clear -29 1015 75 16093 1.85 35 22:58 05.12.2019
2922 Clear -29 1015 75 16093 1.85 35 22:39 05.12.2019
2923 Clear -29 1015 75 16093 1.85 35 22:19 05.12.2019
2924 Clear -30 1015 74 14484 1.85 35 21:56 05.12.2019
2925 Clear -30 1015 74 14484 1.85 35 21:37 05.12.2019
2926 Clear -30 1015 74 14484 1.85 35 21:19 05.12.2019
2927 Clouds -31 1014 67 16093 1.85 35 20:56 05.12.2019
2928 Clouds -30 1014 67 16093 1.85 35 20:56 05.12.2019
2929 Clouds -30 1014 67 16093 1.85 35 20:56 05.12.2019
2930 Clouds -30 1015 74 12874 1.85 35 20:37 05.12.2019
2931 Clouds -30 1015 74 12874 1.64 35 20:18 05.12.2019
2932 Clouds -30 1015 74 12874 1.64 35 20:18 05.12.2019
2933 Clouds -30 1015 74 12874 1.64 35 20:18 05.12.2019
2934 Clear -30 1015 74 16093 1.64 35 19:41 05.12.2019
2935 Clear -30 1015 74 16093 1.64 35 19:22 05.12.2019
2936 Clear -30 1016 82 16093 1.64 35 18:59 05.12.2019
2937 Clear -30 1016 82 16093 1.64 35 18:39 05.12.2019
2938 Clear -30 1016 82 16093 1.64 35 18:20 05.12.2019
2939 Clear -28 1016 75 16093 1.64 35 17:55 05.12.2019
2940 Clear -28 1016 75 16093 1.64 35 17:37 05.12.2019
2941 Clear -29 1016 75 16093 1.59 40 17:18 05.12.2019
2942 Clouds -29 1016 75 16093 1.59 40 16:40 05.12.2019
2943 Clouds -29 1016 75 16093 1.59 40 16:40 05.12.2019
2944 Clouds -29 1016 75 16093 1.59 40 16:40 05.12.2019
2945 Clouds -29 1016 75 16093 1.59 40 16:22 05.12.2019
2946 Clouds -28 1016 75 16093 1.59 40 15:58 05.12.2019
2947 Clouds -28 1016 75 16093 1.59 40 15:40 05.12.2019
2948 Clouds -28 1016 75 16093 1.59 40 15:20 05.12.2019
2949 Clouds -27 1017 82 16093 1.59 40 14:56 05.12.2019
2950 Clouds -27 1017 82 16093 1.59 40 14:38 05.12.2019
2951 Clouds -28 1017 82 16093 1.42 35 14:20 05.12.2019
2952 Clouds -28 1017 82 16093 1.42 35 13:58 05.12.2019
2953 Clouds -27 1017 82 16093 1.42 35 13:40 05.12.2019
2954 Clouds -28 1017 82 16093 1.21 39 13:21 05.12.2019
2955 Clouds -28 1018 75 16093 1.21 39 12:59 05.12.2019
2956 Clouds -28 1018 75 16093 1.21 39 12:40 05.12.2019
2957 Clouds -27 1018 82 16093 1.21 39 12:21 05.12.2019
2958 Clouds -27 1018 75 16093 1.21 39 11:41 05.12.2019
2959 Clouds -27 1018 75 16093 1.35 43 11:23 05.12.2019
2960 Clear -26 1018 75 16093 1.35 43 10:59 05.12.2019
2961 Clear -27 1018 75 16093 1.35 43 10:41 05.12.2019
2962 Clear -26 1018 75 16093 1.35 43 10:19 05.12.2019
2963 Clouds -26 1019 75 16093 1.35 43 09:57 05.12.2019
2964 Clouds -26 1019 75 16093 1.35 43 09:39 05.12.2019
2965 Clouds -27 1019 75 16093 1.35 43 09:20 05.12.2019
2966 Clear -26 1018 82 16093 1.35 43 08:56 05.12.2019
2967 Clear -26 1018 82 16093 1.35 43 08:37 05.12.2019
2968 Clear -26 1018 82 16093 0.57 47 08:19 05.12.2019
2969 Clear -26 1018 82 16093 0.57 47 08:19 05.12.2019
2970 Clear -26 1018 82 16093 0.57 47 08:19 05.12.2019
2971 Clouds -25 1019 75 16093 0.57 47 07:41 05.12.2019
2972 Clouds -25 1018 76 16093 1.5 80 07:23 05.12.2019
2973 Clear -25 1019 75 16093 0.57 47 06:48 05.12.2019
2974 Clouds -25 1018 69 16093 1.5 50 06:24 05.12.2019
2975 Clear -25 1019 83 16093 0.57 47 05:56 05.12.2019
2976 Clear -25 1019 83 16093 0.63 55 05:24 05.12.2019
2977 Clouds -24 1019 75 16093 0.63 55 04:59 05.12.2019
2978 Clouds -23 1019 83 16093 0.63 55 03:41 05.12.2019
2979 Clouds -23 1019 83 16093 0.63 55 02:42 05.12.2019
2980 Clouds -24 1019 83 16093 0.62 44 02:22 05.12.2019
2981 Clouds -23 1019 77 16093 0.62 44 01:51 05.12.2019
2982 Clouds -23 1019 77 16093 0.91 32 01:23 05.12.2019
2983 Clouds -23 1019 76 11265 0.91 32 00:44 05.12.2019
2984 Clouds -23 1019 76 11265 0.91 32 00:21 05.12.2019
2985 Clouds -22 1019 76 16093 0.91 32 23:55 04.12.2019
2986 Clouds -22 1019 76 16093 0.91 32 23:37 04.12.2019
2987 Clouds -22 1020 76 11265 0.99 50 23:18 04.12.2019
2988 Clouds -21 1020 83 12874 0.99 50 22:39 04.12.2019
2989 Clouds -21 1020 83 12874 0.99 50 22:20 04.12.2019
2990 Snow -22 1018 70 9656 2.6 340 21:58 04.12.2019
2991 Snow -22 1018 70 9656 2.6 340 21:39 04.12.2019
2992 Clouds -22 1019 83 12874 0.99 50 21:19 04.12.2019
2993 Clear -21 1019 83 14484 0.99 50 20:57 04.12.2019
2994 Clear -21 1019 83 14484 0.99 50 20:39 04.12.2019
2995 Clear -21 1019 83 14484 1.08 33 20:21 04.12.2019
2996 Clouds -19 1018 77 16093 0.84 37 19:57 04.12.2019
2997 Clouds -19 1018 77 16093 0.84 37 19:38 04.12.2019
2998 Clouds -19 1018 77 16093 0.84 37 19:20 04.12.2019
2999 Clouds -18 1018 83 16093 0.84 37 18:42 04.12.2019
3000 Clouds -18 1018 83 16093 0.84 37 18:24 04.12.2019
3001 Clouds -18 1018 84 16093 0.84 37 17:59 04.12.2019
3002 Clouds -18 1018 84 16093 0.84 37 17:39 04.12.2019
3003 Clouds -18 1018 84 16093 0.84 37 17:39 04.12.2019
3004 Clouds -18 1018 84 16093 0.84 37 17:39 04.12.2019
3005 Clouds -18 1018 84 16093 0.88 33 17:20 04.12.2019
3006 Clouds -17 1018 84 16093 0.88 33 16:56 04.12.2019
3007 Clouds -17 1018 84 16093 0.88 33 16:38 04.12.2019
3008 Clouds -17 1018 84 16093 0.88 33 16:19 04.12.2019
3009 Clouds -17 1018 84 16093 0.88 33 16:19 04.12.2019
3010 Clouds -17 1018 91 16093 0.88 33 15:55 04.12.2019
3011 Clouds -17 1018 91 16093 0.88 33 15:36 04.12.2019
3012 Clouds -17 1018 91 16093 0.88 33 15:18 04.12.2019
3013 Clouds -17 1018 84 16093 0.88 33 14:43 04.12.2019
3014 Clouds -17 1018 84 16093 0.88 33 14:23 04.12.2019
3015 Clouds -17 1017 84 16093 0.94 32 13:57 04.12.2019
3016 Clouds -17 1017 84 16093 0.94 32 13:38 04.12.2019
3017 Clouds -17 1017 84 16093 0.69 37 13:19 04.12.2019
3018 Mist -17 1017 91 6437 0.69 37 12:44 04.12.2019
3019 Mist -17 1017 91 6437 0.69 37 12:24 04.12.2019
3020 Clouds -18 1017 91 16093 0.69 37 11:55 04.12.2019
3021 Clouds -18 1017 91 16093 0.69 37 11:37 04.12.2019
3022 Clouds -18 1017 91 16093 1.28 21 11:19 04.12.2019
3023 Clouds -17 1016 91 14484 1.28 21 10:43 04.12.2019
3024 Clouds -16 1016 91 14484 1.28 21 10:23 04.12.2019
3025 Clouds -16 1016 84 14484 1.28 21 09:55 04.12.2019
3026 Clouds -16 1016 84 14484 1.28 21 09:55 04.12.2019
3027 Clouds -16 1016 84 14484 1.28 21 09:37 04.12.2019
3028 Clouds -16 1016 84 14484 1.28 21 09:18 04.12.2019
3029 Mist -15 1015 91 11265 1.28 21 08:39 04.12.2019
3030 Clouds -15 1015 84 11265 1.06 24 08:20 04.12.2019
3031 Clouds -15 1015 92 14484 1.06 24 07:48 04.12.2019
3032 Clouds -15 1015 92 14484 1.06 24 07:30 04.12.2019
3033 Clouds -15 1015 92 14484 1.06 24 07:30 04.12.2019
3034 Clouds -15 1014 92 16093 1.06 24 06:34 04.12.2019
3035 Mist -14 1014 92 8047 1.06 24 05:48 04.12.2019
3036 Clouds -14 1014 92 16093 1.06 24 05:29 04.12.2019
3037 Clouds -14 1014 92 12874 1.32 21 04:25 04.12.2019
3038 Clouds -14 1013 92 12874 1.32 21 02:47 04.12.2019
3039 Snow -14 1012 92 9656 0.78 23 00:52 04.12.2019
3040 Snow -14 1012 92 9656 0.78 23 00:28 04.12.2019
3041 Snow -14 1012 92 9656 0.78 23 23:59 03.12.2019
3042 Snow -14 1012 92 9656 0.78 23 23:40 03.12.2019
3043 Snow -14 1012 92 9656 0.74 19 23:19 03.12.2019
3044 Clouds -14 1011 84 16093 1.5 170 22:41 03.12.2019
3045 Snow -15 1012 92 9656 0.74 19 22:19 03.12.2019
3046 Clouds -15 1011 84 11265 0.74 19 21:59 03.12.2019
3047 Clouds -15 1011 84 11265 0.74 19 21:39 03.12.2019
3048 Clouds -15 1011 84 11265 0.74 19 21:19 03.12.2019
3049 Snow -16 1011 84 9656 0.74 19 20:58 03.12.2019
3050 Snow -16 1011 84 9656 0.74 19 20:40 03.12.2019
3051 Clouds -16 1010 70 16093 0.7 10 20:19 03.12.2019
3052 Clouds -19 1009 83 16093 0.7 10 19:55 03.12.2019
3053 Clouds -19 1009 83 16093 0.7 10 19:37 03.12.2019
3054 Clouds -19 1009 83 16093 0.7 10 19:19 03.12.2019
3055 Clouds -19 1009 76 16093 0.7 10 18:56 03.12.2019
3056 Clouds -19 1009 76 16093 0.7 10 18:38 03.12.2019
3057 Clouds -19 1009 83 14484 0.7 10 18:20 03.12.2019
3058 Clouds -19 1009 83 14484 0.7 10 17:56 03.12.2019
3059 Clouds -19 1009 83 14484 0.7 10 17:36 03.12.2019
3060 Clear -19 1008 83 12874 0.9 12 17:18 03.12.2019
3061 Clear -19 1008 83 14484 0.9 12 16:56 03.12.2019
3062 Clear -19 1008 83 14484 0.9 12 16:38 03.12.2019
3063 Clear -19 1008 83 14484 0.9 12 16:19 03.12.2019
3064 Snow -18 1007 77 16093 2.1 160 15:54 03.12.2019
3065 Snow -18 1007 77 16093 2.1 160 15:36 03.12.2019
3066 Clear -18 1007 84 16093 0.9 12 15:18 03.12.2019
3067 Clear -16 1007 84 14484 0.9 12 14:41 03.12.2019
3068 Clear -15 1007 84 14484 1.24 16 14:20 03.12.2019
3069 Clear -15 1007 84 14484 1.24 16 14:20 03.12.2019
3070 Clouds -13 1006 92 16093 1.24 16 13:54 03.12.2019
3071 Clouds -13 1006 92 16093 1.24 16 13:36 03.12.2019
3072 Clouds -13 1006 92 16093 1.21 25 13:18 03.12.2019
3073 Clouds -12 1006 92 14484 1.21 25 12:40 03.12.2019
3074 Clouds -12 1006 92 14484 1.21 25 12:18 03.12.2019
3075 Clouds -12 1006 92 14484 1.21 25 11:58 03.12.2019
3076 Clouds -12 1006 92 14484 1.21 25 11:39 03.12.2019
3077 Clouds -12 1005 92 16093 1.58 18 11:20 03.12.2019
3078 Snow -12 1005 92 8047 1.58 18 10:57 03.12.2019
3079 Snow -12 1005 92 8047 1.58 18 10:39 03.12.2019
3080 Snow -12 1005 92 8047 1.58 18 10:19 03.12.2019
3081 Snow -12 1004 92 14484 1.58 18 09:46 03.12.2019
3082 Snow -11 1004 92 14484 1.58 18 09:25 03.12.2019
3083 Snow -11 1003 92 11265 1.58 18 08:59 03.12.2019
3084 Snow -11 1003 92 11265 1.58 18 08:40 03.12.2019
3085 Snow -11 1003 92 11265 1.21 25 08:21 03.12.2019
3086 Snow -11 1002 85 11265 1.21 25 07:53 03.12.2019
3087 Snow -11 1002 85 11265 1.21 25 07:53 03.12.2019
3088 Snow -11 1002 85 11265 1.21 25 07:30 03.12.2019
3089 Snow -11 1001 92 9656 1.21 25 06:58 03.12.2019
3090 Snow -11 1001 92 9656 1.21 25 06:21 03.12.2019
3091 Rain -11 1001 92 11265 1.21 25 05:56 03.12.2019
3092 Snow -11 1000 92 11265 0.57 358 03:45 03.12.2019
3093 Snow -11 999 92 6437 0.57 358 03:23 03.12.2019
3094 Snow -11 999 85 3219 2.1 200 02:57 03.12.2019
3095 Snow -11 999 85 3219 2.1 200 02:39 03.12.2019
3096 Snow -10 999 92 4023 0.4 301 02:21 03.12.2019
3097 Snow -10 998 85 9656 0.4 301 01:40 03.12.2019
3098 Snow -10 998 92 8047 0.4 301 01:20 03.12.2019
3099 Snow -10 997 78 3219 1.5 0 00:43 03.12.2019
3100 Snow -10 997 78 4828 1.5 0 00:25 03.12.2019
3101 Snow -10 997 78 4828 2.1 250 23:44 02.12.2019
3102 Snow -10 996 72 1609 1.5 230 23:22 02.12.2019
3103 Snow -10 996 92 4828 0.72 297 22:59 02.12.2019
3104 Snow -10 996 92 4828 0.72 297 22:39 02.12.2019
3105 Snow -10 996 92 8047 0.72 297 22:21 02.12.2019
3106 Mist -10 996 92 6437 0.72 297 21:57 02.12.2019
3107 Mist -10 996 92 6437 0.72 297 21:36 02.12.2019
3108 Snow -10 996 92 8047 0.72 297 21:18 02.12.2019
3109 Snow -10 995 92 8047 0.72 297 20:55 02.12.2019
3110 Snow -10 995 92 8047 0.72 297 20:37 02.12.2019
3111 Mist -10 995 92 3017 1.06 318 20:18 02.12.2019
3112 Snow -10 995 92 4828 1.06 318 19:41 02.12.2019
3113 Snow -10 995 92 4828 1.06 318 19:41 02.12.2019
3114 Mist -10 994 92 4023 1.06 318 19:21 02.12.2019
3115 Mist -10 994 92 4023 1.06 318 19:21 02.12.2019
3116 Snow -10 994 92 4828 1.06 318 18:55 02.12.2019
3117 Rain -10 994 92 9656 1.06 318 18:36 02.12.2019
3118 Rain -10 994 92 9656 1.06 318 18:18 02.12.2019
3119 Rain -10 994 92 9656 1.06 318 18:18 02.12.2019
3120 Snow -10 993 85 2414 1.06 318 17:41 02.12.2019
3121 Snow -10 993 92 11265 1.17 303 17:21 02.12.2019
3122 Snow -10 993 92 11265 1.17 303 17:21 02.12.2019
3123 Snow -10 993 78 11265 1.5 220 16:59 02.12.2019
3124 Snow -10 993 78 11265 1.5 220 16:39 02.12.2019
3125 Snow -10 993 78 11265 1.5 220 16:39 02.12.2019
3126 Snow -10 993 92 8047 1.17 303 16:18 02.12.2019
3127 Snow -10 993 92 4828 1.17 303 15:57 02.12.2019
3128 Snow -10 993 92 4828 1.17 303 15:38 02.12.2019
3129 Snow -10 993 92 6437 1.17 303 15:20 02.12.2019
3130 Snow -10 993 92 12874 1.17 303 14:55 02.12.2019
3131 Snow -10 993 92 12874 1.17 303 14:37 02.12.2019
3132 Snow -10 992 78 8047 1.34 319 14:19 02.12.2019
3133 Snow -10 992 78 9656 2.6 190 13:55 02.12.2019
3134 Snow -10 992 78 9656 2.6 190 13:55 02.12.2019
3135 Clouds -10 993 92 14484 1.34 319 13:36 02.12.2019
3136 Clouds -10 993 92 14484 1.34 319 13:18 02.12.2019
3137 Clouds -9 992 92 14484 1.31 319 12:42 02.12.2019
3138 Snow -9 992 92 14484 1.31 319 12:21 02.12.2019
3139 Clouds -9 992 92 16093 1.31 319 11:57 02.12.2019
3140 Clouds -9 992 92 16093 1.31 319 11:38 02.12.2019
3141 Clouds -9 992 92 16093 1.58 333 11:19 02.12.2019
3142 Clouds -9 992 85 16093 1.5 190 10:57 02.12.2019
3143 Clouds -9 992 85 16093 1.5 190 10:39 02.12.2019
3144 Clouds -9 992 92 16093 1.58 333 10:21 02.12.2019
3145 Clouds -9 992 85 16093 1.58 333 09:55 02.12.2019
3146 Clouds -8 992 85 16093 1.58 333 09:37 02.12.2019
3147 Clouds -8 992 92 16093 1.58 333 09:18 02.12.2019
3148 Clouds -8 993 92 14484 1.58 333 08:41 02.12.2019
3149 Clouds -8 993 92 14484 1.58 333 08:23 02.12.2019
3150 Snow -8 993 92 2816 1.58 333 07:59 02.12.2019
3151 Snow -8 993 92 2816 1.58 333 07:38 02.12.2019
3152 Clouds -8 993 92 14484 1.58 333 07:19 02.12.2019
3153 Snow -8 993 85 4023 1.58 333 06:40 02.12.2019
3154 Clouds -8 994 100 16093 1.58 333 05:45 02.12.2019
3155 Clouds -8 994 100 16093 1.8 343 05:18 02.12.2019
3156 Clouds -8 995 92 16093 1.8 343 03:19 02.12.2019
3157 Clouds -8 995 92 16093 1.8 343 02:47 02.12.2019
3158 Clouds -8 996 100 16093 1.54 351 01:46 02.12.2019
3159 Clouds -8 996 92 16093 1.37 341 01:19 02.12.2019
3160 Clouds -8 997 92 14484 1.37 341 00:34 02.12.2019
3161 Clouds -8 998 92 12874 1.37 341 23:59 01.12.2019
3162 Clouds -8 998 92 12874 1.37 341 23:41 01.12.2019
3163 Clouds -8 998 100 14484 1.37 6 23:21 01.12.2019
3164 Clouds -8 997 85 16093 1.37 6 22:56 01.12.2019
3165 Clouds -8 997 85 16093 1.37 6 22:38 01.12.2019
3166 Clouds -8 999 100 16093 1.37 6 22:19 01.12.2019
3167 Clouds -8 1000 85 16093 1.5 350 21:56 01.12.2019
3168 Clouds -8 1000 85 16093 1.5 350 21:56 01.12.2019
3169 Clouds -8 1000 100 16093 1.37 6 21:38 01.12.2019
3170 Clouds -8 1000 100 16093 1.37 6 21:19 01.12.2019
3171 Clouds -9 1000 85 16093 2.6 360 20:58 01.12.2019
3172 Clouds -9 1000 85 16093 2.6 360 20:39 01.12.2019
3173 Clouds -9 1000 100 16093 1.42 8 20:21 01.12.2019
3174 Clouds -8 1000 85 16093 1.35 17 19:57 01.12.2019
3175 Clouds -8 1000 85 16093 1.35 17 19:38 01.12.2019
3176 Clouds -8 1001 100 16093 1.35 17 19:20 01.12.2019
3177 Snow -8 1002 85 14484 1.5 30 18:55 01.12.2019
3178 Clouds -8 1002 92 12874 1.35 17 18:37 01.12.2019
3179 Clouds -8 1002 92 12874 1.35 17 18:37 01.12.2019
3180 Snow -8 1002 85 14484 1.5 30 18:37 01.12.2019
3181 Clouds -8 1002 92 12874 1.35 17 18:18 01.12.2019
3182 Snow -8 1003 92 16093 1.35 17 17:56 01.12.2019
3183 Snow -8 1003 92 16093 1.35 17 17:38 01.12.2019
3184 Clouds -8 1003 92 16093 1.03 32 17:19 01.12.2019
3185 Snow -8 1003 92 8047 1.03 32 16:44 01.12.2019
3186 Snow -8 1004 92 12874 1.03 32 16:25 01.12.2019
3187 Clouds -8 1004 92 16093 1.03 32 15:58 01.12.2019
3188 Clouds -8 1004 92 16093 1.03 32 15:58 01.12.2019
3189 Clouds -8 1004 92 16093 1.03 32 15:40 01.12.2019
3190 Clouds -8 1004 92 16093 1.03 32 15:40 01.12.2019
3191 Clouds -8 1004 100 16093 1.03 32 15:20 01.12.2019
3192 Clouds -8 1004 100 11265 1.03 32 14:38 01.12.2019
3193 Snow -8 1005 100 11265 0.43 87 14:19 01.12.2019
3194 Mist -7 1005 92 9656 0.43 87 13:40 01.12.2019
3195 Clouds -7 1005 92 11265 0.54 82 13:22 01.12.2019
3196 Mist -7 1006 92 8047 0.54 82 12:58 01.12.2019
3197 Mist -7 1006 92 8047 0.54 82 12:36 01.12.2019
3198 Mist -7 1006 92 8047 0.54 82 12:36 01.12.2019
3199 Snow -7 1006 92 9656 0.54 82 12:27 01.12.2019
3200 Snow -7 1006 92 9656 0.54 82 12:27 01.12.2019
3201 Snow -7 1006 92 9656 0.54 82 12:27 01.12.2019
3202 Snow -7 1006 92 3621 0.54 82 11:44 01.12.2019
3203 Snow -7 1007 100 9656 0.54 82 11:24 01.12.2019
3204 Snow -7 1007 92 16093 0.54 102 10:55 01.12.2019
3205 Snow -7 1007 92 16093 0.54 102 10:55 01.12.2019
3206 Snow -7 1007 92 16093 0.54 102 10:37 01.12.2019
3207 Snow -7 1007 85 9656 0.54 102 10:19 01.12.2019
3208 Snow -7 1007 85 8047 0.54 102 09:41 01.12.2019
3209 Clouds -7 1007 100 16093 0.54 102 09:22 01.12.2019
3210 Snow -7 1007 100 16093 0.54 102 08:49 01.12.2019
3211 Snow -7 1007 100 16093 0.5 191 08:24 01.12.2019
3212 Clouds -7 1007 100 16093 0.5 191 07:54 01.12.2019
3213 Clouds -7 1007 100 16093 0.5 191 07:36 01.12.2019
3214 Clouds -7 1007 100 16093 0.5 191 07:18 01.12.2019
3215 Snow -7 1006 85 9656 1.5 190 06:49 01.12.2019
3216 Clouds -7 1007 100 16093 0.5 191 05:57 01.12.2019
3217 Clouds -7 1006 85 16093 2.6 200 04:54 01.12.2019
3218 Clouds -7 1006 100 16093 0.82 206 04:22 01.12.2019
3219 Clouds -7 1005 100 14484 0.82 206 02:43 01.12.2019
3220 Snow -7 1005 100 14484 0.82 206 02:24 01.12.2019
3221 Clouds -7 1004 100 14484 0.57 22 01:53 01.12.2019
3222 Clouds -7 1004 100 14484 0.09 111 01:29 01.12.2019
3223 Clouds -7 1004 92 14484 0.09 111 00:45 01.12.2019
3224 Clouds -7 1004 92 16093 0.09 111 00:26 01.12.2019
3225 Clouds -7 1003 92 16093 0.09 111 23:47 30.11.2019
3226 Clouds -7 1003 92 16093 1.22 10 23:25 30.11.2019
3227 Clouds -7 1002 85 12874 2.1 150 22:59 30.11.2019
3228 Clouds -7 1003 92 16093 1.22 10 22:39 30.11.2019
3229 Clouds -7 1003 92 16093 1.22 10 22:20 30.11.2019
3230 Clouds -7 1002 85 14484 2.1 120 21:47 30.11.2019
3231 Clouds -7 1002 92 16093 1.22 10 21:28 30.11.2019
3232 Clouds -8 1002 100 16093 1.22 10 20:58 30.11.2019
3233 Clouds -8 1002 100 16093 1.22 10 20:39 30.11.2019
3234 Clouds -7 1001 85 16093 1.5 200 20:19 30.11.2019
3235 Clouds -7 1001 85 16093 1.5 200 20:19 30.11.2019
3236 Clouds -8 1001 100 16093 1.27 25 19:56 30.11.2019
3237 Clouds -8 1001 100 16093 1.27 25 19:38 30.11.2019
3238 Clouds -8 1001 100 16093 1.27 25 19:20 30.11.2019
3239 Clouds -8 1000 92 16093 1.27 25 18:58 30.11.2019
3240 Clouds -7 1000 92 16093 1.27 25 18:38 30.11.2019
3241 Clouds -7 1000 92 16093 1.27 25 18:20 30.11.2019
3242 Clouds -7 1000 92 16093 1.27 25 17:58 30.11.2019
3243 Clouds -7 1000 92 16093 1.27 25 17:39 30.11.2019
3244 Clouds -7 1000 92 16093 1.72 33 17:20 30.11.2019
3245 Clouds -7 1000 100 16093 1.72 33 16:57 30.11.2019
3246 Clouds -7 1000 100 16093 1.72 33 16:57 30.11.2019
3247 Clouds -7 1000 100 16093 1.72 33 16:39 30.11.2019
3248 Clouds -7 1000 100 16093 1.72 33 16:20 30.11.2019
3249 Clear -7 1000 92 16093 1.72 33 15:42 30.11.2019
3250 Clear -7 1000 92 16093 1.72 33 15:19 30.11.2019
3251 Clouds -6 1000 100 16093 1.72 33 14:58 30.11.2019
3252 Clouds -6 1000 100 16093 1.72 33 14:38 30.11.2019
3253 Clouds -6 1000 100 16093 1.95 23 14:19 30.11.2019
3254 Mist -6 1000 100 8047 1.95 23 13:58 30.11.2019
3255 Mist -6 1000 100 8047 1.95 23 13:38 30.11.2019
3256 Mist -6 1000 100 8047 2.07 18 13:20 30.11.2019
3257 Clouds -6 1000 100 16093 2.07 18 12:47 30.11.2019
3258 Clouds -6 1000 100 16093 2.07 18 12:29 30.11.2019
3259 Clouds -6 1000 92 16093 2.07 18 11:58 30.11.2019
3260 Clouds -6 1000 92 16093 2.07 18 11:58 30.11.2019
3261 Clouds -5 1000 92 16093 2.07 18 11:40 30.11.2019
3262 Clouds -6 1000 92 16093 1.83 30 11:18 30.11.2019
3263 Clouds -5 1000 100 16093 1.83 30 10:45 30.11.2019
3264 Clouds -5 1000 100 16093 1.83 30 10:21 30.11.2019
3265 Clouds -5 1001 92 16093 1.83 30 09:59 30.11.2019
3266 Clouds -5 1001 92 16093 1.83 30 09:40 30.11.2019
3267 Clouds -5 1001 92 16093 1.83 30 09:20 30.11.2019
3268 Clouds -5 1001 100 16093 1.83 30 08:41 30.11.2019
3269 Clouds -5 1001 100 16093 1.89 32 08:19 30.11.2019
3270 Clouds -5 1001 100 16093 1.89 32 07:43 30.11.2019
3271 Clouds -5 1001 100 16093 1.89 32 07:24 30.11.2019
3272 Clouds -5 1001 100 16093 1.89 32 06:46 30.11.2019
3273 Clouds -5 1001 100 16093 1.89 32 06:28 30.11.2019
3274 Clear -5 1001 100 16093 1.89 32 05:29 30.11.2019
3275 Clouds -5 1001 92 16093 2.16 31 03:40 30.11.2019
3276 Clouds -5 1002 100 16093 2.16 31 02:26 30.11.2019
3277 Clouds -5 1002 100 16093 2.16 31 02:26 30.11.2019
3278 Clouds -5 1002 92 12874 1.97 26 01:56 30.11.2019
3279 Clouds -5 1002 92 12874 1.99 38 01:24 30.11.2019
3280 Clouds -5 1002 100 14484 1.99 38 00:46 30.11.2019
3281 Clouds -4 1002 100 14484 1.99 38 00:27 30.11.2019
3282 Clouds -4 1003 100 16093 1.99 38 23:46 29.11.2019
3283 Clouds -5 1003 100 16093 1.99 38 23:25 29.11.2019
3284 Clouds -4 1003 100 14484 1.39 24 22:58 29.11.2019
3285 Clouds -4 1003 100 14484 1.39 24 22:39 29.11.2019
3286 Clouds -4 1003 100 14484 1.39 24 22:21 29.11.2019
3287 Fog -4 1002 85 805 1.5 150 21:41 29.11.2019
3288 Clouds -4 1003 92 14484 1.39 24 21:22 29.11.2019
3289 Mist -4 1003 100 6437 1.39 24 20:56 29.11.2019
3290 Clouds -4 1003 79 16093 2.6 360 20:37 29.11.2019
3291 Clouds -4 1003 79 16093 2.6 360 20:18 29.11.2019
3292 Clouds -4 1004 79 16093 3.1 360 19:55 29.11.2019
3293 Clouds -4 1004 100 16093 0.96 7 19:37 29.11.2019
3294 Clouds -4 1004 100 16093 0.96 7 19:37 29.11.2019
3295 Clouds -4 1004 100 16093 0.96 7 19:19 29.11.2019
3296 Clouds -4 1004 92 16093 0.96 7 18:42 29.11.2019
3297 Clouds -4 1004 100 16093 0.96 7 18:24 29.11.2019
3298 Mist -4 1004 100 4023 0.96 7 18:00 29.11.2019
3299 Mist -4 1004 100 4023 0.96 7 17:41 29.11.2019
3300 Mist -4 1005 100 4023 0.69 10 17:22 29.11.2019
3301 Mist -4 1005 92 6437 0.69 10 16:44 29.11.2019
3302 Mist -4 1005 92 6437 0.69 10 16:21 29.11.2019
3303 Snow -4 1005 100 9656 0.69 10 15:59 29.11.2019
3304 Snow -4 1005 100 9656 0.69 10 15:39 29.11.2019
3305 Rain -4 1005 92 6437 0.69 10 15:21 29.11.2019
3306 Rain -4 1005 92 6437 0.69 10 15:21 29.11.2019
3307 Snow -4 1005 92 4426 0.69 10 14:41 29.11.2019
3308 Mist -4 1006 100 9656 1.16 3 14:22 29.11.2019
3309 Mist -4 1006 100 9656 1.16 3 13:58 29.11.2019
3310 Mist -4 1006 100 9656 1.16 3 13:38 29.11.2019
3311 Snow -4 1006 92 8047 1.19 0 13:20 29.11.2019
3312 Snow -4 1006 92 12874 1.19 0 12:44 29.11.2019
3313 Snow -4 1006 92 12874 1.19 0 12:25 29.11.2019
3314 Snow -4 1006 92 12874 1.19 0 11:59 29.11.2019
3315 Snow -4 1006 92 12874 1.19 0 11:40 29.11.2019
3316 Clouds -4 1006 92 14484 1.49 4 11:19 29.11.2019
3317 Clouds -4 1006 92 16093 1.49 4 10:58 29.11.2019
3318 Clouds -4 1006 92 16093 1.49 4 10:39 29.11.2019
3319 Snow -4 1006 92 6437 1.49 4 10:21 29.11.2019
3320 Snow -4 1006 92 4828 1.49 4 09:59 29.11.2019
3321 Snow -4 1006 92 4828 1.49 4 09:39 29.11.2019
3322 Snow -4 1006 100 3621 1.49 4 09:21 29.11.2019
3323 Snow -4 1006 92 3621 1.49 4 08:55 29.11.2019
3324 Snow -3 1006 92 3621 1.49 4 08:37 29.11.2019
3325 Mist -4 1006 92 8047 0.83 355 08:19 29.11.2019
3326 Mist -3 1006 92 8047 0.83 355 07:42 29.11.2019
3327 Mist -3 1006 92 8047 0.83 355 07:42 29.11.2019
3328 Mist -4 1006 100 6437 0.83 355 07:23 29.11.2019
3329 Clouds -3 1006 100 14484 0.83 355 06:54 29.11.2019
3330 Clouds -3 1006 100 14484 0.83 355 06:35 29.11.2019
3331 Clouds -3 1005 92 14484 0.83 355 05:46 29.11.2019
3332 Mist -3 1005 92 8047 0.83 355 05:23 29.11.2019
3333 Mist -3 1005 92 8047 0.83 355 05:23 29.11.2019
3334 Snow -2 1005 100 3017 0.9 245 03:41 29.11.2019
3335 Snow -2 1004 100 12874 0.9 245 03:19 29.11.2019
3336 Snow -1 1004 92 14484 0.9 245 02:25 29.11.2019
3337 Snow -1 1003 100 14484 2.1 260 01:49 29.11.2019
3338 Snow -1 1003 100 12874 2.1 250 01:23 29.11.2019
3339 Snow -1 1003 100 12874 2.1 250 01:23 29.11.2019
3340 Snow 0 1003 97 3219 2.1 250 00:40 29.11.2019
3341 Rain 0 1003 97 6437 3.1 230 00:18 29.11.2019
3342 Snow 0 1003 97 4023 2.6 220 23:42 28.11.2019
3343 Clouds 0 1002 97 16093 2.6 230 23:21 28.11.2019
3344 Snow 0 1001 86 3219 2.6 200 22:57 28.11.2019
3345 Snow 0 1001 86 3219 2.6 200 22:37 28.11.2019
3346 Snow 0 1001 86 3219 2.6 200 22:37 28.11.2019
3347 Snow 0 1001 97 2414 2.6 220 22:19 28.11.2019
3348 Snow 0 1001 97 2213 2.1 210 21:55 28.11.2019
3349 Snow 0 1001 97 2213 2.1 210 21:36 28.11.2019
3350 Snow 0 1001 97 2012 2.6 210 21:18 28.11.2019
3351 Snow 0 1001 97 2213 1.5 210 20:42 28.11.2019
3352 Snow -1 1000 97 2615 1.1 161 20:22 28.11.2019
3353 Snow -1 1000 97 4828 2.1 160 19:58 28.11.2019
3354 Snow -1 1000 97 4828 2.1 160 19:40 28.11.2019
3355 Snow -1 999 97 12874 1.1 161 19:21 28.11.2019
3356 Clouds -1 999 97 12874 1.1 161 18:58 28.11.2019
3357 Clouds 0 999 97 12874 1.1 161 18:39 28.11.2019
3358 Clouds 0 999 97 12874 1.1 161 18:18 28.11.2019
3359 Clouds -1 998 97 16093 2.1 280 17:59 28.11.2019
3360 Clouds -1 998 97 16093 2.1 280 17:40 28.11.2019
3361 Clouds -1 998 87 16093 2.1 280 17:21 28.11.2019
3362 Clouds -1 996 87 16093 0.85 225 16:55 28.11.2019
3363 Clouds -1 996 87 16093 0.85 225 16:37 28.11.2019
3364 Clouds -2 996 86 16093 2.6 280 16:18 28.11.2019
3365 Clouds -1 995 87 16093 0.85 225 15:41 28.11.2019
3366 Clouds -1 996 74 16093 0.85 225 15:20 28.11.2019
3367 Clouds -1 995 59 16093 2.1 360 14:58 28.11.2019
3368 Clouds -1 995 59 16093 2.1 360 14:40 28.11.2019
3369 Clouds -1 995 80 16093 3.6 80 14:21 28.11.2019
3370 Clouds -1 995 74 16093 2.6 70 13:56 28.11.2019
3371 Clouds -2 995 74 16093 2.6 70 13:38 28.11.2019
3372 Clouds -1 995 74 16093 2.6 70 13:19 28.11.2019
3373 Clouds -1 995 84 16093 3.1 60 12:42 28.11.2019
3374 Clouds -1 995 84 16093 3.1 60 12:23 28.11.2019
3375 Clouds -1 995 86 16093 4.1 60 11:57 28.11.2019
3376 Clouds -1 995 86 16093 4.1 60 11:39 28.11.2019
3377 Clouds -2 995 86 16093 4.1 60 11:20 28.11.2019
3378 Clouds -2 996 80 16093 4.1 70 10:43 28.11.2019
3379 Clouds -2 996 80 16093 4.1 70 10:22 28.11.2019
3380 Clouds -2 997 80 16093 2.6 70 09:59 28.11.2019
3381 Clouds -2 997 80 16093 2.6 70 09:40 28.11.2019
3382 Clouds -2 997 80 16093 2.6 70 09:20 28.11.2019
3383 Clouds -2 997 80 16093 2.6 70 09:20 28.11.2019
3384 -273 0 0 0 0 0 08:54 28.11.2019
3385 Clouds -2 997 80 16093 3.1 60 08:36 28.11.2019
3386 Clouds -2 997 80 16093 3.1 60 08:18 28.11.2019
3387 Clouds -3 996 55 16093 2.1 20 07:41 28.11.2019
3388 Clouds -3 997 79 16093 2.1 20 07:23 28.11.2019
3389 Clouds -3 998 86 16093 3.1 60 06:43 28.11.2019
3390 Clouds -3 998 86 16093 3.1 60 06:18 28.11.2019
3391 Clear -3 999 86 16093 3.6 60 05:44 28.11.2019
3392 Clouds -4 1001 86 16093 4.1 70 04:57 28.11.2019
3393 Clouds -5 1004 85 16093 2.6 60 02:36 28.11.2019
3394 Clouds -5 1005 92 16093 2.1 40 01:28 28.11.2019
3395 Clear -5 1006 85 16093 2.25 103 00:43 28.11.2019
3396 Clear -5 1006 85 16093 2.25 103 00:20 28.11.2019
3397 Clear -5 1007 79 14484 2.6 60 23:40 27.11.2019
3398 Clear -5 1007 79 14484 2.6 60 23:22 27.11.2019
3399 Clear -5 1009 85 14484 2.1 50 22:58 27.11.2019
3400 Clear -5 1009 85 14484 2.1 50 22:38 27.11.2019
3401 Clear -5 1009 85 14484 2.1 50 22:19 27.11.2019
3402 -273 0 0 0 0 0 21:56 27.11.2019
3403 Clouds -6 1010 85 16093 2.6 70 21:37 27.11.2019
3404 Clouds -6 1010 85 16093 2.6 70 21:19 27.11.2019
3405 Clouds -6 1012 85 16093 2.6 60 20:58 27.11.2019
3406 Clouds -6 1012 85 16093 2.6 60 20:38 27.11.2019
3407 Clouds -6 1012 85 16093 2.6 60 20:20 27.11.2019
3408 Clouds -7 1014 85 16093 3.1 70 19:57 27.11.2019
3409 Clouds -7 1014 85 16093 3.1 70 19:39 27.11.2019
3410 -273 0 0 0 0 0 19:19 27.11.2019
3411 Clouds -7 1015 92 16093 2.6 80 18:58 27.11.2019
3412 Clouds -7 1015 92 16093 2.6 80 18:37 27.11.2019
3413 Clouds -7 1015 92 16093 2.6 80 18:19 27.11.2019
3414 Clouds -8 1016 92 16093 2.1 50 17:56 27.11.2019
3415 Clouds -8 1016 92 16093 2.1 50 17:37 27.11.2019
3416 Clouds -8 1016 92 16093 2.1 50 17:37 27.11.2019
3417 Clouds -8 1016 92 16093 2.1 50 17:18 27.11.2019
3418 Clouds -7 1016 85 16093 1.48 83 16:56 27.11.2019
3419 Clouds -7 1016 85 16093 1.48 83 16:55 27.11.2019
3420 Clouds -7 1016 85 16093 1.48 83 16:55 27.11.2019
3421 Clouds -7 1017 85 16093 1.5 60 16:36 27.11.2019
3422 Clouds -7 1017 85 16093 1.5 60 16:18 27.11.2019
3423 Clouds -7 1018 92 16093 2.6 60 15:56 27.11.2019
3424 Clouds -7 1018 92 16093 2.6 60 15:37 27.11.2019
3425 Clouds -8 1018 92 16093 2.6 60 15:19 27.11.2019
3426 Clouds -8 1019 92 16093 2.1 60 14:56 27.11.2019
3427 Clouds -8 1019 92 16093 2.1 60 14:38 27.11.2019
3428 Clouds -8 1019 92 16093 2.1 60 14:19 27.11.2019
3429 Clouds -8 1019 92 16093 2.1 60 14:19 27.11.2019
3430 Clouds -8 1020 100 16093 0.59 101 13:55 27.11.2019
3431 Clouds -8 1020 100 16093 0.59 101 13:37 27.11.2019
3432 Clouds -8 1020 100 16093 0.83 116 13:18 27.11.2019
3433 Clouds -8 1021 92 16093 0.83 116 12:41 27.11.2019
3434 Clouds -8 1021 92 16093 0.83 116 12:22 27.11.2019
3435 Clouds -8 1021 92 16093 1.5 60 11:56 27.11.2019
3436 Clouds -8 1021 92 16093 1.5 60 11:37 27.11.2019
3437 Clouds -8 1022 92 16093 1.5 50 11:18 27.11.2019
3438 Clouds -8 1022 92 16093 1.5 50 10:46 27.11.2019
3439 Clouds -8 1022 92 16093 1.5 50 10:46 27.11.2019
3440 Clouds -8 1022 92 16093 1.5 50 10:24 27.11.2019
3441 Snow -8 1022 92 16093 0.68 94 09:58 27.11.2019
3442 Snow -8 1022 92 16093 0.68 94 09:39 27.11.2019
3443 Snow -8 1022 92 16093 0.68 94 09:21 27.11.2019
3444 Snow -8 1022 92 16093 0.68 94 08:42 27.11.2019
3445 Rain -8 1022 92 6437 3.1 70 08:23 27.11.2019
3446 Clouds -8 1021 73 16093 2.6 30 07:51 27.11.2019
3447 Snow -9 1023 92 6437 3.1 70 07:30 27.11.2019
3448 Snow -9 1023 92 4828 3.1 80 06:55 27.11.2019
3449 Snow -9 1023 92 4828 3.1 80 06:55 27.11.2019
3450 Snow -9 1023 92 4828 3.1 80 06:37 27.11.2019
3451 Snow -9 1023 78 3219 2.1 360 05:55 27.11.2019
3452 Snow -9 1023 92 6437 2.6 60 05:26 27.11.2019
3453 Snow -10 1023 72 4023 2.1 20 04:55 27.11.2019
3454 Snow -10 1024 92 9656 1.5 60 04:36 27.11.2019
3455 Clouds -10 1023 85 16093 1.5 330 03:48 27.11.2019
3456 Snow -10 1024 92 9656 0.36 177 03:21 27.11.2019
3457 Snow -11 1024 72 4828 2.6 20 02:42 27.11.2019
3458 Snow -12 1024 78 2414 1.5 10 01:22 27.11.2019
3459 Clouds -12 1026 85 16093 2.1 70 00:40 27.11.2019
3460 Clouds -12 1026 85 16093 2.1 70 00:22 27.11.2019
3461 Clouds -13 1026 84 16093 0.88 84 23:42 26.11.2019
3462 Clouds -13 1026 84 16093 0.88 84 23:24 26.11.2019
3463 Clouds -14 1025 77 16093 1.22 74 22:40 26.11.2019
3464 Clouds -14 1026 71 16093 1.22 74 22:20 26.11.2019
3465 Clouds -15 1027 77 16093 1.22 74 22:00 26.11.2019
3466 Clouds -14 1027 77 16093 1.22 74 21:39 26.11.2019
3467 Clouds -14 1027 77 16093 1.22 74 21:21 26.11.2019
3468 Clouds -14 1027 77 16093 1.22 74 21:21 26.11.2019
3469 Clouds -15 1028 84 16093 1.22 74 20:57 26.11.2019
3470 Clouds -15 1028 84 16093 1.22 74 20:39 26.11.2019
3471 Clouds -17 1028 84 16093 1.81 63 20:19 26.11.2019
3472 Clouds -17 1029 84 16093 2.1 40 19:56 26.11.2019
3473 Clouds -17 1029 84 16093 2.1 40 19:38 26.11.2019
3474 Clouds -17 1029 84 16093 2.1 40 19:19 26.11.2019
3475 Clouds -18 1029 77 16093 2.6 30 18:58 26.11.2019
3476 Clouds -18 1029 77 16093 2.6 30 18:39 26.11.2019
3477 Clouds -19 1029 77 16093 2.6 30 18:21 26.11.2019
3478 Clouds -19 1030 77 16093 2.1 40 17:59 26.11.2019
3479 Clouds -18 1030 77 16093 2.1 40 17:40 26.11.2019
3480 Clouds -18 1030 77 16093 2.1 40 17:22 26.11.2019
3481 Clear -18 1031 84 16093 3.6 70 16:57 26.11.2019
3482 Clear -19 1031 84 16093 3.6 70 16:38 26.11.2019
3483 Clear -18 1031 84 16093 3.6 70 16:19 26.11.2019
3484 Clear -19 1031 91 16093 3.1 70 15:59 26.11.2019
3485 Clear -17 1031 91 16093 3.1 70 15:38 26.11.2019
3486 Clear -18 1031 91 16093 3.1 70 15:20 26.11.2019
3487 Haze -18 1030 69 2213 1.84 46 14:51 26.11.2019
3488 Clear -18 1031 84 14484 1.84 46 14:26 26.11.2019
3489 Mist -17 1032 84 2816 1.54 52 13:59 26.11.2019
3490 Mist -17 1032 84 2816 1.54 52 13:40 26.11.2019
3491 Clear -16 1032 91 16093 1.58 45 13:22 26.11.2019
3492 Clouds -15 1032 92 16093 1.58 45 12:40 26.11.2019
3493 Clouds -15 1032 92 16093 1.58 45 12:22 26.11.2019
3494 Clouds -14 1032 84 16093 2.1 50 11:59 26.11.2019
3495 Clouds -14 1032 84 16093 2.1 50 11:40 26.11.2019
3496 Clouds -14 1032 84 16093 2.1 50 11:20 26.11.2019
3497 Clouds -13 1033 84 16093 2.1 70 10:59 26.11.2019
3498 Clouds -13 1033 84 16093 2.1 70 10:41 26.11.2019
3499 Snow -13 1033 84 14484 2.6 70 10:21 26.11.2019
3500 Clouds -13 1033 85 16093 1.5 60 09:58 26.11.2019
3501 Clouds -14 1033 85 16093 1.5 60 09:38 26.11.2019
3502 Clouds -14 1033 85 16093 1.5 60 09:20 26.11.2019
3503 Clouds -13 1032 92 16093 2.6 60 08:46 26.11.2019
3504 Clouds -13 1032 92 16093 2.6 60 08:26 26.11.2019
3505 Snow -13 1032 85 14484 2.6 60 07:48 26.11.2019
3506 Clouds -13 1032 85 14484 2.1 60 07:29 26.11.2019
3507 Snow -13 1031 92 12874 2.1 70 06:59 26.11.2019
3508 Snow -13 1031 92 12874 2.1 70 06:40 26.11.2019
3509 Snow -12 1031 78 14484 0.81 126 05:54 26.11.2019
3510 Snow -12 1031 92 12874 2.1 60 04:47 26.11.2019
3511 Snow -12 1030 92 6437 1.5 60 02:53 26.11.2019
3512 Snow -12 1029 84 16093 0.97 141 01:35 26.11.2019
3513 Snow -12 1029 85 16093 0.97 130 00:53 26.11.2019
3514 Snow -12 1029 85 16093 2.1 200 00:33 26.11.2019
3515 Clouds -12 1028 85 16093 2.1 210 23:56 25.11.2019
3516 Clouds -12 1028 85 16093 2.1 210 23:37 25.11.2019
3517 Clouds -12 1028 85 16093 2.1 210 23:18 25.11.2019
3518 Clouds -11 1028 92 14484 2.6 220 22:39 25.11.2019
3519 Clouds -11 1028 92 14484 2.6 220 22:19 25.11.2019
3520 Clouds -11 1027 85 16093 0.73 144 21:59 25.11.2019
3521 Clouds -11 1027 85 16093 0.73 144 21:40 25.11.2019
3522 Clouds -11 1028 92 16093 2.6 220 21:22 25.11.2019
3523 Snow -10 1027 92 11265 3.1 230 20:58 25.11.2019
3524 Snow -10 1027 92 11265 3.1 230 20:40 25.11.2019
3525 Snow -10 1027 85 3621 3.1 220 20:20 25.11.2019
3526 Snow -10 1027 85 3621 3.1 220 20:20 25.11.2019
3527 Snow -10 1026 92 6437 2.6 220 19:56 25.11.2019
3528 Snow -10 1026 92 6437 2.6 220 19:38 25.11.2019
3529 Snow -10 1026 92 9656 3.1 230 19:19 25.11.2019
3530 Snow -10 1026 85 11265 3.1 220 18:57 25.11.2019
3531 Snow -9 1026 92 14484 3.1 230 18:39 25.11.2019
3532 Snow -9 1026 92 14484 3.1 230 18:21 25.11.2019
3533 Snow -9 1025 85 16093 2.1 240 17:58 25.11.2019
3534 Snow -9 1025 92 14484 3.1 240 17:39 25.11.2019
3535 Snow -9 1025 92 14484 3.1 240 17:21 25.11.2019
3536 Snow -9 1025 100 9656 0.65 175 16:58 25.11.2019
3537 Snow -9 1025 100 9656 0.65 175 16:40 25.11.2019
3538 Snow -9 1025 100 2213 0.65 175 16:22 25.11.2019
3539 Snow -9 1024 92 4828 0.65 175 15:56 25.11.2019
3540 Snow -9 1024 92 4828 0.65 175 15:37 25.11.2019
3541 Snow -9 1024 92 3621 0.65 175 15:18 25.11.2019
3542 Snow -9 1024 92 3219 0.65 175 14:43 25.11.2019
3543 Snow -9 1023 92 3219 0.65 175 14:25 25.11.2019
3544 Snow -9 1023 92 2615 0.81 238 13:57 25.11.2019
3545 Snow -9 1023 92 4023 0.81 238 13:37 25.11.2019
3546 Snow -9 1023 92 4023 0.78 252 13:18 25.11.2019
3547 Snow -9 1023 92 4426 0.78 252 12:57 25.11.2019
3548 Snow -9 1022 92 6437 0.78 252 12:38 25.11.2019
3549 Snow -9 1022 92 6437 0.78 252 12:19 25.11.2019
3550 Clouds -9 1021 92 16093 0.78 252 11:40 25.11.2019
3551 Clouds -9 1021 92 16093 0.78 252 11:40 25.11.2019
3552 Clouds -9 1021 92 16093 0.78 252 11:40 25.11.2019
3553 Clouds -10 1021 92 16093 0.81 217 11:21 25.11.2019
3554 Clouds -10 1020 92 14484 0.81 217 10:58 25.11.2019
3555 Clouds -10 1020 92 14484 0.81 217 10:39 25.11.2019
3556 Clouds -10 1020 92 14484 0.81 217 10:19 25.11.2019
3557 Clouds -10 1020 92 14484 0.81 217 09:42 25.11.2019
3558 Snow -10 1019 92 14484 0.81 217 09:24 25.11.2019
3559 Clouds -10 1019 92 16093 1.5 230 08:57 25.11.2019
3560 Clouds -11 1019 92 16093 1.5 230 08:38 25.11.2019
3561 Clouds -11 1018 92 16093 0.61 195 08:18 25.11.2019
3562 Snow -10 1018 92 14484 0.59 199 07:38 25.11.2019
3563 Snow -10 1017 92 9656 0.59 199 07:18 25.11.2019
3564 Snow -10 1016 100 12874 0.59 199 06:38 25.11.2019
3565 Snow -10 1016 100 12874 0.59 199 06:18 25.11.2019
3566 Clouds -10 1015 100 14484 1.5 230 05:32 25.11.2019
3567 Clouds -9 1014 92 16093 0.39 155 04:49 25.11.2019
3568 Clouds -8 1012 92 16093 0.39 155 02:45 25.11.2019
3569 Clouds -8 1011 92 16093 0.59 198 01:56 25.11.2019
3570 Clouds -8 1011 92 16093 0.5 177 01:36 25.11.2019
3571 Clouds -8 1011 92 16093 0.5 177 01:18 25.11.2019
3572 Clouds -8 1010 92 16093 0.5 177 00:21 25.11.2019
3573 Clouds -8 1009 92 14484 1.5 230 23:45 24.11.2019
3574 Clouds -8 1009 92 14484 1.5 230 23:21 24.11.2019
3575 Clouds -8 1008 100 16093 0.5 163 22:59 24.11.2019
3576 Clouds -8 1008 100 16093 0.5 163 22:59 24.11.2019
3577 Clouds -8 1008 100 16093 0.5 163 22:40 24.11.2019
3578 Clouds -8 1008 100 16093 0.5 163 22:20 24.11.2019
3579 Clouds -8 1007 100 16093 0.5 163 21:58 24.11.2019
3580 Clouds -8 1007 100 16093 0.5 163 21:40 24.11.2019
3581 Clouds -8 1007 100 16093 0.5 163 21:21 24.11.2019
3582 Clouds -8 1006 92 16093 0.5 163 20:58 24.11.2019
3583 Clouds -8 1006 92 16093 0.5 163 20:38 24.11.2019
3584 Clouds -8 1006 92 16093 0.59 150 20:19 24.11.2019
3585 Clouds -8 1004 100 16093 1.5 250 19:56 24.11.2019
3586 Clouds -7 1004 100 16093 1.5 250 19:38 24.11.2019
3587 Clouds -7 1004 100 16093 1.5 250 19:20 24.11.2019
3588 Clouds -7 1003 92 16093 1.5 270 18:58 24.11.2019
3589 Clouds -7 1003 92 16093 1.5 270 18:37 24.11.2019
3590 Clouds -7 1003 92 16093 1.5 270 18:19 24.11.2019
3591 Clouds -7 1002 100 16093 0.59 150 17:56 24.11.2019
3592 Clouds -7 1002 100 16093 0.59 150 17:37 24.11.2019
3593 Clouds -7 1002 100 16093 0.59 150 17:37 24.11.2019
3594 Clouds -7 1002 100 16093 0.39 79 17:19 24.11.2019
3595 Clouds -7 1001 100 16093 1.5 270 16:57 24.11.2019
3596 Clouds -7 1001 100 16093 1.5 270 16:38 24.11.2019
3597 Clouds -7 1001 100 16093 1.5 270 16:20 24.11.2019
3598 Clouds -7 1001 92 16093 0.39 79 15:44 24.11.2019
3599 Clouds -7 1001 92 16093 0.39 79 15:26 24.11.2019
3600 Clouds -6 1000 85 16093 0.39 79 14:58 24.11.2019
3601 Clouds -6 1000 85 16093 0.39 79 14:38 24.11.2019
3602 Clouds -6 1000 92 16093 2.1 270 14:18 24.11.2019
3603 Clouds -6 999 92 16093 0.44 132 13:54 24.11.2019
3604 Clouds -6 999 92 16093 0.44 132 13:54 24.11.2019
3605 Clouds -6 999 92 16093 0.44 132 13:36 24.11.2019
3606 Clouds -7 999 92 16093 0.48 121 13:18 24.11.2019
3607 Clouds -7 999 100 16093 0.48 121 12:42 24.11.2019
3608 Clouds -6 999 100 16093 0.48 121 12:19 24.11.2019
3609 Clouds -6 999 100 16093 0.48 121 11:58 24.11.2019
3610 Clouds -6 999 100 16093 0.48 121 11:37 24.11.2019
3611 Clouds -6 999 100 16093 0.53 60 11:19 24.11.2019
3612 Clouds -6 998 100 16093 0.53 60 10:47 24.11.2019
3613 Clouds -6 998 92 16093 0.53 60 10:29 24.11.2019
3614 Clouds -6 998 100 16093 0.53 60 09:59 24.11.2019
3615 Clouds -6 998 100 16093 0.53 60 09:38 24.11.2019
3616 Clouds -6 997 100 16093 0.53 60 09:19 24.11.2019
3617 Clouds -6 997 100 16093 0.53 60 08:56 24.11.2019
3618 Clouds -6 997 100 16093 0.53 60 08:36 24.11.2019
3619 Clouds -6 997 100 16093 0.09 131 08:18 24.11.2019
3620 Clouds -6 996 92 14484 0.33 158 07:45 24.11.2019
3621 Clouds -6 996 92 14484 0.33 158 07:20 24.11.2019
3622 Clouds -6 996 92 14484 0.33 158 06:21 24.11.2019
3623 Clouds -6 994 92 16093 0.64 193 04:54 24.11.2019
3624 Clouds -6 994 92 16093 0.64 193 04:35 24.11.2019
3625 Snow -5 993 92 14484 0.64 193 02:32 24.11.2019
3626 Snow -5 993 85 14484 1.23 172 01:49 24.11.2019
3627 Clouds -5 993 92 16093 1.27 159 01:27 24.11.2019
3628 Clouds -5 993 100 14484 1.27 159 00:48 24.11.2019
3629 Clouds -5 993 100 14484 1.27 159 00:24 24.11.2019
3630 Snow -5 992 92 14484 1.27 159 23:56 23.11.2019
3631 Snow -5 992 92 14484 1.27 159 23:56 23.11.2019
3632 Clouds -5 992 92 11265 1.27 159 23:38 23.11.2019
3633 Clouds -5 992 92 11265 0.96 144 23:19 23.11.2019
3634 Snow -5 992 100 11265 0.96 144 22:55 23.11.2019
3635 Snow -5 992 100 11265 0.96 144 22:37 23.11.2019
3636 Mist -5 992 100 9656 0.96 144 22:18 23.11.2019
3637 Snow -5 991 100 9656 0.96 144 21:43 23.11.2019
3638 Mist -5 991 100 4426 0.96 144 21:23 23.11.2019
3639 Snow -6 991 100 2816 1.5 80 20:59 23.11.2019
3640 Snow -6 991 100 2816 1.5 80 20:38 23.11.2019
3641 Clouds -6 990 85 14484 1.04 167 20:19 23.11.2019
3642 Clouds -6 990 85 14484 1.04 163 20:19 23.11.2019
3643 Snow -6 990 100 14484 1.04 163 19:56 23.11.2019
3644 Snow -6 989 100 11265 1.5 90 19:38 23.11.2019
3645 Snow -6 989 100 11265 1.5 90 19:18 23.11.2019
3646 Snow -6 989 100 14484 1.5 60 18:55 23.11.2019
3647 Snow -6 988 85 14484 1.04 163 18:36 23.11.2019
3648 Snow -6 988 85 14484 1.04 163 18:18 23.11.2019
3649 Clouds -6 988 100 16093 1.5 50 17:41 23.11.2019
3650 Clouds -6 988 100 16093 1.5 50 17:21 23.11.2019
3651 Clouds -6 987 92 16093 1.1 160 16:56 23.11.2019
3652 Clouds -6 987 92 16093 1.1 160 16:38 23.11.2019
3653 Clouds -6 987 92 16093 1.1 160 16:20 23.11.2019
3654 Clouds -7 986 100 16093 1.1 160 15:58 23.11.2019
3655 Clouds -7 986 100 16093 1.1 160 15:39 23.11.2019
3656 Clouds -7 986 100 16093 1.1 160 15:19 23.11.2019
3657 Clouds -7 986 92 16093 1.1 160 14:56 23.11.2019
3658 Clouds -7 986 92 16093 1.1 160 14:37 23.11.2019
3659 Clouds -7 985 92 16093 1.13 163 14:18 23.11.2019
3660 Mist -7 985 92 6437 1.5 70 13:42 23.11.2019
3661 Mist -6 985 92 3621 0.93 172 13:20 23.11.2019
3662 Clouds -6 984 85 16093 1.5 160 12:58 23.11.2019
3663 Clouds -7 984 100 16093 0.93 172 12:39 23.11.2019
3664 Clouds -7 984 100 16093 0.93 172 12:21 23.11.2019
3665 Clouds -7 983 100 16093 0.93 172 11:42 23.11.2019
3666 Clouds -6 983 100 16093 0.98 159 11:20 23.11.2019
3667 Mist -6 983 92 2213 0.98 159 10:45 23.11.2019
3668 Mist -6 982 100 1006 0.98 159 10:22 23.11.2019
3669 Clouds -5 981 92 16093 0.98 159 09:42 23.11.2019
3670 Clouds -5 981 92 16093 0.98 159 09:20 23.11.2019
3671 Clouds -4 980 92 16093 0.98 159 08:45 23.11.2019
3672 Clouds -4 980 92 16093 1.13 224 08:20 23.11.2019
3673 Clouds -3 980 79 16093 1.5 20 07:54 23.11.2019
3674 Clouds -4 979 85 14484 1.5 270 07:35 23.11.2019
3675 Clouds -4 978 85 16093 2.6 150 06:48 23.11.2019
3676 Clouds -4 979 92 16093 1.13 224 06:21 23.11.2019
3677 Clouds -3 978 100 16093 1.13 224 05:51 23.11.2019
3678 Clouds -3 978 100 16093 1.13 224 05:29 23.11.2019
3679 Clouds -4 978 92 16093 0.71 121 04:49 23.11.2019
3680 Clouds -4 978 92 16093 0.71 121 04:27 23.11.2019
3681 Clouds -3 977 92 16093 0.71 121 02:48 23.11.2019
3682 Clouds -3 976 74 16093 1.5 0 01:51 23.11.2019
3683 Clouds -2 976 74 16093 1.5 0 01:32 23.11.2019
3684 Clouds -1 975 97 14484 3.6 150 00:43 23.11.2019
3685 Clouds -1 975 97 14484 3.6 150 00:18 23.11.2019
3686 Clouds -1 974 86 16093 0.9 103 23:42 22.11.2019
3687 Clouds -1 974 86 16093 0.52 115 23:20 22.11.2019
3688 Clouds -1 974 86 16093 0.52 115 22:57 22.11.2019
3689 Clouds -1 974 86 16093 0.52 115 22:38 22.11.2019
3690 Clouds -2 973 74 16093 2.1 0 22:20 22.11.2019
3691 Clouds -3 973 86 14484 1.5 20 21:58 22.11.2019
3692 Clouds -3 973 86 14484 1.5 20 21:39 22.11.2019
3693 Clouds -3 972 86 14484 3.1 270 21:20 22.11.2019
3694 Clouds -2 971 79 16093 1.5 40 20:43 22.11.2019
3695 Clouds -1 971 79 16093 1.5 40 20:22 22.11.2019
3696 Clouds 0 970 69 16093 1.8 51 19:57 22.11.2019
3697 Clouds 0 970 69 16093 1.8 51 19:37 22.11.2019
3698 Clouds 0 970 69 16093 1.8 51 19:19 22.11.2019
3699 Clouds 0 969 86 16093 1.8 51 18:40 22.11.2019
3700 Clouds 0 969 86 16093 1.8 51 18:21 22.11.2019
3701 Clouds 0 969 86 16093 1.8 51 17:59 22.11.2019
3702 Clouds 0 969 86 16093 1.8 51 17:40 22.11.2019
3703 Clouds 0 969 86 16093 1.76 47 17:22 22.11.2019
3704 Clouds 1 969 69 16093 1.5 60 16:47 22.11.2019
3705 Clouds 1 969 69 16093 1.5 60 16:28 22.11.2019
3706 Clear 1 969 69 16093 3.6 60 15:47 22.11.2019
3707 Clear 1 969 69 16093 3.6 60 15:25 22.11.2019
3708 Clear -1 970 92 16093 2.1 40 14:57 22.11.2019
3709 Clear -2 970 92 16093 2.1 40 14:39 22.11.2019
3710 Clear 0 970 92 16093 2.1 40 14:21 22.11.2019
3711 Clear 0 971 74 16093 2.39 45 13:59 22.11.2019
3712 Clear 0 971 74 16093 2.39 45 13:37 22.11.2019
3713 Clear 1 971 74 16093 2.66 58 13:19 22.11.2019
3714 Clouds 0 972 69 16093 3.1 80 12:57 22.11.2019
3715 Clouds 1 972 69 16093 3.1 80 12:39 22.11.2019
3716 Clouds 1 972 69 16093 3.1 80 12:19 22.11.2019
3717 Rain 2 973 74 16093 3.1 50 11:55 22.11.2019
3718 Rain 3 973 74 16093 3.1 50 11:36 22.11.2019
3719 Rain 3 973 74 16093 3.1 50 11:18 22.11.2019
3720 Rain 2 974 69 16093 4.6 60 10:40 22.11.2019
3721 Rain 3 974 69 16093 4.6 60 10:22 22.11.2019
3722 Rain 2 975 74 16093 4.6 60 09:58 22.11.2019
3723 Rain 2 975 74 16093 4.6 60 09:39 22.11.2019
3724 Rain 2 975 74 16093 4.6 60 09:21 22.11.2019
3725 Rain 2 975 74 16093 4.6 60 09:21 22.11.2019
3726 Rain 1 977 74 16093 4.1 60 08:47 22.11.2019
3727 Rain 1 977 74 16093 4.1 60 08:28 22.11.2019
3728 Clouds 1 978 74 16093 5.1 60 07:56 22.11.2019
3729 Clouds 1 978 74 16093 5.1 60 07:37 22.11.2019
3730 Clouds 0 978 74 16093 5.1 60 07:18 22.11.2019
3731 Clouds -2 978 80 16093 4.6 60 06:41 22.11.2019
3732 Clouds -3 979 84 16093 5.1 60 05:56 22.11.2019
3733 Clouds -8 980 80 16093 4.6 60 04:52 22.11.2019
3734 Clouds -12 982 85 16093 2.41 51 02:57 22.11.2019
3735 Clouds -12 982 85 16093 2.41 51 02:33 22.11.2019
3736 Clouds -12 983 85 16093 2.35 38 01:46 22.11.2019
3737 Clouds -12 983 85 16093 2.5 26 01:20 22.11.2019
3738 Clouds -12 984 84 16093 2.5 26 00:54 22.11.2019
3739 Clouds -10 984 84 16093 2.5 26 00:25 22.11.2019
3740 Clouds -12 985 92 16093 2.5 26 23:57 21.11.2019
3741 Clouds -12 985 92 16093 2.5 26 23:38 21.11.2019
3742 Clouds -13 985 92 16093 2.38 24 23:20 21.11.2019
3743 Clouds -13 986 91 16093 2.38 24 22:41 21.11.2019
3744 Clouds -13 986 91 16093 2.38 24 22:22 21.11.2019
3745 Clouds -14 987 91 14484 2.38 24 21:58 21.11.2019
3746 Clouds -13 987 91 14484 2.38 24 21:39 21.11.2019
3747 Clouds -13 987 91 14484 2.38 24 21:39 21.11.2019
3748 Clouds -13 987 91 14484 2.38 24 21:20 21.11.2019
3749 Clouds -14 987 91 14484 2.38 24 20:59 21.11.2019
3750 Clouds -14 987 91 14484 2.38 24 20:39 21.11.2019
3751 Clouds -15 987 91 14484 0.75 103 20:19 21.11.2019
3752 Clouds -14 987 92 14484 0.75 103 19:59 21.11.2019
3753 Clouds -14 987 92 14484 0.75 103 19:59 21.11.2019
3754 Clouds -14 987 92 14484 0.75 103 19:41 21.11.2019
3755 Clouds -14 987 92 14484 0.75 103 19:23 21.11.2019
3756 Clear -13 988 84 16093 0.75 103 18:58 21.11.2019
3757 Clear -13 988 84 16093 0.75 103 18:40 21.11.2019
3758 Clear -13 988 84 16093 0.75 103 18:20 21.11.2019
3759 Clouds -12 987 85 16093 0.75 103 17:58 21.11.2019
3760 Clouds -11 987 85 16093 0.75 103 17:39 21.11.2019
3761 Clouds -11 987 85 16093 1.32 173 17:20 21.11.2019
3762 Snow -11 987 85 16093 1.5 260 16:55 21.11.2019
3763 Snow -11 987 85 16093 1.5 260 16:37 21.11.2019
3764 Clouds -10 986 92 16093 1.5 220 16:18 21.11.2019
3765 Clouds -8 986 92 16093 4.1 210 15:42 21.11.2019
3766 Clouds -8 986 92 16093 4.1 210 15:20 21.11.2019
3767 Clouds -7 985 92 16093 1.32 173 14:57 21.11.2019
3768 Clouds -6 985 92 16093 1.32 173 14:37 21.11.2019
3769 Clouds -7 985 92 16093 0.57 14 14:19 21.11.2019
3770 Clouds -9 984 92 16093 0.57 14 13:56 21.11.2019
3771 Rain -8 984 92 16093 0.57 14 13:36 21.11.2019
3772 Clouds -9 984 92 16093 0.3 36 13:18 21.11.2019
3773 Clouds -8 985 92 16093 0.3 36 12:40 21.11.2019
3774 Clouds -8 985 92 16093 0.3 36 12:22 21.11.2019
3775 Clouds -10 985 92 16093 0.3 36 11:55 21.11.2019
3776 Clouds -9 985 92 16093 0.3 36 11:36 21.11.2019
3777 Clouds -8 985 92 16093 2.24 52 11:18 21.11.2019
3778 Clouds -9 985 85 16093 2.24 52 10:42 21.11.2019
3779 Clouds -9 985 85 16093 2.24 52 10:24 21.11.2019
3780 Clear -12 985 92 11265 2.24 52 09:57 21.11.2019
3781 Clear -11 985 92 11265 2.24 52 09:39 21.11.2019
3782 Clear -10 985 92 11265 2.24 52 09:20 21.11.2019
3783 Clear -11 986 92 16093 2.24 52 08:44 21.11.2019
3784 Clear -11 986 92 16093 1.52 57 08:23 21.11.2019
3785 Clouds -11 986 77 16093 2.1 70 07:45 21.11.2019
3786 Clouds -11 986 77 16093 2.1 70 07:20 21.11.2019
3787 Clouds -10 986 85 16093 0.91 34 06:58 21.11.2019
3788 Clouds -10 986 85 16093 0.91 34 06:34 21.11.2019
3789 Clear -11 986 84 16093 0.91 34 05:50 21.11.2019
3790 Clear -14 986 92 16093 2.04 34 03:36 21.11.2019
3791 Clear -14 987 92 14484 2.04 34 02:42 21.11.2019
3792 Clear -15 987 92 14484 2.04 34 02:24 21.11.2019
3793 Clouds -12 987 84 16093 2.1 170 01:49 21.11.2019
3794 Clouds -12 987 84 16093 2.1 170 01:49 21.11.2019
3795 Clouds -14 987 77 16093 1.57 31 01:20 21.11.2019
3796 Clouds -13 988 92 16093 1.57 31 00:38 21.11.2019
3797 Clouds -13 988 92 16093 1.57 31 00:20 21.11.2019
3798 Clouds -14 989 84 16093 1.57 31 23:46 20.11.2019
3799 Clouds -14 989 84 16093 1.76 30 23:21 20.11.2019
3800 Clouds -14 990 91 16093 1.76 30 22:58 20.11.2019
3801 Clouds -14 990 91 16093 1.76 30 22:38 20.11.2019
3802 Clouds -14 990 91 16093 1.76 30 22:19 20.11.2019
3803 Clouds -15 990 92 14484 1.76 30 21:58 20.11.2019
3804 Clouds -13 990 92 14484 1.76 30 21:39 20.11.2019
3805 Clouds -13 990 92 14484 1.76 30 21:20 20.11.2019
3806 Clouds -13 990 92 14484 1.76 30 21:20 20.11.2019
3807 Clouds -13 990 92 16093 1.76 30 20:57 20.11.2019
3808 Clouds -13 990 92 16093 1.76 30 20:39 20.11.2019
3809 Clouds -13 990 92 16093 0.74 354 20:20 20.11.2019
3810 Clouds -13 990 92 16093 1.5 140 19:56 20.11.2019
3811 Clouds -13 990 92 16093 1.5 140 19:37 20.11.2019
3812 Clouds -12 990 92 16093 1.5 140 19:18 20.11.2019
3813 Mist -11 990 92 6437 0.74 354 18:58 20.11.2019
3814 Mist -11 990 92 6437 0.74 354 18:39 20.11.2019
3815 Clouds -11 990 92 16093 2.6 240 18:20 20.11.2019
3816 Clouds -11 989 92 16093 1.5 120 17:56 20.11.2019
3817 Clouds -12 989 92 16093 1.5 120 17:38 20.11.2019
3818 Clouds -12 989 92 16093 1.5 120 17:38 20.11.2019
3819 Clouds -12 989 92 16093 1.5 120 17:20 20.11.2019
3820 Clouds -12 989 92 16093 0.44 48 16:56 20.11.2019
3821 Clouds -13 989 92 16093 0.44 48 16:37 20.11.2019
3822 Clouds -12 989 92 16093 0.44 48 16:18 20.11.2019
3823 Clear -13 989 92 16093 0.44 48 15:42 20.11.2019
3824 Clear -12 989 92 16093 0.44 48 15:22 20.11.2019
3825 Clouds -11 990 92 16093 0.44 48 14:59 20.11.2019
3826 Clouds -13 990 92 16093 0.44 48 14:40 20.11.2019
3827 Clouds -12 990 92 16093 2.41 34 14:21 20.11.2019
3828 Rain -11 991 100 16093 2.41 34 13:58 20.11.2019
3829 Rain -11 991 100 16093 2.41 34 13:39 20.11.2019
3830 Rain -11 991 100 16093 2.41 34 13:20 20.11.2019
3831 Rain -11 991 92 16093 1.26 16 12:55 20.11.2019
3832 Rain -11 991 92 16093 1.26 16 12:36 20.11.2019
3833 Rain -11 991 92 16093 1.26 16 12:18 20.11.2019
3834 Clouds -10 992 92 16093 1.26 16 11:41 20.11.2019
3835 Clouds -10 992 92 16093 2.49 16 11:22 20.11.2019
3836 Clouds -9 992 92 16093 2.49 16 10:56 20.11.2019
3837 Snow -10 992 92 12874 2.49 16 10:37 20.11.2019
3838 Snow -10 992 92 12874 2.49 16 10:19 20.11.2019
3839 Clouds -9 992 92 16093 1.5 20 09:43 20.11.2019
3840 Snow -9 992 92 4426 2.49 16 09:21 20.11.2019
3841 Snow -9 992 92 6437 2.49 16 08:56 20.11.2019
3842 Snow -9 992 92 6437 2.49 16 08:38 20.11.2019
3843 Snow -10 993 92 4828 1.5 200 08:20 20.11.2019
3844 Snow -10 991 78 16093 1.5 150 07:45 20.11.2019
3845 Clouds -10 992 92 11265 1.55 33 07:25 20.11.2019
3846 Clouds -12 992 92 16093 1.55 33 06:49 20.11.2019
3847 Clouds -12 992 92 16093 1.55 33 06:22 20.11.2019
3848 Clouds -10 992 92 16093 1.55 33 05:39 20.11.2019
3849 Clouds -9 993 92 16093 3.6 60 03:42 20.11.2019
3850 Snow -10 995 92 16093 3.1 30 02:21 20.11.2019
3851 Snow -11 996 78 805 3.6 360 01:33 20.11.2019
3852 Snow -11 996 78 1207 2.6 10 00:41 20.11.2019
3853 Snow -12 998 78 2012 2.1 50 23:57 19.11.2019
3854 Snow -12 998 72 2414 2.6 30 23:27 19.11.2019
3855 Snow -14 1000 91 16093 3.08 27 22:59 19.11.2019
3856 Snow -15 1000 91 16093 3.08 27 22:41 19.11.2019
3857 Clouds -15 1000 84 16093 3.08 27 22:19 19.11.2019
3858 Clouds -16 1000 84 16093 3.08 27 22:19 19.11.2019
3859 Clouds -16 1001 77 16093 3.08 27 21:57 19.11.2019
3860 Clouds -16 1001 77 16093 3.08 27 21:38 19.11.2019
3861 Clouds -17 1003 84 14484 3.08 27 21:19 19.11.2019
3862 Clouds -17 1003 77 16093 2.1 30 20:56 19.11.2019
3863 Clouds -17 1003 77 16093 2.1 30 20:56 19.11.2019
3864 Clouds -17 1003 77 16093 2.1 30 20:56 19.11.2019
3865 Clouds -17 1003 77 16093 2.1 30 20:38 19.11.2019
3866 Clouds -19 1004 83 16093 1.71 32 20:20 19.11.2019
3867 Clouds -19 1005 70 16093 3.1 30 19:57 19.11.2019
3868 Clouds -19 1005 70 16093 3.1 30 19:57 19.11.2019
3869 Clouds -19 1005 70 16093 3.1 30 19:39 19.11.2019
3870 Clouds -21 1005 70 16093 3.1 30 19:19 19.11.2019
3871 Clear -21 1007 75 16093 1.71 32 18:55 19.11.2019
3872 Clear -21 1007 75 16093 1.71 32 18:36 19.11.2019
3873 Clear -22 1007 75 16093 1.71 32 18:18 19.11.2019
3874 Clear -22 1008 83 16093 1.71 32 17:55 19.11.2019
3875 Clear -22 1008 83 16093 1.71 32 17:37 19.11.2019
3876 Clear -22 1008 83 16093 1.71 32 17:37 19.11.2019
3877 Clear -22 1008 83 16093 2.07 24 17:18 19.11.2019
3878 Clear -22 1009 75 16093 2.07 24 16:43 19.11.2019
3879 Clear -22 1009 75 16093 2.07 24 16:24 19.11.2019
3880 Clear -23 1010 83 16093 2.07 24 15:59 19.11.2019
3881 Clear -23 1010 83 16093 2.07 24 15:39 19.11.2019
3882 Clear -23 1010 83 16093 2.07 24 15:21 19.11.2019
3883 Clear -22 1011 76 16093 2.07 24 14:56 19.11.2019
3884 Clear -22 1011 76 16093 2.07 24 14:56 19.11.2019
3885 Clear -22 1011 76 16093 2.07 24 14:37 19.11.2019
3886 Clear -22 1011 76 16093 1.99 30 14:19 19.11.2019
3887 Clear -21 1012 83 16093 1.99 30 13:40 19.11.2019
3888 Clear -21 1012 83 16093 1.85 28 13:19 19.11.2019
3889 Clouds -20 1012 91 16093 1.85 28 12:41 19.11.2019
3890 Clouds -19 1012 91 16093 1.85 28 12:23 19.11.2019
3891 Clouds -19 1012 91 16093 1.85 28 12:23 19.11.2019
3892 Clouds -18 1013 84 16093 1.85 28 11:58 19.11.2019
3893 Clouds -18 1013 84 16093 1.85 28 11:38 19.11.2019
3894 Clouds -17 1013 84 16093 1.48 32 11:19 19.11.2019
3895 Clouds -18 1013 84 16093 1.48 32 10:48 19.11.2019
3896 Clouds -17 1013 84 16093 1.48 32 10:23 19.11.2019
3897 Clouds -17 1013 84 16093 1.48 32 09:58 19.11.2019
3898 Clouds -17 1013 84 16093 1.48 32 09:40 19.11.2019
3899 Clouds -17 1013 84 16093 1.48 32 09:19 19.11.2019
3900 Clouds -17 1013 84 16093 1.48 32 09:19 19.11.2019
3901 Clouds -17 1012 77 16093 1.48 32 08:41 19.11.2019
3902 Snow -17 1013 84 16093 1.48 32 08:23 19.11.2019
3903 Clouds -17 1013 84 12874 0.53 81 07:59 19.11.2019
3904 Clouds -17 1013 84 12874 0.53 81 07:41 19.11.2019
3905 Clouds -17 1013 84 12874 0.53 81 07:22 19.11.2019
3906 Snow -17 1013 84 14484 0.53 81 06:52 19.11.2019
3907 Snow -17 1013 84 14484 0.53 81 06:33 19.11.2019
3908 Clouds -17 1013 84 12874 0.53 81 05:44 19.11.2019
3909 Snow -17 1013 84 8047 0.16 205 04:26 19.11.2019
3910 Snow -17 1012 84 11265 0.16 205 03:35 19.11.2019
3911 Snow -17 1012 77 11265 0.16 205 02:57 19.11.2019
3912 Snow -16 1012 77 6437 1.5 200 02:33 19.11.2019
3913 Mist -16 1012 91 4023 0.55 257 01:45 19.11.2019
3914 Snow -16 1011 84 4023 0.52 262 00:22 19.11.2019
3915 Snow -16 1010 77 3219 0.52 262 23:59 18.11.2019
3916 Snow -16 1010 77 3219 0.52 262 23:37 18.11.2019
3917 Snow -16 1011 84 3219 0.9 287 23:18 18.11.2019
3918 Snow -16 1011 84 4828 0.9 287 22:46 18.11.2019
3919 Snow -16 1010 84 3219 0.9 287 22:24 18.11.2019
3920 Snow -16 1010 84 2414 0.9 287 21:57 18.11.2019
3921 Snow -16 1010 84 2414 0.9 287 21:38 18.11.2019
3922 Snow -17 1010 84 11265 0.9 287 21:20 18.11.2019
3923 Mist -17 1009 84 4828 0.9 287 20:57 18.11.2019
3924 Mist -17 1009 84 4828 0.9 287 20:38 18.11.2019
3925 Mist -17 1009 84 4828 0.9 287 20:38 18.11.2019
3926 Snow -17 1009 84 6437 1.03 318 20:18 18.11.2019
3927 Snow -17 1009 84 3219 1.03 318 19:56 18.11.2019
3928 Snow -17 1009 84 3219 1.03 318 19:37 18.11.2019
3929 Snow -17 1009 84 6437 1.03 318 19:19 18.11.2019
3930 Snow -16 1008 91 4828 1.03 318 18:55 18.11.2019
3931 Clouds -16 1008 91 11265 1.03 318 18:37 18.11.2019
3932 Clouds -16 1008 91 11265 1.03 318 18:19 18.11.2019
3933 Snow -16 1008 84 8047 1.03 318 17:39 18.11.2019
3934 Snow -16 1008 84 8047 1.03 318 17:39 18.11.2019
3935 Snow -16 1008 84 8047 0.94 334 17:20 18.11.2019
3936 Snow -16 1007 77 2414 0.94 334 16:58 18.11.2019
3937 Snow -16 1007 77 2414 0.94 334 16:40 18.11.2019
3938 Snow -16 1008 84 9656 0.94 334 16:22 18.11.2019
3939 Snow -16 1007 91 14484 0.94 334 15:56 18.11.2019
3940 Snow -16 1007 91 14484 0.94 334 15:37 18.11.2019
3941 Snow -16 1007 91 14484 0.94 334 15:37 18.11.2019
3942 Clouds -16 1007 84 16093 0.94 334 15:19 18.11.2019
3943 Clouds -16 1007 84 11265 0.94 334 14:43 18.11.2019
3944 Snow -16 1007 84 8047 0.94 334 14:24 18.11.2019
3945 Snow -16 1007 91 16093 1.13 354 13:56 18.11.2019
3946 Clouds -16 1007 91 16093 1.13 354 13:37 18.11.2019
3947 Clouds -16 1007 91 16093 1.13 354 13:37 18.11.2019
3948 Snow -16 1007 91 16093 1.13 354 13:37 18.11.2019
3949 Clouds -16 1007 91 16093 1.12 353 13:19 18.11.2019
3950 Clouds -17 1007 84 16093 1.12 353 12:39 18.11.2019
3951 Clouds -16 1007 84 16093 1.12 353 12:19 18.11.2019
3952 Clouds -16 1006 84 16093 1.12 353 11:46 18.11.2019
3953 Clouds -16 1006 84 16093 1.12 353 11:27 18.11.2019
3954 Clouds -16 1006 84 16093 1.45 19 10:59 18.11.2019
3955 Clouds -16 1006 84 16093 1.45 19 10:40 18.11.2019
3956 Clouds -16 1006 84 16093 1.45 19 10:22 18.11.2019
3957 Snow -15 1005 77 14484 1.45 19 09:56 18.11.2019
3958 Snow -15 1005 77 14484 1.45 19 09:56 18.11.2019
3959 Snow -15 1005 77 14484 1.45 19 09:38 18.11.2019
3960 Snow -15 1005 77 14484 1.45 19 09:38 18.11.2019
3961 Clouds -15 1006 84 12874 1.45 19 09:18 18.11.2019
3962 Snow -15 1005 77 12874 1.45 19 08:45 18.11.2019
3963 Snow -15 1005 77 12874 1.53 27 08:22 18.11.2019
3964 Clouds -15 1005 84 16093 1.53 27 07:49 18.11.2019
3965 Clouds -16 1005 84 16093 1.53 27 07:30 18.11.2019
3966 Clouds -16 1005 84 16093 1.53 27 06:57 18.11.2019
3967 Clouds -16 1005 84 16093 1.53 27 06:39 18.11.2019
3968 Clouds -16 1005 84 16093 1.53 27 06:20 18.11.2019
3969 Clouds -15 1004 77 16093 1.53 27 05:25 18.11.2019
3970 Clouds -16 1004 84 16093 1.66 30 03:30 18.11.2019
3971 Snow -15 1003 84 16093 1.31 36 01:37 18.11.2019
3972 Clouds -15 1002 84 16093 1.34 43 00:46 18.11.2019
3973 Clouds -15 1001 84 11265 1.5 60 23:59 17.11.2019
3974 Clouds -15 1001 84 11265 1.5 60 23:40 17.11.2019
3975 Snow -15 1001 84 11265 1.16 50 23:21 17.11.2019
3976 Snow -15 1001 84 9656 1.16 50 22:56 17.11.2019
3977 Snow -15 1001 84 9656 1.16 50 22:38 17.11.2019
3978 Snow -15 1001 84 9656 1.16 50 22:38 17.11.2019
3979 Snow -15 1001 84 9656 1.16 50 22:19 17.11.2019
3980 Clouds -16 1000 84 11265 1.16 50 21:42 17.11.2019
3981 Snow -16 1000 84 11265 1.16 50 21:20 17.11.2019
3982 Clouds -16 1000 77 11265 1.16 50 20:58 17.11.2019
3983 Snow -16 999 77 11265 1.5 200 20:39 17.11.2019
3984 Mist -16 1000 84 9656 0.91 51 20:20 17.11.2019
3985 Snow -16 999 84 4828 0.91 51 19:57 17.11.2019
3986 Snow -16 999 84 4828 0.91 51 19:39 17.11.2019
3987 Snow -16 999 84 4828 0.91 51 19:39 17.11.2019
3988 Clouds -16 999 91 12874 0.91 51 19:20 17.11.2019
3989 Snow -16 998 91 6437 0.91 51 18:56 17.11.2019
3990 Snow -16 998 91 6437 0.91 51 18:38 17.11.2019
3991 Snow -16 998 91 6437 0.91 51 18:19 17.11.2019
3992 Snow -16 998 91 6437 0.91 51 18:19 17.11.2019
3993 Snow -16 998 91 6437 0.91 51 17:58 17.11.2019
3994 Snow -16 998 84 3621 0.91 51 17:40 17.11.2019
3995 Snow -16 998 84 3621 0.93 51 17:20 17.11.2019
3996 Snow -16 998 77 4023 0.93 51 16:59 17.11.2019
3997 Snow -16 998 77 4023 0.93 51 16:41 17.11.2019
3998 Snow -16 998 84 14484 0.93 51 16:21 17.11.2019
3999 Snow -16 997 77 16093 0.93 51 15:56 17.11.2019
4000 Snow -16 997 77 16093 0.93 51 15:38 17.11.2019
4001 Clouds -16 997 77 16093 0.93 51 15:18 17.11.2019
4002 Snow -16 996 77 16093 0.93 51 14:57 17.11.2019
4003 Snow -16 996 77 16093 0.93 51 14:38 17.11.2019
4004 Clouds -16 997 84 16093 1 34 14:20 17.11.2019
4005 Clouds -16 997 84 16093 1 34 14:20 17.11.2019
4006 Clouds -16 997 77 16093 1 34 13:57 17.11.2019
4007 Clouds -16 996 77 16093 1 34 13:39 17.11.2019
4008 Clouds -16 996 77 16093 1.14 33 13:19 17.11.2019
4009 Clouds -17 996 77 16093 1.14 33 12:44 17.11.2019
4010 Clouds -17 996 77 16093 1.14 33 12:23 17.11.2019
4011 Clouds -18 995 70 16093 1.14 33 11:58 17.11.2019
4012 Clouds -18 995 70 16093 1.14 33 11:39 17.11.2019
4013 Clear -18 996 91 16093 1.84 32 11:20 17.11.2019
4014 Clouds -18 996 84 16093 1.84 32 10:45 17.11.2019
4015 Clouds -17 996 84 16093 1.84 32 10:24 17.11.2019
4016 Clouds -17 996 77 16093 1.5 30 09:58 17.11.2019
4017 Clouds -17 996 77 16093 1.5 30 09:40 17.11.2019
4018 Clouds -16 996 77 16093 1.5 30 09:22 17.11.2019
4019 Clouds -15 996 65 16093 1.84 32 08:41 17.11.2019
4020 Clouds -15 996 65 16093 1.87 37 08:23 17.11.2019
4021 Clouds -15 996 71 16093 2.1 80 07:56 17.11.2019
4022 Clouds -15 996 71 16093 2.1 80 07:37 17.11.2019
4023 Clouds -15 996 71 16093 2.1 80 07:19 17.11.2019
4024 Clouds -15 997 71 16093 1.88 35 06:46 17.11.2019
4025 Clouds -15 997 71 16093 1.88 35 06:27 17.11.2019
4026 Clouds -15 997 77 16093 2.1 20 04:38 17.11.2019
4027 Clouds -15 997 71 16093 2.22 34 03:53 17.11.2019
4028 Clouds -15 997 71 16093 2.22 34 03:33 17.11.2019
4029 Clouds -15 997 77 16093 1.5 40 02:36 17.11.2019
4030 Haze -14 998 77 9656 2.4 34 01:45 17.11.2019
4031 Clouds -14 998 77 16093 1.5 80 00:56 17.11.2019
4032 Clouds -14 998 77 16093 1.5 80 00:23 17.11.2019
4033 Clouds -14 999 84 16093 3.1 60 23:54 16.11.2019
4034 Clouds -14 999 84 16093 3.1 60 23:21 16.11.2019
4035 Clouds -14 999 84 14484 2.6 70 22:59 16.11.2019
4036 Clouds -14 999 84 14484 2.6 70 22:41 16.11.2019
4037 Clouds -14 999 84 14484 2.6 70 22:20 16.11.2019
4038 Clouds -14 999 84 14484 2.6 70 22:20 16.11.2019
4039 Snow -14 999 71 4828 3.1 60 21:57 16.11.2019
4040 Clouds -14 999 84 16093 2.6 60 21:38 16.11.2019
4041 Snow -14 1000 84 3219 2.1 70 21:20 16.11.2019
4042 Snow -14 1000 77 2012 2.1 60 20:56 16.11.2019
4043 Snow -14 1000 77 2012 2.1 60 20:38 16.11.2019
4044 Snow -14 999 77 2414 3.6 50 20:18 16.11.2019
4045 Snow -14 1000 77 16093 1.5 70 19:40 16.11.2019
4046 Clouds -14 1000 84 16093 2.1 80 19:22 16.11.2019
4047 Snow -15 1000 84 9656 2.1 70 18:48 16.11.2019
4048 Snow -15 1000 84 16093 2.1 60 18:30 16.11.2019
4049 Snow -15 1000 84 4023 1.5 70 17:58 16.11.2019
4050 Snow -15 1000 84 4023 1.5 70 17:39 16.11.2019
4051 Snow -15 1000 84 3219 2.1 60 17:21 16.11.2019
4052 Snow -15 1000 84 3621 2.1 60 16:56 16.11.2019
4053 Snow -15 1000 84 3621 2.1 60 16:37 16.11.2019
4054 Snow -15 1000 77 2213 2.1 70 16:19 16.11.2019
4055 Snow -14 1001 60 14484 3.1 90 15:42 16.11.2019
4056 Snow -14 1001 60 14484 3.1 90 15:24 16.11.2019
4057 Snow -14 1000 55 16093 3.6 30 14:58 16.11.2019
4058 Snow -15 1000 55 16093 3.6 30 14:40 16.11.2019
4059 Clouds -15 1001 60 16093 3.1 70 14:21 16.11.2019
4060 Clouds -14 1001 55 16093 3.1 60 13:56 16.11.2019
4061 Clouds -15 1001 55 16093 3.1 60 13:38 16.11.2019
4062 Clouds -14 1001 55 16093 3.1 60 13:19 16.11.2019
4063 Clouds -14 1002 50 16093 3.6 60 12:56 16.11.2019
4064 Clouds -15 1002 50 16093 3.6 60 12:38 16.11.2019
4065 Clouds -15 1002 50 16093 3.6 60 12:19 16.11.2019
4066 Clouds -15 1001 55 16093 3.6 50 11:43 16.11.2019
4067 Clouds -15 1002 50 16093 4.1 60 11:25 16.11.2019
4068 Clouds -15 1003 54 16093 3.1 60 10:56 16.11.2019
4069 Clouds -15 1003 54 16093 3.1 60 10:37 16.11.2019
4070 Clouds -15 1003 54 16093 3.1 60 10:19 16.11.2019
4071 Clouds -15 1003 54 16093 3.1 50 09:42 16.11.2019
4072 Clouds -15 1003 54 16093 3.1 50 09:20 16.11.2019
4073 Clouds -15 1003 54 16093 2.6 60 08:57 16.11.2019
4074 Clouds -16 1003 54 16093 2.6 60 08:37 16.11.2019
4075 Clouds -15 1003 54 16093 2.6 60 08:18 16.11.2019
4076 Clouds -16 1003 59 16093 3.1 50 07:41 16.11.2019
4077 Clouds -16 1003 59 16093 3.1 50 07:19 16.11.2019
4078 Clouds -16 1003 54 16093 3.1 60 06:44 16.11.2019
4079 Clouds -16 1003 54 16093 3.1 60 06:25 16.11.2019
4080 Clouds -16 1003 54 16093 4.6 50 04:49 16.11.2019
4081 Clouds -15 1003 50 16093 5.1 50 03:27 16.11.2019
4082 Clouds -15 1003 50 16093 5.1 50 03:27 16.11.2019
4083 Clouds -15 1003 50 14484 5.7 60 02:55 16.11.2019
4084 Clouds -15 1003 50 14484 5.7 60 02:55 16.11.2019
4085 Clouds -15 1004 55 16093 4.1 50 01:44 16.11.2019
4086 Clouds -15 1004 55 16093 4.1 50 01:44 16.11.2019
4087 Clouds -15 1004 55 16093 4.1 50 01:18 16.11.2019
4088 Clouds -15 1004 50 14484 5.1 50 00:41 16.11.2019
4089 Clouds -15 1004 50 14484 5.1 50 00:20 16.11.2019
4090 Clouds -15 1003 54 16093 6.7 50 23:39 15.11.2019
4091 Clouds -15 1003 54 16093 6.7 50 23:20 15.11.2019
4092 Clouds -15 1004 54 16093 4.1 50 22:55 15.11.2019
4093 Clouds -15 1004 54 16093 4.1 50 22:36 15.11.2019
4094 Clouds -15 1004 54 16093 4.1 50 22:18 15.11.2019
4095 Rain -16 1003 64 16093 3.6 50 21:41 15.11.2019
4096 Rain -16 1003 64 16093 3.6 50 21:20 15.11.2019
4097 Clouds -16 1003 64 16093 2.6 50 20:58 15.11.2019
4098 Clouds -17 1003 64 16093 2.6 50 20:40 15.11.2019
4099 Clouds -17 1003 64 16093 2.6 50 20:21 15.11.2019
4100 Clouds -16 1003 65 16093 3.1 50 19:58 15.11.2019
4101 Clouds -17 1003 65 16093 3.1 50 19:40 15.11.2019
4102 Clouds -17 1003 65 16093 3.1 50 19:20 15.11.2019
4103 Clouds -16 1003 65 16093 2.6 40 18:58 15.11.2019
4104 Clouds -16 1003 65 16093 2.6 40 18:40 15.11.2019
4105 Clouds -16 1002 60 16093 5.1 30 18:21 15.11.2019
4106 Snow -16 1001 65 4828 4.6 30 17:43 15.11.2019
4107 Clouds -16 1002 65 11265 3.1 50 17:25 15.11.2019
4108 Rain -15 1001 71 2414 3.6 20 16:57 15.11.2019
4109 Rain -15 1001 71 2414 3.6 20 16:38 15.11.2019
4110 Rain -15 1003 77 4828 4.1 40 16:19 15.11.2019
4111 Snow -15 1002 77 6437 2.6 40 15:39 15.11.2019
4112 Snow -15 1002 77 6437 2.6 40 15:39 15.11.2019
4113 Snow -15 1002 77 6437 2.6 40 15:20 15.11.2019
4114 Snow -15 1002 77 3219 3.6 50 14:58 15.11.2019
4115 Rain -15 1002 77 6437 2.1 40 14:38 15.11.2019
4116 Rain -15 1002 77 6437 2.1 40 14:20 15.11.2019
4117 Snow -15 1002 77 3017 2.1 40 13:58 15.11.2019
4118 Snow -15 1002 77 3017 2.1 40 13:40 15.11.2019
4119 Snow -15 1002 77 3017 3.6 50 13:21 15.11.2019
4120 Snow -15 1000 77 805 5.1 20 12:59 15.11.2019
4121 Snow -15 1000 77 805 5.1 20 12:40 15.11.2019
4122 Snow -15 1001 77 4023 3.1 50 12:20 15.11.2019
4123 Snow -15 1001 77 1609 5.7 20 11:59 15.11.2019
4124 Snow -15 1001 77 1609 5.7 20 11:39 15.11.2019
4125 Snow -15 1001 84 4426 2.6 40 11:20 15.11.2019
4126 Snow -15 1000 84 2816 4.6 50 10:57 15.11.2019
4127 Snow -15 1000 84 2816 4.6 50 10:38 15.11.2019
4128 Snow -15 1000 84 2816 4.6 50 10:18 15.11.2019
4129 Snow -15 1000 84 1609 4.1 40 09:41 15.11.2019
4130 Snow -15 999 84 2615 4.1 40 09:20 15.11.2019
4131 Snow -15 999 77 3017 4.6 40 08:44 15.11.2019
4132 Snow -15 999 77 3017 4.6 40 08:23 15.11.2019
4133 Snow -15 998 77 2414 5.1 20 07:49 15.11.2019
4134 Snow -15 998 77 2414 5.1 20 07:28 15.11.2019
4135 Snow -15 998 77 3017 4.6 50 06:52 15.11.2019
4136 Snow -15 998 77 2816 6.7 20 06:32 15.11.2019
4137 Snow -14 998 77 6437 5.1 50 05:49 15.11.2019
4138 Snow -15 998 71 4828 6.7 20 05:27 15.11.2019
4139 Snow -15 997 77 3621 8.2 50 03:58 15.11.2019
4140 Snow -15 997 77 3621 7.7 50 03:25 15.11.2019
4141 Snow -15 997 77 1408 6.7 50 02:21 15.11.2019
4142 Snow -15 997 77 1810 6.2 50 01:36 15.11.2019
4143 Snow -15 997 77 1810 6.2 50 01:18 15.11.2019
4144 Snow -15 997 77 2012 9.3 50 00:34 15.11.2019
4145 Snow -14 997 71 1609 8.2 50 23:57 14.11.2019
4146 Snow -14 997 65 2012 7.7 20 23:38 14.11.2019
4147 Snow -14 997 65 2012 7.7 20 23:18 14.11.2019
4148 Snow -14 997 65 2012 7.7 20 23:18 14.11.2019
4149 Snow -14 997 60 14484 8.7 50 22:40 14.11.2019
4150 Clouds -14 997 65 12874 8.7 50 22:21 14.11.2019
4151 Clouds -14 997 65 12874 8.7 50 22:21 14.11.2019
4152 Snow -13 998 60 14484 9.3 50 21:57 14.11.2019
4153 Snow -13 998 60 14484 9.3 50 21:38 14.11.2019
4154 Clouds -13 998 60 16093 7.2 50 21:20 14.11.2019
4155 Clouds -13 998 60 16093 5.7 50 20:42 14.11.2019
4156 Clouds -13 998 60 16093 8.2 50 20:24 14.11.2019
4157 Clouds -13 999 60 16093 7.7 40 19:59 14.11.2019
4158 Clouds -13 999 60 16093 7.7 40 19:41 14.11.2019
4159 Clouds -13 999 60 16093 7.7 40 19:18 14.11.2019
4160 Clouds -13 999 66 11265 6.7 40 18:56 14.11.2019
4161 Snow -14 1000 55 16093 6.7 50 18:38 14.11.2019
4162 Snow -13 1000 55 16093 6.7 50 18:20 14.11.2019
4163 Snow -13 1000 55 16093 6.7 50 17:56 14.11.2019
4164 Snow -13 1000 55 16093 6.7 50 17:37 14.11.2019
4165 Clouds -13 1001 55 16093 6.2 50 17:19 14.11.2019
4166 Clouds -13 1001 55 16093 6.2 50 16:57 14.11.2019
4167 Clouds -13 1001 55 16093 6.2 50 16:36 14.11.2019
4168 Clouds -13 1001 55 16093 6.2 50 16:18 14.11.2019
4169 Clouds -13 1001 55 16093 6.2 50 15:56 14.11.2019
4170 Clouds -13 1001 55 16093 6.2 50 15:37 14.11.2019
4171 Clouds -13 1001 55 16093 6.2 50 15:19 14.11.2019
4172 Clouds -13 1002 55 16093 7.7 50 14:44 14.11.2019
4173 Clouds -13 1002 55 16093 7.7 50 14:22 14.11.2019
4174 Clouds -13 1003 55 16093 9.3 40 13:57 14.11.2019
4175 Clouds -13 1003 55 16093 9.3 40 13:38 14.11.2019
4176 Clouds -13 1003 55 16093 9.3 40 13:19 14.11.2019
4177 Clouds -13 1003 60 14484 7.7 50 12:47 14.11.2019
4178 Snow -13 1003 60 14484 6.7 50 12:26 14.11.2019
4179 Clouds -13 1004 60 11265 6.2 50 11:59 14.11.2019
4180 Clouds -14 1004 60 11265 6.2 50 11:38 14.11.2019
4181 Snow -14 1004 55 14484 8.2 30 11:20 14.11.2019
4182 Snow -14 1005 65 1408 7.2 50 10:58 14.11.2019
4183 Snow -14 1005 65 1408 7.2 50 10:39 14.11.2019
4184 Snow -14 1005 65 1408 7.2 50 10:20 14.11.2019
4185 Snow -14 1005 71 1408 7.2 50 09:56 14.11.2019
4186 Snow -14 1006 71 6437 8.2 50 09:38 14.11.2019
4187 Snow -13 1006 71 6437 8.2 50 09:19 14.11.2019
4188 Snow -13 1006 71 6437 8.2 50 08:47 14.11.2019
4189 Snow -13 1006 71 6437 8.2 50 08:47 14.11.2019
4190 Snow -13 1006 71 8047 8.7 50 08:25 14.11.2019
4191 Snow -13 1007 60 6437 7.7 50 07:44 14.11.2019
4192 Snow -13 1007 55 11265 9.3 50 07:25 14.11.2019
4193 Clouds -13 1008 55 16093 8.7 40 06:56 14.11.2019
4194 Clouds -13 1008 55 16093 8.7 40 06:37 14.11.2019
4195 Clouds -13 1008 55 16093 8.7 40 06:18 14.11.2019
4196 Clouds -17 1014 68 0 3.38 47 04:40 14.11.2019
4197 Clouds -13 1010 55 16093 9.3 50 03:59 14.11.2019
4198 Clouds -13 1010 50 16093 9.3 60 02:43 14.11.2019
4199 Clouds -13 1011 50 16093 7.2 30 01:41 14.11.2019
4200 Clouds -13 1011 50 16093 7.2 30 01:20 14.11.2019
4201 Clouds -13 1012 55 16093 7.7 60 00:48 14.11.2019
4202 Clouds -13 1012 55 16093 7.7 60 00:25 14.11.2019
4203 Clouds -13 1013 55 16093 8.2 60 23:41 13.11.2019
4204 Clouds -13 1013 55 16093 8.2 60 23:21 13.11.2019
4205 Clouds -13 1014 55 16093 8.2 60 22:56 13.11.2019
4206 Clouds -13 1014 55 16093 8.2 60 22:38 13.11.2019
4207 Clouds -14 1014 55 16093 8.2 60 22:20 13.11.2019
4208 Clear -15 1014 55 16093 5.1 50 21:55 13.11.2019
4209 Clear -15 1014 55 16093 5.1 50 21:55 13.11.2019
4210 Clear -15 1014 55 16093 5.1 50 21:37 13.11.2019
4211 Clear -15 1014 55 16093 5.1 50 21:19 13.11.2019
4212 Clear -15 1014 60 16093 6.2 50 20:56 13.11.2019
4213 Clear -15 1014 60 16093 6.2 50 20:37 13.11.2019
4214 Clear -15 1014 60 16093 6.2 50 20:18 13.11.2019
4215 Clouds -15 1013 49 0 1.79 35 19:44 13.11.2019
4216 Clouds -15 1014 55 16093 7.2 10 19:20 13.11.2019
4217 Clear -15 1014 60 16093 3.6 50 18:58 13.11.2019
4218 Clear -15 1014 60 16093 3.6 50 18:58 13.11.2019
4219 Clear -15 1014 60 16093 3.6 50 18:39 13.11.2019
4220 Clear -15 1014 60 16093 3.6 50 18:39 13.11.2019
4221 Clear -14 1014 60 16093 3.6 50 18:21 13.11.2019
4222 Clouds -14 1013 55 16093 6.2 30 17:58 13.11.2019
4223 Clouds -14 1013 55 16093 6.2 30 17:40 13.11.2019
4224 Clear -14 1014 60 16093 4.6 50 17:22 13.11.2019
4225 Clear -14 1014 60 16093 4.6 50 17:22 13.11.2019
4226 Clear -14 1014 55 16093 7.2 40 16:58 13.11.2019
4227 Clear -14 1014 55 16093 7.2 40 16:40 13.11.2019
4228 Clear -14 1014 55 16093 7.2 40 16:40 13.11.2019
4229 Clear -14 1014 55 16093 7.2 40 16:21 13.11.2019
4230 Clear -14 1014 55 16093 7.2 40 16:21 13.11.2019
4231 Clear -14 1015 60 16093 2.6 60 15:58 13.11.2019
4232 Clear -14 1015 60 16093 2.6 60 15:39 13.11.2019
4233 Clear -14 1015 60 16093 2.6 60 15:20 13.11.2019
4234 Clear -14 1015 60 16093 4.6 50 14:43 13.11.2019
4235 Clear -14 1015 60 16093 4.6 50 14:23 13.11.2019
4236 Clear -14 1015 55 16093 5.1 50 13:58 13.11.2019
4237 Clear -14 1015 55 16093 5.1 50 13:37 13.11.2019
4238 Clear -14 1015 55 16093 5.1 50 13:18 13.11.2019
4239 Clear -13 1015 51 16093 5.1 50 12:56 13.11.2019
4240 Clear -13 1015 51 16093 5.1 50 12:37 13.11.2019
4241 Clear -13 1015 51 16093 5.1 50 12:19 13.11.2019
4242 Clear -13 1015 51 16093 5.1 50 11:41 13.11.2019
4243 Clear -13 1015 51 16093 5.1 50 11:21 13.11.2019
4244 Clouds -13 1015 55 16093 4.6 50 10:58 13.11.2019
4245 Clouds -13 1015 55 16093 4.6 50 10:40 13.11.2019
4246 Clouds -13 1015 55 16093 4.6 50 10:20 13.11.2019
4247 Clouds -12 1015 47 16093 6.7 50 09:57 13.11.2019
4248 Clouds -11 1015 47 16093 6.7 50 09:38 13.11.2019
4249 Clouds -11 1015 47 16093 6.7 50 09:38 13.11.2019
4250 Clouds -11 1015 47 16093 6.7 50 09:20 13.11.2019
4251 Clouds -11 1014 51 16093 4.6 50 08:39 13.11.2019
4252 Clouds -11 1014 51 16093 4.6 50 08:20 13.11.2019
4253 Clouds -11 1014 51 16093 5.7 10 07:42 13.11.2019
4254 Clouds -10 1014 51 16093 5.7 10 07:21 13.11.2019
4255 Clouds -9 1014 48 16093 6.2 50 06:47 13.11.2019
4256 Clouds -9 1014 48 16093 6.2 50 06:19 13.11.2019
4257 Clouds -9 1014 48 16093 6.2 50 06:19 13.11.2019
4258 Clouds -8 1013 48 16093 5.7 40 05:57 13.11.2019
4259 Clouds -8 1013 48 16093 5.7 40 05:38 13.11.2019
4260 Clouds -9 1013 52 16093 4.6 40 04:44 13.11.2019
4261 Clouds -7 1012 62 16093 2.6 30 02:28 13.11.2019
4262 Clouds -8 1012 78 16093 3.1 40 01:46 13.11.2019
4263 Clear -10 1012 85 16093 2.45 28 00:57 13.11.2019
4264 Clear -10 1012 85 16093 2.45 28 00:36 13.11.2019
4265 Clear -12 1012 85 16093 2.45 28 23:42 12.11.2019
4266 Clear -12 1012 85 16093 2.15 32 23:22 12.11.2019
4267 Clear -13 1012 84 16093 2.15 32 22:58 12.11.2019
4268 Clear -14 1012 84 16093 2.15 32 22:40 12.11.2019
4269 Clear -13 1012 84 16093 2.15 32 22:18 12.11.2019
4270 Clear -13 1012 92 14484 2.15 32 21:44 12.11.2019
4271 Clear -13 1012 92 14484 2.15 32 21:25 12.11.2019
4272 Clear -15 1012 91 12874 2.15 32 20:58 12.11.2019
4273 Clear -14 1012 91 12874 2.15 32 20:38 12.11.2019
4274 Clear -15 1012 91 12874 1.97 19 20:19 12.11.2019
4275 Clear -14 1011 92 14484 1.97 19 19:57 12.11.2019
4276 Clear -14 1011 92 14484 1.97 19 19:39 12.11.2019
4277 Clear -14 1011 92 14484 1.97 19 19:19 12.11.2019
4278 Clouds -13 1011 92 16093 1.97 19 18:59 12.11.2019
4279 Clouds -13 1011 92 16093 1.97 19 18:40 12.11.2019
4280 Clouds -13 1011 92 16093 1.97 19 18:40 12.11.2019
4281 Clouds -12 1011 92 16093 1.97 19 18:22 12.11.2019
4282 Clouds -13 1011 92 16093 1.97 19 18:22 12.11.2019
4283 Clouds -12 1011 92 16093 1.97 19 17:57 12.11.2019
4284 Clouds -12 1011 92 16093 1.97 19 17:39 12.11.2019
4285 Clouds -13 1011 92 16093 1.78 18 17:21 12.11.2019
4286 Clouds -13 1011 92 16093 1.78 18 17:21 12.11.2019
4287 Clouds -13 1011 92 16093 1.78 18 17:21 12.11.2019
4288 Clear -13 1010 92 16093 1.78 18 16:57 12.11.2019
4289 Clear -13 1010 92 16093 1.78 18 16:39 12.11.2019
4290 Clear -12 1010 92 16093 1.78 18 16:21 12.11.2019
4291 Clear -12 1010 92 16093 1.78 18 15:42 12.11.2019
4292 Clear -12 1010 92 16093 1.78 18 15:21 12.11.2019
4293 Clear -12 1010 85 16093 1.5 290 14:57 12.11.2019
4294 Clear -12 1010 85 16093 1.5 290 14:37 12.11.2019
4295 Clear -12 1010 85 16093 1.5 290 14:19 12.11.2019
4296 Clear -11 1010 85 16093 1.5 290 13:56 12.11.2019
4297 Clear -11 1010 85 16093 1.5 290 13:37 12.11.2019
4298 Clear -12 1010 85 16093 1.5 290 13:18 12.11.2019
4299 Clear -12 1010 92 16093 2.1 270 12:43 12.11.2019
4300 Clear -12 1010 92 16093 2.1 270 12:20 12.11.2019
4301 Clear -11 1010 85 16093 1.71 19 11:59 12.11.2019
4302 Clear -12 1010 85 16093 1.8 17 11:40 12.11.2019
4303 Clear -12 1010 85 16093 1.71 19 11:40 12.11.2019
4304 Clear -11 1010 85 16093 1.17 17 11:22 12.11.2019
4305 Clear -11 1010 85 16093 1.17 17 11:22 12.11.2019
4306 Clear -12 1010 92 16093 1.13 8 10:56 12.11.2019
4307 Clear -11 1010 92 16093 1.17 17 10:37 12.11.2019
4308 Clear -12 1010 92 16093 1.13 8 10:19 12.11.2019
4309 Clouds -10 1011 79 16093 1.17 17 09:42 12.11.2019
4310 Clouds -10 1011 79 16093 1.17 17 09:21 12.11.2019
4311 Clouds -9 1011 79 16093 1.5 270 08:54 12.11.2019
4312 Clouds -8 1012 83 0 1.17 17 08:36 12.11.2019
4313 Clouds -7 1011 73 16093 2.1 260 08:18 12.11.2019
4314 Clouds -6 1011 73 16093 2.1 260 07:40 12.11.2019
4315 Clouds -6 1011 73 16093 2.1 260 07:40 12.11.2019
4316 Clouds -7 1011 73 16093 2.1 260 07:20 12.11.2019
4317 Clouds -6 1012 79 16093 1.5 240 06:42 12.11.2019
4318 Clouds -6 1012 79 16093 1.5 240 06:22 12.11.2019
4319 Clouds -6 1012 73 16093 1.5 220 05:46 12.11.2019
4320 Clouds -5 1012 79 16093 0.21 35 04:46 12.11.2019
4321 Clouds -5 1013 79 16093 0.21 35 03:40 12.11.2019
4322 Clouds -5 1014 79 14484 0.43 143 01:47 12.11.2019
4323 Clouds -5 1014 79 14484 0.38 148 01:22 12.11.2019
4324 Clouds -5 1014 79 16093 0.38 148 00:47 12.11.2019
4325 Clouds -5 1014 79 16093 0.38 148 00:28 12.11.2019
4326 Clouds -5 1015 73 14484 0.38 148 23:44 11.11.2019
4327 Clouds -5 1015 73 14484 1.3 37 23:23 11.11.2019
4328 Clouds -6 1016 79 16093 1.3 37 22:57 11.11.2019
4329 Clouds -6 1016 79 16093 1.3 37 22:36 11.11.2019
4330 Clouds -6 1016 79 16093 1.3 37 22:18 11.11.2019
4331 Clouds -6 1017 85 14484 1.3 37 21:57 11.11.2019
4332 Clouds -7 1017 85 14484 1.3 37 21:38 11.11.2019
4333 Clouds -7 1017 85 14484 1.3 37 21:19 11.11.2019
4334 Clouds -7 1017 85 16093 1.3 37 20:42 11.11.2019
4335 Clouds -8 1017 85 16093 0.92 50 20:20 11.11.2019
4336 Clouds -8 1018 92 14484 0.92 50 19:58 11.11.2019
4337 Clouds -8 1018 92 14484 0.92 50 19:40 11.11.2019
4338 Clouds -8 1018 92 14484 0.92 50 19:18 11.11.2019
4339 Clouds -8 1018 92 16093 1.5 360 18:55 11.11.2019
4340 Clouds -9 1018 92 16093 1.5 360 18:37 11.11.2019
4341 Clouds -8 1018 92 16093 1.5 360 18:19 11.11.2019
4342 Clear -8 1019 85 16093 0.92 50 17:42 11.11.2019
4343 Clear -8 1019 85 16093 0.92 50 17:24 11.11.2019
4344 Clouds -8 1019 73 16093 0.69 80 16:42 11.11.2019
4345 Clouds -7 1019 73 16093 0.69 80 16:22 11.11.2019
4346 Clouds -7 1019 67 16093 0.69 80 15:58 11.11.2019
4347 Clouds -7 1019 67 16093 0.69 80 15:40 11.11.2019
4348 Clouds -7 1019 67 16093 0.69 80 15:19 11.11.2019
4349 Clouds -7 1019 67 16093 0.69 80 15:19 11.11.2019
4350 Clouds -8 1020 85 16093 0.69 80 14:44 11.11.2019
4351 Clouds -8 1020 85 16093 0.56 94 14:25 11.11.2019
4352 Clouds -8 1020 78 16093 0.56 94 13:58 11.11.2019
4353 Clouds -8 1020 78 16093 0.56 94 13:38 11.11.2019
4354 Clouds -8 1020 78 16093 0.46 92 13:19 11.11.2019
4355 Clouds -8 1021 78 16093 0.46 92 12:57 11.11.2019
4356 Clouds -8 1021 78 16093 0.46 92 12:39 11.11.2019
4357 Clouds -8 1021 78 16093 0.46 92 12:39 11.11.2019
4358 Clouds -8 1021 78 16093 0.46 92 12:39 11.11.2019
4359 Clouds -8 1021 85 16093 1.5 260 12:21 11.11.2019
4360 Clouds -8 1021 78 16093 1.5 240 11:42 11.11.2019
4361 Clouds -8 1021 78 16093 1.5 240 11:22 11.11.2019
4362 Clouds -8 1021 78 16093 1.5 230 10:57 11.11.2019
4363 Clouds -8 1021 78 16093 1.5 230 10:38 11.11.2019
4364 Clouds -8 1021 78 16093 1.5 230 10:18 11.11.2019
4365 Clouds -8 1021 73 16093 0.47 198 09:55 11.11.2019
4366 Clouds -7 1021 73 16093 0.47 198 09:36 11.11.2019
4367 Clouds -7 1021 73 16093 0.47 198 09:18 11.11.2019
4368 Clouds -7 1021 79 16093 0.47 198 08:38 11.11.2019
4369 Clouds -7 1021 79 16093 0.84 30 08:20 11.11.2019
4370 Clouds -7 1022 79 16093 0.76 52 07:55 11.11.2019
4371 Clouds -7 1022 79 16093 0.76 52 07:36 11.11.2019
4372 Clouds -7 1022 79 16093 0.76 52 07:18 11.11.2019
4373 Clouds -7 1021 85 16093 1.5 250 06:41 11.11.2019
4374 Clouds -7 1021 85 16093 1.5 250 06:21 11.11.2019
4375 Clouds -8 1021 79 16093 0.76 52 05:49 11.11.2019
4376 Clouds -9 1022 72 16093 0.65 80 03:59 11.11.2019
4377 Clouds -9 1022 72 16093 0.65 80 03:22 11.11.2019
4378 Clouds -9 1022 79 16093 0.53 144 02:20 11.11.2019
4379 Clouds -9 1022 78 16093 0.53 144 01:52 11.11.2019
4380 Clouds -9 1022 78 16093 0.53 144 01:31 11.11.2019
4381 Clouds -9 1023 78 16093 0.55 129 00:42 11.11.2019
4382 Clouds -9 1023 92 16093 0.55 129 23:59 10.11.2019
4383 Clouds -9 1023 92 16093 0.55 129 23:39 10.11.2019
4384 Clouds -9 1023 92 16093 0.59 104 23:19 10.11.2019
4385 Clouds -10 1023 92 16093 0.59 104 22:57 10.11.2019
4386 Clouds -11 1023 92 16093 0.59 104 22:38 10.11.2019
4387 Clouds -12 1023 92 16093 0.59 104 22:20 10.11.2019
4388 Clouds -13 1022 71 16093 2.1 330 21:57 10.11.2019
4389 Clouds -12 1022 71 16093 2.1 330 21:39 10.11.2019
4390 Clouds -12 1023 92 16093 0.59 104 21:20 10.11.2019
4391 Clouds -13 1023 84 16093 0.59 104 20:43 10.11.2019
4392 Clouds -16 1023 91 16093 0.76 65 20:23 10.11.2019
4393 Clear -18 1023 84 16093 0.71 66 19:57 10.11.2019
4394 Clear -18 1023 84 16093 0.71 66 19:57 10.11.2019
4395 Clear -18 1023 84 16093 0.71 66 19:38 10.11.2019
4396 Clear -17 1023 84 16093 0.71 66 19:19 10.11.2019
4397 Clear -17 1023 84 16093 0.71 66 19:19 10.11.2019
4398 Clouds -16 1023 84 16093 0.71 66 18:58 10.11.2019
4399 Clouds -16 1023 84 16093 0.71 66 18:40 10.11.2019
4400 Clouds -16 1023 84 16093 0.71 66 18:40 10.11.2019
4401 Clouds -16 1023 84 16093 0.71 66 18:20 10.11.2019
4402 Clouds -16 1022 84 16093 2.1 40 17:57 10.11.2019
4403 Clouds -17 1022 84 16093 2.1 40 17:39 10.11.2019
4404 Clouds -19 1022 84 16093 2.1 40 17:20 10.11.2019
4405 Clouds -19 1022 84 16093 2.1 40 17:20 10.11.2019
4406 Clouds -21 1023 76 16093 0.88 51 16:59 10.11.2019
4407 Clouds -21 1023 76 16093 0.88 51 16:41 10.11.2019
4408 Clouds -20 1023 76 16093 0.88 51 16:22 10.11.2019
4409 Clear -22 1023 83 14484 0.88 51 15:56 10.11.2019
4410 Clear -22 1023 83 14484 0.88 51 15:37 10.11.2019
4411 Clear -22 1023 83 14484 0.88 51 15:18 10.11.2019
4412 Clear -22 1022 83 16093 0.88 51 14:55 10.11.2019
4413 Clear -22 1022 83 16093 0.88 51 14:36 10.11.2019
4414 Clear -20 1022 83 16093 1.11 26 14:18 10.11.2019
4415 Clear -23 1023 83 16093 1.11 26 13:43 10.11.2019
4416 Clear -21 1023 83 16093 1.4 27 13:21 10.11.2019
4417 Clear -22 1023 76 16093 1.4 27 12:58 10.11.2019
4418 Clear -22 1023 76 16093 1.4 27 12:40 10.11.2019
4419 Clear -22 1023 76 16093 1.4 27 12:18 10.11.2019
4420 Clear -20 1023 83 16093 1.4 27 11:54 10.11.2019
4421 Clear -20 1023 83 16093 1.4 27 11:36 10.11.2019
4422 Clear -20 1023 83 16093 0.78 31 11:18 10.11.2019
4423 Clear -20 1023 83 16093 0.78 31 11:18 10.11.2019
4424 Clear -22 1022 83 16093 0.78 31 10:42 10.11.2019
4425 Clear -22 1022 83 16093 0.78 31 10:20 10.11.2019
4426 Clear -21 1022 76 16093 0.78 31 09:55 10.11.2019
4427 Clear -21 1022 76 16093 0.78 31 09:37 10.11.2019
4428 Clear -21 1022 76 16093 0.78 31 09:18 10.11.2019
4429 Clear -19 1022 76 16093 0.78 31 08:39 10.11.2019
4430 Clear -19 1022 76 16093 1.77 20 08:19 10.11.2019
4431 Clear -19 1022 76 16093 1.77 20 08:19 10.11.2019
4432 Clear -20 1021 83 16093 1.77 20 07:44 10.11.2019
4433 Clear -20 1021 83 16093 1.77 20 07:25 10.11.2019
4434 Clear -17 1022 83 16093 1.77 20 06:38 10.11.2019
4435 Clear -19 1021 84 12874 1.77 20 05:43 10.11.2019
4436 Clear -16 1021 91 12874 1.94 19 03:26 10.11.2019
4437 Clear -14 1021 91 11265 2.1 290 02:18 10.11.2019
4438 Clear -12 1021 84 11265 1.32 30 01:19 10.11.2019
4439 Clear -13 1021 78 14484 1.32 30 00:42 10.11.2019
4440 Clear -13 1022 91 14484 1.32 30 23:58 09.11.2019
4441 Clear -15 1022 91 14484 1.32 30 23:38 09.11.2019
4442 Clear -15 1022 91 14484 1.74 40 23:18 09.11.2019
4443 Clear -16 1022 91 14484 1.74 40 22:41 09.11.2019
4444 Clear -17 1022 91 14484 1.74 40 22:21 09.11.2019
4445 Clear -18 1022 91 12874 1.74 40 21:58 09.11.2019
4446 Clear -15 1022 91 12874 1.74 40 21:38 09.11.2019
4447 Clear -16 1022 91 12874 1.74 40 21:20 09.11.2019
4448 Clear -17 1021 76 14484 1.74 40 20:44 09.11.2019
4449 Mist -19 1022 83 9656 2.33 37 20:23 09.11.2019
4450 Haze -19 1021 75 3017 2.33 37 19:58 09.11.2019
4451 Haze -17 1021 75 3017 2.33 37 19:40 09.11.2019
4452 Mist -17 1022 91 9656 2.33 37 19:22 09.11.2019
4453 Clear -19 1022 83 12874 2.33 37 18:57 09.11.2019
4454 Clear -18 1022 83 12874 2.33 37 18:38 09.11.2019
4455 Clear -18 1022 83 12874 2.33 37 18:38 09.11.2019
4456 Clear -18 1022 83 12874 2.33 37 18:18 09.11.2019
4457 Clear -17 1022 83 11265 2.1 300 17:41 09.11.2019
4458 Clear -17 1022 83 11265 2.1 300 17:22 09.11.2019
4459 Clear -17 1022 83 11265 2.1 300 17:22 09.11.2019
4460 Haze -17 1022 69 6437 1.78 51 16:56 09.11.2019
4461 Haze -17 1022 69 6437 1.78 51 16:37 09.11.2019
4462 Clear -16 1022 71 16093 2.6 50 16:18 09.11.2019
4463 Clear -18 1022 84 16093 1.78 51 15:41 09.11.2019
4464 Clear -17 1022 84 16093 1.78 51 15:23 09.11.2019
4465 Clear -16 1023 65 16093 3.1 30 14:46 09.11.2019
4466 Clear -16 1023 65 16093 3.1 30 14:23 09.11.2019
4467 Clear -15 1023 84 16093 1.98 47 13:58 09.11.2019
4468 Clear -16 1023 84 16093 1.98 47 13:40 09.11.2019
4469 Clear -17 1023 84 16093 1.79 53 13:21 09.11.2019
4470 Clear -17 1024 71 16093 2.1 130 12:58 09.11.2019
4471 Clear -16 1024 71 16093 2.1 130 12:40 09.11.2019
4472 Clear -16 1024 71 16093 2.1 130 12:22 09.11.2019
4473 Clear -16 1024 66 16093 1.79 53 11:48 09.11.2019
4474 Clear -15 1024 66 16093 1.88 50 11:23 09.11.2019
4475 Clear -14 1024 71 16093 4.1 60 10:59 09.11.2019
4476 Clear -14 1024 71 16093 4.1 60 10:39 09.11.2019
4477 Clear -14 1024 71 16093 4.1 60 10:19 09.11.2019
4478 Clear -15 1024 77 16093 2.6 90 09:45 09.11.2019
4479 Clear -15 1024 77 16093 2.6 90 09:27 09.11.2019
4480 Clear -13 1023 71 16093 2.1 70 08:58 09.11.2019
4481 Clear -13 1023 71 16093 2.1 70 08:39 09.11.2019
4482 Clear -13 1023 71 16093 2.1 70 08:19 09.11.2019
4483 Clear -12 1024 72 16093 1.5 90 07:45 09.11.2019
4484 Clear -12 1024 72 16093 1.5 90 07:23 09.11.2019
4485 Clear -11 1024 72 16093 3.1 60 06:49 09.11.2019
4486 Clear -11 1024 72 16093 3.1 60 06:30 09.11.2019
4487 Clear -11 1024 66 16093 4.6 50 05:43 09.11.2019
4488 Clear -11 1023 72 16093 3.1 60 04:58 09.11.2019
4489 Clear -10 1023 72 16093 3.6 50 03:52 09.11.2019
4490 Clear -9 1023 72 16093 2.1 60 02:43 09.11.2019
4491 Clear -8 1023 72 16093 3.1 70 01:55 09.11.2019
4492 Clear -7 1023 67 16093 2.1 50 00:52 09.11.2019
4493 Clear -8 1023 67 16093 2.1 50 00:31 09.11.2019
4494 Clear -8 1023 67 16093 2.6 60 23:58 08.11.2019
4495 Clear -8 1023 67 16093 2.6 60 23:39 08.11.2019
4496 Clear -7 1023 67 16093 2.6 60 23:19 08.11.2019
4497 Clear -7 1023 67 16093 2.6 60 23:19 08.11.2019
4498 Clear -8 1023 72 16093 3.1 60 22:48 08.11.2019
4499 Clear -8 1023 72 16093 3.1 60 22:22 08.11.2019
4500 Clear -8 1023 72 16093 3.6 60 21:56 08.11.2019
4501 Clear -8 1023 72 16093 3.6 60 21:38 08.11.2019
4502 Clear -9 1023 72 16093 3.6 60 21:18 08.11.2019
4503 Clear -9 1022 78 16093 4.1 60 20:42 08.11.2019
4504 Clear -10 1022 78 16093 4.1 60 20:22 08.11.2019
4505 Clear -11 1022 78 16093 3.6 50 19:58 08.11.2019
4506 Clear -11 1022 78 16093 3.6 50 19:38 08.11.2019
4507 Clear -10 1022 78 16093 3.6 50 19:18 08.11.2019
4508 Clear -10 1021 78 16093 2.6 60 18:55 08.11.2019
4509 Clear -10 1021 78 16093 2.6 60 18:37 08.11.2019
4510 Clear -10 1021 78 16093 2.6 60 18:37 08.11.2019
4511 Clear -10 1021 78 16093 2.6 60 18:19 08.11.2019
4512 Clear -10 1021 78 16093 4.1 50 17:55 08.11.2019
4513 Clear -10 1021 78 16093 4.1 50 17:55 08.11.2019
4514 Clear -10 1021 78 16093 4.1 50 17:37 08.11.2019
4515 Clear -9 1021 78 16093 4.1 50 17:19 08.11.2019
4516 Clear -10 1021 85 16093 3.1 60 16:58 08.11.2019
4517 Clear -10 1021 85 16093 3.1 60 16:39 08.11.2019
4518 Clear -10 1021 85 16093 3.1 60 16:39 08.11.2019
4519 Clear -10 1021 85 16093 3.1 60 16:19 08.11.2019
4520 Clear -10 1021 78 16093 3.1 50 15:57 08.11.2019
4521 Clear -10 1021 78 16093 3.1 50 15:38 08.11.2019
4522 Clear -10 1021 78 16093 3.1 50 15:20 08.11.2019
4523 Clouds -9 1020 85 16093 2.6 50 14:55 08.11.2019
4524 Clouds -9 1020 85 16093 2.6 50 14:36 08.11.2019
4525 Clouds -9 1020 85 16093 2.6 50 14:18 08.11.2019
4526 Clear -9 1020 78 16093 3.6 40 13:57 08.11.2019
4527 Clear -9 1020 78 16093 3.6 40 13:38 08.11.2019
4528 Clear -9 1020 78 16093 3.6 40 13:19 08.11.2019
4529 Clear -9 1020 78 16093 3.1 50 12:42 08.11.2019
4530 Clear -9 1020 78 16093 3.1 50 12:24 08.11.2019
4531 Clear -9 1019 85 16093 3.6 60 11:57 08.11.2019
4532 Clear -9 1019 85 16093 3.6 60 11:38 08.11.2019
4533 Clear -9 1019 85 16093 3.6 60 11:20 08.11.2019
4534 Clear -9 1019 85 16093 3.6 60 11:20 08.11.2019
4535 Clouds -8 1019 85 16093 2.6 50 10:56 08.11.2019
4536 Clouds -8 1019 85 16093 2.6 50 10:38 08.11.2019
4537 Clouds -7 1019 85 16093 2.6 50 10:20 08.11.2019
4538 Clouds -7 1018 79 16093 2.1 50 09:41 08.11.2019
4539 Clouds -7 1018 79 16093 2.1 50 09:20 08.11.2019
4540 Clouds -7 1018 79 16093 2.1 50 09:20 08.11.2019
4541 Clouds -6 1018 79 16093 1.5 50 08:59 08.11.2019
4542 Clouds -6 1018 79 16093 1.5 50 08:37 08.11.2019
4543 Clouds -6 1018 79 16093 1.5 50 08:18 08.11.2019
4544 Clouds -6 1017 79 16093 2.1 50 07:41 08.11.2019
4545 Clouds -6 1017 79 16093 2.1 50 07:22 08.11.2019
4546 Clouds -5 1017 79 16093 1.5 60 06:41 08.11.2019
4547 Clouds -5 1017 79 16093 1.5 60 06:23 08.11.2019
4548 Snow -5 1016 73 9656 4.6 30 05:55 08.11.2019
4549 Snow -5 1016 73 9656 4.6 30 05:55 08.11.2019
4550 Snow -5 1016 79 12874 2.1 60 05:24 08.11.2019
4551 Rain -4 1015 92 16093 2.1 50 03:46 08.11.2019
4552 Rain -4 1015 92 16093 2.1 50 03:24 08.11.2019
4553 Snow -4 1013 73 8047 4.1 20 02:47 08.11.2019
4554 Rain -4 1014 92 3219 3.13 33 01:49 08.11.2019
4555 Rain -4 1014 92 3219 3.13 33 01:30 08.11.2019
4556 Snow -4 1014 92 3219 3.11 33 00:37 08.11.2019
4557 Mist -4 1014 92 3219 3.11 33 00:18 08.11.2019
4558 Snow -4 1013 92 2816 3.11 33 23:43 07.11.2019
4559 Snow -4 1013 92 2816 3.11 33 23:24 07.11.2019
4560 Snow -4 1013 100 2816 3.06 33 22:55 07.11.2019
4561 Snow -4 1013 100 2816 3.06 33 22:36 07.11.2019
4562 Rain -4 1013 86 2012 3.1 20 22:18 07.11.2019
4563 Rain -4 1013 92 3017 3.06 33 21:38 07.11.2019
4564 Rain -4 1013 92 3017 3.06 33 21:20 07.11.2019
4565 Rain -5 1012 85 1609 2.1 40 20:58 07.11.2019
4566 Rain -5 1012 85 1609 2.1 40 20:40 07.11.2019
4567 Rain -5 1012 85 1609 2.1 40 20:40 07.11.2019
4568 Rain -5 1012 100 4828 2.76 36 20:21 07.11.2019
4569 Snow -5 1012 100 3621 2.62 35 19:56 07.11.2019
4570 Rain -5 1012 100 3017 2.62 35 19:37 07.11.2019
4571 Rain -5 1012 100 3017 2.62 35 19:19 07.11.2019
4572 Snow -5 1011 100 4828 2.62 35 18:56 07.11.2019
4573 Snow -5 1011 100 4828 2.62 35 18:37 07.11.2019
4574 Snow -5 1011 100 4828 2.62 35 18:19 07.11.2019
4575 Snow -5 1011 100 3621 2.62 35 17:41 07.11.2019
4576 Snow -5 1011 100 3621 2.54 43 17:23 07.11.2019
4577 Snow -5 1011 85 1609 2.1 60 16:59 07.11.2019
4578 Snow -5 1011 85 2012 3.1 40 16:41 07.11.2019
4579 Snow -5 1011 85 2012 3.1 40 16:22 07.11.2019
4580 Snow -5 1011 92 3017 2.54 43 15:59 07.11.2019
4581 Snow -5 1011 92 3017 2.54 43 15:40 07.11.2019
4582 Snow -5 1011 92 3017 2.54 43 15:19 07.11.2019
4583 Snow -5 1011 92 3621 2.54 43 14:54 07.11.2019
4584 Snow -5 1011 100 3621 2.54 43 14:36 07.11.2019
4585 Snow -5 1011 100 3621 2.8 32 14:18 07.11.2019
4586 Snow -4 1011 100 6437 2.8 32 13:54 07.11.2019
4587 Rain -4 1010 100 4426 2.8 32 13:36 07.11.2019
4588 Rain -4 1011 100 3621 2.81 31 13:18 07.11.2019
4589 Rain -4 1011 100 3621 2.81 31 12:54 07.11.2019
4590 Rain -4 1011 100 3621 2.81 31 12:54 07.11.2019
4591 Rain -4 1011 100 3621 2.81 31 12:36 07.11.2019
4592 Rain -4 1011 100 3621 2.81 31 12:18 07.11.2019
4593 Rain -4 1011 100 4023 2.81 31 11:40 07.11.2019
4594 Rain -4 1011 100 4023 2.43 29 11:22 07.11.2019
4595 Rain -4 1011 100 3621 2.43 29 10:42 07.11.2019
4596 Rain -4 1011 100 3621 2.43 29 10:19 07.11.2019
4597 Snow -4 1010 85 3621 2.43 29 09:45 07.11.2019
4598 Rain -4 1011 100 4828 2.43 29 09:25 07.11.2019
4599 Snow -4 1011 92 4828 2.43 29 08:59 07.11.2019
4600 -273 0 0 0 0 0 08:40 07.11.2019
4601 Snow -4 1011 100 4426 2.17 1 08:22 07.11.2019
4602 Snow -4 1011 100 4828 1.95 360 07:56 07.11.2019
4603 Rain -4 1011 85 1609 1.95 360 07:38 07.11.2019
4604 Rain -4 1011 85 1609 1.95 360 07:20 07.11.2019
4605 Snow -4 1011 85 2012 1.95 360 06:45 07.11.2019
4606 Snow -4 1011 100 1609 1.95 360 06:25 07.11.2019
4607 Rain -4 1011 100 2414 1.95 360 05:49 07.11.2019
4608 Rain -4 1011 100 2414 1.95 360 05:31 07.11.2019
4609 -273 0 0 0 0 0 04:51 07.11.2019
4610 Rain -4 1012 92 2414 1.55 341 04:29 07.11.2019
4611 Rain -4 1012 92 2414 1.55 341 04:29 07.11.2019
4612 Rain -3 1012 100 8047 1.18 349 01:28 07.11.2019
4613 Mist -3 1013 100 6437 1.19 344 00:32 07.11.2019
4614 Mist -3 1012 86 4828 1.19 344 23:58 06.11.2019
4615 Snow -3 1013 100 9656 1.19 344 23:40 06.11.2019
4616 Snow -3 1013 100 9656 1.45 26 23:20 06.11.2019
4617 Rain -3 1014 92 16093 1.45 26 22:40 06.11.2019
4618 Rain -3 1014 92 16093 1.45 26 22:21 06.11.2019
4619 Rain -3 1013 85 16093 2.6 10 21:57 06.11.2019
4620 Rain -3 1014 92 16093 1.45 26 21:39 06.11.2019
4621 Rain -3 1014 92 16093 1.45 26 21:19 06.11.2019
4622 Rain -4 1014 85 16093 1.5 320 20:57 06.11.2019
4623 Rain -4 1014 92 16093 1.08 30 20:39 06.11.2019
4624 Rain -4 1014 92 16093 0.84 327 20:20 06.11.2019
4625 Clouds -5 1015 100 16093 0.84 327 19:57 06.11.2019
4626 Clouds -5 1015 100 16093 0.84 327 19:37 06.11.2019
4627 Clouds -5 1015 100 16093 0.84 327 19:19 06.11.2019
4628 Snow -5 1015 100 4828 0.84 327 18:55 06.11.2019
4629 Snow -5 1015 100 4426 0.84 327 18:37 06.11.2019
4630 Snow -5 1015 100 4426 0.84 327 18:18 06.11.2019
4631 Snow -5 1016 100 2213 0.84 327 17:42 06.11.2019
4632 Rain -5 1016 100 3017 0.84 327 17:23 06.11.2019
4633 Snow -5 1016 92 2816 0.84 18 16:57 06.11.2019
4634 Snow -5 1016 92 2816 0.84 18 16:39 06.11.2019
4635 Snow -5 1016 92 3017 0.84 18 16:21 06.11.2019
4636 Rain -5 1017 92 2816 0.84 18 15:58 06.11.2019
4637 Rain -5 1017 92 2816 0.84 18 15:38 06.11.2019
4638 Rain -5 1017 92 2816 0.84 18 15:19 06.11.2019
4639 Snow -5 1017 100 3219 0.84 18 14:59 06.11.2019
4640 Snow -5 1017 100 3219 0.84 18 14:41 06.11.2019
4641 Snow -5 1018 100 3621 0.72 351 14:22 06.11.2019
4642 Snow -5 1018 92 3621 0.72 351 13:59 06.11.2019
4643 Snow -5 1018 92 3621 0.72 351 13:38 06.11.2019
4644 Snow -5 1018 92 4023 0.71 3 13:19 06.11.2019
4645 Snow -5 1018 85 16093 0.71 3 12:55 06.11.2019
4646 Clouds -5 1018 85 16093 2.1 250 12:37 06.11.2019
4647 Clouds -5 1018 85 16093 2.1 250 12:18 06.11.2019
4648 Clouds -5 1018 85 16093 2.1 250 12:18 06.11.2019
4649 Clouds -6 1018 92 16093 0.71 3 11:57 06.11.2019
4650 Clouds -6 1018 92 16093 0.71 3 11:36 06.11.2019
4651 Clouds -6 1018 85 16093 0.63 11 11:18 06.11.2019
4652 Snow -6 1018 79 9656 2.1 0 10:55 06.11.2019
4653 Snow -6 1018 79 9656 2.1 0 10:37 06.11.2019
4654 Clouds -7 1019 85 16093 0.63 11 10:18 06.11.2019
4655 Snow -7 1019 85 16093 0.63 11 09:41 06.11.2019
4656 Clouds -8 1019 92 16093 0.63 11 09:21 06.11.2019
4657 Clouds -8 1019 85 16093 0.63 11 08:56 06.11.2019
4658 Clouds -8 1019 85 16093 0.63 11 08:38 06.11.2019
4659 Clouds -8 1019 85 16093 1.58 25 08:18 06.11.2019
4660 Clouds -8 1018 85 16093 1.58 25 07:47 06.11.2019
4661 Clouds -9 1019 79 16093 1.5 40 07:29 06.11.2019
4662 Clouds -9 1020 92 16093 2.1 60 06:54 06.11.2019
4663 Clouds -10 1020 92 16093 2.1 60 06:36 06.11.2019
4664 Clouds -11 1021 85 16093 1.58 25 05:58 06.11.2019
4665 Clear -11 1022 92 16093 1.04 22 03:48 06.11.2019
4666 Clouds -10 1022 78 16093 1.5 30 01:59 06.11.2019
4667 Clear -10 1023 85 14484 1.04 39 00:48 06.11.2019
4668 Clear -11 1023 85 14484 1.04 39 00:26 06.11.2019
4669 Clouds -11 1024 84 14484 1.04 39 23:56 05.11.2019
4670 Clouds -12 1024 84 14484 1.04 39 23:37 05.11.2019
4671 Clouds -12 1024 84 14484 1.06 55 23:18 05.11.2019
4672 Clouds -12 1024 84 14484 1.06 55 23:18 05.11.2019
4673 Clear -13 1024 84 16093 1.5 60 22:41 05.11.2019
4674 Clear -13 1024 84 16093 1.5 60 22:19 05.11.2019
4675 Clear -14 1025 84 16093 1.06 55 21:55 05.11.2019
4676 Clear -14 1025 84 16093 1.06 55 21:55 05.11.2019
4677 Clear -14 1025 84 16093 1.06 55 21:37 05.11.2019
4678 Clear -14 1025 84 16093 1.06 55 21:19 05.11.2019
4679 Clear -16 1025 91 16093 1.06 55 20:56 05.11.2019
4680 Clear -15 1025 91 16093 1.06 55 20:37 05.11.2019
4681 Clear -16 1026 84 14484 1.76 44 20:19 05.11.2019
4682 Clear -16 1026 84 12874 1.5 50 19:42 05.11.2019
4683 Clear -18 1026 84 12874 1.5 50 19:23 05.11.2019
4684 Clear -18 1027 84 16093 1.76 44 18:58 05.11.2019
4685 Clear -18 1027 84 16093 1.76 44 18:40 05.11.2019
4686 Clear -18 1027 84 16093 1.76 44 18:21 05.11.2019
4687 Clear -18 1027 84 16093 1.5 50 17:59 05.11.2019
4688 Clear -18 1027 84 16093 1.5 50 17:39 05.11.2019
4689 Clear -18 1027 84 16093 1.5 50 17:20 05.11.2019
4690 Clear -18 1027 91 16093 2.1 70 16:57 05.11.2019
4691 Clear -18 1027 91 16093 2.1 70 16:57 05.11.2019
4692 Clear -18 1027 91 16093 2.1 70 16:57 05.11.2019
4693 Clear -18 1027 91 16093 2.1 70 16:39 05.11.2019
4694 Clear -18 1027 91 16093 2.1 70 16:19 05.11.2019
4695 Mist -18 1027 76 3219 1.75 48 15:39 05.11.2019
4696 Clear -17 1028 84 16093 1.75 48 15:20 05.11.2019
4697 Clear -17 1028 84 16093 1.75 48 15:20 05.11.2019
4698 Clear -17 1029 84 16093 1.75 48 14:59 05.11.2019
4699 Clear -17 1029 84 16093 1.75 48 14:40 05.11.2019
4700 Clear -18 1029 84 16093 1.72 47 14:22 05.11.2019
4701 Clear -17 1029 91 16093 2.1 70 13:58 05.11.2019
4702 Clear -17 1029 91 16093 2.1 70 13:58 05.11.2019
4703 Clear -16 1029 91 16093 2.1 70 13:39 05.11.2019
4704 Clear -18 1029 91 16093 2.1 70 13:21 05.11.2019
4705 Clear -17 1030 84 16093 1.63 48 12:40 05.11.2019
4706 Clear -17 1030 84 16093 1.63 48 12:21 05.11.2019
4707 Clear -16 1030 84 16093 1.63 48 11:56 05.11.2019
4708 Clear -16 1030 84 16093 1.63 48 11:38 05.11.2019
4709 Clear -17 1030 84 16093 2.05 39 11:19 05.11.2019
4710 Clear -16 1030 84 16093 2.6 60 10:48 05.11.2019
4711 Clear -16 1030 84 16093 2.6 60 10:27 05.11.2019
4712 Clear -16 1030 84 16093 2.6 60 10:27 05.11.2019
4713 Clear -16 1030 84 16093 2.05 39 09:59 05.11.2019
4714 Clear -16 1030 84 16093 2.05 39 09:59 05.11.2019
4715 Clear -16 1030 84 16093 2.05 39 09:41 05.11.2019
4716 Clear -16 1030 84 16093 2.05 39 09:21 05.11.2019
4717 Clear -16 1030 84 16093 3.1 40 08:57 05.11.2019
4718 Clear -15 1030 84 16093 3.1 40 08:37 05.11.2019
4719 Clear -16 1030 84 16093 3.1 40 08:19 05.11.2019
4720 Clear -15 1030 77 16093 2.6 30 07:45 05.11.2019
4721 Clear -15 1030 77 16093 2.6 30 07:26 05.11.2019
4722 Clear -14 1030 84 16093 1.98 42 06:52 05.11.2019
4723 Clear -14 1030 84 16093 1.98 42 06:33 05.11.2019
4724 Clear -14 1031 92 16093 1.98 42 05:49 05.11.2019
4725 Clear -14 1031 92 16093 2 38 05:21 05.11.2019
4726 Clear -13 1031 92 16093 2 38 04:23 05.11.2019
4727 Clear -12 1030 92 16093 2.6 70 03:32 05.11.2019
4728 Clear -11 1030 78 16093 3.1 70 02:43 05.11.2019
4729 Clear -10 1030 78 16093 5.1 50 01:56 05.11.2019
4730 Clear -10 1031 78 16093 4.1 60 00:48 05.11.2019
4731 Clear -9 1031 78 16093 4.1 60 00:27 05.11.2019
4732 Clear -10 1031 85 16093 4.6 60 23:43 04.11.2019
4733 Clear -10 1031 85 16093 4.6 60 23:20 04.11.2019
4734 Clear -11 1031 85 16093 4.1 60 22:59 04.11.2019
4735 Clear -11 1031 85 16093 4.1 60 22:40 04.11.2019
4736 Clear -12 1031 85 16093 4.1 60 22:21 04.11.2019
4737 Clear -13 1031 85 16093 3.6 50 21:55 04.11.2019
4738 Clear -13 1031 85 16093 3.6 50 21:37 04.11.2019
4739 Clear -13 1031 85 16093 3.6 50 21:37 04.11.2019
4740 Clear -13 1031 85 16093 3.6 50 21:18 04.11.2019
4741 Clear -14 1031 84 14484 2.1 60 20:57 04.11.2019
4742 Clear -15 1031 84 14484 2.1 60 20:38 04.11.2019
4743 Clear -16 1031 84 14484 2.1 60 20:20 04.11.2019
4744 Clouds -16 1030 77 16093 2.6 30 19:57 04.11.2019
4745 Clouds -16 1030 77 16093 2.6 30 19:39 04.11.2019
4746 Clouds -17 1030 77 16093 2.6 30 19:21 04.11.2019
4747 Clear -17 1030 84 16093 1.81 45 18:55 04.11.2019
4748 Clear -17 1030 84 16093 1.81 45 18:37 04.11.2019
4749 Clear -17 1030 84 16093 1.81 45 18:18 04.11.2019
4750 Clear -17 1030 84 16093 1.81 45 17:39 04.11.2019
4751 Clear -16 1030 84 16093 1.63 48 17:20 04.11.2019
4752 Clear -17 1030 84 16093 1.63 48 16:56 04.11.2019
4753 Clear -17 1030 84 16093 1.63 48 16:38 04.11.2019
4754 Clear -17 1030 84 16093 1.63 48 16:19 04.11.2019
4755 Clear -16 1030 84 16093 2.1 40 15:41 04.11.2019
4756 Clear -16 1030 84 16093 2.1 40 15:22 04.11.2019
4757 Clear -16 1030 91 16093 1.63 48 14:59 04.11.2019
4758 Clear -16 1030 91 16093 1.63 48 14:41 04.11.2019
4759 Clear -15 1030 91 16093 1.77 38 14:21 04.11.2019
4760 Clear -15 1030 91 16093 1.77 38 13:58 04.11.2019
4761 Clear -15 1030 91 16093 1.77 38 13:40 04.11.2019
4762 Clear -15 1030 91 16093 1.85 38 13:21 04.11.2019
4763 Clear -15 1030 91 16093 1.85 38 13:21 04.11.2019
4764 Clear -15 1030 91 16093 1.85 38 13:21 04.11.2019
4765 Clear -15 1030 91 16093 1.85 38 12:57 04.11.2019
4766 Clear -15 1030 91 16093 1.85 38 12:39 04.11.2019
4767 Clear -15 1030 91 16093 1.85 38 12:21 04.11.2019
4768 Clear -15 1030 84 16093 1.85 38 11:55 04.11.2019
4769 Clear -14 1030 84 16093 1.85 38 11:37 04.11.2019
4770 Clear -13 1030 84 16093 1.47 45 11:19 04.11.2019
4771 Clear -13 1029 91 16093 1.47 45 10:42 04.11.2019
4772 Clear -13 1029 91 16093 1.47 45 10:24 04.11.2019
4773 Clear -12 1029 92 16093 1.47 45 09:46 04.11.2019
4774 Clear -12 1029 92 16093 1.47 45 09:28 04.11.2019
4775 Clear -12 1029 92 16093 1.47 45 09:28 04.11.2019
4776 Clear -12 1029 92 16093 2.1 80 08:59 04.11.2019
4777 Clear -12 1029 92 16093 2.1 80 08:38 04.11.2019
4778 Clear -12 1029 92 16093 2.1 80 08:38 04.11.2019
4779 Clear -12 1029 92 16093 2.1 80 08:20 04.11.2019
4780 Clear -11 1029 92 16093 1.5 50 07:44 04.11.2019
4781 Clear -10 1029 92 16093 1.5 50 07:24 04.11.2019
4782 Clouds -10 1028 92 14484 2.6 60 06:57 04.11.2019
4783 Clouds -10 1028 92 14484 2.6 60 06:34 04.11.2019
4784 Clouds -9 1028 85 14484 1.3 33 05:49 04.11.2019
4785 Clouds -8 1028 85 16093 1.5 360 04:45 04.11.2019
4786 Clouds -8 1028 85 16093 1.5 360 04:21 04.11.2019
4787 Clouds -8 1028 100 16093 1.5 260 02:34 04.11.2019
4788 Clouds -8 1028 100 12874 1.5 240 01:22 04.11.2019
4789 Snow -8 1029 100 12874 0.56 236 00:43 04.11.2019
4790 Snow -8 1029 100 12874 0.56 236 00:21 04.11.2019
4791 Clouds -8 1029 92 12874 0.56 236 23:44 03.11.2019
4792 Clouds -8 1029 92 12874 0.56 236 23:44 03.11.2019
4793 Clouds -8 1029 92 12874 0.14 149 23:22 03.11.2019
4794 Snow -8 1029 100 11265 2.1 240 22:59 03.11.2019
4795 Snow -8 1029 100 11265 2.1 240 22:41 03.11.2019
4796 Snow -9 1029 100 11265 2.1 240 22:21 03.11.2019
4797 Snow -9 1029 100 11265 0.14 149 21:58 03.11.2019
4798 Snow -9 1029 100 11265 0.14 149 21:40 03.11.2019
4799 Mist -9 1028 100 9656 0.14 149 21:20 03.11.2019
4800 Snow -9 1029 100 8047 0.14 149 20:56 03.11.2019
4801 Snow -9 1029 100 8047 0.14 149 20:36 03.11.2019
4802 Snow -9 1029 100 8047 0.43 194 20:18 03.11.2019
4803 Snow -9 1028 92 12874 0.43 194 19:56 03.11.2019
4804 Snow -9 1028 92 12874 0.43 194 19:37 03.11.2019
4805 Clouds -9 1028 100 12874 0.43 194 19:19 03.11.2019
4806 Clouds -9 1028 92 14484 0.43 194 18:39 03.11.2019
4807 Clouds -9 1028 92 16093 0.43 194 18:19 03.11.2019
4808 Snow -9 1028 100 12874 1.5 210 17:58 03.11.2019
4809 Snow -9 1028 100 12874 1.5 210 17:40 03.11.2019
4810 Clouds -9 1028 100 14484 1.5 220 17:19 03.11.2019
4811 Clouds -9 1028 100 16093 1.5 230 16:56 03.11.2019
4812 Clouds -9 1028 100 16093 1.5 230 16:38 03.11.2019
4813 Clouds -9 1028 100 16093 1.5 230 16:19 03.11.2019
4814 Clouds -9 1027 100 16093 2.1 210 15:56 03.11.2019
4815 Clouds -9 1027 100 16093 2.1 210 15:38 03.11.2019
4816 Clouds -9 1027 100 16093 2.1 210 15:20 03.11.2019
4817 Clouds -8 1027 92 16093 2.1 210 14:41 03.11.2019
4818 Clouds -8 1027 92 16093 1.5 230 14:19 03.11.2019
4819 Clouds -8 1027 92 16093 1.5 220 13:56 03.11.2019
4820 Clouds -8 1027 92 16093 1.5 220 13:37 03.11.2019
4821 Clouds -8 1027 92 16093 1.5 220 13:18 03.11.2019
4822 Clouds -8 1027 100 16093 2.1 230 12:38 03.11.2019
4823 Clouds -8 1027 100 16093 2.1 230 12:19 03.11.2019
4824 Clouds -8 1027 92 16093 2.6 220 11:56 03.11.2019
4825 Clouds -8 1027 92 16093 2.6 220 11:56 03.11.2019
4826 Clouds -8 1027 92 16093 2.6 220 11:38 03.11.2019
4827 Clouds -7 1027 100 16093 2.6 230 11:19 03.11.2019
4828 Clouds -7 1027 100 16093 2.6 230 10:42 03.11.2019
4829 Clouds -7 1027 100 16093 2.1 230 10:22 03.11.2019
4830 Clouds -7 1027 100 16093 2.1 230 10:22 03.11.2019
4831 Clouds -7 1027 100 16093 2.1 230 10:22 03.11.2019
4832 Clouds -7 1027 100 16093 2.1 230 10:22 03.11.2019
4833 Clouds -7 1027 100 16093 2.6 220 09:58 03.11.2019
4834 Clouds -7 1027 100 16093 2.6 220 09:40 03.11.2019
4835 Clouds -7 1026 92 16093 2.1 220 09:22 03.11.2019
4836 Clouds -6 1026 85 14484 0.38 239 08:48 03.11.2019
4837 Clouds -6 1026 92 16093 2.1 240 08:25 03.11.2019
4838 Clouds -6 1026 92 16093 2.1 230 07:47 03.11.2019
4839 Clouds -6 1026 100 16093 0.51 317 07:28 03.11.2019
4840 Clouds -6 1026 100 16093 1.5 230 06:54 03.11.2019
4841 Clouds -6 1026 100 16093 1.5 230 06:35 03.11.2019
4842 Mist -6 1026 85 9656 0.51 317 05:40 03.11.2019
4843 Mist -7 1026 100 9656 0.25 10 05:18 03.11.2019
4844 Mist -7 1025 92 6437 0.25 10 04:45 03.11.2019
4845 Mist -7 1025 92 4828 1.5 200 03:39 03.11.2019
4846 Mist -6 1025 92 2414 0.25 10 02:46 03.11.2019
4847 Clouds -6 1026 92 11265 0.38 180 02:21 03.11.2019
4848 Mist -7 1025 92 3219 0.38 180 01:43 03.11.2019
4849 Mist -6 1025 92 3219 0.52 196 01:21 03.11.2019
4850 Clouds -7 1026 92 14484 0.52 196 00:46 03.11.2019
4851 Clouds -7 1026 100 16093 0.52 196 00:27 03.11.2019
4852 Snow -7 1026 85 2816 0.52 196 23:58 02.11.2019
4853 Snow -7 1026 85 2816 0.52 196 23:39 02.11.2019
4854 Clouds -7 1026 100 11265 0.91 183 23:19 02.11.2019
4855 Clouds -7 1026 92 11265 0.91 183 22:56 02.11.2019
4856 Clouds -7 1026 92 11265 0.91 183 22:56 02.11.2019
4857 Clouds -7 1026 92 11265 0.91 183 22:38 02.11.2019
4858 Clouds -7 1026 92 11265 0.91 183 22:19 02.11.2019
4859 Clouds -7 1026 92 14484 0.91 183 21:56 02.11.2019
4860 Clouds -7 1026 92 14484 0.91 183 21:38 02.11.2019
4861 Clouds -7 1026 92 16093 0.91 183 21:18 02.11.2019
4862 Clouds -7 1026 92 16093 0.91 183 21:18 02.11.2019
4863 Snow -7 1025 85 12874 0.91 183 20:59 02.11.2019
4864 Snow -7 1025 85 12874 0.91 183 20:39 02.11.2019
4865 Clouds -7 1025 92 14484 0.42 253 20:20 02.11.2019
4866 Clouds -7 1025 85 16093 2.1 260 19:55 02.11.2019
4867 Clouds -7 1025 85 16093 2.1 260 19:36 02.11.2019
4868 Clouds -7 1025 92 14484 0.42 253 19:18 02.11.2019
4869 Clouds -7 1025 92 14484 0.42 253 19:18 02.11.2019
4870 Clouds -7 1024 92 16093 0.42 253 18:42 02.11.2019
4871 Clouds -7 1024 92 16093 0.42 253 18:24 02.11.2019
4872 Clouds -7 1024 92 16093 0.42 253 17:59 02.11.2019
4873 Clouds -7 1024 92 16093 0.42 253 17:40 02.11.2019
4874 Clouds -7 1024 92 16093 0.74 280 17:22 02.11.2019
4875 Snow -7 1023 85 4828 1.5 190 16:58 02.11.2019
4876 Snow -7 1023 85 4828 1.5 190 16:38 02.11.2019
4877 Clouds -7 1023 100 16093 0.74 280 16:20 02.11.2019
4878 Snow -7 1023 100 6437 0.74 280 15:42 02.11.2019
4879 Snow -7 1023 100 4828 0.74 280 15:20 02.11.2019
4880 Snow -7 1022 85 14484 0.74 280 14:56 02.11.2019
4881 Snow -7 1022 85 14484 0.74 280 14:38 02.11.2019
4882 Clouds -6 1022 92 11265 2.1 200 14:20 02.11.2019
4883 Mist -6 1021 92 4828 1.5 190 13:40 02.11.2019
4884 Mist -6 1021 92 4828 1.5 190 13:20 02.11.2019
4885 Mist -6 1021 92 6437 0.65 308 12:56 02.11.2019
4886 Mist -6 1021 92 6437 0.65 308 12:38 02.11.2019
4887 Snow -5 1021 100 4828 0.65 308 12:19 02.11.2019
4888 Snow -5 1020 100 4426 1.5 200 11:42 02.11.2019
4889 Mist -5 1020 92 6437 0.65 308 11:24 02.11.2019
4890 Snow -5 1020 92 4023 2.1 200 10:57 02.11.2019
4891 Snow -4 1020 92 4023 2.1 200 10:39 02.11.2019
4892 Snow -5 1019 92 4023 2.1 210 10:18 02.11.2019
4893 Snow -5 1019 92 4023 2.1 210 10:18 02.11.2019
4894 Mist -4 1019 100 6437 3.1 220 09:42 02.11.2019
4895 Snow -4 1019 92 6437 2.1 210 09:22 02.11.2019
4896 Mist -3 1018 92 8047 2.6 210 08:51 02.11.2019
4897 Snow -3 1018 100 6437 2.6 220 08:25 02.11.2019
4898 Snow -3 1018 92 4828 2.1 190 07:58 02.11.2019
4899 Snow -3 1018 92 4828 2.1 190 07:40 02.11.2019
4900 Snow -3 1018 92 4828 2.1 190 07:40 02.11.2019
4901 Snow -3 1017 100 12874 1.5 230 07:22 02.11.2019
4902 Snow -3 1017 100 4426 2.1 220 06:50 02.11.2019
4903 Rain -3 1017 86 3219 0.77 311 06:22 02.11.2019
4904 Snow -3 1016 92 3621 1.5 230 05:41 02.11.2019
4905 Rain -3 1016 100 12874 0.7 308 04:24 02.11.2019
4906 Snow -3 1015 100 4828 1.5 230 03:51 02.11.2019
4907 Snow -3 1015 100 2615 0.7 308 03:30 02.11.2019
4908 Snow -3 1015 92 4828 0.48 314 02:19 02.11.2019
4909 Snow -3 1015 92 16093 0.48 314 01:29 02.11.2019
4910 Clouds -3 1015 92 16093 0.43 322 00:56 02.11.2019
4911 Clouds -3 1015 92 16093 0.43 322 00:30 02.11.2019
4912 Clouds -3 1015 85 16093 0.43 322 23:57 01.11.2019
4913 Clouds -3 1015 85 16093 0.43 322 23:38 01.11.2019
4914 Clouds -3 1015 92 16093 0.39 46 23:19 01.11.2019
4915 Rain -4 1015 92 16093 0.39 46 22:42 01.11.2019
4916 Rain -4 1015 92 16093 0.39 46 22:21 01.11.2019
4917 Clouds -4 1015 92 16093 0.39 46 21:43 01.11.2019
4918 Rain -5 1015 100 11265 0.39 46 21:24 01.11.2019
4919 Clouds -5 1015 85 11265 0.39 46 20:59 01.11.2019
4920 Clouds -5 1015 85 11265 0.39 46 20:41 01.11.2019
4921 Snow -5 1015 85 8047 0.87 27 20:23 01.11.2019
4922 Snow -5 1015 100 4426 0.87 27 19:59 01.11.2019
4923 Snow -5 1015 100 4426 0.87 27 19:59 01.11.2019
4924 Snow -5 1015 100 4426 0.87 27 19:59 01.11.2019
4925 Snow -5 1015 100 4426 0.87 27 19:40 01.11.2019
4926 Snow -5 1015 100 3621 0.87 27 19:21 01.11.2019
4927 Snow -5 1014 100 2213 0.87 27 18:41 01.11.2019
4928 Snow -5 1014 92 3621 0.87 27 18:21 01.11.2019
4929 Snow -5 1014 100 3621 0.87 27 17:59 01.11.2019
4930 Snow -5 1014 100 3621 0.87 27 17:41 01.11.2019
4931 Rain -5 1014 100 2816 0.88 11 17:22 01.11.2019
4932 Rain -5 1014 92 4828 0.88 11 16:40 01.11.2019
4933 Rain -5 1014 79 2012 0.88 11 16:20 01.11.2019
4934 Rain -5 1014 92 6437 0.88 11 15:58 01.11.2019
4935 Rain -5 1014 92 6437 0.88 11 15:40 01.11.2019
4936 Snow -5 1014 92 14484 0.88 11 15:22 01.11.2019
4937 Clouds -5 1014 92 16093 0.88 11 14:44 01.11.2019
4938 Clouds -5 1014 92 16093 1.26 23 14:26 01.11.2019
4939 Clouds -5 1013 85 16093 1.26 23 13:59 01.11.2019
4940 Clouds -5 1013 85 16093 1.26 23 13:40 01.11.2019
4941 Clouds -5 1014 92 16093 0.91 19 13:22 01.11.2019
4942 Clouds -5 1013 85 16093 0.91 19 12:56 01.11.2019
4943 Clouds -5 1013 85 16093 0.91 19 12:37 01.11.2019
4944 Clouds -5 1013 92 16093 0.91 19 12:37 01.11.2019
4945 Clouds -6 1013 92 16093 0.91 19 12:19 01.11.2019
4946 Clouds -5 1014 92 16093 0.91 19 11:42 01.11.2019
4947 Clouds -6 1014 92 16093 1.32 35 11:23 01.11.2019
4948 Clouds -6 1014 92 16093 1.32 35 10:44 01.11.2019
4949 Clouds -6 1014 92 16093 1.32 35 10:44 01.11.2019
4950 Clouds -6 1014 92 16093 1.32 35 10:25 01.11.2019
4951 Clouds -6 1014 92 16093 1.32 35 09:59 01.11.2019
4952 Clouds -7 1014 92 16093 1.32 35 09:59 01.11.2019
4953 Clouds -7 1014 92 16093 1.32 35 09:41 01.11.2019
4954 Clouds -7 1014 92 16093 1.32 35 09:22 01.11.2019
4955 Clear -7 1015 100 16093 1.32 35 08:55 01.11.2019
4956 Clear -7 1015 100 16093 1.32 35 08:36 01.11.2019
4957 Clear -7 1015 100 16093 1.49 32 08:18 01.11.2019
4958 Clear -7 1015 92 16093 1.49 32 07:45 01.11.2019
4959 Clear -7 1015 92 16093 1.49 32 07:22 01.11.2019
4960 Clouds -7 1016 92 16093 1.49 32 06:54 01.11.2019
4961 Clouds -8 1016 92 16093 1.49 32 06:23 01.11.2019
4962 Clear -7 1016 92 16093 1.49 32 05:57 01.11.2019
4963 Clear -7 1016 92 16093 1.49 32 05:35 01.11.2019
4964 Clear -7 1017 85 16093 1.54 37 03:32 01.11.2019
4965 Clear -5 1019 79 16093 1.57 33 01:48 01.11.2019
4966 Clear -5 1019 79 16093 1.47 36 01:19 01.11.2019
4967 Clear -5 1019 73 16093 1.47 36 00:20 01.11.2019
4968 Clear -5 1020 79 16093 1.47 36 23:45 31.10.2019
4969 Clear -4 1020 79 16093 1.47 36 23:25 31.10.2019
4970 Clear -5 1021 85 16093 2.1 90 22:58 31.10.2019
4971 Clear -5 1021 85 16093 2.1 90 22:40 31.10.2019
4972 Clear -5 1021 85 16093 2.1 90 22:22 31.10.2019
4973 Clear -5 1021 92 14484 1.5 60 21:56 31.10.2019
4974 Clear -5 1021 92 14484 1.5 60 21:37 31.10.2019
4975 Clear -6 1021 92 14484 1.5 60 21:18 31.10.2019
4976 Clear -7 1022 92 16093 1.5 30 20:40 31.10.2019
4977 Clear -7 1022 92 16093 1.5 30 20:22 31.10.2019
4978 Clouds -7 1022 79 16093 2.1 10 19:46 31.10.2019
4979 Clouds -7 1023 92 16093 1.5 20 19:27 31.10.2019
4980 Clouds -7 1022 85 16093 2.1 20 18:59 31.10.2019
4981 Clouds -7 1022 85 16093 2.1 20 18:41 31.10.2019
4982 Clouds -7 1023 92 16093 1.47 41 18:22 31.10.2019
4983 Clouds -7 1023 92 16093 1.47 41 17:55 31.10.2019
4984 Clouds -7 1023 92 16093 1.47 41 17:36 31.10.2019
4985 Clouds -7 1023 92 16093 0.85 79 17:18 31.10.2019
4986 Clouds -7 1023 92 3219 2.1 320 16:41 31.10.2019
4987 Clouds -7 1024 92 16093 0.85 79 16:20 31.10.2019
4988 Clouds -7 1024 92 16093 0.85 79 16:20 31.10.2019
4989 Clouds -8 1024 100 16093 0.85 79 15:58 31.10.2019
4990 Clouds -8 1024 100 16093 0.85 79 15:40 31.10.2019
4991 Clouds -8 1024 100 16093 0.85 79 15:20 31.10.2019
4992 Mist -8 1024 92 3219 1.5 70 14:57 31.10.2019
4993 Mist -8 1024 92 3219 1.5 70 14:39 31.10.2019
4994 Mist -8 1024 92 3219 1.5 70 14:20 31.10.2019
4995 Clouds -8 1024 100 16093 1.5 40 13:57 31.10.2019
4996 Clouds -8 1025 100 16093 1.5 40 13:38 31.10.2019
4997 Clouds -8 1025 100 16093 1.5 40 13:19 31.10.2019
4998 Clouds -8 1025 92 16093 1.5 60 12:54 31.10.2019
4999 Clouds -8 1025 92 16093 1.5 60 12:36 31.10.2019
5000 Clouds -8 1024 92 16093 1.5 60 12:18 31.10.2019
5001 Clouds -8 1024 100 16093 1.11 137 11:43 31.10.2019
5002 Clouds -8 1024 100 16093 1.43 165 11:20 31.10.2019
5003 Clear -8 1024 100 16093 1.43 165 10:57 31.10.2019
5004 Clear -8 1024 100 16093 1.43 165 10:57 31.10.2019
5005 Clear -8 1024 100 16093 1.43 165 10:38 31.10.2019
5006 Clear -8 1024 100 16093 1.43 165 10:20 31.10.2019
5007 Clear -7 1024 92 16093 3.1 180 09:44 31.10.2019
5008 Clouds -7 1023 92 16093 2.6 180 09:19 31.10.2019
5009 Clear -7 1023 85 16093 1.43 165 08:56 31.10.2019
5010 Clear -7 1023 85 16093 1.43 165 08:38 31.10.2019
5011 Clouds -6 1023 92 16093 2.1 190 08:19 31.10.2019
5012 Clear -6 1023 85 16093 3.1 240 07:43 31.10.2019
5013 Clear -5 1023 85 16093 3.1 240 07:24 31.10.2019
5014 Clouds -5 1022 85 16093 4.6 220 06:39 31.10.2019
5015 Clouds -5 1022 79 16093 2.6 180 06:20 31.10.2019
5016 Clouds -4 1021 79 16093 6.2 240 04:40 31.10.2019
5017 Clouds -3 1019 86 16093 5.7 250 02:47 31.10.2019
5018 Clouds -3 1019 86 16093 5.7 250 02:22 31.10.2019
5019 Clouds -2 1018 79 16093 5.7 250 00:47 31.10.2019
5020 Clouds -2 1018 80 16093 5.7 260 00:24 31.10.2019
5021 Rain -2 1016 74 16093 7.7 250 23:34 30.10.2019
5022 Snow -1 1016 91 8047 3.1 0 22:59 30.10.2019
5023 Snow -1 1016 91 8047 3.1 0 22:39 30.10.2019
5024 Clouds -1 1015 91 11265 7.2 250 22:19 30.10.2019
5025 Rain 0 1014 91 6437 5.1 240 21:54 30.10.2019
5026 Rain 0 1014 91 6437 5.1 240 21:36 30.10.2019
5027 Rain 0 1013 91 1609 2.1 240 21:18 30.10.2019
5028 Rain 0 1013 91 1609 2.1 240 21:18 30.10.2019
5029 Snow 0 1013 91 1609 3.32 226 20:56 30.10.2019
5030 Snow 0 1013 80 1609 3.67 231 20:37 30.10.2019
5031 Rain 0 1012 100 4023 2.09 203 20:18 30.10.2019
5032 Rain 0 1011 100 9656 2.09 203 19:42 30.10.2019
5033 Rain 0 1011 92 16093 2.09 203 19:23 30.10.2019
5034 Clouds 0 1010 86 16093 2.09 203 18:59 30.10.2019
5035 Clouds -1 1010 86 16093 2.09 203 18:38 30.10.2019
5036 Clouds -1 1010 86 16093 2.09 203 18:38 30.10.2019
5037 Rain -1 1010 86 16093 2.09 203 18:19 30.10.2019
5038 Rain -1 1010 86 16093 2.09 203 18:19 30.10.2019
5039 Clouds -1 1009 100 16093 2.09 203 17:55 30.10.2019
5040 Clouds -1 1009 92 16093 1.5 180 17:37 30.10.2019
5041 Clouds -1 1009 92 16093 1.5 180 17:37 30.10.2019
5042 Clouds -1 1009 92 16093 1.5 180 17:18 30.10.2019
5043 Clouds -1 1009 92 16093 0.94 149 16:42 30.10.2019
5044 Clouds -1 1008 86 16093 0.94 149 16:24 30.10.2019
5045 Clouds -1 1008 86 16093 1.5 30 15:59 30.10.2019
5046 Clouds -1 1008 86 16093 1.5 30 15:39 30.10.2019
5047 Clouds -1 1008 86 16093 1.5 30 15:20 30.10.2019
5048 Clouds -1 1008 86 16093 1.5 270 14:59 30.10.2019
5049 Clouds -1 1008 86 16093 1.5 270 14:40 30.10.2019
5050 Clouds -1 1008 86 16093 1.5 270 14:21 30.10.2019
5051 Clouds -1 1008 92 16093 0.94 231 13:55 30.10.2019
5052 Clouds -1 1008 92 16093 0.94 231 13:37 30.10.2019
5053 Clouds -1 1008 92 16093 0.7 69 13:18 30.10.2019
5054 Clouds -1 1008 86 16093 2.1 60 12:45 30.10.2019
5055 Clouds -1 1008 86 16093 2.1 60 12:27 30.10.2019
5056 Clouds -1 1007 86 16093 0.7 69 11:58 30.10.2019
5057 Clouds 0 1007 86 16093 0.7 69 11:40 30.10.2019
5058 Clouds 0 1007 86 16093 1.36 158 11:21 30.10.2019
5059 Clouds 0 1007 92 16093 1.5 300 10:43 30.10.2019
5060 Clouds 0 1007 92 16093 1.5 300 10:23 30.10.2019
5061 Clouds 0 1008 95 16093 1.36 158 09:42 30.10.2019
5062 Clouds 0 1008 95 16093 1.36 158 09:24 30.10.2019
5063 Clouds 0 1007 80 16093 1.5 80 08:57 30.10.2019
5064 Clouds 0 1007 80 16093 1.5 80 08:39 30.10.2019
5065 Clouds 1 1007 80 16093 1.5 80 08:20 30.10.2019
5066 Clouds 1 1007 86 16093 3.1 50 07:46 30.10.2019
5067 Clouds 1 1007 86 16093 3.1 50 07:21 30.10.2019
5068 Clouds 1 1007 92 16093 1.57 165 06:42 30.10.2019
5069 Clouds 1 1007 92 16093 1.57 165 06:42 30.10.2019
5070 Clouds 1 1007 92 16093 1.57 165 06:20 30.10.2019
5071 Clouds 0 1007 80 16093 1.57 165 05:42 30.10.2019
5072 Clouds 1 1007 86 16093 1.21 150 04:55 30.10.2019
5073 Clouds 2 1007 86 16093 1.21 150 03:43 30.10.2019
5074 Clouds 1 1007 86 16093 1.5 330 02:52 30.10.2019
5075 Clouds 2 1007 86 16093 1.5 330 02:19 30.10.2019
5076 Clouds 2 1007 86 16093 0.75 135 01:31 30.10.2019
5077 Clouds 2 1007 86 16093 0.75 135 00:31 30.10.2019
5078 Clouds 2 1008 80 16093 0.75 135 23:46 29.10.2019
5079 Clouds 1 1008 80 16093 1.21 87 23:24 29.10.2019
5080 Clouds 0 1008 100 14484 1.21 87 22:48 29.10.2019
5081 Clouds 0 1008 100 14484 1.21 87 22:20 29.10.2019
5082 Clouds -1 1008 100 14484 1.21 87 21:59 29.10.2019
5083 Clouds -1 1008 100 14484 1.21 87 21:59 29.10.2019
5084 Clouds 1 1008 100 14484 1.21 87 21:41 29.10.2019
5085 Clouds 0 1008 100 14484 1.21 87 21:20 29.10.2019
5086 Clear 0 1009 100 16093 1.21 87 20:58 29.10.2019
5087 Clear 0 1009 100 16093 1.21 87 20:40 29.10.2019
5088 Clear -2 1009 100 16093 1.03 73 20:21 29.10.2019
5089 Clouds -2 1009 92 14484 1.03 73 19:57 29.10.2019
5090 Clouds -2 1009 92 14484 1.03 73 19:38 29.10.2019
5091 Clouds -2 1009 92 14484 1.03 73 19:19 29.10.2019
5092 Clear -3 1009 100 16093 1.03 73 18:55 29.10.2019
5093 Clear -3 1009 100 16093 1.03 73 18:37 29.10.2019
5094 Clear -3 1009 100 16093 1.03 73 18:19 29.10.2019
5095 Clear -3 1009 100 12874 1.03 73 17:54 29.10.2019
5096 Clear -3 1009 100 12874 1.03 73 17:36 29.10.2019
5097 Clear -2 1009 100 12874 0.56 81 17:18 29.10.2019
5098 Clear -1 1009 92 14484 0.56 81 16:39 29.10.2019
5099 Clear -1 1009 92 14484 0.56 81 16:39 29.10.2019
5100 Clear -1 1009 92 14484 0.56 81 16:20 29.10.2019
5101 Clear -2 1009 100 14484 0.56 81 15:56 29.10.2019
5102 Clear -2 1009 100 14484 0.56 81 15:38 29.10.2019
5103 Clear -2 1009 100 14484 0.56 81 15:19 29.10.2019
5104 Clear 0 1009 100 14484 0.56 81 14:55 29.10.2019
5105 Clear -1 1009 100 14484 0.56 81 14:37 29.10.2019
5106 Clear 0 1009 100 14484 0.97 126 14:18 29.10.2019
5107 Clear -1 1009 93 14484 2.1 60 13:40 29.10.2019
5108 Clear 0 1009 93 14484 2.1 60 13:22 29.10.2019
5109 Clear -1 1009 100 14484 1.19 102 12:45 29.10.2019
5110 Clear -1 1009 100 14484 1.19 102 12:26 29.10.2019
5111 Clear -1 1009 100 14484 1.19 102 12:26 29.10.2019
5112 Clear 0 1009 93 14484 1.19 102 11:59 29.10.2019
5113 Clear 0 1009 93 14484 1.19 102 11:41 29.10.2019
5114 Clear 0 1009 94 14484 0.82 89 11:19 29.10.2019
5115 Clear 0 1009 94 14484 2.6 60 10:57 29.10.2019
5116 Clear 0 1009 94 14484 2.6 60 10:38 29.10.2019
5117 Clear 0 1009 94 14484 2.6 60 10:20 29.10.2019
5118 Clear -1 1009 92 14484 2.1 100 09:55 29.10.2019
5119 Clear 0 1009 92 14484 2.1 100 09:37 29.10.2019
5120 Clear 0 1009 92 14484 2.1 100 09:19 29.10.2019
5121 Clouds 0 1008 94 16093 0.82 89 08:43 29.10.2019
5122 Clouds 1 1008 96 16093 0.92 67 08:24 29.10.2019
5123 Clouds 1 1008 96 16093 1.07 114 07:55 29.10.2019
5124 Clouds 1 1008 96 16093 1.07 114 07:36 29.10.2019
5125 Clouds 2 1008 96 16093 1.07 114 07:18 29.10.2019
5126 Clouds 2 1008 96 16093 2.6 50 06:42 29.10.2019
5127 Clouds 2 1008 96 16093 2.6 50 06:20 29.10.2019
5128 Clouds 2 1008 96 16093 1.5 80 05:50 29.10.2019
5129 Clouds 2 1008 96 16093 1.5 80 05:50 29.10.2019
5130 Clouds 3 1008 95 16093 1.5 80 05:19 29.10.2019
5131 Clouds 3 1008 86 14484 0.62 248 03:55 29.10.2019
5132 Clear 6 1007 70 16093 0.62 248 02:32 29.10.2019
5133 Clouds 7 1007 75 12874 1.5 300 01:46 29.10.2019
5134 Clouds 7 1007 75 12874 1.5 300 01:18 29.10.2019
5135 Clear 7 1007 75 12874 3.1 310 00:31 29.10.2019
5136 Clouds 7 1007 75 14484 2.6 300 23:43 28.10.2019
5137 Clouds 7 1007 75 14484 2.6 300 23:20 28.10.2019
5138 Clouds 7 1006 75 14484 1.91 71 22:57 28.10.2019
5139 Clouds 7 1006 75 14484 1.91 71 22:37 28.10.2019
5140 Clouds 6 1006 75 14484 1.91 71 22:18 28.10.2019
5141 Clouds 7 1006 75 16093 1.5 120 21:55 28.10.2019
5142 Clouds 7 1006 75 16093 1.5 120 21:37 28.10.2019
5143 Clouds 6 1006 75 16093 1.5 120 21:18 28.10.2019
5144 Clouds 6 1006 75 16093 1.5 120 21:18 28.10.2019
5145 Clouds 5 1006 70 16093 1.91 71 20:44 28.10.2019
5146 Clouds 4 1006 70 16093 0.61 135 20:24 28.10.2019
5147 Clouds 5 1005 70 14484 3.6 70 19:58 28.10.2019
5148 Clouds 5 1005 70 14484 3.6 70 19:39 28.10.2019
5149 Clouds 5 1005 70 14484 3.6 70 19:20 28.10.2019
5150 Clouds 5 1005 70 14484 3.6 70 19:20 28.10.2019
5151 Clouds 5 1006 70 16093 4.1 70 18:58 28.10.2019
5152 Clouds 6 1006 70 16093 4.1 70 18:39 28.10.2019
5153 Clouds 6 1006 70 16093 4.1 70 18:21 28.10.2019
5154 Clouds 4 1007 75 16093 3.1 70 17:56 28.10.2019
5155 Clouds 4 1007 75 16093 3.1 70 17:38 28.10.2019
5156 Clouds 4 1007 75 16093 3.1 70 17:19 28.10.2019
5157 Clouds 4 1008 75 16093 2.1 60 16:57 28.10.2019
5158 Clouds 3 1008 75 16093 2.1 60 16:39 28.10.2019
5159 Clouds 3 1008 75 16093 2.1 60 16:20 28.10.2019
5160 Clouds 4 1010 75 16093 2.1 60 15:56 28.10.2019
5161 Clouds 3 1010 75 16093 2.1 60 15:38 28.10.2019
5162 Clouds 3 1010 75 16093 2.1 60 15:19 28.10.2019
5163 Clouds 3 1011 80 16093 1.5 280 14:56 28.10.2019
5164 Clouds 3 1011 80 16093 1.5 280 14:37 28.10.2019
5165 Clouds 3 1011 80 16093 1.5 280 14:18 28.10.2019
5166 Clouds 3 1012 75 16093 1.47 90 13:54 28.10.2019
5167 Clouds 3 1012 75 16093 1.47 90 13:36 28.10.2019
5168 Clouds 3 1012 75 16093 0.97 94 13:18 28.10.2019
5169 Clouds 3 1013 75 16093 2.6 100 12:41 28.10.2019
5170 Clouds 3 1013 75 16093 2.6 100 12:41 28.10.2019
5171 Clouds 3 1013 75 16093 2.6 100 12:20 28.10.2019
5172 Clouds 3 1013 86 16093 0.97 94 11:40 28.10.2019
5173 Clouds 3 1013 86 16093 0.8 234 11:21 28.10.2019
5174 Clouds 3 1012 80 16093 1.5 80 10:57 28.10.2019
5175 Clouds 3 1012 80 16093 1.5 80 10:38 28.10.2019
5176 Clouds 3 1012 80 16093 1.5 80 10:20 28.10.2019
5177 Clouds 3 1012 80 16093 3.1 110 09:55 28.10.2019
5178 Clouds 3 1012 80 16093 3.1 110 09:55 28.10.2019
5179 Clouds 3 1012 80 16093 3.1 110 09:36 28.10.2019
5180 Clouds 3 1012 80 16093 3.1 110 09:18 28.10.2019
5181 Clouds 3 1012 75 16093 2.1 300 08:56 28.10.2019
5182 Clouds 3 1012 75 16093 2.1 300 08:37 28.10.2019
5183 Clouds 3 1012 80 16093 1.6 128 08:18 28.10.2019
5184 Clouds 5 1011 61 16093 2.1 60 07:47 28.10.2019
5185 Clouds 6 1011 61 16093 2.1 60 07:23 28.10.2019
5186 Clouds 6 1010 65 16093 3.1 70 06:59 28.10.2019
5187 Clouds 6 1010 65 16093 3.1 70 06:39 28.10.2019
5188 Clouds 6 1011 61 16093 4.1 50 05:19 28.10.2019
5189 Rain 6 1013 65 14484 3.6 60 03:44 28.10.2019
5190 Clouds 6 1014 65 12874 4.6 60 02:46 28.10.2019
5191 Clouds 5 1015 75 16093 4.1 70 01:52 28.10.2019
5192 Clouds 5 1015 75 16093 4.1 70 01:52 28.10.2019
5193 Clear 6 1016 75 16093 5.1 70 00:47 28.10.2019
5194 Clear 6 1016 75 16093 5.1 70 00:25 28.10.2019
5195 Clear 6 1018 81 14484 4.1 70 23:44 27.10.2019
5196 Clear 5 1018 81 14484 4.1 70 23:22 27.10.2019
5197 Clouds 4 1019 86 14484 4.1 70 22:57 27.10.2019
5198 Clouds 4 1019 86 14484 4.1 70 22:37 27.10.2019
5199 Clouds 4 1019 86 14484 4.1 70 22:19 27.10.2019
5200 Clouds 4 1020 93 14484 3.6 60 21:56 27.10.2019
5201 Rain 4 1020 93 14484 3.6 60 21:38 27.10.2019
5202 Rain 3 1020 93 14484 3.6 60 21:20 27.10.2019
5203 Rain 3 1020 93 8047 4.1 80 20:41 27.10.2019
5204 Rain 3 1020 93 4828 3.6 50 20:23 27.10.2019
5205 Rain 2 1021 93 12874 3.1 60 19:58 27.10.2019
5206 Rain 2 1021 93 12874 3.1 60 19:39 27.10.2019
5207 Rain 2 1021 93 8047 2.6 60 19:20 27.10.2019
5208 Rain 2 1021 93 8047 2.6 60 18:57 27.10.2019
5209 Rain 2 1021 93 8047 2.6 60 18:39 27.10.2019
5210 Rain 2 1021 93 4426 3.6 60 18:20 27.10.2019
5211 Rain 2 1022 93 6437 1.5 70 17:55 27.10.2019
5212 Rain 2 1022 93 6437 1.5 70 17:37 27.10.2019
5213 Rain 2 1022 93 9656 3.1 70 17:19 27.10.2019
5214 Clouds 2 1022 93 14484 3.1 70 16:55 27.10.2019
5215 Clouds 2 1022 93 14484 3.1 70 16:37 27.10.2019
5216 Rain 2 1022 93 16093 1.5 30 16:19 27.10.2019
5217 Rain 2 1022 93 11265 3.6 50 15:55 27.10.2019
5218 Rain 2 1022 93 11265 3.6 50 15:37 27.10.2019
5219 Rain 2 1022 100 11265 3.1 70 15:18 27.10.2019
5220 Rain 2 1023 93 6437 3.6 70 14:41 27.10.2019
5221 Rain 2 1023 93 4023 4.1 60 14:20 27.10.2019
5222 Rain 2 1023 93 3219 5.7 60 13:56 27.10.2019
5223 Rain 2 1023 93 4023 5.1 60 13:37 27.10.2019
5224 Rain 2 1023 93 4023 5.1 60 13:19 27.10.2019
5225 Mist 2 1024 93 3621 4.6 60 12:43 27.10.2019
5226 Mist 2 1024 93 1408 4.6 70 12:24 27.10.2019
5227 Rain 2 1024 100 1408 4.1 60 11:56 27.10.2019
5228 Rain 2 1024 100 2213 4.6 60 11:38 27.10.2019
5229 Rain 2 1024 100 2213 4.6 60 11:19 27.10.2019
5230 Mist 2 1024 93 2414 5.1 60 10:43 27.10.2019
5231 Mist 2 1024 93 2414 4.6 70 10:24 27.10.2019
5232 Mist 2 1024 93 4426 4.1 60 09:45 27.10.2019
5233 Mist 1 1025 81 9656 3.6 90 09:20 27.10.2019
5234 Clouds 1 1025 81 16093 4.1 70 08:59 27.10.2019
5235 Clouds 1 1025 76 16093 4.1 70 08:41 27.10.2019
5236 Clouds 1 1025 79 16093 4.1 70 08:20 27.10.2019
5237 Clouds 1 1025 79 16093 4.1 60 07:50 27.10.2019
5238 Clouds 1 1025 79 16093 4.1 60 07:29 27.10.2019
5239 Clear 1 1026 79 16093 3.1 60 06:56 27.10.2019
5240 Clear 1 1026 79 16093 3.1 60 06:38 27.10.2019
5241 Clear 1 1026 79 16093 3.1 60 06:38 27.10.2019
5242 Clear 1 1026 79 16093 3.1 60 06:20 27.10.2019
5243 Clear 1 1027 79 16093 3.6 60 05:38 27.10.2019
5244 Clouds 1 1027 84 16093 2.6 60 04:47 27.10.2019
5245 Clouds 0 1028 80 16093 3.6 70 02:48 27.10.2019
5246 Clouds 1 1028 80 16093 3.6 70 02:18 27.10.2019
5247 Clouds 0 1030 71 16093 2.1 50 01:49 27.10.2019
5248 Clouds 0 1030 71 16093 2.1 50 01:21 27.10.2019
5249 Clear 0 1031 86 16093 1.57 47 00:46 27.10.2019
5250 Clear 0 1031 86 16093 1.57 47 00:27 27.10.2019
5251 Clouds 0 1031 80 16093 1.5 80 23:56 26.10.2019
5252 Clouds -1 1031 80 16093 1.5 80 23:38 26.10.2019
5253 Clouds -1 1031 80 16093 1.5 80 23:20 26.10.2019
5254 Clouds -1 1031 86 16093 1.03 53 22:55 26.10.2019
5255 Clouds -1 1031 86 16093 1.03 53 22:36 26.10.2019
5256 Clouds -1 1031 86 16093 1.03 53 22:18 26.10.2019
5257 Clouds -2 1031 86 16093 1.03 53 21:42 26.10.2019
5258 Clouds -2 1031 92 16093 1.39 39 21:21 26.10.2019
5259 Clouds -3 1031 85 16093 1.39 39 20:55 26.10.2019
5260 Clouds -3 1031 85 16093 1.39 39 20:36 26.10.2019
5261 Clouds -3 1031 85 16093 1.39 39 20:36 26.10.2019
5262 Clouds -3 1031 86 16093 1.5 50 20:18 26.10.2019
5263 Clouds -3 1031 86 16093 2.6 70 19:41 26.10.2019
5264 Clouds -3 1031 86 16093 2.6 70 19:20 26.10.2019
5265 Clear -3 1031 86 16093 2.6 60 18:57 26.10.2019
5266 Clear -3 1031 86 16093 2.6 60 18:38 26.10.2019
5267 Clear -3 1031 86 16093 2.6 60 18:19 26.10.2019
5268 Clouds -3 1031 92 16093 1.32 50 17:56 26.10.2019
5269 Clouds -3 1031 92 16093 1.32 50 17:37 26.10.2019
5270 Clouds -3 1031 86 16093 2.1 60 17:19 26.10.2019
5271 Clouds -3 1031 86 16093 2.6 60 16:43 26.10.2019
5272 Clouds -3 1031 86 16093 2.6 60 16:24 26.10.2019
5273 Clear -4 1031 86 16093 2.1 60 15:44 26.10.2019
5274 Clear -4 1031 86 16093 2.1 60 15:22 26.10.2019
5275 Clear -4 1031 86 16093 3.1 60 14:59 26.10.2019
5276 Clear -4 1031 86 16093 3.1 60 14:37 26.10.2019
5277 Clear -4 1031 92 16093 2.1 70 14:19 26.10.2019
5278 Clear -4 1031 92 16093 2.1 70 13:42 26.10.2019
5279 Clouds -4 1032 86 0 1.2 43 13:23 26.10.2019
5280 Clouds -4 1029 86 0 1.2 43 12:50 26.10.2019
5281 Clouds -4 1032 92 16093 3.1 60 12:29 26.10.2019
5282 Clouds -4 1032 92 16093 3.1 60 11:58 26.10.2019
5283 Clouds -4 1032 92 16093 3.1 60 11:40 26.10.2019
5284 Clouds -4 1032 92 16093 3.1 60 11:22 26.10.2019
5285 Clouds -4 1031 86 16093 3.6 70 10:46 26.10.2019
5286 Clouds -4 1031 86 16093 3.6 70 10:25 26.10.2019
5287 Clouds -4 1032 92 16093 1.5 50 09:49 26.10.2019
5288 Clouds -4 1032 92 16093 1.5 50 09:30 26.10.2019
5289 Clouds -4 1031 86 16093 1.5 60 08:50 26.10.2019
5290 Clouds -3 1031 86 16093 1.5 60 08:28 26.10.2019
5291 Clouds -3 1031 86 16093 1.19 144 07:57 26.10.2019
5292 Clouds -3 1031 86 16093 1.19 144 07:39 26.10.2019
5293 Clouds -3 1031 86 16093 1.19 144 07:19 26.10.2019
5294 Clouds -3 1030 85 16093 2.6 160 06:39 26.10.2019
5295 Clouds -3 1029 79 16093 2.1 220 05:24 26.10.2019
5296 Clouds -2 1029 74 16093 5.7 250 04:59 26.10.2019
5297 Clouds -2 1027 80 16093 2.6 210 03:31 26.10.2019
5298 Rain -2 1026 74 16093 3.1 250 02:29 26.10.2019
5299 Clouds -2 1025 74 16093 4.1 250 01:46 26.10.2019
5300 Clouds -1 1024 68 16093 4.6 260 00:51 26.10.2019
5301 Clouds -2 1023 74 16093 3.6 270 23:48 25.10.2019
5302 Clouds -2 1023 74 16093 3.6 270 23:22 25.10.2019
5303 Rain -2 1023 80 16093 4.1 250 22:58 25.10.2019
5304 Rain -2 1023 80 16093 4.1 250 22:58 25.10.2019
5305 Rain -3 1023 80 16093 4.1 250 22:39 25.10.2019
5306 Snow -2 1022 74 11265 4.1 250 22:21 25.10.2019
5307 Rain -2 1021 86 14484 5.1 230 21:55 25.10.2019
5308 Rain -2 1021 86 14484 5.1 230 21:37 25.10.2019
5309 Rain -2 1020 92 16093 5.1 220 21:19 25.10.2019
5310 Rain -2 1019 100 6437 3.1 210 20:43 25.10.2019
5311 Rain -2 1019 100 6437 3.1 210 20:19 25.10.2019
5312 Rain -3 1018 100 3219 3.6 220 19:47 25.10.2019
5313 Snow -2 1017 92 16093 4.1 220 19:27 25.10.2019
5314 Rain -3 1016 100 4828 3.6 220 18:56 25.10.2019
5315 Rain -3 1016 100 4828 3.6 220 18:37 25.10.2019
5316 Rain -3 1016 100 12874 3.1 210 18:19 25.10.2019
5317 Rain -3 1015 100 3219 2.17 216 17:39 25.10.2019
5318 Rain -3 1015 100 3219 2.17 216 17:20 25.10.2019
5319 Snow -3 1014 92 3219 2.17 216 16:46 25.10.2019
5320 Snow -3 1013 92 11265 2.17 216 16:23 25.10.2019
5321 Rain -3 1012 92 16093 2.17 216 15:57 25.10.2019
5322 Rain -3 1012 92 16093 2.17 216 15:38 25.10.2019
5323 Rain -3 1012 92 8047 1.63 204 15:20 25.10.2019
5324 Rain -4 1011 92 4828 1.63 204 14:42 25.10.2019
5325 Rain -3 1010 92 6437 1.22 206 14:23 25.10.2019
5326 Rain -4 1009 100 6437 1.22 206 13:59 25.10.2019
5327 Rain -4 1009 100 6437 1.22 206 13:39 25.10.2019
5328 Rain -4 1008 92 2816 1.22 206 13:21 25.10.2019
5329 Snow -4 1008 100 12874 1.22 206 12:43 25.10.2019
5330 Rain -4 1007 79 4828 0.95 233 12:22 25.10.2019
5331 Rain -4 1006 79 6437 0.95 233 11:59 25.10.2019
5332 Rain -4 1005 92 16093 0.95 233 11:38 25.10.2019
5333 Rain -4 1005 92 16093 0.95 233 11:19 25.10.2019
5334 Snow -4 1005 92 3621 0.95 233 10:41 25.10.2019
5335 Clouds -4 1004 92 14484 0.95 233 10:23 25.10.2019
5336 Clouds -4 1003 92 16093 0.95 233 09:58 25.10.2019
5337 Clouds -4 1003 92 16093 0.65 208 09:38 25.10.2019
5338 Clouds -4 1003 92 16093 0.84 229 09:20 25.10.2019
5339 Clouds -4 1002 92 16093 1.5 170 08:51 25.10.2019
5340 Clouds -4 1002 92 16093 1.5 170 08:33 25.10.2019
5341 Clouds -3 1000 86 16093 2.1 220 07:57 25.10.2019
5342 Clouds -3 1000 86 16093 2.1 220 07:35 25.10.2019
5343 Clouds -2 999 86 16093 2.6 190 06:42 25.10.2019
5344 Clouds -1 998 88 16093 2.6 210 05:59 25.10.2019
5345 Clouds -1 998 88 16093 2.6 210 05:37 25.10.2019
5346 Clouds 0 997 74 16093 1.5 210 04:54 25.10.2019
5347 Clouds 2 997 64 16093 0.61 304 03:45 25.10.2019
5348 Clouds 3 996 69 14484 0.78 298 01:54 25.10.2019
5349 Clouds 3 996 69 14484 0.78 298 01:35 25.10.2019
5350 Clear 1 996 80 14484 0.55 357 00:22 25.10.2019
5351 Mist 0 995 86 6437 0.55 357 23:41 24.10.2019
5352 Mist 0 995 86 6437 0.55 357 23:23 24.10.2019
5353 Clouds 0 994 80 16093 0.55 357 22:56 24.10.2019
5354 Clouds 0 994 80 16093 0.55 357 22:37 24.10.2019
5355 Mist -1 995 86 8047 0.55 357 22:18 24.10.2019
5356 Clouds -2 994 86 12874 0.55 357 21:56 24.10.2019
5357 Clouds -2 994 86 12874 0.55 357 21:56 24.10.2019
5358 Clouds -2 994 86 12874 0.76 350 21:38 24.10.2019
5359 Clouds -2 994 86 12874 1.24 36 21:19 24.10.2019
5360 Clouds -2 994 86 12874 1.24 36 21:19 24.10.2019
5361 Mist -2 993 92 8047 1.24 36 20:56 24.10.2019
5362 Mist -2 993 92 8047 1.24 36 20:38 24.10.2019
5363 Mist -2 993 92 8047 1.24 36 20:20 24.10.2019
5364 Clouds -2 993 86 16093 1.24 36 19:54 24.10.2019
5365 Clouds -2 993 86 16093 1.24 36 19:36 24.10.2019
5366 Clouds -2 993 86 16093 1.24 36 19:18 24.10.2019
5367 Clouds -2 993 92 16093 1.24 36 18:40 24.10.2019
5368 Clouds -3 993 92 16093 2.21 30 18:22 24.10.2019
5369 Clouds -3 992 92 14484 1.5 50 17:59 24.10.2019
5370 Clouds -3 992 92 14484 1.5 50 17:39 24.10.2019
5371 Clouds -4 992 92 14484 1.5 50 17:20 24.10.2019
5372 Clouds -4 992 92 14484 1.5 50 17:20 24.10.2019
5373 Clouds -4 992 92 12874 2.21 30 16:55 24.10.2019
5374 Clouds -4 992 92 12874 2.21 30 16:37 24.10.2019
5375 Clouds -4 992 92 12874 2.21 30 16:18 24.10.2019
5376 Clouds -4 992 92 14484 2.21 30 15:55 24.10.2019
5377 Clouds -4 992 92 14484 2.21 30 15:37 24.10.2019
5378 Clouds -4 992 92 14484 2.33 31 15:18 24.10.2019
5379 Clouds -4 991 92 16093 2.05 32 14:44 24.10.2019
5380 Clouds -4 991 92 16093 2.33 31 14:44 24.10.2019
5381 Clouds -4 991 92 16093 2.05 32 14:26 24.10.2019
5382 Clouds -4 991 100 14484 2.05 32 13:59 24.10.2019
5383 Clouds -3 991 100 14484 2.05 32 13:38 24.10.2019
5384 Clouds -3 991 100 14484 2.05 32 13:19 24.10.2019
5385 Clouds -3 991 100 14484 2.05 32 13:19 24.10.2019
5386 Clouds -3 991 92 14484 2.05 32 12:56 24.10.2019
5387 Clouds -3 991 92 14484 2.05 32 12:38 24.10.2019
5388 Clouds -2 991 92 14484 1.85 60 12:18 24.10.2019
5389 Clouds -2 990 92 16093 1.85 60 11:55 24.10.2019
5390 Clouds -3 990 92 16093 1.85 60 11:36 24.10.2019
5391 Clouds -3 990 92 16093 1.85 60 11:36 24.10.2019
5392 Clouds -2 990 92 16093 1.85 60 11:18 24.10.2019
5393 Clouds -2 990 86 16093 1.5 260 10:42 24.10.2019
5394 Clouds -2 990 86 16093 1.5 260 10:23 24.10.2019
5395 Clouds -3 989 86 16093 1.5 70 09:41 24.10.2019
5396 Clouds -2 989 86 16093 1.5 70 09:19 24.10.2019
5397 Clear -2 989 86 16093 2.6 60 09:00 24.10.2019
5398 Clear -1 989 86 16093 2.6 60 08:41 24.10.2019
5399 Clear -2 989 86 16093 2.6 60 08:20 24.10.2019
5400 Clear -2 988 86 16093 3.1 60 07:48 24.10.2019
5401 Clear -2 988 86 16093 3.1 60 07:23 24.10.2019
5402 Clear -2 988 86 16093 3.1 60 07:23 24.10.2019
5403 Clouds -1 988 74 16093 3.1 70 06:56 24.10.2019
5404 Clouds -1 988 74 16093 3.1 70 06:36 24.10.2019
5405 Clouds 1 988 69 16093 1.5 90 05:55 24.10.2019
5406 Clouds 1 988 64 16093 3.1 70 05:31 24.10.2019
5407 Clouds 2 987 55 16093 3.6 80 04:23 24.10.2019
5408 Clouds 3 988 55 16093 3.6 70 03:35 24.10.2019
5409 Clouds 3 988 60 16093 3.6 70 02:39 24.10.2019
5410 Clouds 3 988 60 16093 3.6 70 02:19 24.10.2019
5411 Clouds 3 989 60 16093 4.6 70 01:31 24.10.2019
5412 Clouds 4 990 48 16093 5.7 70 00:56 24.10.2019
5413 Clouds 4 990 48 16093 5.7 70 00:27 24.10.2019
5414 Clouds 4 991 48 11265 6.2 60 23:57 23.10.2019
5415 Clouds 4 991 48 11265 6.2 60 23:38 23.10.2019
5416 Clouds 4 991 48 11265 6.2 60 23:18 23.10.2019
5417 Clouds 4 1013 48 11265 5.1 70 22:54 23.10.2019
5418 Clouds 4 1013 48 11265 5.1 70 22:54 23.10.2019
5419 Clouds 4 1013 48 11265 5.1 70 22:36 23.10.2019
5420 Clouds 4 1013 48 11265 5.1 70 22:18 23.10.2019
5421 Clouds 3 993 59 11265 1 40 21:55 23.10.2019
5422 Clouds 3 993 59 11265 1 40 21:36 23.10.2019
5423 Clouds 2 993 59 11265 1 40 21:18 23.10.2019
5424 Clouds 1 995 59 11265 1.5 90 20:54 23.10.2019
5425 Clouds 1 995 59 11265 1.5 90 20:54 23.10.2019
5426 Clouds 1 995 59 11265 1.5 90 20:36 23.10.2019
5427 Clouds 1 995 59 11265 1.5 90 20:18 23.10.2019
5428 Clouds 1 996 70 11265 1 0 19:42 23.10.2019
5429 Clouds 0 996 70 11265 1 0 19:19 23.10.2019
5430 Clouds -1 997 68 11265 1 40 18:57 23.10.2019
5431 Clouds -1 997 68 11265 1 40 18:38 23.10.2019
5432 Clouds -1 997 68 11265 1 40 18:19 23.10.2019
5433 Clouds -2 1001 74 16093 3.6 20 17:46 23.10.2019
5434 Clouds -2 1001 74 16093 3.6 20 17:21 23.10.2019
5435 Clouds -3 1002 79 16093 3.1 50 16:59 23.10.2019
5436 Clouds -2 1002 79 16093 3.1 50 16:40 23.10.2019
5437 Clouds -2 1002 79 16093 3.1 50 16:40 23.10.2019
5438 Clouds -3 1002 79 16093 3.1 50 16:20 23.10.2019
5439 Clouds -3 1002 79 16093 3.1 50 16:20 23.10.2019
5440 Clouds -4 1004 79 16093 3.21 38 15:56 23.10.2019
5441 Clouds -4 1004 79 16093 3.21 38 15:37 23.10.2019
5442 Clouds -5 1004 79 16093 2.68 38 15:18 23.10.2019
5443 Clouds -6 1005 79 16093 1.5 70 14:55 23.10.2019
5444 Clouds -6 1005 79 16093 1.5 70 14:37 23.10.2019
5445 Clouds -5 1005 79 16093 1.5 70 14:18 23.10.2019
5446 Clouds -5 1005 79 16093 1.5 70 14:18 23.10.2019
5447 Clouds -6 1007 85 16093 2.62 38 13:42 23.10.2019
5448 Clouds -6 1007 85 16093 2.62 38 13:24 23.10.2019
5449 Clear -6 1009 85 16093 1.5 70 12:57 23.10.2019
5450 Clear -7 1009 85 16093 1.5 70 12:38 23.10.2019
5451 Clear -7 1009 85 16093 1.5 70 12:19 23.10.2019
5452 Clear -7 1010 92 16093 1.5 30 11:57 23.10.2019
5453 Clear -7 1010 92 16093 1.5 30 11:39 23.10.2019
5454 Clear -7 1010 92 16093 1.5 30 11:20 23.10.2019
5455 Clear -6 1011 85 16093 1.5 40 10:46 23.10.2019
5456 Clear -5 1011 85 16093 1.5 40 10:26 23.10.2019
5457 Clear -5 1011 85 16093 1.5 40 10:26 23.10.2019
5458 Clouds -6 1011 85 11265 1.5 60 09:58 23.10.2019
5459 Clouds -5 1011 85 11265 1.5 60 09:39 23.10.2019
5460 Clouds -6 1011 85 11265 1.5 60 09:20 23.10.2019
5461 Clouds -5 1012 85 11265 2.6 320 08:43 23.10.2019
5462 Clouds -5 1012 85 11265 2.6 320 08:25 23.10.2019
5463 Clouds -4 1013 85 11265 1 330 07:47 23.10.2019
5464 Clouds -4 1013 85 11265 1 330 07:26 23.10.2019
5465 Clouds -3 1013 86 11265 1.76 47 06:48 23.10.2019
5466 Clouds -3 1013 86 11265 0.81 59 06:23 23.10.2019
5467 Clouds -3 1013 79 11265 0.81 59 05:55 23.10.2019
5468 Clouds -3 1013 79 11265 0.81 59 05:18 23.10.2019
5469 Clouds 0 1014 60 11265 0.81 59 03:37 23.10.2019
5470 Clouds 0 1014 64 11265 1 140 02:42 23.10.2019
5471 Clouds 0 1014 64 11265 1 0 01:35 23.10.2019
5472 Clouds 0 1014 74 16093 2.1 20 00:59 23.10.2019
5473 Clouds 0 1014 74 16093 2.1 20 00:33 23.10.2019
5474 Clouds -1 1014 68 16093 0.75 151 23:43 22.10.2019
5475 Clouds -2 1014 68 16093 0.75 151 23:19 22.10.2019
5476 Clouds -2 1013 79 16093 0.75 151 22:59 22.10.2019
5477 Clouds -2 1013 79 16093 0.75 151 22:59 22.10.2019
5478 Clouds -2 1013 79 16093 0.75 151 22:40 22.10.2019
5479 Clouds -2 1013 74 16093 0.75 151 22:21 22.10.2019
5480 Snow -3 1012 86 11265 0.5 80 21:57 22.10.2019
5481 Snow -3 1012 86 11265 0.5 80 21:38 22.10.2019
5482 Clouds -3 1013 74 16093 0.96 174 21:19 22.10.2019
5483 Clouds -3 1012 74 16093 0.96 174 20:58 22.10.2019
5484 Clouds -3 1012 74 16093 0.96 174 20:58 22.10.2019
5485 Clouds -3 1012 74 16093 0.96 174 20:40 22.10.2019
5486 Clouds -3 1012 74 16093 0.96 174 20:21 22.10.2019
5487 Clouds -3 1012 74 11265 1 0 19:55 22.10.2019
5488 Clouds -3 1012 74 11265 1 0 19:37 22.10.2019
5489 Clouds -3 1012 74 11265 1 0 19:19 22.10.2019
5490 Clouds -3 1011 85 16093 0.96 174 18:54 22.10.2019
5491 Clouds -3 1011 74 16093 2.1 60 18:36 22.10.2019
5492 Clouds -3 1011 74 16093 2.1 60 18:18 22.10.2019
5493 Clouds -3 1011 74 11265 0.5 70 17:39 22.10.2019
5494 Clouds -3 1011 74 11265 0.5 70 17:20 22.10.2019
5495 Snow -3 1009 79 14484 1.02 167 16:59 22.10.2019
5496 Snow -3 1009 79 14484 1.02 167 16:39 22.10.2019
5497 Snow -3 1009 79 14484 1.02 167 16:39 22.10.2019
5498 Snow -3 1009 79 14484 1.02 167 16:20 22.10.2019
5499 Snow -3 1009 79 14484 1.02 167 16:20 22.10.2019
5500 Snow -3 1009 86 14484 1.02 167 15:58 22.10.2019
5501 Snow -3 1009 86 14484 1.02 167 15:40 22.10.2019
5502 Snow -3 1009 86 14484 1.02 160 15:19 22.10.2019
5503 Snow -4 1008 85 14484 1.02 160 14:46 22.10.2019
5504 Snow -4 1008 85 14484 1.02 162 14:21 22.10.2019
5505 Snow -4 1008 79 14484 1.02 162 13:54 22.10.2019
5506 Snow -4 1008 79 14484 1.02 162 13:36 22.10.2019
5507 Snow -4 1008 79 14484 1.02 162 13:18 22.10.2019
5508 Snow -4 1007 79 14484 1.02 162 12:41 22.10.2019
5509 Snow -3 1007 79 14484 0.91 155 12:21 22.10.2019
5510 Snow -3 1007 79 14484 0.91 155 11:59 22.10.2019
5511 Snow -3 1007 79 14484 0.91 155 11:39 22.10.2019
5512 Snow -3 1007 79 14484 0.91 155 11:39 22.10.2019
5513 Snow -3 1007 79 14484 0.91 155 11:20 22.10.2019
5514 Snow -3 1006 79 14484 0.91 155 10:58 22.10.2019
5515 Snow -3 1006 79 14484 0.91 155 10:37 22.10.2019
5516 Snow -3 1006 79 14484 0.91 155 10:18 22.10.2019
5517 Clouds -3 1005 86 11265 1 140 09:55 22.10.2019
5518 Clouds -3 1005 86 11265 1 140 09:36 22.10.2019
5519 Clouds -3 1005 86 11265 1 140 09:18 22.10.2019
5520 Clouds -3 1005 86 11265 1 140 08:42 22.10.2019
5521 Clouds -3 1005 86 11265 1 140 08:21 22.10.2019
5522 Clouds -3 1005 79 11265 1 210 07:48 22.10.2019
5523 Clouds -3 1005 79 11265 1 210 07:27 22.10.2019
5524 Clouds -2 1004 80 11265 0.5 200 06:51 22.10.2019
5525 Clouds -2 1004 80 11265 0.5 200 06:31 22.10.2019
5526 Clouds -1 1004 86 11265 0.53 174 05:58 22.10.2019
5527 Clouds -1 1004 86 11265 0.53 174 05:24 22.10.2019
5528 Clouds 1 1005 69 16093 0.6 206 02:48 22.10.2019
5529 Clouds 1 1005 69 16093 0.87 195 02:28 22.10.2019
5530 Clouds 1 1005 74 16093 0.87 195 01:29 22.10.2019
5531 Clouds 1 1004 69 11265 2.1 0 00:58 22.10.2019
5532 Clouds 0 1004 69 11265 2.1 0 00:40 22.10.2019
5533 Clouds 0 1004 69 11265 2.1 0 00:21 22.10.2019
5534 Clouds 0 1005 64 11265 1 210 23:55 21.10.2019
5535 Clouds 0 1005 64 11265 1 210 23:37 21.10.2019
5536 Clouds 0 1005 64 11265 1 210 23:18 21.10.2019
5537 Clouds -1 1006 80 11265 1 240 22:56 21.10.2019
5538 Clouds -1 1006 80 11265 1 240 22:37 21.10.2019
5539 Clouds -1 1006 80 11265 1 240 22:19 21.10.2019
5540 Clouds -2 1005 92 11265 1 90 21:54 21.10.2019
5541 Clouds -2 1005 92 11265 1 90 21:36 21.10.2019
5542 Clouds -3 1005 92 11265 1 90 21:18 21.10.2019
5543 Clouds -5 1005 79 11265 1 0 20:41 21.10.2019
5544 Clouds -5 1005 79 11265 1 0 20:21 21.10.2019
5545 Clouds -5 1005 85 11265 1 110 19:59 21.10.2019
5546 Clouds -5 1005 85 11265 1 110 19:41 21.10.2019
5547 Clouds -5 1005 85 11265 1 110 19:22 21.10.2019
5548 Clouds -5 1005 85 11265 1 0 18:57 21.10.2019
5549 Clouds -5 1005 85 11265 1 0 18:38 21.10.2019
5550 Clouds -5 1005 85 11265 1 0 18:19 21.10.2019
5551 Clouds -4 1005 85 11265 0.5 110 17:57 21.10.2019
5552 Clouds -4 1005 85 11265 0.5 110 17:38 21.10.2019
5553 Clouds -3 1005 85 11265 0.5 110 17:19 21.10.2019
5554 Clouds -4 1004 92 16093 0.94 47 16:57 21.10.2019
5555 Clouds -4 1004 92 16093 0.94 47 16:38 21.10.2019
5556 Clouds -4 1004 92 16093 0.94 47 16:20 21.10.2019
5557 Clouds -3 1004 85 16093 0.94 47 15:47 21.10.2019
5558 Clouds -4 1004 85 16093 0.94 47 15:25 21.10.2019
5559 Clouds -3 1004 85 16093 1.5 20 14:58 21.10.2019
5560 Clouds -3 1004 85 16093 1.5 20 14:39 21.10.2019
5561 Clouds -4 1004 85 16093 1.5 20 14:21 21.10.2019
5562 Clouds -4 1004 85 16093 1.24 40 13:57 21.10.2019
5563 Clouds -4 1004 85 16093 1.24 40 13:39 21.10.2019
5564 Clouds -3 1004 85 16093 1.24 40 13:19 21.10.2019
5565 Clouds -4 1004 85 16093 1.24 40 12:42 21.10.2019
5566 Clouds -3 1005 79 16093 1.29 3.723 12:23 21.10.2019
5567 Clouds -3 1005 79 16093 1.29 3.723 11:58 21.10.2019
5568 Clouds -3 1005 79 16093 1.29 3.723 11:39 21.10.2019
5569 Clouds -3 1005 79 16093 1.29 3.723 11:20 21.10.2019
5570 Clouds -3 1005 85 16093 1.29 3.723 10:57 21.10.2019
5571 Clouds -3 1005 85 16093 1.29 3.723 10:38 21.10.2019
5572 Clouds -3 1005 85 16093 1.29 3.723 10:19 21.10.2019
5573 Clouds -2 1005 79 16093 1.29 3.723 09:48 21.10.2019
5574 Clouds -2 1005 79 16093 1.29 3.723 09:26 21.10.2019
5575 Clouds -2 1005 79 16093 1.11 347.443 08:58 21.10.2019
5576 Clouds -2 1005 79 16093 1.11 347.443 08:40 21.10.2019
5577 Clouds -2 1005 79 16093 1.11 347.443 08:22 21.10.2019
5578 Clouds -1 1005 79 16093 1.5 10 07:44 21.10.2019
5579 Clouds -1 1005 79 16093 1.5 10 07:21 21.10.2019
5580 Clouds 0 1005 92 16093 1.11 347.443 06:57 21.10.2019
5581 Clouds 0 1005 92 16093 1.11 347.443 06:39 21.10.2019
5582 Clouds 1 1005 69 16093 1.32 358.613 05:57 21.10.2019
5583 Clouds 1 1005 69 16093 1.32 358.613 05:57 21.10.2019
5584 Clouds 1 1005 64 16093 1.5 20 04:50 21.10.2019
5585 Clouds 3 1005 55 16093 1.5 100 03:38 21.10.2019
5586 Clouds 2 1006 55 16093 0.94 343.189 02:37 21.10.2019
5587 Clouds 2 1006 55 16093 0.94 343.189 02:19 21.10.2019
5588 Clouds 3 1006 55 16093 1.5 110 01:38 21.10.2019
5589 Clouds 2 1006 59 16093 2.1 40 00:51 21.10.2019
5590 Clouds 2 1006 59 16093 2.1 40 00:27 21.10.2019
5591 Clouds 1 1006 64 16093 1.5 70 23:43 20.10.2019
5592 Clouds 0 1006 64 16093 1.5 70 23:22 20.10.2019
5593 Clouds 0 1006 89 16093 0.7 43.833 22:58 20.10.2019
5594 Clouds 0 1006 89 16093 0.7 43.833 22:39 20.10.2019
5595 Clouds 0 1006 89 16093 0.7 43.833 22:19 20.10.2019
5596 Clouds 0 1006 89 16093 0.7 43.833 21:59 20.10.2019
5597 Clouds -1 1006 89 16093 0.7 43.833 21:39 20.10.2019
5598 Clouds -1 1006 94 16093 0.5 346.608 21:21 20.10.2019
5599 Clouds -1 1006 80 16093 0.96 340.738 20:54 20.10.2019
5600 Clouds -1 1006 80 16093 0.96 340.738 20:36 20.10.2019
5601 Clouds -2 1006 80 16093 0.96 340.738 20:18 20.10.2019
5602 Clouds -2 1006 80 16093 2.1 30 19:55 20.10.2019
5603 Clouds -2 1006 80 16093 2.1 30 19:36 20.10.2019
5604 Clouds -2 1006 80 16093 2.1 30 19:18 20.10.2019
5605 Clouds -2 1005 92 16093 0.96 340.738 18:40 20.10.2019
5606 Clouds -2 1006 80 16093 2.1 20 18:20 20.10.2019
5607 Clouds -2 1005 86 16093 0.9 356.637 17:56 20.10.2019
5608 Clouds -2 1005 86 16093 0.9 356.637 17:37 20.10.2019
5609 Clouds -2 1005 86 16093 0.9 356.637 17:19 20.10.2019
5610 Clouds -2 1005 86 16093 0.9 356.637 16:43 20.10.2019
5611 Clouds -2 1005 86 16093 0.9 356.637 16:24 20.10.2019
5612 Clouds -2 1005 86 16093 0.9 356.637 15:59 20.10.2019
5613 Clouds -2 1005 86 16093 0.9 356.637 15:38 20.10.2019
5614 Clouds -2 1005 86 16093 0.86 3.206 15:20 20.10.2019
5615 Clouds -2 1004 86 16093 0.86 3.206 14:58 20.10.2019
5616 Clouds -2 1004 86 16093 0.86 3.206 14:38 20.10.2019
5617 Clouds -2 1004 86 16093 0.86 3.206 14:19 20.10.2019
5618 Clouds -1 1004 80 16093 0.86 3.206 13:56 20.10.2019
5619 Clouds -1 1004 80 16093 0.86 3.206 13:56 20.10.2019
5620 Clouds -1 1004 80 16093 0.86 3.206 13:37 20.10.2019
5621 Clouds -1 1004 80 16093 1.02 355.218 13:18 20.10.2019
5622 Clouds -1 1004 80 16093 1.02 355.218 13:18 20.10.2019
5623 Clouds -1 1004 92 16093 2.1 130 12:56 20.10.2019
5624 Clouds -1 1004 92 16093 2.1 130 12:38 20.10.2019
5625 Clouds -1 1004 80 16093 1.1 359.013 12:20 20.10.2019
5626 Clouds -1 1003 86 16093 1.1 359.013 11:55 20.10.2019
5627 Clouds 0 1003 86 16093 1.1 359.013 11:37 20.10.2019
5628 Clouds 0 1003 90 16093 1.1 359.013 11:19 20.10.2019
5629 Clouds -1 1003 80 16093 1.1 359.013 10:41 20.10.2019
5630 Clouds -1 1003 80 16093 1.1 359.013 10:22 20.10.2019
5631 Clouds -1 1003 80 16093 1.5 40 09:58 20.10.2019
5632 Clouds -1 1003 80 16093 1.5 40 09:40 20.10.2019
5633 Clouds -1 1003 80 16093 1.5 40 09:21 20.10.2019
5634 Clouds -1 1002 92 16093 1.5 60 08:48 20.10.2019
5635 Clouds -1 1002 92 16093 1.5 60 08:24 20.10.2019
5636 Clouds -1 1002 92 16093 1.31 349.59 07:50 20.10.2019
5637 Clouds -1 1002 92 16093 1.31 349.59 07:30 20.10.2019
5638 Clouds -1 1002 92 16093 1.31 349.59 06:57 20.10.2019
5639 Clouds -1 1002 91 16093 1.3 339.614 06:20 20.10.2019
5640 Clouds 0 1001 59 16093 1.3 339.614 04:28 20.10.2019
5641 Clouds 1 1001 64 16093 1.3 339.614 03:46 20.10.2019
5642 Clouds 1 1001 64 16093 1.29 351.051 03:20 20.10.2019
5643 Clouds 2 1001 51 16093 1.5 60 02:43 20.10.2019
5644 Clouds 2 1001 51 16093 1.29 351.051 01:58 20.10.2019
5645 Clouds 2 1001 51 16093 1.26 349.226 01:24 20.10.2019
5646 Clouds 1 1000 55 16093 1.26 349.226 00:57 20.10.2019
5647 Clouds 1 1000 55 16093 1.26 349.226 00:39 20.10.2019
5648 Clouds 1 1000 55 16093 1.23 15.124 00:19 20.10.2019
5649 Clouds 0 1000 69 16093 1.23 15.124 23:42 19.10.2019
5650 Clouds 0 1000 69 16093 1.23 15.124 23:22 19.10.2019
5651 Clouds 0 1000 69 16093 1.23 15.124 22:57 19.10.2019
5652 Clouds 0 1000 69 16093 1.23 15.124 22:38 19.10.2019
5653 Clouds 0 1000 69 16093 1.23 15.124 22:20 19.10.2019
5654 Clouds -1 1000 80 16093 1.5 160 21:46 19.10.2019
5655 Clouds -1 1000 80 16093 1.5 160 21:23 19.10.2019
5656 Clouds -1 1000 80 16093 2.1 50 20:46 19.10.2019
5657 Clouds -1 1000 80 16093 2.1 50 20:46 19.10.2019
5658 Clouds -2 1000 80 16093 2.1 50 20:23 19.10.2019
5659 Clouds -2 999 79 16093 1.44 14.559 19:59 19.10.2019
5660 Clouds -2 999 79 16093 1.44 14.559 19:40 19.10.2019
5661 Clouds -2 999 79 16093 1.44 14.559 19:22 19.10.2019
5662 Clouds -2 999 79 16093 2.1 20 18:43 19.10.2019
5663 Clouds -2 999 79 16093 2.1 20 18:24 19.10.2019
5664 Clouds -2 999 68 16093 2.1 130 17:57 19.10.2019
5665 Clouds -2 999 68 16093 2.1 130 17:37 19.10.2019
5666 Clouds -2 999 68 16093 2.1 130 17:19 19.10.2019
5667 Clouds -2 999 68 16093 2.1 50 16:39 19.10.2019
5668 Clouds -2 999 68 16093 2.1 50 16:39 19.10.2019
5669 Clouds -2 999 68 16093 2.1 50 16:20 19.10.2019
5670 Clouds -2 998 94 16093 1.5 40 15:57 19.10.2019
5671 Clouds -2 998 94 16093 1.5 40 15:39 19.10.2019
5672 Clouds -2 998 94 16093 1.5 40 15:20 19.10.2019
5673 Clouds -2 998 94 16093 2.1 10 14:38 19.10.2019
5674 Clouds -2 998 94 16093 2.1 10 14:20 19.10.2019
5675 Clouds -1 998 86 16093 1.5 160 13:56 19.10.2019
5676 Clouds -1 998 86 16093 1.5 160 13:38 19.10.2019
5677 Clouds -1 998 59 16093 2.1 20 13:18 19.10.2019
5678 Clouds -1 998 59 16093 2.1 360 12:41 19.10.2019
5679 Clouds -1 998 59 16093 2.1 360 12:22 19.10.2019
5680 Clouds -1 997 90 16093 2.6 20 11:59 19.10.2019
5681 Clouds -1 997 90 16093 2.6 20 11:40 19.10.2019
5682 Clouds -2 997 90 16093 2.6 20 11:22 19.10.2019
5683 Clouds -1 997 86 16093 1.22 23.972 10:42 19.10.2019
5684 Clouds -1 997 90 16093 2.1 40 10:23 19.10.2019
5685 Clouds -1 997 90 11265 0.5 40 09:59 19.10.2019
5686 Clouds -1 997 90 11265 0.5 40 09:41 19.10.2019
5687 Clouds 0 997 92 11265 0.5 40 09:22 19.10.2019
5688 Clouds -1 996 74 16093 2.1 20 08:57 19.10.2019
5689 Clouds -1 996 74 16093 2.1 20 08:39 19.10.2019
5690 Clouds -1 996 74 16093 2.1 20 08:20 19.10.2019
5691 Clouds -2 997 74 11265 0.5 40 07:42 19.10.2019
5692 Clouds -2 997 74 11265 0.5 40 07:23 19.10.2019
5693 Clouds -2 997 74 11265 0.5 40 07:23 19.10.2019
5694 Clouds -1 996 74 11265 0.5 70 06:40 19.10.2019
5695 Clouds 0 996 81 11265 1.5 40 05:55 19.10.2019
5696 Clouds 0 996 81 11265 1.5 40 05:27 19.10.2019
5697 Clouds 2 993 55 16093 1.03 45.869 03:25 19.10.2019
5698 Clouds 2 993 55 16093 1.16 22.881 02:38 19.10.2019
5699 Clouds 2 993 55 16093 1.16 22.881 01:51 19.10.2019
5700 Clouds 2 993 55 16093 1.21 27.053 01:18 19.10.2019
5701 Clouds 2 994 55 11265 0.5 90 00:45 19.10.2019
5702 Clouds 2 994 55 11265 0.5 90 00:22 19.10.2019
5703 Snow 1 992 55 11265 1.5 60 23:41 18.10.2019
5704 Clouds 2 992 55 11265 2.1 60 23:23 18.10.2019
5705 Clouds 1 991 59 11265 1 30 22:55 18.10.2019
5706 Clouds 1 991 59 11265 1 30 22:37 18.10.2019
5707 Clouds 1 991 59 11265 1 30 22:19 18.10.2019
5708 Clouds 0 991 59 11265 1 30 21:56 18.10.2019
5709 Clouds 0 991 59 11265 1 30 21:56 18.10.2019
5710 Clouds 0 991 59 11265 1 30 21:38 18.10.2019
5711 Clouds 0 991 59 11265 1 30 21:19 18.10.2019
5712 Clouds -1 991 86 16093 1.57 35.118 20:54 18.10.2019
5713 Clouds -1 991 86 16093 1.57 35.118 20:36 18.10.2019
5714 Clouds -1 990 59 11265 1.57 35.118 20:18 18.10.2019
5715 Clouds -2 990 74 11265 0.5 60 19:54 18.10.2019
5716 Clouds -2 990 74 11265 0.5 60 19:36 18.10.2019
5717 Clouds -2 990 74 11265 0.5 60 19:18 18.10.2019
5718 Clouds -1 990 71 11265 1.57 35.118 18:42 18.10.2019
5719 Clouds -1 990 75 11265 1.69 32.845 18:23 18.10.2019
5720 Snow -1 990 86 16093 1.5 160 17:57 18.10.2019
5721 Snow -1 990 86 16093 1.5 160 17:38 18.10.2019
5722 Rain -1 989 75 11265 1.69 32.845 17:20 18.10.2019
5723 Rain -1 989 75 11265 1.69 32.845 17:20 18.10.2019
5724 Clouds -1 990 55 16093 2.6 360 16:44 18.10.2019
5725 Clouds -1 990 55 16093 2.6 360 16:44 18.10.2019
5726 Clouds -1 990 55 16093 2.6 360 16:44 18.10.2019
5727 Clouds -1 990 55 16093 2.6 360 16:22 18.10.2019
5728 Clouds -1 990 55 16093 2.1 10 15:59 18.10.2019
5729 Clouds -1 990 55 16093 2.1 10 15:40 18.10.2019
5730 Clouds -1 990 55 16093 2.1 10 15:21 18.10.2019
5731 Clouds -1 990 59 16093 2.1 40 14:58 18.10.2019
5732 Clouds -1 990 59 16093 2.1 40 14:58 18.10.2019
5733 Clouds -1 990 59 16093 2.1 40 14:58 18.10.2019
5734 Clouds -1 990 59 16093 2.1 40 14:58 18.10.2019
5735 Clouds -1 990 59 16093 2.1 40 14:58 18.10.2019
5736 Clouds -1 990 59 16093 2.1 40 14:40 18.10.2019
5737 Clouds -1 990 59 16093 2.1 40 14:22 18.10.2019
5738 Clouds -1 989 59 16093 4.6 10 13:59 18.10.2019
5739 Clouds -1 989 59 16093 4.6 10 13:40 18.10.2019
5740 Clouds -1 989 59 16093 4.6 10 13:22 18.10.2019
5741 Clouds -1 989 55 16093 4.6 360 12:56 18.10.2019
5742 Clouds -1 989 55 16093 4.6 360 12:38 18.10.2019
5743 Clouds -1 989 55 16093 4.6 360 12:38 18.10.2019
5744 Clouds -1 989 55 16093 4.6 360 12:38 18.10.2019
5745 Clouds -1 989 55 16093 4.6 360 12:20 18.10.2019
5746 Clouds -1 989 55 16093 4.6 360 12:20 18.10.2019
5747 Clouds -1 989 55 16093 4.6 360 11:56 18.10.2019
5748 Clouds -1 989 55 16093 4.6 360 11:37 18.10.2019
5749 Clouds -1 989 55 16093 4.6 360 11:18 18.10.2019
5750 Clouds -1 989 55 16093 4.1 360 10:43 18.10.2019
5751 -273 0 0 0 0 0 10:43 18.10.2019
5752 Clouds 0 989 55 16093 4.1 360 10:22 18.10.2019
5753 Clouds 0 990 73 11265 1 290 09:59 18.10.2019
5754 Clouds 0 990 73 11265 1 290 09:40 18.10.2019
5755 Clouds 0 990 72 11265 1 290 09:20 18.10.2019
5756 Clouds 0 989 64 11265 1.5 350 08:58 18.10.2019
5757 Clouds 0 989 64 11265 1.5 350 08:39 18.10.2019
5758 Clouds 0 989 64 11265 1.5 350 08:20 18.10.2019
5759 Clouds 0 988 86 16093 1.73 12.331 07:42 18.10.2019
5760 Clouds -1 988 72 11265 1.5 350 07:21 18.10.2019
5761 Clouds -2 989 74 11265 1.5 340 06:39 18.10.2019
5762 Clouds -2 989 74 11265 1.5 340 06:20 18.10.2019
5763 Clouds -1 989 59 11265 1 70 05:55 18.10.2019
5764 Clouds -1 989 59 11265 1 70 05:22 18.10.2019
5765 Clouds 1 990 48 11265 1.5 100 03:56 18.10.2019
5766 Clouds 1 990 48 11265 1.5 100 03:29 18.10.2019
5767 Clouds 1 989 48 11265 1 260 02:33 18.10.2019
5768 Clouds 0 990 55 11265 0.5 280 01:44 18.10.2019
5769 Clouds 0 990 55 11265 0.5 280 01:26 18.10.2019
5770 Clouds 1 990 51 11265 1 310 00:45 18.10.2019
5771 Clouds 1 990 51 11265 1 310 00:21 18.10.2019
5772 Clouds 0 988 57 11265 1.5 330 23:55 17.10.2019
5773 Clouds 0 988 57 11265 1.5 330 23:36 17.10.2019
5774 Clouds 0 988 57 11265 1.5 330 23:18 17.10.2019
5775 Clouds -2 989 63 11265 1.5 40 22:54 17.10.2019
5776 Clouds -2 989 63 11265 1.5 40 22:36 17.10.2019
5777 -273 0 0 0 0 0 22:18 17.10.2019
5778 Clouds -3 989 63 11265 2.1 50 21:55 17.10.2019
5779 Clouds -3 989 63 11265 2.1 50 21:55 17.10.2019
5780 Clouds -3 989 63 11265 2.1 50 21:37 17.10.2019
5781 Clouds -4 988 63 16093 3.1 50 21:19 17.10.2019
5782 Clouds -4 989 68 11265 3.6 30 20:56 17.10.2019
5783 Clouds -4 989 68 11265 3.6 30 20:37 17.10.2019
5784 Clouds -5 989 68 11265 3.6 30 20:18 17.10.2019
5785 Clouds -5 989 68 11265 2.6 40 19:42 17.10.2019
5786 Clouds -5 988 62 16093 3.1 10 19:20 17.10.2019
5787 Clouds -5 988 68 11265 1 40 18:59 17.10.2019
5788 Clouds -5 988 68 11265 1 40 18:39 17.10.2019
5789 Clouds -5 988 68 11265 1 40 18:20 17.10.2019
5790 Clouds -6 988 62 16093 3.6 30 17:43 17.10.2019
5791 Clouds -6 988 62 11265 1.5 50 17:25 17.10.2019
5792 Clouds -6 988 67 16093 3.1 10 16:59 17.10.2019
5793 Clouds -6 988 67 16093 3.1 10 16:41 17.10.2019
5794 Clouds -6 988 67 16093 3.1 10 16:19 17.10.2019
5795 Clouds -6 989 67 16093 3.1 20 15:57 17.10.2019
5796 Clouds -6 989 67 16093 3.1 20 15:38 17.10.2019
5797 Clouds -7 989 67 16093 3.1 20 15:20 17.10.2019
5798 Clouds -7 989 67 16093 3.1 40 14:56 17.10.2019
5799 Clouds -7 989 67 16093 3.1 40 14:38 17.10.2019
5800 Clouds -7 989 67 16093 3.1 40 14:19 17.10.2019
5801 Clouds -7 989 67 16093 2.1 40 13:39 17.10.2019
5802 Clouds -8 989 67 16093 2.1 40 13:20 17.10.2019
5803 Clouds -7 989 67 16093 2.6 40 12:57 17.10.2019
5804 Clouds -7 989 67 16093 2.6 40 12:37 17.10.2019
5805 Clouds -7 989 67 16093 2.6 40 12:19 17.10.2019
5806 Clouds -7 989 67 16093 3.6 10 11:42 17.10.2019
5807 Clouds -7 989 67 16093 3.6 10 11:42 17.10.2019
5808 Clouds -7 989 67 16093 3.6 10 11:22 17.10.2019
5809 Clouds -7 990 67 16093 3.1 10 10:59 17.10.2019
5810 Clouds -7 990 67 16093 3.1 10 10:41 17.10.2019
5811 Clouds -6 990 67 16093 3.1 10 10:19 17.10.2019
5812 Clouds -6 990 62 11265 1.5 70 09:56 17.10.2019
5813 Clouds -6 990 62 11265 1.5 70 09:38 17.10.2019
5814 Clouds -6 990 62 11265 1.5 70 09:19 17.10.2019
5815 Clouds -6 990 67 16093 2.6 40 08:48 17.10.2019
5816 Clouds -5 990 67 16093 2.6 40 08:27 17.10.2019
5817 Clouds -5 990 62 16093 3.6 70 07:59 17.10.2019
5818 Clouds -5 990 58 11265 1 40 07:41 17.10.2019
5819 Clouds -4 990 58 11265 1 40 07:21 17.10.2019
5820 Clouds -4 990 58 11265 1 40 07:21 17.10.2019
5821 Clouds -4 990 63 16093 3.6 60 06:51 17.10.2019
5822 Clouds -4 990 63 16093 3.6 60 06:31 17.10.2019
5823 Clouds -3 990 54 11265 2.6 40 05:59 17.10.2019
5824 Clouds -3 990 54 11265 2.6 40 05:37 17.10.2019
5825 Clouds -3 990 58 16093 3.6 80 05:19 17.10.2019
5826 Clouds -2 991 47 11265 1.5 40 04:45 17.10.2019
5827 Clouds 0 991 48 11265 3.1 70 03:45 17.10.2019
5828 Clouds 0 991 47 16093 4.1 80 01:57 17.10.2019
5829 Clouds 0 992 47 16093 4.1 60 00:42 17.10.2019
5830 Clouds 0 992 47 16093 4.1 60 00:21 17.10.2019
5831 Clouds -1 992 50 11265 3.6 60 23:59 16.10.2019
5832 Clouds -1 992 50 11265 3.6 60 23:40 16.10.2019
5833 Clouds -1 992 50 11265 3.6 60 23:18 16.10.2019
5834 Clouds -3 992 54 11265 4.6 50 22:54 16.10.2019
5835 Clouds -2 992 54 11265 4.6 50 22:36 16.10.2019
5836 Clouds -3 992 54 11265 4.6 50 22:18 16.10.2019
5837 Clouds -4 993 62 11265 3.1 50 21:54 16.10.2019
5838 Clouds -4 993 62 11265 3.1 50 21:54 16.10.2019
5839 Clouds -4 993 62 11265 3.1 50 21:36 16.10.2019
5840 Clouds -5 993 62 11265 3.1 50 21:18 16.10.2019
5841 Clouds -6 993 67 11265 2.1 60 20:56 16.10.2019
5842 Clouds -6 993 67 11265 2.1 60 20:37 16.10.2019
5843 Clouds -6 993 67 11265 2.1 60 20:37 16.10.2019
5844 Clouds -7 993 67 11265 2.1 60 20:19 16.10.2019
5845 Clouds -8 993 78 11265 1 350 19:40 16.10.2019
5846 Clouds -8 993 78 11265 1 350 19:40 16.10.2019
5847 Clouds -8 993 78 11265 1 350 19:21 16.10.2019
5848 Clouds -8 994 78 16093 1.882 31 18:58 16.10.2019
5849 Clouds -8 994 78 16093 1.882 31 18:58 16.10.2019
5850 Clouds -7 994 78 16093 1.882 31 18:38 16.10.2019
5851 Clouds -8 994 78 16093 1.123 43 18:18 16.10.2019
5852 Clouds -8 994 78 16093 1.123 43 18:18 16.10.2019
5853 Clear -8 994 57 11265 1.123 43 17:56 16.10.2019
5854 Clear -8 994 57 11265 1.123 43 17:37 16.10.2019
5855 Clear -7 994 57 11265 1.123 43 17:19 16.10.2019
5856 Clear -8 994 85 16093 1.5 330 16:57 16.10.2019
5857 Clear -8 994 85 16093 1.5 330 16:38 16.10.2019
5858 Clouds -7 995 78 16093 1.123 43 16:20 16.10.2019
5859 Clouds -7 995 78 16093 1.123 43 15:41 16.10.2019
5860 Clouds -7 995 78 16093 1.123 43 15:41 16.10.2019
5861 Clouds -6 995 67 16093 1.51 34 15:19 16.10.2019
5862 Clouds -6 995 67 16093 1.51 34 14:59 16.10.2019
5863 Clouds -6 995 67 16093 1.51 34 14:41 16.10.2019
5864 Clouds -6 995 67 16093 1.433 35 14:23 16.10.2019
5865 Clouds -6 995 67 16093 1.433 35 13:59 16.10.2019
5866 Clouds -6 995 73 16093 1.5 40 13:41 16.10.2019
5867 Clouds -6 995 73 16093 1.5 40 13:22 16.10.2019
5868 Clouds -5 995 58 16093 1.433 35 12:44 16.10.2019
5869 Clouds -5 995 58 16093 1.951 41 12:20 16.10.2019
5870 Clouds -5 995 58 16093 1.951 41 11:59 16.10.2019
5871 Clouds -5 995 62 16093 2.6 50 11:41 16.10.2019
5872 Clouds -4 995 62 16093 2.6 50 11:18 16.10.2019
5873 Clouds -4 995 53 16093 2.6 60 10:37 16.10.2019
5874 Clouds -4 995 53 16093 2.6 60 10:19 16.10.2019
5875 Clouds -4 995 53 16093 3.1 50 09:41 16.10.2019
5876 Clouds -4 995 53 16093 3.1 50 09:22 16.10.2019
5877 Clouds -4 995 53 16093 3.1 50 08:58 16.10.2019
5878 Clouds -3 995 54 11265 1 40 08:40 16.10.2019
5879 Clouds -3 995 54 11265 1 40 08:22 16.10.2019
5880 Clouds -3 995 50 11265 2.1 40 07:45 16.10.2019
5881 -273 0 0 0 0 0 07:24 16.10.2019
5882 Clouds -2 995 50 16093 3.1 70 06:56 16.10.2019
5883 Clouds -2 995 46 11265 2.1 40 06:35 16.10.2019
5884 Clouds -2 995 46 16093 3.1 80 05:39 16.10.2019
5885 Clouds 0 995 34 16093 6.2 90 02:57 16.10.2019
5886 Clouds 0 995 34 16093 6.2 90 02:37 16.10.2019
5887 Clouds 0 995 34 16093 3.6 90 01:18 16.10.2019
5888 Rain 0 996 37 16093 4.1 70 00:46 16.10.2019
5889 Rain 0 996 37 16093 4.1 70 00:27 16.10.2019
5890 Clouds -1 997 46 11265 2.6 50 23:40 15.10.2019
5891 Clouds -1 997 46 11265 2.6 50 23:22 15.10.2019
5892 Clouds -2 997 49 11265 2.6 50 22:56 15.10.2019
5893 Clouds -3 997 49 11265 2.6 50 22:38 15.10.2019
5894 Clouds -3 997 49 11265 2.6 50 22:19 15.10.2019
5895 Clouds -5 997 49 16093 3.6 30 21:56 15.10.2019
5896 Clouds -5 997 57 11265 2.1 30 21:38 15.10.2019
5897 Clouds -5 997 57 11265 2.1 30 21:19 15.10.2019
5898 Clouds -6 998 53 16093 3.1 50 20:57 15.10.2019
5899 Clouds -7 997 53 11265 1.5 60 20:39 15.10.2019
5900 Clouds -8 997 53 11265 1.5 60 20:20 15.10.2019
5901 Clouds -8 997 53 11265 1.5 60 20:20 15.10.2019
5902 Clouds -8 998 67 16093 2.6 40 19:58 15.10.2019
5903 Clouds -9 1000 57 11265 2.1 50 19:40 15.10.2019
5904 Clouds -9 1000 57 11265 2.1 50 19:19 15.10.2019
5905 Clouds -8 1000 72 11265 1 80 18:47 15.10.2019
5906 Clouds -8 1000 72 11265 1 80 18:29 15.10.2019
5907 Clear -8 1000 67 11265 1 100 17:59 15.10.2019
5908 Clear -9 1000 67 11265 1 100 17:39 15.10.2019
5909 Clear -8 1000 67 11265 1 100 17:20 15.10.2019
5910 Clear -7 1001 62 16093 4.6 50 16:55 15.10.2019
5911 Clear -7 1001 62 16093 4.6 50 16:37 15.10.2019
5912 Clear -7 1001 62 16093 4.6 50 16:19 15.10.2019
5913 Clear -8 1000 58 16093 4.1 70 15:42 15.10.2019
5914 Clear -8 1002 62 16093 5.1 30 15:20 15.10.2019
5915 Clear -8 1002 62 16093 5.1 30 14:58 15.10.2019
5916 Clear -8 1002 67 16093 4.1 30 14:38 15.10.2019
5917 Clear -8 1002 67 16093 4.1 30 14:20 15.10.2019
5918 Clear -7 1002 67 16093 4.1 30 13:55 15.10.2019
5919 Clear -7 1002 85 16093 6.7 60 13:37 15.10.2019
5920 Clear -7 1003 67 16093 2.6 30 13:18 15.10.2019
5921 Clear -8 1004 62 16093 3.6 50 12:41 15.10.2019
5922 Clear -8 1004 62 16093 3.6 50 12:21 15.10.2019
5923 Clear -7 1005 67 16093 3.1 30 11:56 15.10.2019
5924 Clear -7 1005 67 16093 3.1 30 11:37 15.10.2019
5925 Clear -7 1005 67 16093 3.1 30 11:18 15.10.2019
5926 Clear -6 1006 62 16093 3.6 60 10:43 15.10.2019
5927 Clear -6 1006 62 16093 3.6 60 10:19 15.10.2019
5928 Clear -6 1006 62 16093 3.6 60 09:57 15.10.2019
5929 Clear -6 1006 67 16093 3.6 50 09:37 15.10.2019
5930 Clear -6 1006 67 16093 3.6 50 09:37 15.10.2019
5931 Clear -6 1006 67 16093 3.6 50 09:19 15.10.2019
5932 Clear -5 1007 62 16093 3.1 60 08:43 15.10.2019
5933 Clear -5 1007 62 16093 3.1 60 08:22 15.10.2019
5934 Clear -5 1007 62 16093 3.1 60 08:22 15.10.2019
5935 Clear -5 1007 62 16093 3.1 60 07:58 15.10.2019
5936 Clear -4 1008 58 16093 3.6 70 07:39 15.10.2019
5937 Clear -4 1008 58 16093 3.6 70 07:20 15.10.2019
5938 Clear -3 1009 58 16093 2.6 70 06:45 15.10.2019
5939 Clear -3 1009 58 16093 2.6 70 06:26 15.10.2019
5940 Clouds -3 1009 58 16093 2.1 70 05:41 15.10.2019
5941 Clouds -2 1009 58 16093 2.1 70 05:23 15.10.2019
5942 Clouds -2 1010 69 16093 2.6 70 04:32 15.10.2019
5943 Clouds -1 1011 47 16093 4.1 90 03:37 15.10.2019
5944 Clouds 0 1012 47 16093 4.1 70 02:42 15.10.2019
5945 Clear -1 1012 63 16093 2.1 70 01:49 15.10.2019
5946 Clear 0 1013 43 16093 5.1 90 01:22 15.10.2019
5947 Clear -1 1013 43 16093 4.1 70 00:49 15.10.2019
5948 Clear -1 1013 41 16093 4.1 70 00:22 15.10.2019
5949 Clear -2 1014 50 16093 4.6 70 23:45 14.10.2019
5950 Clear -2 1014 50 16093 4.6 70 23:20 14.10.2019
5951 Clear -3 1015 58 16093 5.7 80 22:58 14.10.2019
5952 Clear -4 1015 58 16093 5.7 80 22:38 14.10.2019
5953 Clear -4 1015 58 16093 5.7 80 22:19 14.10.2019
5954 Clear -4 1015 58 16093 5.7 80 21:56 14.10.2019
5955 Clear -5 1015 73 16093 3.1 50 21:37 14.10.2019
5956 Clear -6 1015 73 16093 3.1 50 21:19 14.10.2019
5957 Clear -6 1016 79 16093 2.6 50 20:55 14.10.2019
5958 Clear -6 1016 79 16093 2.6 50 20:36 14.10.2019
5959 Clear -6 1016 79 16093 2.6 50 20:18 14.10.2019
5960 Clear -7 1016 78 16093 2.6 40 19:41 14.10.2019
5961 Clear -8 1016 78 16093 2.6 40 19:23 14.10.2019
5962 Clear -8 1016 78 16093 2.6 40 18:58 14.10.2019
5963 Clear -8 1017 78 16093 3.1 40 18:39 14.10.2019
5964 Clear -8 1017 78 16093 3.1 40 18:39 14.10.2019
5965 Clear -7 1017 78 16093 3.1 40 18:19 14.10.2019
5966 Clear -7 1017 78 16093 3.1 40 18:19 14.10.2019
5967 Clear -7 1017 73 16093 2.6 40 17:57 14.10.2019
5968 Clear -7 1017 73 16093 2.6 40 17:38 14.10.2019
5969 Clear -7 1017 73 16093 2.6 40 17:20 14.10.2019
5970 Clear -7 1018 73 16093 3.6 40 16:44 14.10.2019
5971 Clear -7 1018 73 16093 3.6 40 16:21 14.10.2019
5972 Clear -6 1018 73 16093 3.1 50 15:44 14.10.2019
5973 Clear -6 1018 73 16093 3.1 50 15:25 14.10.2019
5974 Clear -6 1018 85 16093 2.6 60 14:58 14.10.2019
5975 Clear -6 1018 85 16093 2.6 60 14:39 14.10.2019
5976 Clear -6 1018 85 16093 2.6 60 14:20 14.10.2019
5977 Clear -6 1019 73 16093 2.6 30 13:44 14.10.2019
5978 Clear -6 1019 73 16093 2.6 30 13:22 14.10.2019
5979 Clear -6 1019 73 16093 3.1 70 12:56 14.10.2019
5980 Clear -6 1019 73 16093 3.1 70 12:56 14.10.2019
5981 Clear -6 1019 73 16093 3.1 70 12:37 14.10.2019
5982 Clear -6 1019 73 16093 3.1 70 12:18 14.10.2019
5983 Clouds -6 1019 73 16093 3.1 70 11:45 14.10.2019
5984 Clouds -5 1019 73 16093 3.1 70 11:26 14.10.2019
5985 Clouds -5 1020 73 16093 2.6 60 10:57 14.10.2019
5986 Clouds -5 1020 73 16093 2.6 60 10:38 14.10.2019
5987 Clear -5 1019 79 16093 2.1 110 10:20 14.10.2019
5988 Clear -5 1020 85 16093 2.1 40 09:54 14.10.2019
5989 Clear -5 1020 85 16093 2.1 40 09:36 14.10.2019
5990 Clear -5 1020 85 16093 2.1 40 09:18 14.10.2019
5991 Clouds -4 1020 79 16093 1.69 34.255 08:42 14.10.2019
5992 Clouds -4 1020 79 16093 1.69 34.255 08:20 14.10.2019
5993 Clouds -3 1020 63 16093 3.6 90 07:41 14.10.2019
5994 Clouds -3 1020 63 16093 3.6 90 07:41 14.10.2019
5995 Clouds -3 1020 63 16093 3.6 90 07:18 14.10.2019
5996 Clouds -3 1021 68 16093 3.1 60 06:38 14.10.2019
5997 Clouds -2 1021 68 16093 3.1 60 06:20 14.10.2019
5998 Clouds -2 1021 68 16093 3.1 80 05:46 14.10.2019
5999 Clouds -2 1021 68 16093 4.6 120 04:42 14.10.2019
6000 Snow -2 1021 74 16093 1.5 100 03:27 14.10.2019
6001 Snow -2 1021 86 16093 1.35 104.48 02:42 14.10.2019
6002 Clouds -2 1021 86 16093 1.5 140 01:23 14.10.2019
6003 Clouds -2 1021 79 16093 1.34 101.184 00:53 14.10.2019
6004 Clouds -2 1022 80 16093 0.96 79.711 00:19 14.10.2019
6005 Clouds -2 1022 86 16093 0.96 79.711 23:45 13.10.2019
6006 Clouds -2 1021 92 16093 0.96 79.711 23:20 13.10.2019
6007 Snow -2 1021 86 16093 1.5 240 22:58 13.10.2019
6008 Snow -2 1021 86 16093 1.5 240 22:40 13.10.2019
6009 Snow -2 1021 86 16093 1.5 240 22:21 13.10.2019
6010 Clouds -3 1021 86 14484 2.1 200 21:58 13.10.2019
6011 Clouds -3 1021 86 14484 2.1 200 21:37 13.10.2019
6012 Clouds -3 1021 92 14484 2.1 220 21:19 13.10.2019
6013 Clouds -3 1021 92 14484 2.1 220 21:19 13.10.2019
6014 Clouds -3 1021 92 16093 1.5 220 20:57 13.10.2019
6015 Clouds -3 1021 92 16093 1.5 220 20:38 13.10.2019
6016 Clouds -3 1021 92 16093 1.5 200 20:20 13.10.2019
6017 -273 0 0 0 0 0 19:58 13.10.2019
6018 Clouds -3 1021 92 16093 0.73 70.969 19:39 13.10.2019
6019 Clouds -3 1021 92 16093 0.73 70.969 19:21 13.10.2019
6020 Snow -3 1021 86 16093 3.1 240 18:57 13.10.2019
6021 Snow -3 1021 86 16093 3.1 240 18:57 13.10.2019
6022 Snow -3 1021 86 16093 3.1 240 18:37 13.10.2019
6023 Clouds -3 1021 86 16093 2.6 250 18:19 13.10.2019
6024 Clouds -3 1021 86 16093 3.6 250 17:57 13.10.2019
6025 Clouds -3 1021 86 16093 3.6 250 17:38 13.10.2019
6026 Clouds -3 1021 86 16093 2.6 240 17:20 13.10.2019
6027 Clouds -3 1020 86 16093 1.5 220 16:41 13.10.2019
6028 Clouds -3 1021 86 16093 3.6 210 16:18 13.10.2019
6029 Clouds -3 1021 92 16093 2.6 210 15:57 13.10.2019
6030 Clouds -3 1021 92 16093 2.6 210 15:38 13.10.2019
6031 Clouds -3 1021 92 16093 2.6 210 15:18 13.10.2019
6032 Clouds -3 1021 92 16093 3.6 230 14:57 13.10.2019
6033 Clouds -3 1021 92 16093 3.6 230 14:38 13.10.2019
6034 Clouds -3 1021 92 16093 3.1 210 14:19 13.10.2019
6035 Clouds -3 1021 92 16093 3.6 210 13:41 13.10.2019
6036 Snow -2 1021 80 16093 2.6 220 13:23 13.10.2019
6037 Clouds -2 1021 86 16093 1.01 156.13 12:59 13.10.2019
6038 Clouds -2 1021 86 16093 1.01 156.13 12:39 13.10.2019
6039 Clouds -2 1022 80 16093 2.1 200 12:21 13.10.2019
6040 Clouds -2 1022 80 16093 3.1 240 11:58 13.10.2019
6041 Clouds -2 1022 80 16093 3.1 240 11:39 13.10.2019
6042 Clouds -2 1022 80 16093 3.1 240 11:20 13.10.2019
6043 Clouds -2 1022 86 16093 3.1 200 10:57 13.10.2019
6044 Clouds -2 1022 86 16093 3.1 200 10:38 13.10.2019
6045 Clouds -2 1022 86 16093 3.1 200 10:20 13.10.2019
6046 Clouds -2 1022 86 16093 2.6 180 09:39 13.10.2019
6047 Clouds -3 1022 86 16093 2.6 180 09:21 13.10.2019
6048 Clouds -3 1022 92 16093 1.5 220 08:45 13.10.2019
6049 Clouds -3 1022 92 16093 1.5 220 08:26 13.10.2019
6050 Clouds -3 1023 100 16093 0.97 173.765 07:52 13.10.2019
6051 Clouds -3 1023 100 16093 0.97 173.765 07:33 13.10.2019
6052 -273 0 0 0 0 0 06:54 13.10.2019
6053 Clouds -3 1022 92 16093 0.97 173.765 06:54 13.10.2019
6054 Clouds -3 1022 92 16093 1.1 188.559 06:24 13.10.2019
6055 Clouds -3 1022 92 16093 0.97 173.765 06:24 13.10.2019
6056 Clouds -3 1022 92 16093 1.1 188.559 06:24 13.10.2019
6057 Clear -3 1022 92 16093 1.5 60 05:27 13.10.2019
6058 Clouds -2 1022 86 16093 2.1 170 04:35 13.10.2019
6059 Clear -1 1022 80 16093 3.6 180 03:34 13.10.2019
6060 Clear 0 1022 80 16093 3.1 210 02:31 13.10.2019
6061 Clear 0 1022 80 16093 3.1 210 02:31 13.10.2019
6062 Clear 1 1022 69 16093 2.6 200 01:37 13.10.2019
6063 Clouds 1 1022 69 16093 3.6 200 00:56 13.10.2019
6064 Clouds 1 1022 69 16093 3.6 200 00:38 13.10.2019
6065 Clouds 1 1022 69 16093 3.6 200 00:19 13.10.2019
6066 Clouds 0 1021 86 16093 0.79 216.957 23:42 12.10.2019
6067 Clouds 0 1021 86 16093 0.79 216.957 23:42 12.10.2019
6068 Clouds 0 1021 69 16093 2.1 270 23:23 12.10.2019
6069 Clouds 0 1021 66 16093 1.5 230 22:59 12.10.2019
6070 Clouds 0 1021 66 16093 1.5 230 22:40 12.10.2019
6071 Clouds -1 1021 66 16093 1.5 230 22:22 12.10.2019
6072 Clouds -1 1020 86 16093 2.1 230 21:58 12.10.2019
6073 Clouds -1 1020 86 16093 2.1 230 21:40 12.10.2019
6074 Clouds -1 1020 86 16093 2.1 230 21:40 12.10.2019
6075 Clouds -1 1020 86 16093 2.1 230 21:40 12.10.2019
6076 Clouds -1 1020 86 16093 2.1 230 21:21 12.10.2019
6077 Clouds -2 1019 86 16093 1.5 240 20:54 12.10.2019
6078 Clouds -2 1019 86 16093 1.5 240 20:54 12.10.2019
6079 Clouds -2 1019 86 16093 1.5 240 20:36 12.10.2019
6080 Clouds -2 1019 86 16093 1.5 240 20:18 12.10.2019
6081 Clouds -2 1019 86 16093 3.1 230 19:36 12.10.2019
6082 Clouds -2 1019 86 16093 3.1 230 19:18 12.10.2019
6083 Clouds -2 1018 80 16093 2.1 260 18:43 12.10.2019
6084 Clouds -2 1018 80 16093 2.1 260 18:24 12.10.2019
6085 Clouds -2 1018 86 16093 0.44 336.87 17:46 12.10.2019
6086 Clouds -2 1017 80 16093 0.44 336.87 17:22 12.10.2019
6087 Clouds -2 1017 88 16093 3.1 270 16:59 12.10.2019
6088 Clouds -2 1017 88 16093 3.1 270 16:40 12.10.2019
6089 Clouds -2 1017 88 16093 3.1 270 16:40 12.10.2019
6090 Clouds -2 1017 88 16093 3.1 270 16:21 12.10.2019
6091 Clouds -1 1016 69 16093 2.6 290 15:56 12.10.2019
6092 Clouds -1 1016 69 16093 2.6 290 15:37 12.10.2019
6093 Clouds -1 1016 69 16093 2.6 290 15:18 12.10.2019
6094 Clouds -1 1015 69 16093 2.6 290 14:40 12.10.2019
6095 Clouds -1 1015 69 16093 2.6 290 14:20 12.10.2019
6096 Clouds -1 1015 87 16093 2.6 260 13:51 12.10.2019
6097 Clouds -1 1015 86 16093 2.6 260 13:32 12.10.2019
6098 Clouds -1 1014 92 16093 3.6 260 12:56 12.10.2019
6099 Clouds -1 1014 92 16093 3.6 260 12:38 12.10.2019
6100 Clouds -1 1014 92 16093 3.6 260 12:38 12.10.2019
6101 Clouds -1 1014 86 16093 3.1 280 12:20 12.10.2019
6102 Clouds -1 1014 86 16093 3.1 280 12:20 12.10.2019
6103 Clouds -1 1013 86 16093 4.1 280 11:45 12.10.2019
6104 Snow -1 1013 80 16093 3.1 280 11:24 12.10.2019
6105 Snow 0 1013 74 14484 2.6 280 10:58 12.10.2019
6106 Snow 0 1013 74 14484 2.6 280 10:39 12.10.2019
6107 Snow 0 1012 86 14484 2.6 280 10:20 12.10.2019
6108 Clouds -1 1012 86 14484 3.6 290 09:57 12.10.2019
6109 Clouds -1 1012 86 14484 3.6 290 09:57 12.10.2019
6110 Clouds -1 1012 80 16093 4.1 300 09:38 12.10.2019
6111 Clouds -1 1012 80 16093 4.1 300 09:19 12.10.2019
6112 Clouds -1 1012 80 16093 4.1 300 09:19 12.10.2019
6113 Clouds 0 1011 86 14484 3.6 290 08:44 12.10.2019
6114 Clouds 0 1011 86 14484 3.6 290 08:44 12.10.2019
6115 Snow 0 1011 86 14484 4.1 280 08:24 12.10.2019
6116 Snow 0 1011 86 11265 4.6 280 07:57 12.10.2019
6117 Snow 0 1010 80 14484 3.6 290 07:31 12.10.2019
6118 Snow 0 1009 86 11265 3.6 310 06:28 12.10.2019
6119 Snow 0 1009 86 11265 2.6 310 05:43 12.10.2019
6120 Snow 0 1008 74 11265 4.1 330 04:34 12.10.2019
6121 Snow 0 1007 69 14484 3.1 320 03:54 12.10.2019
6122 Snow 1 1006 73 4023 4.1 270 02:50 12.10.2019
6123 Snow 0 1005 74 16093 3.6 300 01:33 12.10.2019
6124 Snow 0 1005 73 1609 4.6 270 00:55 12.10.2019
6125 Snow 0 1005 80 16093 3.6 280 00:37 12.10.2019
6126 Snow 0 1005 80 14484 3.1 330 23:55 11.10.2019
6127 Snow 0 1005 80 14484 3.6 340 23:36 11.10.2019
6128 Snow 0 1005 80 14484 3.6 340 23:18 11.10.2019
6129 Snow 0 1005 80 16093 3.6 340 22:38 11.10.2019
6130 Snow 0 1005 80 14484 3.1 320 22:19 11.10.2019
6131 Snow 0 1004 80 14484 4.1 310 21:43 11.10.2019
6132 Snow 0 1004 80 12874 3.1 330 21:22 11.10.2019
6133 Snow 0 1004 80 12874 4.1 320 20:59 11.10.2019
6134 Snow 0 1004 80 12874 4.1 320 20:41 11.10.2019
6135 Snow 0 1004 80 14484 3.6 320 20:23 11.10.2019
6136 Snow -1 1003 85 4828 4.6 290 19:55 11.10.2019
6137 Snow -1 1003 85 4828 4.6 290 19:37 11.10.2019
6138 Snow -1 1004 86 14484 2.6 320 19:18 11.10.2019
6139 Snow -1 1004 86 14484 2.6 320 19:18 11.10.2019
6140 Snow -1 1004 86 14484 2.6 320 19:18 11.10.2019
6141 Snow -1 1004 86 14484 2.6 320 19:18 11.10.2019
6142 Snow -1 1004 86 14484 2.6 320 19:18 11.10.2019
6143 Snow 0 1005 86 11265 3.6 320 18:56 11.10.2019
6144 Snow 0 1004 74 9656 4.6 340 18:37 11.10.2019
6145 Snow 0 1005 86 14484 3.1 320 18:18 11.10.2019
6146 Snow 0 1004 86 14484 3.1 320 17:55 11.10.2019
6147 Snow 0 1004 86 14484 3.1 320 17:36 11.10.2019
6148 Snow 0 1004 80 4023 4.6 340 17:18 11.10.2019
6149 Snow 0 1003 92 6437 4.1 300 16:40 11.10.2019
6150 Snow 0 1004 92 12874 3.1 320 16:20 11.10.2019
6151 Snow 0 1004 92 12874 3.1 320 16:20 11.10.2019
6152 Snow 0 1004 92 14484 2.6 300 15:58 11.10.2019
6153 Snow 1 1004 92 14484 2.6 300 15:38 11.10.2019
6154 Snow 1 1005 94 14484 2.6 310 15:19 11.10.2019
6155 Rain 1 1005 94 14484 3.6 340 14:47 11.10.2019
6156 Rain 1 1005 94 14484 3.6 340 14:29 11.10.2019
6157 Snow 1 1005 94 14484 3.1 330 13:56 11.10.2019
6158 Snow 1 1005 94 14484 3.1 330 13:37 11.10.2019
6159 Rain 1 1005 93 16093 2.1 330 13:19 11.10.2019
6160 Snow 1 1005 93 16093 1.5 340 12:54 11.10.2019
6161 Snow 1 1005 93 16093 1.94 328.449 12:36 11.10.2019
6162 Snow 1 1005 93 16093 1.62 332.488 12:18 11.10.2019
6163 Snow 1 1006 93 11265 2.6 20 11:41 11.10.2019
6164 Rain 1 1006 93 11265 2.6 20 11:22 11.10.2019
6165 Snow 1 1006 93 11265 1.62 332.488 10:56 11.10.2019
6166 Snow 1 1006 93 11265 1.62 332.488 10:38 11.10.2019
6167 Rain 1 1006 93 12874 1.5 340 10:20 11.10.2019
6168 Rain 1 1005 97 16093 1.62 332.488 09:55 11.10.2019
6169 Rain 1 1005 97 16093 1.79 326.905 09:37 11.10.2019
6170 Snow 1 1006 93 16093 1.5 330 09:18 11.10.2019
6171 Snow 1 1006 93 16093 1.5 330 09:18 11.10.2019
6172 Rain 1 1007 93 16093 1.5 320 08:54 11.10.2019
6173 Rain 1 1007 93 16093 1.5 320 08:36 11.10.2019
6174 Rain 1 1007 93 16093 1.5 320 08:18 11.10.2019
6175 Rain 1 1006 93 12874 2.1 320 07:41 11.10.2019
6176 Rain 1 1007 100 11265 1.51 331.928 07:22 11.10.2019
6177 Rain 2 1006 86 16093 3.1 360 06:47 11.10.2019
6178 Rain 2 1007 100 11265 1.26 339.081 06:22 11.10.2019
6179 Rain 2 1007 93 14484 1.26 339.081 05:37 11.10.2019
6180 Rain 2 1007 100 14484 1.26 339.081 04:59 11.10.2019
6181 Rain 2 1007 93 14484 2.6 350 04:24 11.10.2019
6182 Rain 2 1008 100 8047 1.5 130 02:19 11.10.2019
6183 Rain 2 1008 97 4828 1.21 333.923 00:43 11.10.2019
6184 Rain 2 1008 93 8047 1.2 324.412 00:25 11.10.2019
6185 Rain 2 1008 100 8047 1.2 324.412 23:43 10.10.2019
6186 Rain 2 1008 100 8047 1.2 324.412 23:21 10.10.2019
6187 Rain 2 1008 100 8047 1.2 324.412 22:57 10.10.2019
6188 Rain 2 1008 100 8047 1.2 324.412 22:38 10.10.2019
6189 Rain 2 1008 100 8047 1.2 324.412 22:20 10.10.2019
6190 Rain 2 1009 100 9656 1.2 324.412 21:56 10.10.2019
6191 Rain 2 1009 100 9656 1.2 324.412 21:56 10.10.2019
6192 Rain 2 1009 100 9656 1.2 324.412 21:56 10.10.2019
6193 Rain 2 1009 100 9656 1.2 324.412 21:38 10.10.2019
6194 Rain 2 1009 100 9656 1.03 347.994 21:20 10.10.2019
6195 Rain 2 1009 93 14484 1.5 120 20:42 10.10.2019
6196 Rain 2 1009 93 16093 0.78 350.381 20:21 10.10.2019
6197 Rain 2 1009 93 9656 1.5 360 19:58 10.10.2019
6198 Rain 2 1009 93 9656 1.5 360 19:40 10.10.2019
6199 Rain 2 1009 93 9656 1.5 360 19:20 10.10.2019
6200 Rain 2 1009 93 9656 1.5 360 19:20 10.10.2019
6201 Rain 1 1010 100 11265 1.5 310 18:57 10.10.2019
6202 Rain 2 1010 93 11265 1.5 310 18:38 10.10.2019
6203 Rain 2 1010 93 11265 1.5 310 18:19 10.10.2019
6204 Rain 2 1011 100 16093 0.73 340.184 17:54 10.10.2019
6205 Clouds 1 1011 100 16093 0.73 340.184 17:36 10.10.2019
6206 Rain 2 1011 93 16093 0.73 340.184 17:18 10.10.2019
6207 Rain 2 1011 93 11265 1.5 310 16:41 10.10.2019
6208 Rain 2 1011 100 11265 1.5 310 16:22 10.10.2019
6209 Rain 2 1011 100 11265 0.73 340.184 15:44 10.10.2019
6210 Rain 2 1011 100 11265 1.5 320 15:25 10.10.2019
6211 Rain 1 1011 93 16093 3.1 310 14:59 10.10.2019
6212 Rain 2 1011 93 16093 3.1 310 14:38 10.10.2019
6213 Rain 2 1012 86 6437 0.02 217.405 14:19 10.10.2019
6214 Rain 2 1012 100 12874 0.02 217.405 13:59 10.10.2019
6215 Rain 2 1012 100 12874 0.02 217.405 13:59 10.10.2019
6216 Rain 2 1012 100 12874 0.02 217.405 13:41 10.10.2019
6217 Rain 2 1012 100 12874 0.72 22.202 13:20 10.10.2019
6218 Rain 2 1012 100 12874 0.72 22.202 12:57 10.10.2019
6219 Rain 2 1013 100 11265 0.72 22.202 12:39 10.10.2019
6220 Rain 2 1013 100 11265 0.55 83.442 12:19 10.10.2019
6221 Rain 2 1013 100 9656 0.55 83.442 11:55 10.10.2019
6222 Rain 2 1013 100 9656 0.55 83.442 11:37 10.10.2019
6223 Rain 2 1013 100 11265 0.55 83.442 11:18 10.10.2019
6224 Snow 2 1014 100 12874 0.55 83.442 10:44 10.10.2019
6225 Rain 2 1014 100 16093 0.55 83.442 10:25 10.10.2019
6226 Snow 2 1014 100 16093 0.55 83.442 09:56 10.10.2019
6227 Clouds 2 1014 93 16093 0.55 83.442 09:37 10.10.2019
6228 Rain 2 1014 93 16093 0.85 138.406 09:19 10.10.2019
6229 Rain 2 1014 93 16093 0.85 138.406 08:41 10.10.2019
6230 Rain 2 1014 100 16093 0.85 138.406 08:23 10.10.2019
6231 Rain 2 1014 93 16093 0.85 138.406 07:58 10.10.2019
6232 Rain 2 1014 93 16093 0.85 138.406 07:40 10.10.2019
6233 Rain 3 1014 93 14484 0.85 138.406 07:20 10.10.2019
6234 Rain 3 1014 93 4828 0.85 138.406 06:45 10.10.2019
6235 Rain 3 1014 93 16093 2.1 200 06:22 10.10.2019
6236 Drizzle 3 1014 100 16093 1.5 180 05:24 10.10.2019
6237 Rain 3 1014 93 16093 1.5 190 04:37 10.10.2019
6238 Rain 4 1014 86 12874 2.1 280 03:27 10.10.2019
6239 Clouds 4 1014 80 16093 3.1 320 01:42 10.10.2019
6240 Clouds 4 1014 80 16093 3.1 320 01:42 10.10.2019
6241 Clouds 4 1014 80 16093 3.1 320 01:24 10.10.2019
6242 Clouds 4 1014 75 16093 1.5 360 00:45 10.10.2019
6243 Clouds 4 1013 87 0 0.45 286 00:20 10.10.2019
6244 Rain 3 1013 86 16093 1.5 320 23:39 09.10.2019
6245 Rain 3 1013 86 16093 1.5 320 23:20 09.10.2019
6246 Rain 3 1013 86 16093 1.5 350 22:43 09.10.2019
6247 Rain 3 1013 86 16093 1.5 350 22:24 09.10.2019
6248 Rain 2 1014 100 16093 0.9 218.071 21:59 09.10.2019
6249 Rain 2 1014 100 16093 0.9 218.071 21:59 09.10.2019
6250 Rain 2 1014 100 16093 0.9 218.071 21:40 09.10.2019
6251 Rain 2 1014 100 16093 0.41 82.341 21:20 09.10.2019
6252 Rain 2 1014 100 12874 0.58 74.884 20:56 09.10.2019
6253 Rain 2 1014 100 12874 0.58 74.884 20:56 09.10.2019
6254 Rain 1 1014 100 12874 0.58 74.884 20:37 09.10.2019
6255 Rain 1 1013 93 16093 1.5 40 20:18 09.10.2019
6256 Rain 1 1013 93 16093 1.5 40 20:18 09.10.2019
6257 Rain 1 1014 93 16093 0.58 74.884 19:46 09.10.2019
6258 Rain 1 1014 93 16093 0.58 74.884 19:24 09.10.2019
6259 Clouds 1 1014 93 16093 0.58 74.884 18:58 09.10.2019
6260 Clouds 1 1014 93 16093 0.58 74.884 18:38 09.10.2019
6261 Rain 1 1014 93 16093 0.61 118.039 18:18 09.10.2019
6262 Rain 1 1014 100 14484 0.61 118.039 17:56 09.10.2019
6263 Rain 1 1014 100 14484 0.61 118.039 17:37 09.10.2019
6264 Rain 1 1014 100 14484 0.61 118.039 17:18 09.10.2019
6265 Clouds 1 1015 100 14484 0.61 118.039 16:42 09.10.2019
6266 Rain 1 1015 93 12874 0.61 118.039 16:23 09.10.2019
6267 Rain 1 1014 93 16093 0.61 118.039 15:58 09.10.2019
6268 Rain 1 1014 93 16093 0.61 118.039 15:39 09.10.2019
6269 Clouds 1 1015 100 16093 1.5 70 15:20 09.10.2019
6270 Rain 1 1016 100 16093 1.14 139.616 14:59 09.10.2019
6271 Rain 1 1016 100 16093 1.14 139.616 14:41 09.10.2019
6272 Rain 1 1016 100 16093 1.14 139.616 14:18 09.10.2019
6273 Rain 1 1015 93 16093 1.14 139.616 13:40 09.10.2019
6274 Rain 1 1015 93 16093 1.14 139.616 13:40 09.10.2019
6275 Rain 1 1016 93 12874 1.23 135.329 13:22 09.10.2019
6276 Rain 1 1016 100 14484 1.23 135.329 12:59 09.10.2019
6277 Rain 1 1016 100 14484 1.23 135.329 12:41 09.10.2019
6278 Rain 1 1016 100 12874 1.5 60 12:21 09.10.2019
6279 Rain 1 1016 93 12874 2.6 60 11:55 09.10.2019
6280 Rain 1 1016 93 12874 2.6 60 11:37 09.10.2019
6281 Rain 1 1016 93 11265 2.1 70 11:19 09.10.2019
6282 Rain 1 1016 93 6437 2.6 60 10:44 09.10.2019
6283 Rain 1 1016 93 12874 1.5 70 10:22 09.10.2019
6284 Rain 1 1016 93 12874 1.31 139.251 09:59 09.10.2019
6285 Rain 1 1016 93 12874 1.31 139.251 09:40 09.10.2019
6286 Rain 1 1016 93 11265 0.9 111.991 09:19 09.10.2019
6287 Rain 1 1016 93 14484 1.5 60 08:41 09.10.2019
6288 Snow 1 1016 93 16093 2.1 50 08:23 09.10.2019
6289 Rain 1 1016 93 16093 1.5 70 07:59 09.10.2019
6290 Snow 1 1016 93 16093 1.5 70 07:39 09.10.2019
6291 Snow 1 1016 93 16093 1.5 70 07:20 09.10.2019
6292 Snow 1 1017 93 16093 1.5 100 06:51 09.10.2019
6293 Rain 1 1017 93 16093 2.1 80 05:56 09.10.2019
6294 Rain 1 1017 93 16093 2.1 80 05:37 09.10.2019
6295 Rain 1 1017 100 4828 3.1 60 04:25 09.10.2019
6296 Mist 1 1018 93 12874 2.1 80 02:53 09.10.2019
6297 Snow 1 1018 93 12874 2.1 60 01:43 09.10.2019
6298 Snow 1 1018 93 16093 2.1 60 01:20 09.10.2019
6299 Mist 1 1018 86 11265 1.5 40 00:57 09.10.2019
6300 Mist 1 1019 97 6437 2.6 70 00:38 09.10.2019
6301 Mist 1 1019 93 6437 2.6 70 00:20 09.10.2019
6302 Rain 0 1019 93 4828 2.6 50 23:39 08.10.2019
6303 Rain 0 1019 93 3219 2.6 80 23:19 08.10.2019
6304 Rain 0 1019 93 3219 2.6 80 23:19 08.10.2019
6305 Rain 0 1019 93 3017 2.6 80 22:57 08.10.2019
6306 Rain 0 1019 93 3017 2.6 80 22:38 08.10.2019
6307 Rain 0 1019 93 4023 3.1 70 22:19 08.10.2019
6308 Rain 0 1020 93 6437 2.6 80 21:57 08.10.2019
6309 Snow 0 1020 93 2012 2.6 100 21:39 08.10.2019
6310 Snow -1 1020 94 2012 2.6 100 21:19 08.10.2019
6311 Snow -1 1020 94 2012 2.6 100 21:19 08.10.2019
6312 Snow -1 1019 94 3219 1.37 135.148 20:56 08.10.2019
6313 Snow -1 1019 94 3219 1.28 128.73 20:37 08.10.2019
6314 Snow -1 1020 94 2012 2.1 70 20:19 08.10.2019
6315 Snow -1 1020 94 3219 2.1 70 19:57 08.10.2019
6316 Snow -1 1020 94 3219 2.1 70 19:38 08.10.2019
6317 Snow -1 1020 100 9656 2.1 60 19:20 08.10.2019
6318 Snow -1 1020 94 3219 1.5 60 18:46 08.10.2019
6319 Snow -1 1020 94 16093 2.1 70 18:28 08.10.2019
6320 Snow -1 1020 100 16093 2.1 60 17:59 08.10.2019
6321 Snow -1 1020 100 16093 2.1 60 17:40 08.10.2019
6322 Snow -1 1021 91 16093 1.5 60 17:20 08.10.2019
6323 Snow -1 1021 91 11265 1.5 80 16:57 08.10.2019
6324 Snow -1 1021 91 11265 1.5 80 16:38 08.10.2019
6325 Snow -1 1021 91 14484 1.5 80 16:20 08.10.2019
6326 Snow -1 1022 91 16093 1.5 60 15:40 08.10.2019
6327 Snow -1 1022 93 16093 1.5 60 15:21 08.10.2019
6328 Snow -1 1022 93 16093 1.57 151.494 14:57 08.10.2019
6329 Clouds -1 1022 93 16093 1.57 151.494 14:39 08.10.2019
6330 Snow -1 1022 93 16093 1.57 151.494 14:20 08.10.2019
6331 Clouds -1 1023 93 16093 3.6 70 13:56 08.10.2019
6332 Clouds -1 1023 93 16093 3.6 70 13:37 08.10.2019
6333 Clouds -1 1023 93 16093 3.6 70 13:18 08.10.2019
6334 Clouds -1 1023 92 16093 1.47 139.69 12:42 08.10.2019
6335 Clouds -1 1023 89 16093 1.5 70 12:22 08.10.2019
6336 Clouds -1 1023 89 16093 1.5 50 11:59 08.10.2019
6337 Clouds -1 1023 89 16093 1.5 50 11:40 08.10.2019
6338 Clouds -1 1023 89 16093 1.5 50 11:22 08.10.2019
6339 Clouds -1 1024 89 16093 2.6 70 10:56 08.10.2019
6340 Clouds -1 1024 89 16093 2.6 70 10:36 08.10.2019
6341 Clouds -1 1024 89 16093 2.6 70 10:18 08.10.2019
6342 Clear -1 1024 89 16093 2.1 70 09:41 08.10.2019
6343 Clear -1 1024 91 16093 2.1 70 09:23 08.10.2019
6344 Clouds -1 1025 91 16093 2.6 70 08:59 08.10.2019
6345 Clouds -1 1025 95 16093 2.6 70 08:41 08.10.2019
6346 Clouds -1 1025 95 16093 2.6 70 08:22 08.10.2019
6347 Clouds -1 1025 95 16093 2.6 80 07:42 08.10.2019
6348 Clouds 0 1025 95 16093 2.6 80 07:21 08.10.2019
6349 Clouds 0 1025 95 16093 2.6 80 07:21 08.10.2019
6350 Clouds 0 1026 95 16093 1.15 142.513 06:49 08.10.2019
6351 Clouds 0 1025 74 16093 2.1 120 06:28 08.10.2019
6352 Clouds 0 1026 80 16093 1.5 90 05:46 08.10.2019
6353 Clouds 1 1026 80 16093 1.5 90 05:25 08.10.2019
6354 Rain 1 1026 80 16093 2.1 270 03:57 08.10.2019
6355 Rain 1 1026 80 16093 2.1 270 03:24 08.10.2019
6356 Rain 1 1026 80 16093 3.6 210 02:35 08.10.2019
6357 Rain 1 1026 80 16093 3.1 220 01:45 08.10.2019
6358 Rain 2 1026 74 16093 2.1 270 01:26 08.10.2019
6359 Rain 1 1026 74 16093 4.1 260 00:46 08.10.2019
6360 Rain 1 1026 80 16093 4.1 240 00:20 08.10.2019
6361 Clouds 1 1026 80 16093 4.6 240 23:39 07.10.2019
6362 Clouds 1 1026 80 16093 4.6 240 23:20 07.10.2019
6363 Clouds 1 1026 80 16093 5.1 230 22:56 07.10.2019
6364 Clouds 1 1026 80 16093 5.1 230 22:38 07.10.2019
6365 Clouds 0 1026 80 16093 5.1 230 22:20 07.10.2019
6366 Clouds 0 1025 68 16093 3.6 260 21:56 07.10.2019
6367 Clouds 0 1025 68 16093 4.6 230 21:37 07.10.2019
6368 Clouds 0 1025 68 16093 4.6 230 21:37 07.10.2019
6369 Clouds -1 1025 82 16093 4.6 230 21:19 07.10.2019
6370 Clouds -1 1025 82 16093 4.6 230 21:19 07.10.2019
6371 Clouds -1 1025 82 16093 4.6 230 21:19 07.10.2019
6372 Clouds -1 1025 85 14484 3.1 240 20:57 07.10.2019
6373 Clouds -1 1025 85 14484 3.1 240 20:39 07.10.2019
6374 Clouds -1 1025 85 14484 3.6 240 20:19 07.10.2019
6375 Clouds -1 1024 85 16093 3.6 240 19:57 07.10.2019
6376 Clouds -2 1024 85 16093 3.6 240 19:39 07.10.2019
6377 Clouds -1 1024 85 14484 4.1 240 19:18 07.10.2019
6378 Clouds -2 1024 92 14484 3.6 240 18:56 07.10.2019
6379 Clouds -2 1024 92 16093 3.1 240 18:38 07.10.2019
6380 Clouds -1 1024 92 16093 3.1 240 18:18 07.10.2019
6381 Clouds -1 1023 100 14484 2.1 250 17:42 07.10.2019
6382 Clouds -1 1023 100 16093 1.71 242.551 17:19 07.10.2019
6383 Snow -1 1023 100 14484 1.71 242.551 16:55 07.10.2019
6384 Snow -1 1023 100 14484 1.71 242.551 16:37 07.10.2019
6385 Snow -1 1023 87 16093 2.6 210 16:19 07.10.2019
6386 Clouds -2 1023 92 16093 1.71 242.551 15:43 07.10.2019
6387 Snow -1 1022 92 16093 1.27 234.882 15:25 07.10.2019
6388 Clouds -2 1022 92 14484 1.27 234.882 14:42 07.10.2019
6389 Snow -1 1022 89 16093 2.1 240 14:24 07.10.2019
6390 -273 0 0 0 0 0 14:24 07.10.2019
6391 Clouds -1 1021 89 16093 3.1 240 13:59 07.10.2019
6392 Clouds -1 1021 89 16093 3.1 240 13:41 07.10.2019
6393 Clouds -2 1021 92 16093 2.6 240 13:19 07.10.2019
6394 Clouds -2 1021 92 16093 2.1 230 12:55 07.10.2019
6395 Clouds -2 1021 92 16093 2.1 230 12:37 07.10.2019
6396 Clouds -2 1020 92 14484 2.1 210 12:18 07.10.2019
6397 Clouds -2 1020 96 16093 3.1 0 11:56 07.10.2019
6398 Clouds -2 1020 96 16093 3.1 0 11:37 07.10.2019
6399 Clear -2 1020 92 16093 3.6 260 11:18 07.10.2019
6400 Clouds -2 1019 96 16093 4.6 270 10:41 07.10.2019
6401 Clear -2 1019 92 16093 5.7 260 10:20 07.10.2019
6402 Clouds -1 1018 96 16093 4.6 260 09:42 07.10.2019
6403 Clear -1 1018 91 16093 4.6 260 09:23 07.10.2019
6404 Clouds -1 1016 91 16093 4.6 250 08:56 07.10.2019
6405 Clouds -1 1016 93 16093 4.6 250 08:38 07.10.2019
6406 Clouds -1 1016 93 16093 4.6 250 08:19 07.10.2019
6407 Clouds 0 1015 80 16093 5.1 260 07:41 07.10.2019
6408 Clouds 0 1015 80 16093 5.1 260 07:21 07.10.2019
6409 Clouds 0 1014 86 16093 5.7 270 06:49 07.10.2019
6410 Clouds 0 1014 86 16093 5.7 270 06:27 07.10.2019
6411 Snow 0 1013 86 16093 4.1 270 05:47 07.10.2019
6412 Snow 0 1013 86 16093 4.1 270 05:21 07.10.2019
6413 Rain 0 1013 86 16093 6.7 260 04:25 07.10.2019
6414 Rain 0 1012 86 16093 4.6 250 03:44 07.10.2019
6415 Rain 0 1012 86 16093 4.6 250 03:44 07.10.2019
6416 Rain 0 1012 83 14484 3.1 260 03:20 07.10.2019
6417 Rain 0 1011 83 16093 4.1 240 02:21 07.10.2019
6418 Rain 1 1010 83 16093 5.7 230 01:50 07.10.2019
6419 Rain 1 1010 84 16093 3.6 220 01:21 07.10.2019
6420 Rain 1 1009 84 16093 3.1 230 00:39 07.10.2019
6421 Rain 1 1009 84 16093 3.1 230 00:39 07.10.2019
6422 Rain 1 1009 89 16093 3.1 200 00:20 07.10.2019
6423 Clouds 1 1008 86 16093 2.6 0 23:42 06.10.2019
6424 Snow 0 1008 89 16093 1.5 240 23:22 06.10.2019
6425 Mist 0 1008 89 16093 2.1 260 22:59 06.10.2019
6426 Mist 0 1008 89 16093 2.1 260 22:41 06.10.2019
6427 Mist 0 1007 89 16093 1.32 251.017 22:22 06.10.2019
6428 Snow 0 1007 89 16093 1.32 251.017 21:58 06.10.2019
6429 Snow 0 1007 89 16093 1.32 251.017 21:38 06.10.2019
6430 Snow 0 1007 89 16093 1.32 251.017 21:38 06.10.2019
6431 Snow 0 1006 96 3219 1.13 178.982 21:19 06.10.2019
6432 Snow -1 1006 100 2816 1.13 178.982 20:58 06.10.2019
6433 Snow -1 1006 100 2816 1.13 178.982 20:58 06.10.2019
6434 Snow -1 1006 100 2816 0.9 186.873 20:40 06.10.2019
6435 Snow -1 1006 100 3017 0.9 186.873 20:20 06.10.2019
6436 Snow -1 1005 92 1609 0.9 186.873 19:57 06.10.2019
6437 Snow -1 1006 100 2213 0.9 186.873 19:37 06.10.2019
6438 Snow -1 1006 100 2213 0.9 186.873 19:19 06.10.2019
6439 Snow -1 1006 100 2414 2.1 170 18:57 06.10.2019
6440 Snow -1 1006 100 2414 2.1 170 18:38 06.10.2019
6441 Snow -1 1005 100 3621 2.1 170 18:19 06.10.2019
6442 Snow -1 1005 100 3621 2.1 170 18:19 06.10.2019
6443 Snow -1 1005 92 3219 1.5 150 17:57 06.10.2019
6444 Snow -1 1005 92 3219 1.5 150 17:38 06.10.2019
6445 Snow -1 1005 92 3219 2.1 140 17:19 06.10.2019
6446 Snow -1 1005 92 4023 2.6 130 16:42 06.10.2019
6447 Snow -1 1006 100 4828 1.5 130 16:23 06.10.2019
6448 Snow -1 1006 100 4828 2.6 140 15:56 06.10.2019
6449 Snow -2 1006 100 4828 2.6 140 15:38 06.10.2019
6450 Snow -2 1006 92 1609 2.1 140 15:18 06.10.2019
6451 Snow -2 1006 100 16093 1.5 120 14:42 06.10.2019
6452 -273 0 0 0 0 0 14:24 06.10.2019
6453 Clouds -2 1006 86 16093 1.13 187.829 13:58 06.10.2019
6454 Clouds -2 1006 86 16093 1.13 187.829 13:39 06.10.2019
6455 Clouds -2 1006 92 16093 0.94 179.574 13:20 06.10.2019
6456 Clouds -2 1006 92 16093 0.94 179.574 12:56 06.10.2019
6457 Clouds -2 1006 92 16093 0.94 179.574 12:38 06.10.2019
6458 Clouds -2 1006 92 16093 3.1 200 12:20 06.10.2019
6459 Clouds -2 1007 92 16093 2.6 200 11:56 06.10.2019
6460 Clouds -2 1007 92 16093 2.6 200 11:37 06.10.2019
6461 Clouds -2 1007 92 16093 2.6 200 11:37 06.10.2019
6462 Clouds -2 1007 92 16093 2.6 200 11:18 06.10.2019
6463 Clouds -2 1006 86 16093 2.1 200 10:42 06.10.2019
6464 Clouds -2 1006 100 16093 2.1 160 10:24 06.10.2019
6465 Clouds -2 1006 100 16093 1.5 190 09:56 06.10.2019
6466 Clouds -2 1006 100 16093 1.5 190 09:38 06.10.2019
6467 Clouds -1 1006 100 16093 2.1 140 09:18 06.10.2019
6468 Clouds -1 1006 96 16093 3.1 200 08:40 06.10.2019
6469 Clouds -1 1006 96 16093 3.1 200 08:20 06.10.2019
6470 Clouds -1 1006 96 16093 5.1 220 07:44 06.10.2019
6471 Clouds -1 1006 96 16093 5.1 220 07:19 06.10.2019
6472 Snow -1 1006 94 12874 4.6 190 06:20 06.10.2019
6473 Snow -1 1006 94 11265 2.75 201.488 05:33 06.10.2019
6474 Snow 0 1006 86 1207 3.1 200 03:41 06.10.2019
6475 Snow 1 1007 80 14484 4.1 200 02:42 06.10.2019
6476 Snow 1 1007 96 16093 5.1 210 02:20 06.10.2019
6477 Snow 0 1007 74 12874 4.6 210 01:40 06.10.2019
6478 Rain 0 1007 86 14484 4.1 200 01:21 06.10.2019
6479 Rain 0 1007 86 4828 4.6 210 00:46 06.10.2019
6480 Snow 0 1007 86 4828 4.1 240 00:25 06.10.2019
6481 Snow 0 1007 86 12874 5.1 230 23:44 05.10.2019
6482 Snow 0 1007 80 3219 5.7 250 23:22 05.10.2019
6483 Snow 0 1007 74 16093 3.1 160 22:58 05.10.2019
6484 Snow 0 1007 74 16093 3.1 160 22:40 05.10.2019
6485 Snow 0 1007 74 16093 3.1 160 22:40 05.10.2019
6486 Clouds 0 1007 74 16093 3.1 140 22:20 05.10.2019
6487 Clouds 0 1008 94 12874 3.68 215.921 21:56 05.10.2019
6488 Clouds 0 1008 94 12874 3.68 215.921 21:38 05.10.2019
6489 -273 0 0 0 0 0 21:18 05.10.2019
6490 Clouds -1 1008 86 16093 3.1 160 20:55 05.10.2019
6491 Clouds -1 1008 86 16093 3.1 160 20:37 05.10.2019
6492 Clouds -1 1008 86 16093 3.1 160 20:18 05.10.2019
6493 Clouds -2 1008 86 16093 3.6 120 19:37 05.10.2019
6494 Clouds -2 1008 86 16093 3.6 120 19:19 05.10.2019
6495 Clouds -2 1008 80 16093 2.1 0 18:55 05.10.2019
6496 Clouds -2 1008 80 16093 2.1 0 18:37 05.10.2019
6497 Clouds -2 1008 86 16093 3.6 200 18:19 05.10.2019
6498 Clear -2 1009 86 16093 2.01 197.443 17:43 05.10.2019
6499 Clouds -1 1008 97 16093 2.6 220 17:24 05.10.2019
6500 Clouds -1 1009 97 16093 4.1 240 16:57 05.10.2019
6501 Clouds -1 1009 97 16093 4.1 240 16:39 05.10.2019
6502 Clouds -1 1009 97 16093 4.1 240 16:20 05.10.2019
6503 Clouds -1 1009 97 16093 3.1 220 15:57 05.10.2019
6504 Clouds -1 1009 97 16093 3.1 220 15:38 05.10.2019
6505 Clouds -1 1009 89 16093 3.1 220 15:20 05.10.2019
6506 Clouds 0 1008 86 16093 5.1 210 14:44 05.10.2019
6507 Clouds 0 1008 86 16093 5.1 210 14:25 05.10.2019
6508 Clouds 0 1008 86 16093 5.7 240 13:59 05.10.2019
6509 Clouds 0 1008 86 16093 5.7 240 13:40 05.10.2019
6510 Clouds 0 1008 86 16093 5.7 240 13:20 05.10.2019
6511 Clouds 0 1007 86 16093 6.2 250 12:44 05.10.2019
6512 Clouds 0 1007 80 16093 5.1 250 12:19 05.10.2019
6513 Rain 1 1006 93 16093 5.1 240 11:44 05.10.2019
6514 Rain 1 1005 93 16093 3.6 250 11:23 05.10.2019
6515 Rain 1 1006 97 16093 3.6 240 10:59 05.10.2019
6516 Rain 1 1006 97 16093 3.6 240 10:40 05.10.2019
6517 Rain 1 1005 93 16093 2.1 220 10:21 05.10.2019
6518 Clouds 1 1005 97 16093 3.25 218.723 09:56 05.10.2019
6519 Clouds 1 1005 97 16093 3.25 218.723 09:37 05.10.2019
6520 Clouds 1 1005 93 11265 4.1 240 09:19 05.10.2019
6521 Clouds 1 1005 93 11265 5.7 230 08:39 05.10.2019
6522 Clouds 1 1005 93 11265 5.7 230 08:19 05.10.2019
6523 Clouds 2 1004 93 11265 6.7 220 07:52 05.10.2019
6524 Clouds 2 1004 86 16093 3.6 210 07:31 05.10.2019
6525 Clouds 2 1003 86 16093 5.1 240 06:57 05.10.2019
6526 Rain 2 1003 86 16093 5.1 240 06:24 05.10.2019
6527 Rain 2 1003 93 16093 3.1 0 05:39 05.10.2019
6528 Rain 4 1001 93 14484 2.1 180 03:39 05.10.2019
6529 Rain 4 1001 93 11265 1.89 174.712 03:20 05.10.2019
6530 Rain 3 1001 93 9656 2.15 165.279 01:29 05.10.2019
6531 Rain 3 1002 93 9656 2.6 190 00:51 05.10.2019
6532 Rain 3 1002 93 6437 2.6 120 00:28 05.10.2019
6533 Rain 3 1002 93 8047 2.23 131.98 23:59 04.10.2019
6534 Rain 3 1002 93 8047 2.23 131.98 23:41 04.10.2019
6535 Rain 3 1002 93 8047 2.6 70 23:23 04.10.2019
6536 Rain 3 1002 93 16093 2.23 131.98 22:57 04.10.2019
6537 Rain 3 1002 93 16093 2.23 131.98 22:38 04.10.2019
6538 Rain 3 1002 93 16093 2.23 131.98 22:38 04.10.2019
6539 Rain 3 1003 93 8047 2.23 131.98 22:19 04.10.2019
6540 Rain 2 1003 100 12874 2.1 120 21:55 04.10.2019
6541 Rain 2 1003 100 12874 2.1 120 21:36 04.10.2019
6542 Rain 2 1003 100 9656 2.6 70 21:18 04.10.2019
6543 Rain 2 1004 93 12874 1.93 123.55 20:42 04.10.2019
6544 Rain 1 1004 100 9656 2.6 100 20:23 04.10.2019
6545 Rain 1 1004 93 16093 2.6 100 19:58 04.10.2019
6546 Rain 1 1005 100 16093 3.1 80 19:39 04.10.2019
6547 Rain 1 1005 100 16093 3.1 80 19:21 04.10.2019
6548 Mist 1 1005 100 9656 2.1 80 18:56 04.10.2019
6549 Mist 1 1005 100 9656 2.1 80 18:37 04.10.2019
6550 Clouds 1 1006 100 16093 1.43 123.211 18:18 04.10.2019
6551 Clear 1 1006 100 16093 3.6 70 17:41 04.10.2019
6552 Clear 1 1006 100 16093 3.6 70 17:22 04.10.2019
6553 Clouds 1 1008 100 16093 3.6 60 16:58 04.10.2019
6554 Clouds 1 1008 100 16093 3.6 60 16:40 04.10.2019
6555 Clouds 1 1008 100 16093 3.6 60 16:40 04.10.2019
6556 Clouds 1 1008 100 16093 3.6 60 16:19 04.10.2019
6557 Clouds 1 1008 100 16093 3.6 60 16:19 04.10.2019
6558 Clear 1 1009 100 16093 1.5 80 15:57 04.10.2019
6559 Clear 1 1009 100 16093 1.5 80 15:39 04.10.2019
6560 Clear 1 1009 100 16093 1.5 80 15:19 04.10.2019
6561 Fog 1 1009 100 16093 3.1 60 14:56 04.10.2019
6562 Fog 0 1009 100 16093 3.1 60 14:38 04.10.2019
6563 Fog 0 1009 100 16093 3.1 60 14:20 04.10.2019
6564 Clear 1 1011 100 16093 2.6 70 13:44 04.10.2019
6565 Clear 1 1011 100 16093 2.6 70 13:22 04.10.2019
6566 Clear 1 1012 100 16093 2.1 70 12:55 04.10.2019
6567 Clear 1 1012 100 16093 2.1 70 12:55 04.10.2019
6568 Clear 1 1012 100 16093 2.1 70 12:36 04.10.2019
6569 Snow 1 1012 100 16093 2.1 70 12:18 04.10.2019
6570 Snow 1 1013 100 16093 2.6 80 11:42 04.10.2019
6571 Clear 1 1013 100 16093 2.6 80 11:22 04.10.2019
6572 Mist 1 1013 100 16093 2.6 70 10:55 04.10.2019
6573 Mist 2 1013 86 16093 1.5 110 10:37 04.10.2019
6574 Clouds 2 1013 100 16093 2.6 80 10:18 04.10.2019
6575 Clouds 2 1014 100 16093 2.1 70 09:41 04.10.2019
6576 Clouds 2 1014 100 16093 2.1 70 09:23 04.10.2019
6577 Clouds 3 1015 100 16093 2.1 70 08:45 04.10.2019
6578 Clouds 3 1015 100 16093 2.1 70 08:26 04.10.2019
6579 Clouds 3 1015 93 16093 2.6 60 07:47 04.10.2019
6580 Clouds 3 1015 93 16093 1.5 60 07:26 04.10.2019
6581 Clouds 3 1015 93 12874 2.1 80 06:58 04.10.2019
6582 Clouds 3 1015 93 12874 2.1 80 06:39 04.10.2019
6583 Clouds 3 1015 93 12874 2.1 80 06:20 04.10.2019
6584 Clouds 3 1015 93 12874 2.1 80 06:20 04.10.2019
6585 Mist 3 1016 100 9656 1.5 50 05:20 04.10.2019
6586 Mist 4 1016 100 2012 1.5 60 04:38 04.10.2019
6587 Mist 3 1016 100 3017 1.23 163.403 03:18 04.10.2019
6588 Rain 3 1016 100 9656 1.5 50 02:43 04.10.2019
6589 Rain 3 1016 100 1810 1.5 80 01:53 04.10.2019
6590 Rain 3 1016 100 1609 2.1 60 01:26 04.10.2019
6591 Rain 2 1016 100 2414 2.1 70 00:33 04.10.2019
6592 Rain 2 1015 93 2414 1.5 130 23:40 03.10.2019
6593 Rain 2 1015 93 2414 1.5 130 23:21 03.10.2019
6594 Rain 1 1016 100 3219 2.6 60 22:58 03.10.2019
6595 Rain 1 1016 100 3219 2.6 60 22:58 03.10.2019
6596 Rain 1 1016 100 3219 2.6 60 22:39 03.10.2019
6597 Rain 1 1016 100 3219 2.6 60 22:39 03.10.2019
6598 Rain 1 1016 100 3219 2.6 60 22:39 03.10.2019
6599 Rain 1 1015 93 2414 1.4 148.679 22:21 03.10.2019
6600 Rain 1 1015 93 11265 2.6 0 21:58 03.10.2019
6601 Rain 1 1015 93 11265 2.6 0 21:40 03.10.2019
6602 Rain 1 1016 100 6437 2.6 50 21:20 03.10.2019
6603 Rain 1 1016 100 6437 1.61 152.323 20:58 03.10.2019
6604 Rain 1 1016 100 6437 1.56 157.357 20:39 03.10.2019
6605 Rain 0 1016 100 6437 1.56 157.357 20:20 03.10.2019
6606 Rain 0 1016 100 4828 1.56 157.357 19:56 03.10.2019
6607 Rain 0 1016 100 4828 1.56 157.357 19:56 03.10.2019
6608 Rain 0 1016 100 4828 1.56 157.357 19:38 03.10.2019
6609 Rain 0 1016 100 4828 1.56 157.357 19:19 03.10.2019
6610 Rain 0 1016 100 4828 1.56 157.357 18:56 03.10.2019
6611 Rain 0 1016 100 4828 1.56 157.357 18:37 03.10.2019
6612 Rain 0 1015 86 3219 2.6 160 18:18 03.10.2019
6613 Rain 1 1015 98 12874 1.18 127.828 17:42 03.10.2019
6614 Rain 0 1015 98 12874 1.18 127.828 17:22 03.10.2019
6615 Clouds 0 1015 98 16093 1.18 127.828 16:57 03.10.2019
6616 Clouds 0 1015 98 16093 1.18 127.828 16:39 03.10.2019
6617 Clouds 1 1015 100 16093 1.5 100 16:20 03.10.2019
6618 Clouds 1 1016 100 14484 1.18 127.828 15:45 03.10.2019
6619 Clouds 1 1015 100 16093 1.5 60 15:24 03.10.2019
6620 Clouds 1 1015 98 16093 1.5 100 14:59 03.10.2019
6621 Clouds 1 1015 93 14484 1.5 50 14:37 03.10.2019
6622 Clouds 1 1015 93 14484 1.5 50 14:19 03.10.2019
6623 Mist 1 1015 98 16093 2.6 160 13:44 03.10.2019
6624 Mist 1 1015 100 11265 1.5 70 13:26 03.10.2019
6625 Mist 1 1015 93 6437 1.38 152.656 12:59 03.10.2019
6626 Mist 1 1015 93 6437 1.38 152.656 12:40 03.10.2019
6627 Mist 1 1015 93 6437 1.38 152.656 12:40 03.10.2019
6628 Mist 1 1015 100 8047 1.5 90 12:20 03.10.2019
6629 Mist 1 1015 100 1408 1.5 100 11:58 03.10.2019
6630 Mist 1 1015 100 1408 1.5 100 11:58 03.10.2019
6631 Mist 1 1015 100 1408 1.5 100 11:40 03.10.2019
6632 Clouds 1 1015 100 12874 1.49 147.133 11:21 03.10.2019
6633 Clouds 2 1015 100 14484 1.5 60 10:57 03.10.2019
6634 Clouds 2 1015 100 14484 1.5 60 10:38 03.10.2019
6635 Clouds 2 1014 93 16093 1.5 130 10:18 03.10.2019
6636 Clouds 2 1014 100 14484 1.49 147.133 09:56 03.10.2019
6637 Clouds 2 1014 100 14484 1.49 147.133 09:37 03.10.2019
6638 Clouds 2 1014 100 16093 1.31 152.4 09:19 03.10.2019
6639 Clouds 2 1014 100 14484 1.16 146.365 08:42 03.10.2019
6640 Rain 2 1014 100 12874 1.16 146.365 08:24 03.10.2019
6641 Clouds 2 1014 100 16093 1.16 146.365 07:42 03.10.2019
6642 Clouds 2 1014 100 16093 1.16 146.365 07:20 03.10.2019
6643 Rain 3 1013 93 16093 1.5 190 06:53 03.10.2019
6644 Rain 3 1014 100 12874 1.5 170 06:27 03.10.2019
6645 Rain 2 1014 100 14484 2.1 200 05:49 03.10.2019
6646 Rain 2 1013 100 16093 2.6 210 05:27 03.10.2019
6647 Rain 2 1013 100 11265 4.1 220 04:45 03.10.2019
6648 Rain 3 1013 100 11265 4.6 230 03:54 03.10.2019
6649 Rain 2 1012 93 16093 2.1 230 03:19 03.10.2019
6650 Rain 3 1012 93 12874 5.1 240 02:22 03.10.2019
6651 Rain 2 1012 93 11265 2.1 270 01:40 03.10.2019
6652 Rain 2 1011 93 12874 3.6 250 00:53 03.10.2019
6653 Rain 2 1011 100 12874 3.6 250 00:31 03.10.2019
6654 Rain 2 1011 100 12874 4.1 250 23:55 02.10.2019
6655 Rain 1 1011 100 12874 4.1 250 23:36 02.10.2019
6656 Rain 1 1011 100 12874 4.1 250 23:18 02.10.2019
6657 Rain 2 1010 100 9656 4.1 260 22:41 02.10.2019
6658 Rain 2 1010 100 9656 3.6 260 22:20 02.10.2019
6659 Rain 2 1009 96 4828 3.1 270 21:55 02.10.2019
6660 Rain 2 1009 96 4828 3.1 270 21:55 02.10.2019
6661 Rain 1 1009 96 4828 3.1 270 21:37 02.10.2019
6662 Rain 2 1009 86 4828 2.6 280 21:18 02.10.2019
6663 Rain 2 1009 86 6437 1.5 250 20:55 02.10.2019
6664 Rain 2 1009 86 6437 1.5 250 20:55 02.10.2019
6665 Rain 2 1009 86 6437 1.5 250 20:54 02.10.2019
6666 Rain 2 1009 86 6437 1.5 250 20:36 02.10.2019
6667 Rain 2 1009 86 6437 1.5 250 20:36 02.10.2019
6668 Rain 2 1009 86 6437 1.5 250 20:18 02.10.2019
6669 Rain 2 1008 93 14484 1.05 297.586 19:43 02.10.2019
6670 Rain 2 1008 93 14484 1.05 297.586 19:21 02.10.2019
6671 Rain 2 1008 86 14484 1.05 297.586 18:57 02.10.2019
6672 Rain 2 1008 86 14484 1.05 297.586 18:38 02.10.2019
6673 Rain 2 1008 93 14484 1.08 315.827 18:20 02.10.2019
6674 Rain 2 1008 86 11265 1.5 260 17:56 02.10.2019
66